<?xml version="1.0" encoding="UTF-8" standalone="no" ?>
<gpx xmlns="http://www.topografix.com/GPX/1/1" xmlns:xsi="http://www.w3.org/2001/XMLSchema-instance" xsi:schemaLocation="http://www.topografix.com/GPX/1/1 http://www.topografix.com/GPX/1/1/gpx.xsd" version="1.1" creator="VisuGPX - https://www.visugpx.com">
  <metadata>
    <name>GR 54 Étape 01</name>
    <desc><![CDATA[De Bourg-d-Oisans à Mizoën
Trace AlpineQuest 03/09/2022 08:31:58]]></desc>
  </metadata>
  <trk>
    <name><![CDATA[De Bourg-d-Oisans à Mizoën]]></name>
    <desc><![CDATA[Trace AlpineQuest 03/09/2022 08:31:58]]></desc>
    <extensions>
      <line xmlns="http://www.topografix.com/GPX/gpx_style/0/2">
        <color>0000FF</color>
        <width>4</width>
      </line>
    </extensions>
    <trkseg>
      <trkpt lat="45.05505" lon="6.03122">
        <ele>725</ele>
        <time>2022-09-03T06:31:58Z</time>
      </trkpt>
      <trkpt lat="45.05489" lon="6.03147">
        <ele>723.1</ele>
        <time>2022-09-03T06:32:04Z</time>
      </trkpt>
      <trkpt lat="45.05484" lon="6.0314">
        <ele>723.4</ele>
        <time>2022-09-03T06:32:16Z</time>
      </trkpt>
      <trkpt lat="45.05486" lon="6.03131">
        <ele>724.1</ele>
        <time>2022-09-03T06:32:27Z</time>
      </trkpt>
      <trkpt lat="45.05492" lon="6.03136">
        <ele>723.9</ele>
        <time>2022-09-03T06:32:42Z</time>
      </trkpt>
      <trkpt lat="45.05498" lon="6.03143">
        <ele>723.6</ele>
        <time>2022-09-03T06:32:53Z</time>
      </trkpt>
      <trkpt lat="45.05493" lon="6.03154">
        <ele>722.7</ele>
        <time>2022-09-03T06:33:58Z</time>
      </trkpt>
      <trkpt lat="45.05488" lon="6.03163">
        <ele>722</ele>
        <time>2022-09-03T06:34:06Z</time>
      </trkpt>
      <trkpt lat="45.05483" lon="6.03168">
        <ele>721.5</ele>
        <time>2022-09-03T06:34:18Z</time>
      </trkpt>
      <trkpt lat="45.05481" lon="6.03178">
        <ele>721.1</ele>
        <time>2022-09-03T06:34:26Z</time>
      </trkpt>
      <trkpt lat="45.05478" lon="6.03186">
        <ele>720.8</ele>
        <time>2022-09-03T06:34:32Z</time>
      </trkpt>
      <trkpt lat="45.0548" lon="6.03196">
        <ele>720.4</ele>
        <time>2022-09-03T06:34:40Z</time>
      </trkpt>
      <trkpt lat="45.05481" lon="6.03207">
        <ele>720</ele>
        <time>2022-09-03T06:34:45Z</time>
      </trkpt>
      <trkpt lat="45.05487" lon="6.03214">
        <ele>719.8</ele>
        <time>2022-09-03T06:34:51Z</time>
      </trkpt>
      <trkpt lat="45.05493" lon="6.03218">
        <ele>719.6</ele>
        <time>2022-09-03T06:34:57Z</time>
      </trkpt>
      <trkpt lat="45.05497" lon="6.03227">
        <ele>719.1</ele>
        <time>2022-09-03T06:35:02Z</time>
      </trkpt>
      <trkpt lat="45.05498" lon="6.03238">
        <ele>718.6</ele>
        <time>2022-09-03T06:35:07Z</time>
      </trkpt>
      <trkpt lat="45.05501" lon="6.03256">
        <ele>718</ele>
        <time>2022-09-03T06:35:12Z</time>
      </trkpt>
      <trkpt lat="45.05509" lon="6.03262">
        <ele>718.2</ele>
        <time>2022-09-03T06:35:17Z</time>
      </trkpt>
      <trkpt lat="45.05514" lon="6.03267">
        <ele>718.4</ele>
        <time>2022-09-03T06:35:22Z</time>
      </trkpt>
      <trkpt lat="45.0552" lon="6.03272">
        <ele>718.5</ele>
        <time>2022-09-03T06:35:27Z</time>
      </trkpt>
      <trkpt lat="45.05528" lon="6.03274">
        <ele>718.8</ele>
        <time>2022-09-03T06:35:33Z</time>
      </trkpt>
      <trkpt lat="45.05534" lon="6.0328">
        <ele>719</ele>
        <time>2022-09-03T06:35:39Z</time>
      </trkpt>
      <trkpt lat="45.05539" lon="6.03291">
        <ele>719.2</ele>
        <time>2022-09-03T06:35:44Z</time>
      </trkpt>
      <trkpt lat="45.05541" lon="6.03304">
        <ele>719.3</ele>
        <time>2022-09-03T06:35:49Z</time>
      </trkpt>
      <trkpt lat="45.05546" lon="6.03311">
        <ele>719.5</ele>
        <time>2022-09-03T06:35:54Z</time>
      </trkpt>
      <trkpt lat="45.05551" lon="6.03319">
        <ele>719.7</ele>
        <time>2022-09-03T06:35:59Z</time>
      </trkpt>
      <trkpt lat="45.05556" lon="6.03327">
        <ele>720</ele>
        <time>2022-09-03T06:36:04Z</time>
      </trkpt>
      <trkpt lat="45.05559" lon="6.03336">
        <ele>720.1</ele>
        <time>2022-09-03T06:36:09Z</time>
      </trkpt>
      <trkpt lat="45.05567" lon="6.03342">
        <ele>720.5</ele>
        <time>2022-09-03T06:36:14Z</time>
      </trkpt>
      <trkpt lat="45.0557" lon="6.0335">
        <ele>720.7</ele>
        <time>2022-09-03T06:36:19Z</time>
      </trkpt>
      <trkpt lat="45.05572" lon="6.0336">
        <ele>720.9</ele>
        <time>2022-09-03T06:36:27Z</time>
      </trkpt>
      <trkpt lat="45.0558" lon="6.03366">
        <ele>721.3</ele>
        <time>2022-09-03T06:36:32Z</time>
      </trkpt>
      <trkpt lat="45.05588" lon="6.03372">
        <ele>721.2</ele>
        <time>2022-09-03T06:36:41Z</time>
      </trkpt>
      <trkpt lat="45.05595" lon="6.0338">
        <ele>721</ele>
        <time>2022-09-03T06:36:46Z</time>
      </trkpt>
      <trkpt lat="45.056" lon="6.03388">
        <ele>720.8</ele>
        <time>2022-09-03T06:36:53Z</time>
      </trkpt>
      <trkpt lat="45.05607" lon="6.03392">
        <ele>720.5</ele>
        <time>2022-09-03T06:36:58Z</time>
      </trkpt>
      <trkpt lat="45.05614" lon="6.034">
        <ele>720.1</ele>
        <time>2022-09-03T06:37:03Z</time>
      </trkpt>
      <trkpt lat="45.0562" lon="6.03405">
        <ele>719.8</ele>
        <time>2022-09-03T06:37:09Z</time>
      </trkpt>
      <trkpt lat="45.05625" lon="6.0341">
        <ele>719.5</ele>
        <time>2022-09-03T06:37:14Z</time>
      </trkpt>
      <trkpt lat="45.05631" lon="6.03417">
        <ele>719.1</ele>
        <time>2022-09-03T06:37:19Z</time>
      </trkpt>
      <trkpt lat="45.05637" lon="6.03423">
        <ele>718.8</ele>
        <time>2022-09-03T06:37:24Z</time>
      </trkpt>
      <trkpt lat="45.05643" lon="6.03428">
        <ele>718.5</ele>
        <time>2022-09-03T06:37:29Z</time>
      </trkpt>
      <trkpt lat="45.05649" lon="6.03433">
        <ele>718.2</ele>
        <time>2022-09-03T06:37:34Z</time>
      </trkpt>
      <trkpt lat="45.05655" lon="6.03441">
        <ele>718.1</ele>
        <time>2022-09-03T06:37:39Z</time>
      </trkpt>
      <trkpt lat="45.05662" lon="6.03448">
        <ele>717.9</ele>
        <time>2022-09-03T06:37:44Z</time>
      </trkpt>
      <trkpt lat="45.0567" lon="6.03452">
        <ele>717.9</ele>
        <time>2022-09-03T06:37:49Z</time>
      </trkpt>
      <trkpt lat="45.05675" lon="6.0346">
        <ele>718.2</ele>
        <time>2022-09-03T06:37:54Z</time>
      </trkpt>
      <trkpt lat="45.05683" lon="6.03467">
        <ele>718.5</ele>
        <time>2022-09-03T06:37:59Z</time>
      </trkpt>
      <trkpt lat="45.05689" lon="6.03473">
        <ele>718.8</ele>
        <time>2022-09-03T06:38:04Z</time>
      </trkpt>
      <trkpt lat="45.05698" lon="6.03479">
        <ele>719.2</ele>
        <time>2022-09-03T06:38:09Z</time>
      </trkpt>
      <trkpt lat="45.05706" lon="6.03482">
        <ele>719.4</ele>
        <time>2022-09-03T06:38:14Z</time>
      </trkpt>
      <trkpt lat="45.0571" lon="6.03489">
        <ele>719.7</ele>
        <time>2022-09-03T06:38:20Z</time>
      </trkpt>
      <trkpt lat="45.05714" lon="6.03498">
        <ele>720.1</ele>
        <time>2022-09-03T06:38:25Z</time>
      </trkpt>
      <trkpt lat="45.0572" lon="6.03504">
        <ele>720.3</ele>
        <time>2022-09-03T06:38:31Z</time>
      </trkpt>
      <trkpt lat="45.05724" lon="6.03513">
        <ele>720.3</ele>
        <time>2022-09-03T06:38:37Z</time>
      </trkpt>
      <trkpt lat="45.05729" lon="6.03521">
        <ele>720.4</ele>
        <time>2022-09-03T06:38:42Z</time>
      </trkpt>
      <trkpt lat="45.05732" lon="6.03529">
        <ele>720.5</ele>
        <time>2022-09-03T06:38:47Z</time>
      </trkpt>
      <trkpt lat="45.0574" lon="6.03534">
        <ele>720.7</ele>
        <time>2022-09-03T06:38:52Z</time>
      </trkpt>
      <trkpt lat="45.05747" lon="6.03539">
        <ele>720.9</ele>
        <time>2022-09-03T06:38:57Z</time>
      </trkpt>
      <trkpt lat="45.05751" lon="6.03546">
        <ele>721</ele>
        <time>2022-09-03T06:39:02Z</time>
      </trkpt>
      <trkpt lat="45.05755" lon="6.03554">
        <ele>720.9</ele>
        <time>2022-09-03T06:39:07Z</time>
      </trkpt>
      <trkpt lat="45.0576" lon="6.03562">
        <ele>720.9</ele>
        <time>2022-09-03T06:39:13Z</time>
      </trkpt>
      <trkpt lat="45.05766" lon="6.0357">
        <ele>720.9</ele>
        <time>2022-09-03T06:39:18Z</time>
      </trkpt>
      <trkpt lat="45.05771" lon="6.03576">
        <ele>720.9</ele>
        <time>2022-09-03T06:39:23Z</time>
      </trkpt>
      <trkpt lat="45.05777" lon="6.03581">
        <ele>721</ele>
        <time>2022-09-03T06:39:28Z</time>
      </trkpt>
      <trkpt lat="45.05785" lon="6.03589">
        <ele>721.1</ele>
        <time>2022-09-03T06:39:33Z</time>
      </trkpt>
      <trkpt lat="45.05791" lon="6.03596">
        <ele>721.3</ele>
        <time>2022-09-03T06:39:38Z</time>
      </trkpt>
      <trkpt lat="45.05798" lon="6.03602">
        <ele>721.4</ele>
        <time>2022-09-03T06:39:44Z</time>
      </trkpt>
      <trkpt lat="45.05804" lon="6.03608">
        <ele>721.6</ele>
        <time>2022-09-03T06:39:50Z</time>
      </trkpt>
      <trkpt lat="45.05812" lon="6.03615">
        <ele>721.8</ele>
        <time>2022-09-03T06:39:55Z</time>
      </trkpt>
      <trkpt lat="45.05819" lon="6.03623">
        <ele>722</ele>
        <time>2022-09-03T06:40:00Z</time>
      </trkpt>
      <trkpt lat="45.05825" lon="6.03629">
        <ele>722.1</ele>
        <time>2022-09-03T06:40:05Z</time>
      </trkpt>
      <trkpt lat="45.0583" lon="6.03638">
        <ele>722.3</ele>
        <time>2022-09-03T06:40:10Z</time>
      </trkpt>
      <trkpt lat="45.05835" lon="6.03643">
        <ele>722.4</ele>
        <time>2022-09-03T06:40:33Z</time>
      </trkpt>
      <trkpt lat="45.0584" lon="6.03651">
        <ele>722.5</ele>
        <time>2022-09-03T06:40:40Z</time>
      </trkpt>
      <trkpt lat="45.05844" lon="6.03659">
        <ele>722.6</ele>
        <time>2022-09-03T06:40:46Z</time>
      </trkpt>
      <trkpt lat="45.05848" lon="6.03667">
        <ele>722.7</ele>
        <time>2022-09-03T06:40:59Z</time>
      </trkpt>
      <trkpt lat="45.05852" lon="6.03675">
        <ele>722.9</ele>
        <time>2022-09-03T06:41:06Z</time>
      </trkpt>
      <trkpt lat="45.05857" lon="6.03683">
        <ele>723.1</ele>
        <time>2022-09-03T06:41:11Z</time>
      </trkpt>
      <trkpt lat="45.05861" lon="6.03692">
        <ele>723.4</ele>
        <time>2022-09-03T06:41:16Z</time>
      </trkpt>
      <trkpt lat="45.05866" lon="6.03699">
        <ele>723.5</ele>
        <time>2022-09-03T06:41:24Z</time>
      </trkpt>
      <trkpt lat="45.0587" lon="6.03707">
        <ele>723.6</ele>
        <time>2022-09-03T06:41:29Z</time>
      </trkpt>
      <trkpt lat="45.05877" lon="6.03709">
        <ele>723.5</ele>
        <time>2022-09-03T06:41:48Z</time>
      </trkpt>
      <trkpt lat="45.05879" lon="6.03718">
        <ele>723.7</ele>
        <time>2022-09-03T06:41:59Z</time>
      </trkpt>
      <trkpt lat="45.05882" lon="6.03727">
        <ele>723.9</ele>
        <time>2022-09-03T06:42:06Z</time>
      </trkpt>
      <trkpt lat="45.05886" lon="6.03737">
        <ele>724</ele>
        <time>2022-09-03T06:42:13Z</time>
      </trkpt>
      <trkpt lat="45.05889" lon="6.03745">
        <ele>724.2</ele>
        <time>2022-09-03T06:42:19Z</time>
      </trkpt>
      <trkpt lat="45.05892" lon="6.03754">
        <ele>724.1</ele>
        <time>2022-09-03T06:42:28Z</time>
      </trkpt>
      <trkpt lat="45.05897" lon="6.03763">
        <ele>723.8</ele>
        <time>2022-09-03T06:42:33Z</time>
      </trkpt>
      <trkpt lat="45.05901" lon="6.03774">
        <ele>723.5</ele>
        <time>2022-09-03T06:42:38Z</time>
      </trkpt>
      <trkpt lat="45.05903" lon="6.03784">
        <ele>723.2</ele>
        <time>2022-09-03T06:42:43Z</time>
      </trkpt>
      <trkpt lat="45.05904" lon="6.03795">
        <ele>723.1</ele>
        <time>2022-09-03T06:42:50Z</time>
      </trkpt>
      <trkpt lat="45.05908" lon="6.03802">
        <ele>722.8</ele>
        <time>2022-09-03T06:42:55Z</time>
      </trkpt>
      <trkpt lat="45.05914" lon="6.03808">
        <ele>722.4</ele>
        <time>2022-09-03T06:43:00Z</time>
      </trkpt>
      <trkpt lat="45.05923" lon="6.03809">
        <ele>722.3</ele>
        <time>2022-09-03T06:43:05Z</time>
      </trkpt>
      <trkpt lat="45.05933" lon="6.03805">
        <ele>722.3</ele>
        <time>2022-09-03T06:43:10Z</time>
      </trkpt>
      <trkpt lat="45.05939" lon="6.03805">
        <ele>722.3</ele>
        <time>2022-09-03T06:43:15Z</time>
      </trkpt>
      <trkpt lat="45.05943" lon="6.03795">
        <ele>722.4</ele>
        <time>2022-09-03T06:43:20Z</time>
      </trkpt>
      <trkpt lat="45.05949" lon="6.03791">
        <ele>722.5</ele>
        <time>2022-09-03T06:43:29Z</time>
      </trkpt>
      <trkpt lat="45.05957" lon="6.03791">
        <ele>722.5</ele>
        <time>2022-09-03T06:43:35Z</time>
      </trkpt>
      <trkpt lat="45.05963" lon="6.03791">
        <ele>722.5</ele>
        <time>2022-09-03T06:43:40Z</time>
      </trkpt>
      <trkpt lat="45.05972" lon="6.0379">
        <ele>722.5</ele>
        <time>2022-09-03T06:43:45Z</time>
      </trkpt>
      <trkpt lat="45.05979" lon="6.03787">
        <ele>722.6</ele>
        <time>2022-09-03T06:43:55Z</time>
      </trkpt>
      <trkpt lat="45.05985" lon="6.03786">
        <ele>722.7</ele>
        <time>2022-09-03T06:44:00Z</time>
      </trkpt>
      <trkpt lat="45.05996" lon="6.03785">
        <ele>722.7</ele>
        <time>2022-09-03T06:44:05Z</time>
      </trkpt>
      <trkpt lat="45.06007" lon="6.03783">
        <ele>722.7</ele>
        <time>2022-09-03T06:44:10Z</time>
      </trkpt>
      <trkpt lat="45.06012" lon="6.03774">
        <ele>722.9</ele>
        <time>2022-09-03T06:44:15Z</time>
      </trkpt>
      <trkpt lat="45.06017" lon="6.03767">
        <ele>723</ele>
        <time>2022-09-03T06:44:22Z</time>
      </trkpt>
      <trkpt lat="45.06023" lon="6.03758">
        <ele>723.2</ele>
        <time>2022-09-03T06:44:27Z</time>
      </trkpt>
      <trkpt lat="45.06029" lon="6.03755">
        <ele>723.1</ele>
        <time>2022-09-03T06:44:34Z</time>
      </trkpt>
      <trkpt lat="45.06038" lon="6.03754">
        <ele>723</ele>
        <time>2022-09-03T06:44:39Z</time>
      </trkpt>
      <trkpt lat="45.06046" lon="6.03756">
        <ele>722.7</ele>
        <time>2022-09-03T06:44:46Z</time>
      </trkpt>
      <trkpt lat="45.06055" lon="6.03752">
        <ele>722.6</ele>
        <time>2022-09-03T06:44:51Z</time>
      </trkpt>
      <trkpt lat="45.06062" lon="6.03754">
        <ele>722.4</ele>
        <time>2022-09-03T06:46:39Z</time>
      </trkpt>
      <trkpt lat="45.06068" lon="6.03759">
        <ele>722.1</ele>
        <time>2022-09-03T06:46:45Z</time>
      </trkpt>
      <trkpt lat="45.06078" lon="6.03756">
        <ele>722</ele>
        <time>2022-09-03T06:46:50Z</time>
      </trkpt>
      <trkpt lat="45.06085" lon="6.03753">
        <ele>721.9</ele>
        <time>2022-09-03T06:46:55Z</time>
      </trkpt>
      <trkpt lat="45.06092" lon="6.03752">
        <ele>721.6</ele>
        <time>2022-09-03T06:47:01Z</time>
      </trkpt>
      <trkpt lat="45.06101" lon="6.03751">
        <ele>721.3</ele>
        <time>2022-09-03T06:47:06Z</time>
      </trkpt>
      <trkpt lat="45.06109" lon="6.03749">
        <ele>721.1</ele>
        <time>2022-09-03T06:47:11Z</time>
      </trkpt>
      <trkpt lat="45.06116" lon="6.03746">
        <ele>720.8</ele>
        <time>2022-09-03T06:47:18Z</time>
      </trkpt>
      <trkpt lat="45.06123" lon="6.03744">
        <ele>720.5</ele>
        <time>2022-09-03T06:47:24Z</time>
      </trkpt>
      <trkpt lat="45.06138" lon="6.03742">
        <ele>720</ele>
        <time>2022-09-03T06:47:29Z</time>
      </trkpt>
      <trkpt lat="45.06145" lon="6.03737">
        <ele>719.7</ele>
        <time>2022-09-03T06:47:36Z</time>
      </trkpt>
      <trkpt lat="45.06152" lon="6.03735">
        <ele>719.5</ele>
        <time>2022-09-03T06:47:42Z</time>
      </trkpt>
      <trkpt lat="45.06161" lon="6.03731">
        <ele>719.2</ele>
        <time>2022-09-03T06:47:47Z</time>
      </trkpt>
      <trkpt lat="45.06168" lon="6.03728">
        <ele>719</ele>
        <time>2022-09-03T06:47:52Z</time>
      </trkpt>
      <trkpt lat="45.06178" lon="6.03726">
        <ele>718.8</ele>
        <time>2022-09-03T06:47:57Z</time>
      </trkpt>
      <trkpt lat="45.06187" lon="6.03718">
        <ele>718.6</ele>
        <time>2022-09-03T06:48:02Z</time>
      </trkpt>
      <trkpt lat="45.06193" lon="6.03711">
        <ele>718.5</ele>
        <time>2022-09-03T06:48:07Z</time>
      </trkpt>
      <trkpt lat="45.06199" lon="6.03707">
        <ele>718.4</ele>
        <time>2022-09-03T06:48:13Z</time>
      </trkpt>
      <trkpt lat="45.06206" lon="6.03707">
        <ele>718.3</ele>
        <time>2022-09-03T06:48:20Z</time>
      </trkpt>
      <trkpt lat="45.06214" lon="6.03702">
        <ele>718.2</ele>
        <time>2022-09-03T06:48:25Z</time>
      </trkpt>
      <trkpt lat="45.06225" lon="6.03699">
        <ele>718</ele>
        <time>2022-09-03T06:48:30Z</time>
      </trkpt>
      <trkpt lat="45.06232" lon="6.03699">
        <ele>717.9</ele>
        <time>2022-09-03T06:48:37Z</time>
      </trkpt>
      <trkpt lat="45.06241" lon="6.03697">
        <ele>717.8</ele>
        <time>2022-09-03T06:48:42Z</time>
      </trkpt>
      <trkpt lat="45.06249" lon="6.03698">
        <ele>717.6</ele>
        <time>2022-09-03T06:48:50Z</time>
      </trkpt>
      <trkpt lat="45.0626" lon="6.037">
        <ele>717.8</ele>
        <time>2022-09-03T06:48:55Z</time>
      </trkpt>
      <trkpt lat="45.06268" lon="6.03703">
        <ele>718</ele>
        <time>2022-09-03T06:49:01Z</time>
      </trkpt>
      <trkpt lat="45.06273" lon="6.03709">
        <ele>718</ele>
        <time>2022-09-03T06:49:06Z</time>
      </trkpt>
      <trkpt lat="45.06279" lon="6.03714">
        <ele>718.1</ele>
        <time>2022-09-03T06:49:12Z</time>
      </trkpt>
      <trkpt lat="45.06287" lon="6.03721">
        <ele>718.2</ele>
        <time>2022-09-03T06:49:17Z</time>
      </trkpt>
      <trkpt lat="45.0629" lon="6.03731">
        <ele>718.2</ele>
        <time>2022-09-03T06:49:22Z</time>
      </trkpt>
      <trkpt lat="45.06296" lon="6.03738">
        <ele>718.2</ele>
        <time>2022-09-03T06:49:28Z</time>
      </trkpt>
      <trkpt lat="45.06303" lon="6.03744">
        <ele>718.3</ele>
        <time>2022-09-03T06:49:33Z</time>
      </trkpt>
      <trkpt lat="45.0631" lon="6.03751">
        <ele>718.4</ele>
        <time>2022-09-03T06:49:38Z</time>
      </trkpt>
      <trkpt lat="45.06318" lon="6.03753">
        <ele>718.6</ele>
        <time>2022-09-03T06:49:43Z</time>
      </trkpt>
      <trkpt lat="45.06325" lon="6.03761">
        <ele>718.8</ele>
        <time>2022-09-03T06:49:48Z</time>
      </trkpt>
      <trkpt lat="45.06331" lon="6.03768">
        <ele>719</ele>
        <time>2022-09-03T06:49:54Z</time>
      </trkpt>
      <trkpt lat="45.06337" lon="6.03777">
        <ele>719.1</ele>
        <time>2022-09-03T06:49:59Z</time>
      </trkpt>
      <trkpt lat="45.06342" lon="6.03784">
        <ele>719.2</ele>
        <time>2022-09-03T06:50:04Z</time>
      </trkpt>
      <trkpt lat="45.06348" lon="6.03792">
        <ele>719.4</ele>
        <time>2022-09-03T06:50:09Z</time>
      </trkpt>
      <trkpt lat="45.06354" lon="6.03799">
        <ele>719.6</ele>
        <time>2022-09-03T06:50:14Z</time>
      </trkpt>
      <trkpt lat="45.06362" lon="6.038">
        <ele>719.8</ele>
        <time>2022-09-03T06:50:19Z</time>
      </trkpt>
      <trkpt lat="45.06365" lon="6.03808">
        <ele>720.1</ele>
        <time>2022-09-03T06:50:24Z</time>
      </trkpt>
      <trkpt lat="45.06367" lon="6.03823">
        <ele>720.4</ele>
        <time>2022-09-03T06:50:29Z</time>
      </trkpt>
      <trkpt lat="45.06374" lon="6.03824">
        <ele>720.7</ele>
        <time>2022-09-03T06:50:35Z</time>
      </trkpt>
      <trkpt lat="45.06372" lon="6.03836">
        <ele>720.9</ele>
        <time>2022-09-03T06:50:43Z</time>
      </trkpt>
      <trkpt lat="45.06373" lon="6.03848">
        <ele>721.1</ele>
        <time>2022-09-03T06:50:48Z</time>
      </trkpt>
      <trkpt lat="45.06378" lon="6.03855">
        <ele>721.4</ele>
        <time>2022-09-03T06:50:56Z</time>
      </trkpt>
      <trkpt lat="45.06385" lon="6.03861">
        <ele>721.8</ele>
        <time>2022-09-03T06:51:01Z</time>
      </trkpt>
      <trkpt lat="45.06393" lon="6.0387">
        <ele>722.3</ele>
        <time>2022-09-03T06:51:06Z</time>
      </trkpt>
      <trkpt lat="45.06394" lon="6.0388">
        <ele>722.5</ele>
        <time>2022-09-03T06:51:13Z</time>
      </trkpt>
      <trkpt lat="45.06401" lon="6.03888">
        <ele>722.9</ele>
        <time>2022-09-03T06:51:18Z</time>
      </trkpt>
      <trkpt lat="45.06404" lon="6.03897">
        <ele>723.2</ele>
        <time>2022-09-03T06:51:24Z</time>
      </trkpt>
      <trkpt lat="45.06411" lon="6.03901">
        <ele>723.5</ele>
        <time>2022-09-03T06:51:29Z</time>
      </trkpt>
      <trkpt lat="45.06419" lon="6.03906">
        <ele>723.9</ele>
        <time>2022-09-03T06:51:34Z</time>
      </trkpt>
      <trkpt lat="45.06422" lon="6.03915">
        <ele>724</ele>
        <time>2022-09-03T06:51:39Z</time>
      </trkpt>
      <trkpt lat="45.0643" lon="6.03924">
        <ele>724.2</ele>
        <time>2022-09-03T06:51:44Z</time>
      </trkpt>
      <trkpt lat="45.06435" lon="6.0393">
        <ele>724.3</ele>
        <time>2022-09-03T06:51:50Z</time>
      </trkpt>
      <trkpt lat="45.06441" lon="6.03937">
        <ele>724.4</ele>
        <time>2022-09-03T06:51:55Z</time>
      </trkpt>
      <trkpt lat="45.06449" lon="6.03936">
        <ele>724.5</ele>
        <time>2022-09-03T06:52:58Z</time>
      </trkpt>
      <trkpt lat="45.06453" lon="6.03943">
        <ele>724.6</ele>
        <time>2022-09-03T06:53:15Z</time>
      </trkpt>
      <trkpt lat="45.06452" lon="6.03952">
        <ele>724.6</ele>
        <time>2022-09-03T06:54:26Z</time>
      </trkpt>
      <trkpt lat="45.06456" lon="6.0396">
        <ele>724.7</ele>
        <time>2022-09-03T06:54:36Z</time>
      </trkpt>
      <trkpt lat="45.0645" lon="6.03955">
        <ele>724.6</ele>
        <time>2022-09-03T06:55:10Z</time>
      </trkpt>
      <trkpt lat="45.06444" lon="6.03947">
        <ele>724.4</ele>
        <time>2022-09-03T06:55:17Z</time>
      </trkpt>
      <trkpt lat="45.06439" lon="6.03936">
        <ele>724.3</ele>
        <time>2022-09-03T06:55:22Z</time>
      </trkpt>
      <trkpt lat="45.06433" lon="6.03929">
        <ele>724.2</ele>
        <time>2022-09-03T06:55:29Z</time>
      </trkpt>
      <trkpt lat="45.06426" lon="6.03924">
        <ele>724.1</ele>
        <time>2022-09-03T06:55:35Z</time>
      </trkpt>
      <trkpt lat="45.06422" lon="6.03916">
        <ele>724.1</ele>
        <time>2022-09-03T06:55:42Z</time>
      </trkpt>
      <trkpt lat="45.06419" lon="6.03908">
        <ele>723.9</ele>
        <time>2022-09-03T06:55:50Z</time>
      </trkpt>
      <trkpt lat="45.06412" lon="6.03906">
        <ele>723.6</ele>
        <time>2022-09-03T06:56:08Z</time>
      </trkpt>
      <trkpt lat="45.06404" lon="6.0391">
        <ele>723.3</ele>
        <time>2022-09-03T06:56:16Z</time>
      </trkpt>
      <trkpt lat="45.06396" lon="6.03915">
        <ele>723</ele>
        <time>2022-09-03T06:56:21Z</time>
      </trkpt>
      <trkpt lat="45.06389" lon="6.03912">
        <ele>722.6</ele>
        <time>2022-09-03T06:56:30Z</time>
      </trkpt>
      <trkpt lat="45.06397" lon="6.03909">
        <ele>723</ele>
        <time>2022-09-03T06:56:49Z</time>
      </trkpt>
      <trkpt lat="45.064" lon="6.03918">
        <ele>723.2</ele>
        <time>2022-09-03T06:56:59Z</time>
      </trkpt>
      <trkpt lat="45.06408" lon="6.03912">
        <ele>723.5</ele>
        <time>2022-09-03T06:57:04Z</time>
      </trkpt>
      <trkpt lat="45.06419" lon="6.03903">
        <ele>723.9</ele>
        <time>2022-09-03T06:57:09Z</time>
      </trkpt>
      <trkpt lat="45.06426" lon="6.039">
        <ele>723.9</ele>
        <time>2022-09-03T06:57:15Z</time>
      </trkpt>
      <trkpt lat="45.06426" lon="6.0391">
        <ele>724</ele>
        <time>2022-09-03T06:57:22Z</time>
      </trkpt>
      <trkpt lat="45.06432" lon="6.03923">
        <ele>724.2</ele>
        <time>2022-09-03T06:57:27Z</time>
      </trkpt>
      <trkpt lat="45.06436" lon="6.03931">
        <ele>724.3</ele>
        <time>2022-09-03T06:57:35Z</time>
      </trkpt>
      <trkpt lat="45.06441" lon="6.03938">
        <ele>724.4</ele>
        <time>2022-09-03T06:57:55Z</time>
      </trkpt>
      <trkpt lat="45.06447" lon="6.03945">
        <ele>724.5</ele>
        <time>2022-09-03T06:58:02Z</time>
      </trkpt>
      <trkpt lat="45.06454" lon="6.03951">
        <ele>724.6</ele>
        <time>2022-09-03T06:58:08Z</time>
      </trkpt>
      <trkpt lat="45.06461" lon="6.03959">
        <ele>724.8</ele>
        <time>2022-09-03T06:58:13Z</time>
      </trkpt>
      <trkpt lat="45.06469" lon="6.03961">
        <ele>725</ele>
        <time>2022-09-03T06:58:18Z</time>
      </trkpt>
      <trkpt lat="45.06474" lon="6.03971">
        <ele>725.1</ele>
        <time>2022-09-03T06:58:23Z</time>
      </trkpt>
      <trkpt lat="45.06477" lon="6.03979">
        <ele>725.3</ele>
        <time>2022-09-03T06:58:29Z</time>
      </trkpt>
      <trkpt lat="45.0648" lon="6.03993">
        <ele>725.5</ele>
        <time>2022-09-03T06:58:34Z</time>
      </trkpt>
      <trkpt lat="45.06485" lon="6.04003">
        <ele>726</ele>
        <time>2022-09-03T06:58:39Z</time>
      </trkpt>
      <trkpt lat="45.06492" lon="6.0401">
        <ele>726.9</ele>
        <time>2022-09-03T06:58:45Z</time>
      </trkpt>
      <trkpt lat="45.06499" lon="6.0402">
        <ele>728.4</ele>
        <time>2022-09-03T06:58:50Z</time>
      </trkpt>
      <trkpt lat="45.06508" lon="6.04015">
        <ele>728.4</ele>
        <time>2022-09-03T06:58:55Z</time>
      </trkpt>
      <trkpt lat="45.06509" lon="6.04001">
        <ele>726.5</ele>
        <time>2022-09-03T06:59:00Z</time>
      </trkpt>
      <trkpt lat="45.06517" lon="6.03998">
        <ele>726.6</ele>
        <time>2022-09-03T06:59:19Z</time>
      </trkpt>
      <trkpt lat="45.06523" lon="6.04002">
        <ele>727.2</ele>
        <time>2022-09-03T06:59:24Z</time>
      </trkpt>
      <trkpt lat="45.0653" lon="6.03998">
        <ele>727</ele>
        <time>2022-09-03T06:59:32Z</time>
      </trkpt>
      <trkpt lat="45.0654" lon="6.03994">
        <ele>727.2</ele>
        <time>2022-09-03T06:59:37Z</time>
      </trkpt>
      <trkpt lat="45.06546" lon="6.03988">
        <ele>727.1</ele>
        <time>2022-09-03T06:59:42Z</time>
      </trkpt>
      <trkpt lat="45.06553" lon="6.03987">
        <ele>727.3</ele>
        <time>2022-09-03T06:59:48Z</time>
      </trkpt>
      <trkpt lat="45.06559" lon="6.03981">
        <ele>727.1</ele>
        <time>2022-09-03T06:59:56Z</time>
      </trkpt>
      <trkpt lat="45.06566" lon="6.03979">
        <ele>727.1</ele>
        <time>2022-09-03T07:00:01Z</time>
      </trkpt>
      <trkpt lat="45.06571" lon="6.03972">
        <ele>726.8</ele>
        <time>2022-09-03T07:00:07Z</time>
      </trkpt>
      <trkpt lat="45.06583" lon="6.03966">
        <ele>726.5</ele>
        <time>2022-09-03T07:00:12Z</time>
      </trkpt>
      <trkpt lat="45.06591" lon="6.03957">
        <ele>726.3</ele>
        <time>2022-09-03T07:00:17Z</time>
      </trkpt>
      <trkpt lat="45.06599" lon="6.03953">
        <ele>726.2</ele>
        <time>2022-09-03T07:00:22Z</time>
      </trkpt>
      <trkpt lat="45.06607" lon="6.03952">
        <ele>726.4</ele>
        <time>2022-09-03T07:00:27Z</time>
      </trkpt>
      <trkpt lat="45.06614" lon="6.03951">
        <ele>726.6</ele>
        <time>2022-09-03T07:00:33Z</time>
      </trkpt>
      <trkpt lat="45.06623" lon="6.03951">
        <ele>726.9</ele>
        <time>2022-09-03T07:00:38Z</time>
      </trkpt>
      <trkpt lat="45.06631" lon="6.03944">
        <ele>726.1</ele>
        <time>2022-09-03T07:00:43Z</time>
      </trkpt>
      <trkpt lat="45.06638" lon="6.03941">
        <ele>725.7</ele>
        <time>2022-09-03T07:00:48Z</time>
      </trkpt>
      <trkpt lat="45.06644" lon="6.03939">
        <ele>725.5</ele>
        <time>2022-09-03T07:00:53Z</time>
      </trkpt>
      <trkpt lat="45.06651" lon="6.03934">
        <ele>724.7</ele>
        <time>2022-09-03T07:00:59Z</time>
      </trkpt>
      <trkpt lat="45.06656" lon="6.03924">
        <ele>722.7</ele>
        <time>2022-09-03T07:01:05Z</time>
      </trkpt>
      <trkpt lat="45.06662" lon="6.03919">
        <ele>721.6</ele>
        <time>2022-09-03T07:01:10Z</time>
      </trkpt>
      <trkpt lat="45.06673" lon="6.03928">
        <ele>724.2</ele>
        <time>2022-09-03T07:01:15Z</time>
      </trkpt>
      <trkpt lat="45.06681" lon="6.03928">
        <ele>725.1</ele>
        <time>2022-09-03T07:01:45Z</time>
      </trkpt>
      <trkpt lat="45.06687" lon="6.03931">
        <ele>726.6</ele>
        <time>2022-09-03T07:02:28Z</time>
      </trkpt>
      <trkpt lat="45.06693" lon="6.03937">
        <ele>728.9</ele>
        <time>2022-09-03T07:03:02Z</time>
      </trkpt>
      <trkpt lat="45.06686" lon="6.03951">
        <ele>731.5</ele>
        <time>2022-09-03T07:03:40Z</time>
      </trkpt>
      <trkpt lat="45.06679" lon="6.03966">
        <ele>734</ele>
        <time>2022-09-03T07:03:46Z</time>
      </trkpt>
      <trkpt lat="45.06687" lon="6.03953">
        <ele>732.2</ele>
        <time>2022-09-03T07:03:59Z</time>
      </trkpt>
      <trkpt lat="45.06693" lon="6.03957">
        <ele>734.2</ele>
        <time>2022-09-03T07:04:23Z</time>
      </trkpt>
      <trkpt lat="45.067" lon="6.03962">
        <ele>736.8</ele>
        <time>2022-09-03T07:04:28Z</time>
      </trkpt>
      <trkpt lat="45.06707" lon="6.03966">
        <ele>739.3</ele>
        <time>2022-09-03T07:04:33Z</time>
      </trkpt>
      <trkpt lat="45.06714" lon="6.03962">
        <ele>739.4</ele>
        <time>2022-09-03T07:04:42Z</time>
      </trkpt>
      <trkpt lat="45.0672" lon="6.03959">
        <ele>739.5</ele>
        <time>2022-09-03T07:04:50Z</time>
      </trkpt>
      <trkpt lat="45.06726" lon="6.03963">
        <ele>741.9</ele>
        <time>2022-09-03T07:05:18Z</time>
      </trkpt>
      <trkpt lat="45.06735" lon="6.03962">
        <ele>743.2</ele>
        <time>2022-09-03T07:05:23Z</time>
      </trkpt>
      <trkpt lat="45.06743" lon="6.03961">
        <ele>744.2</ele>
        <time>2022-09-03T07:05:28Z</time>
      </trkpt>
      <trkpt lat="45.0675" lon="6.03962">
        <ele>745.9</ele>
        <time>2022-09-03T07:05:34Z</time>
      </trkpt>
      <trkpt lat="45.06758" lon="6.03962">
        <ele>747.7</ele>
        <time>2022-09-03T07:05:40Z</time>
      </trkpt>
      <trkpt lat="45.06764" lon="6.03965">
        <ele>750.2</ele>
        <time>2022-09-03T07:05:46Z</time>
      </trkpt>
      <trkpt lat="45.06771" lon="6.03967">
        <ele>752.6</ele>
        <time>2022-09-03T07:05:54Z</time>
      </trkpt>
      <trkpt lat="45.06775" lon="6.03959">
        <ele>750.3</ele>
        <time>2022-09-03T07:06:01Z</time>
      </trkpt>
      <trkpt lat="45.0678" lon="6.0395">
        <ele>747.8</ele>
        <time>2022-09-03T07:06:08Z</time>
      </trkpt>
      <trkpt lat="45.06786" lon="6.03952">
        <ele>749.9</ele>
        <time>2022-09-03T07:06:15Z</time>
      </trkpt>
      <trkpt lat="45.06793" lon="6.03953">
        <ele>751.8</ele>
        <time>2022-09-03T07:06:26Z</time>
      </trkpt>
      <trkpt lat="45.068" lon="6.03958">
        <ele>755.5</ele>
        <time>2022-09-03T07:06:38Z</time>
      </trkpt>
      <trkpt lat="45.06811" lon="6.0395">
        <ele>754.4</ele>
        <time>2022-09-03T07:07:34Z</time>
      </trkpt>
      <trkpt lat="45.06817" lon="6.0395">
        <ele>755.7</ele>
        <time>2022-09-03T07:07:41Z</time>
      </trkpt>
      <trkpt lat="45.06825" lon="6.03952">
        <ele>758.3</ele>
        <time>2022-09-03T07:07:54Z</time>
      </trkpt>
      <trkpt lat="45.06831" lon="6.0395">
        <ele>758.7</ele>
        <time>2022-09-03T07:08:03Z</time>
      </trkpt>
      <trkpt lat="45.06838" lon="6.03948">
        <ele>759.1</ele>
        <time>2022-09-03T07:08:15Z</time>
      </trkpt>
      <trkpt lat="45.06845" lon="6.0395">
        <ele>761.3</ele>
        <time>2022-09-03T07:08:25Z</time>
      </trkpt>
      <trkpt lat="45.06851" lon="6.03953">
        <ele>763.7</ele>
        <time>2022-09-03T07:08:38Z</time>
      </trkpt>
      <trkpt lat="45.06857" lon="6.03956">
        <ele>766.1</ele>
        <time>2022-09-03T07:08:48Z</time>
      </trkpt>
      <trkpt lat="45.06864" lon="6.03954">
        <ele>766.4</ele>
        <time>2022-09-03T07:09:35Z</time>
      </trkpt>
      <trkpt lat="45.06857" lon="6.03951">
        <ele>763.8</ele>
        <time>2022-09-03T07:10:00Z</time>
      </trkpt>
      <trkpt lat="45.06848" lon="6.03947">
        <ele>760.5</ele>
        <time>2022-09-03T07:10:05Z</time>
      </trkpt>
      <trkpt lat="45.06854" lon="6.03956">
        <ele>765.6</ele>
        <time>2022-09-03T07:10:19Z</time>
      </trkpt>
      <trkpt lat="45.06861" lon="6.03955">
        <ele>766.3</ele>
        <time>2022-09-03T07:10:42Z</time>
      </trkpt>
      <trkpt lat="45.06868" lon="6.03964">
        <ele>771.5</ele>
        <time>2022-09-03T07:11:02Z</time>
      </trkpt>
      <trkpt lat="45.06874" lon="6.03966">
        <ele>773.4</ele>
        <time>2022-09-03T07:11:09Z</time>
      </trkpt>
      <trkpt lat="45.06881" lon="6.0397">
        <ele>776.4</ele>
        <time>2022-09-03T07:11:14Z</time>
      </trkpt>
      <trkpt lat="45.06887" lon="6.03975">
        <ele>779.6</ele>
        <time>2022-09-03T07:11:19Z</time>
      </trkpt>
      <trkpt lat="45.06896" lon="6.03975">
        <ele>781.1</ele>
        <time>2022-09-03T07:11:41Z</time>
      </trkpt>
      <trkpt lat="45.06893" lon="6.03984">
        <ele>784.4</ele>
        <time>2022-09-03T07:12:15Z</time>
      </trkpt>
      <trkpt lat="45.06887" lon="6.03991">
        <ele>786.5</ele>
        <time>2022-09-03T07:12:24Z</time>
      </trkpt>
      <trkpt lat="45.06887" lon="6.04001">
        <ele>791</ele>
        <time>2022-09-03T07:12:45Z</time>
      </trkpt>
      <trkpt lat="45.06896" lon="6.04001">
        <ele>792.4</ele>
        <time>2022-09-03T07:13:02Z</time>
      </trkpt>
      <trkpt lat="45.06901" lon="6.04006">
        <ele>796.2</ele>
        <time>2022-09-03T07:13:08Z</time>
      </trkpt>
      <trkpt lat="45.069" lon="6.04016">
        <ele>802.2</ele>
        <time>2022-09-03T07:13:57Z</time>
      </trkpt>
      <trkpt lat="45.06893" lon="6.04015">
        <ele>800.4</ele>
        <time>2022-09-03T07:14:06Z</time>
      </trkpt>
      <trkpt lat="45.06899" lon="6.04016">
        <ele>802</ele>
        <time>2022-09-03T07:14:32Z</time>
      </trkpt>
      <trkpt lat="45.06901" lon="6.04025">
        <ele>807.8</ele>
        <time>2022-09-03T07:14:52Z</time>
      </trkpt>
      <trkpt lat="45.06908" lon="6.04028">
        <ele>810.7</ele>
        <time>2022-09-03T07:14:58Z</time>
      </trkpt>
      <trkpt lat="45.06915" lon="6.0403">
        <ele>813.1</ele>
        <time>2022-09-03T07:15:09Z</time>
      </trkpt>
      <trkpt lat="45.06908" lon="6.0403">
        <ele>812</ele>
        <time>2022-09-03T07:15:18Z</time>
      </trkpt>
      <trkpt lat="45.06901" lon="6.04031">
        <ele>811.5</ele>
        <time>2022-09-03T07:15:35Z</time>
      </trkpt>
      <trkpt lat="45.06907" lon="6.0404">
        <ele>817.9</ele>
        <time>2022-09-03T07:16:03Z</time>
      </trkpt>
      <trkpt lat="45.06912" lon="6.04046">
        <ele>822.4</ele>
        <time>2022-09-03T07:16:16Z</time>
      </trkpt>
      <trkpt lat="45.0692" lon="6.04046">
        <ele>823.7</ele>
        <time>2022-09-03T07:19:37Z</time>
      </trkpt>
      <trkpt lat="45.06914" lon="6.04048">
        <ele>823.9</ele>
        <time>2022-09-03T07:20:00Z</time>
      </trkpt>
      <trkpt lat="45.06907" lon="6.04051">
        <ele>824.6</ele>
        <time>2022-09-03T07:20:13Z</time>
      </trkpt>
      <trkpt lat="45.06901" lon="6.04056">
        <ele>826.7</ele>
        <time>2022-09-03T07:20:19Z</time>
      </trkpt>
      <trkpt lat="45.06899" lon="6.04065">
        <ele>831.9</ele>
        <time>2022-09-03T07:20:32Z</time>
      </trkpt>
      <trkpt lat="45.06891" lon="6.04061">
        <ele>828.1</ele>
        <time>2022-09-03T07:20:57Z</time>
      </trkpt>
      <trkpt lat="45.06885" lon="6.04067">
        <ele>830.8</ele>
        <time>2022-09-03T07:21:05Z</time>
      </trkpt>
      <trkpt lat="45.0688" lon="6.04071">
        <ele>832.4</ele>
        <time>2022-09-03T07:21:15Z</time>
      </trkpt>
      <trkpt lat="45.06873" lon="6.04074">
        <ele>833</ele>
        <time>2022-09-03T07:21:20Z</time>
      </trkpt>
      <trkpt lat="45.06879" lon="6.04073">
        <ele>833.4</ele>
        <time>2022-09-03T07:21:39Z</time>
      </trkpt>
      <trkpt lat="45.06886" lon="6.04075">
        <ele>835.8</ele>
        <time>2022-09-03T07:21:44Z</time>
      </trkpt>
      <trkpt lat="45.06894" lon="6.04078">
        <ele>838.9</ele>
        <time>2022-09-03T07:21:49Z</time>
      </trkpt>
      <trkpt lat="45.06902" lon="6.0408">
        <ele>841.5</ele>
        <time>2022-09-03T07:21:54Z</time>
      </trkpt>
      <trkpt lat="45.06909" lon="6.04084">
        <ele>845</ele>
        <time>2022-09-03T07:22:12Z</time>
      </trkpt>
      <trkpt lat="45.06909" lon="6.04094">
        <ele>850</ele>
        <time>2022-09-03T07:22:29Z</time>
      </trkpt>
      <trkpt lat="45.06908" lon="6.04103">
        <ele>854.3</ele>
        <time>2022-09-03T07:22:37Z</time>
      </trkpt>
      <trkpt lat="45.06901" lon="6.04101">
        <ele>852.2</ele>
        <time>2022-09-03T07:22:43Z</time>
      </trkpt>
      <trkpt lat="45.06894" lon="6.04099">
        <ele>850.1</ele>
        <time>2022-09-03T07:22:48Z</time>
      </trkpt>
      <trkpt lat="45.06887" lon="6.04097">
        <ele>847.9</ele>
        <time>2022-09-03T07:22:55Z</time>
      </trkpt>
      <trkpt lat="45.0688" lon="6.04092">
        <ele>844.2</ele>
        <time>2022-09-03T07:23:00Z</time>
      </trkpt>
      <trkpt lat="45.06873" lon="6.04093">
        <ele>843.6</ele>
        <time>2022-09-03T07:23:08Z</time>
      </trkpt>
      <trkpt lat="45.06867" lon="6.04085">
        <ele>838.5</ele>
        <time>2022-09-03T07:23:16Z</time>
      </trkpt>
      <trkpt lat="45.06867" lon="6.04095">
        <ele>843.6</ele>
        <time>2022-09-03T07:23:31Z</time>
      </trkpt>
      <trkpt lat="45.06861" lon="6.041">
        <ele>845.2</ele>
        <time>2022-09-03T07:23:46Z</time>
      </trkpt>
      <trkpt lat="45.06859" lon="6.04109">
        <ele>849.6</ele>
        <time>2022-09-03T07:24:03Z</time>
      </trkpt>
      <trkpt lat="45.06855" lon="6.04116">
        <ele>852.6</ele>
        <time>2022-09-03T07:24:12Z</time>
      </trkpt>
      <trkpt lat="45.06848" lon="6.04118">
        <ele>852.5</ele>
        <time>2022-09-03T07:24:18Z</time>
      </trkpt>
      <trkpt lat="45.06841" lon="6.04119">
        <ele>852</ele>
        <time>2022-09-03T07:24:25Z</time>
      </trkpt>
      <trkpt lat="45.06837" lon="6.04126">
        <ele>855.1</ele>
        <time>2022-09-03T07:24:37Z</time>
      </trkpt>
      <trkpt lat="45.06837" lon="6.04135">
        <ele>859.8</ele>
        <time>2022-09-03T07:24:47Z</time>
      </trkpt>
      <trkpt lat="45.06833" lon="6.04144">
        <ele>864</ele>
        <time>2022-09-03T07:25:58Z</time>
      </trkpt>
      <trkpt lat="45.06827" lon="6.04148">
        <ele>865</ele>
        <time>2022-09-03T07:26:04Z</time>
      </trkpt>
      <trkpt lat="45.0682" lon="6.04153">
        <ele>866.4</ele>
        <time>2022-09-03T07:26:29Z</time>
      </trkpt>
      <trkpt lat="45.06813" lon="6.04152">
        <ele>864.6</ele>
        <time>2022-09-03T07:26:35Z</time>
      </trkpt>
      <trkpt lat="45.06809" lon="6.04159">
        <ele>867.7</ele>
        <time>2022-09-03T07:26:40Z</time>
      </trkpt>
      <trkpt lat="45.06802" lon="6.04163">
        <ele>868.7</ele>
        <time>2022-09-03T07:26:49Z</time>
      </trkpt>
      <trkpt lat="45.06808" lon="6.04167">
        <ele>871.9</ele>
        <time>2022-09-03T07:27:09Z</time>
      </trkpt>
      <trkpt lat="45.06815" lon="6.04169">
        <ele>874.2</ele>
        <time>2022-09-03T07:27:19Z</time>
      </trkpt>
      <trkpt lat="45.06809" lon="6.04169">
        <ele>873.2</ele>
        <time>2022-09-03T07:27:31Z</time>
      </trkpt>
      <trkpt lat="45.06815" lon="6.04175">
        <ele>877.5</ele>
        <time>2022-09-03T07:27:58Z</time>
      </trkpt>
      <trkpt lat="45.06819" lon="6.04183">
        <ele>882.5</ele>
        <time>2022-09-03T07:28:07Z</time>
      </trkpt>
      <trkpt lat="45.06825" lon="6.04186">
        <ele>885.2</ele>
        <time>2022-09-03T07:28:17Z</time>
      </trkpt>
      <trkpt lat="45.06832" lon="6.04184">
        <ele>885.3</ele>
        <time>2022-09-03T07:28:45Z</time>
      </trkpt>
      <trkpt lat="45.0682" lon="6.04185">
        <ele>883.8</ele>
        <time>2022-09-03T07:29:06Z</time>
      </trkpt>
      <trkpt lat="45.06813" lon="6.04186">
        <ele>883.1</ele>
        <time>2022-09-03T07:29:12Z</time>
      </trkpt>
      <trkpt lat="45.06819" lon="6.04193">
        <ele>888</ele>
        <time>2022-09-03T07:29:19Z</time>
      </trkpt>
      <trkpt lat="45.06827" lon="6.0419">
        <ele>887.8</ele>
        <time>2022-09-03T07:29:24Z</time>
      </trkpt>
      <trkpt lat="45.06834" lon="6.04191">
        <ele>889.6</ele>
        <time>2022-09-03T07:29:59Z</time>
      </trkpt>
      <trkpt lat="45.06841" lon="6.04188">
        <ele>889.2</ele>
        <time>2022-09-03T07:30:14Z</time>
      </trkpt>
      <trkpt lat="45.06847" lon="6.0419">
        <ele>891.5</ele>
        <time>2022-09-03T07:30:46Z</time>
      </trkpt>
      <trkpt lat="45.06854" lon="6.04193">
        <ele>894.7</ele>
        <time>2022-09-03T07:30:55Z</time>
      </trkpt>
      <trkpt lat="45.0686" lon="6.04198">
        <ele>899</ele>
        <time>2022-09-03T07:31:03Z</time>
      </trkpt>
      <trkpt lat="45.06866" lon="6.04203">
        <ele>903.4</ele>
        <time>2022-09-03T07:31:14Z</time>
      </trkpt>
      <trkpt lat="45.06872" lon="6.04204">
        <ele>905.5</ele>
        <time>2022-09-03T07:31:26Z</time>
      </trkpt>
      <trkpt lat="45.06878" lon="6.04208">
        <ele>909.5</ele>
        <time>2022-09-03T07:31:36Z</time>
      </trkpt>
      <trkpt lat="45.06873" lon="6.04212">
        <ele>910.9</ele>
        <time>2022-09-03T07:31:50Z</time>
      </trkpt>
      <trkpt lat="45.06865" lon="6.04211">
        <ele>908.3</ele>
        <time>2022-09-03T07:32:01Z</time>
      </trkpt>
      <trkpt lat="45.06859" lon="6.04212">
        <ele>907.4</ele>
        <time>2022-09-03T07:32:09Z</time>
      </trkpt>
      <trkpt lat="45.06852" lon="6.04212">
        <ele>905.7</ele>
        <time>2022-09-03T07:32:18Z</time>
      </trkpt>
      <trkpt lat="45.06848" lon="6.04201">
        <ele>898.2</ele>
        <time>2022-09-03T07:32:23Z</time>
      </trkpt>
      <trkpt lat="45.06842" lon="6.04196">
        <ele>894</ele>
        <time>2022-09-03T07:32:35Z</time>
      </trkpt>
      <trkpt lat="45.06838" lon="6.04203">
        <ele>897.1</ele>
        <time>2022-09-03T07:32:41Z</time>
      </trkpt>
      <trkpt lat="45.06831" lon="6.04212">
        <ele>900.6</ele>
        <time>2022-09-03T07:32:46Z</time>
      </trkpt>
      <trkpt lat="45.06826" lon="6.04223">
        <ele>905.7</ele>
        <time>2022-09-03T07:32:51Z</time>
      </trkpt>
      <trkpt lat="45.06826" lon="6.04233">
        <ele>911.2</ele>
        <time>2022-09-03T07:33:10Z</time>
      </trkpt>
      <trkpt lat="45.0682" lon="6.04239">
        <ele>913.3</ele>
        <time>2022-09-03T07:33:36Z</time>
      </trkpt>
      <trkpt lat="45.06806" lon="6.0424">
        <ele>911</ele>
        <time>2022-09-03T07:33:57Z</time>
      </trkpt>
      <trkpt lat="45.068" lon="6.04241">
        <ele>910.4</ele>
        <time>2022-09-03T07:34:24Z</time>
      </trkpt>
      <trkpt lat="45.06808" lon="6.04245">
        <ele>914.1</ele>
        <time>2022-09-03T07:35:01Z</time>
      </trkpt>
      <trkpt lat="45.06812" lon="6.04252">
        <ele>918.6</ele>
        <time>2022-09-03T07:35:26Z</time>
      </trkpt>
      <trkpt lat="45.06806" lon="6.04258">
        <ele>920.3</ele>
        <time>2022-09-03T07:35:37Z</time>
      </trkpt>
      <trkpt lat="45.06799" lon="6.04258">
        <ele>918.8</ele>
        <time>2022-09-03T07:35:42Z</time>
      </trkpt>
      <trkpt lat="45.06791" lon="6.04258">
        <ele>917.1</ele>
        <time>2022-09-03T07:35:47Z</time>
      </trkpt>
      <trkpt lat="45.06784" lon="6.04261">
        <ele>916.9</ele>
        <time>2022-09-03T07:35:52Z</time>
      </trkpt>
      <trkpt lat="45.06777" lon="6.04264">
        <ele>916.6</ele>
        <time>2022-09-03T07:35:57Z</time>
      </trkpt>
      <trkpt lat="45.0677" lon="6.04268">
        <ele>916.7</ele>
        <time>2022-09-03T07:36:02Z</time>
      </trkpt>
      <trkpt lat="45.06766" lon="6.04276">
        <ele>919</ele>
        <time>2022-09-03T07:36:11Z</time>
      </trkpt>
      <trkpt lat="45.06759" lon="6.0428">
        <ele>918.9</ele>
        <time>2022-09-03T07:36:18Z</time>
      </trkpt>
      <trkpt lat="45.06754" lon="6.04287">
        <ele>920.3</ele>
        <time>2022-09-03T07:36:25Z</time>
      </trkpt>
      <trkpt lat="45.0675" lon="6.04295">
        <ele>922.3</ele>
        <time>2022-09-03T07:36:36Z</time>
      </trkpt>
      <trkpt lat="45.06744" lon="6.04293">
        <ele>918</ele>
        <time>2022-09-03T07:36:48Z</time>
      </trkpt>
      <trkpt lat="45.06738" lon="6.04296">
        <ele>915.6</ele>
        <time>2022-09-03T07:37:01Z</time>
      </trkpt>
      <trkpt lat="45.0673" lon="6.04297">
        <ele>911.3</ele>
        <time>2022-09-03T07:37:22Z</time>
      </trkpt>
      <trkpt lat="45.06725" lon="6.04302">
        <ele>909.9</ele>
        <time>2022-09-03T07:37:33Z</time>
      </trkpt>
      <trkpt lat="45.06724" lon="6.04312">
        <ele>912.5</ele>
        <time>2022-09-03T07:37:44Z</time>
      </trkpt>
      <trkpt lat="45.0672" lon="6.0432">
        <ele>912.4</ele>
        <time>2022-09-03T07:38:09Z</time>
      </trkpt>
      <trkpt lat="45.06714" lon="6.04325">
        <ele>910</ele>
        <time>2022-09-03T07:38:21Z</time>
      </trkpt>
      <trkpt lat="45.06708" lon="6.04332">
        <ele>907.9</ele>
        <time>2022-09-03T07:38:31Z</time>
      </trkpt>
      <trkpt lat="45.06706" lon="6.04341">
        <ele>908.5</ele>
        <time>2022-09-03T07:38:44Z</time>
      </trkpt>
      <trkpt lat="45.0671" lon="6.04349">
        <ele>912.8</ele>
        <time>2022-09-03T07:38:54Z</time>
      </trkpt>
      <trkpt lat="45.06706" lon="6.04358">
        <ele>911.9</ele>
        <time>2022-09-03T07:39:02Z</time>
      </trkpt>
      <trkpt lat="45.067" lon="6.0436">
        <ele>908.2</ele>
        <time>2022-09-03T07:39:07Z</time>
      </trkpt>
      <trkpt lat="45.06693" lon="6.04357">
        <ele>902.7</ele>
        <time>2022-09-03T07:39:17Z</time>
      </trkpt>
      <trkpt lat="45.06693" lon="6.04367">
        <ele>904.7</ele>
        <time>2022-09-03T07:39:32Z</time>
      </trkpt>
      <trkpt lat="45.06699" lon="6.04372">
        <ele>909.9</ele>
        <time>2022-09-03T07:40:02Z</time>
      </trkpt>
      <trkpt lat="45.06706" lon="6.04374">
        <ele>915.2</ele>
        <time>2022-09-03T07:40:07Z</time>
      </trkpt>
      <trkpt lat="45.06708" lon="6.04384">
        <ele>918.6</ele>
        <time>2022-09-03T07:40:28Z</time>
      </trkpt>
      <trkpt lat="45.06712" lon="6.04391">
        <ele>922.8</ele>
        <time>2022-09-03T07:40:38Z</time>
      </trkpt>
      <trkpt lat="45.06717" lon="6.04398">
        <ele>927.8</ele>
        <time>2022-09-03T07:40:45Z</time>
      </trkpt>
      <trkpt lat="45.06722" lon="6.04404">
        <ele>932.5</ele>
        <time>2022-09-03T07:40:52Z</time>
      </trkpt>
      <trkpt lat="45.06725" lon="6.04412">
        <ele>936.3</ele>
        <time>2022-09-03T07:41:00Z</time>
      </trkpt>
      <trkpt lat="45.06729" lon="6.04422">
        <ele>940.3</ele>
        <time>2022-09-03T07:41:20Z</time>
      </trkpt>
      <trkpt lat="45.06733" lon="6.04429">
        <ele>943</ele>
        <time>2022-09-03T07:41:27Z</time>
      </trkpt>
      <trkpt lat="45.06739" lon="6.04433">
        <ele>946.7</ele>
        <time>2022-09-03T07:41:35Z</time>
      </trkpt>
      <trkpt lat="45.06746" lon="6.04434">
        <ele>950.9</ele>
        <time>2022-09-03T07:41:42Z</time>
      </trkpt>
      <trkpt lat="45.06753" lon="6.04441">
        <ele>953.5</ele>
        <time>2022-09-03T07:41:59Z</time>
      </trkpt>
      <trkpt lat="45.06763" lon="6.04448">
        <ele>955.7</ele>
        <time>2022-09-03T07:42:04Z</time>
      </trkpt>
      <trkpt lat="45.06769" lon="6.04454">
        <ele>956.7</ele>
        <time>2022-09-03T07:42:09Z</time>
      </trkpt>
      <trkpt lat="45.06779" lon="6.04456">
        <ele>959.3</ele>
        <time>2022-09-03T07:42:14Z</time>
      </trkpt>
      <trkpt lat="45.06787" lon="6.04462">
        <ele>960.8</ele>
        <time>2022-09-03T07:42:19Z</time>
      </trkpt>
      <trkpt lat="45.06793" lon="6.04464">
        <ele>962.2</ele>
        <time>2022-09-03T07:42:24Z</time>
      </trkpt>
      <trkpt lat="45.06802" lon="6.04466">
        <ele>964.4</ele>
        <time>2022-09-03T07:42:29Z</time>
      </trkpt>
      <trkpt lat="45.06808" lon="6.04469">
        <ele>965.6</ele>
        <time>2022-09-03T07:42:34Z</time>
      </trkpt>
      <trkpt lat="45.06814" lon="6.04471">
        <ele>967</ele>
        <time>2022-09-03T07:42:41Z</time>
      </trkpt>
      <trkpt lat="45.06825" lon="6.04473">
        <ele>969.7</ele>
        <time>2022-09-03T07:42:46Z</time>
      </trkpt>
      <trkpt lat="45.06832" lon="6.04476">
        <ele>971.1</ele>
        <time>2022-09-03T07:42:53Z</time>
      </trkpt>
      <trkpt lat="45.06839" lon="6.04479">
        <ele>971.9</ele>
        <time>2022-09-03T07:42:59Z</time>
      </trkpt>
      <trkpt lat="45.06846" lon="6.0448">
        <ele>972.9</ele>
        <time>2022-09-03T07:43:05Z</time>
      </trkpt>
      <trkpt lat="45.06853" lon="6.04481">
        <ele>973.9</ele>
        <time>2022-09-03T07:43:10Z</time>
      </trkpt>
      <trkpt lat="45.0686" lon="6.04482">
        <ele>974.8</ele>
        <time>2022-09-03T07:43:20Z</time>
      </trkpt>
      <trkpt lat="45.06868" lon="6.04483">
        <ele>975.9</ele>
        <time>2022-09-03T07:43:25Z</time>
      </trkpt>
      <trkpt lat="45.06875" lon="6.04487">
        <ele>976.3</ele>
        <time>2022-09-03T07:43:31Z</time>
      </trkpt>
      <trkpt lat="45.06883" lon="6.0449">
        <ele>977</ele>
        <time>2022-09-03T07:43:36Z</time>
      </trkpt>
      <trkpt lat="45.0689" lon="6.04495">
        <ele>977.1</ele>
        <time>2022-09-03T07:43:41Z</time>
      </trkpt>
      <trkpt lat="45.06896" lon="6.045">
        <ele>977</ele>
        <time>2022-09-03T07:43:46Z</time>
      </trkpt>
      <trkpt lat="45.06902" lon="6.04508">
        <ele>976.3</ele>
        <time>2022-09-03T07:43:51Z</time>
      </trkpt>
      <trkpt lat="45.06906" lon="6.04515">
        <ele>975.5</ele>
        <time>2022-09-03T07:43:56Z</time>
      </trkpt>
      <trkpt lat="45.0691" lon="6.04523">
        <ele>974.6</ele>
        <time>2022-09-03T07:44:02Z</time>
      </trkpt>
      <trkpt lat="45.0692" lon="6.04533">
        <ele>974.4</ele>
        <time>2022-09-03T07:44:07Z</time>
      </trkpt>
      <trkpt lat="45.06926" lon="6.04542">
        <ele>973.9</ele>
        <time>2022-09-03T07:44:12Z</time>
      </trkpt>
      <trkpt lat="45.0693" lon="6.04549">
        <ele>973.3</ele>
        <time>2022-09-03T07:44:21Z</time>
      </trkpt>
      <trkpt lat="45.06936" lon="6.04555">
        <ele>973.4</ele>
        <time>2022-09-03T07:44:26Z</time>
      </trkpt>
      <trkpt lat="45.06944" lon="6.04561">
        <ele>973.8</ele>
        <time>2022-09-03T07:44:35Z</time>
      </trkpt>
      <trkpt lat="45.06951" lon="6.04568">
        <ele>973.8</ele>
        <time>2022-09-03T07:44:40Z</time>
      </trkpt>
      <trkpt lat="45.06958" lon="6.0457">
        <ele>974.7</ele>
        <time>2022-09-03T07:44:45Z</time>
      </trkpt>
      <trkpt lat="45.06964" lon="6.04573">
        <ele>975.3</ele>
        <time>2022-09-03T07:44:50Z</time>
      </trkpt>
      <trkpt lat="45.06971" lon="6.04576">
        <ele>976</ele>
        <time>2022-09-03T07:44:55Z</time>
      </trkpt>
      <trkpt lat="45.06978" lon="6.0458">
        <ele>976.5</ele>
        <time>2022-09-03T07:45:01Z</time>
      </trkpt>
      <trkpt lat="45.06987" lon="6.0458">
        <ele>978.2</ele>
        <time>2022-09-03T07:45:06Z</time>
      </trkpt>
      <trkpt lat="45.06994" lon="6.04581">
        <ele>979.4</ele>
        <time>2022-09-03T07:45:11Z</time>
      </trkpt>
      <trkpt lat="45.07001" lon="6.04587">
        <ele>979.3</ele>
        <time>2022-09-03T07:45:16Z</time>
      </trkpt>
      <trkpt lat="45.07006" lon="6.04593">
        <ele>979</ele>
        <time>2022-09-03T07:45:24Z</time>
      </trkpt>
      <trkpt lat="45.07011" lon="6.04601">
        <ele>978.2</ele>
        <time>2022-09-03T07:45:38Z</time>
      </trkpt>
      <trkpt lat="45.07015" lon="6.04609">
        <ele>977.3</ele>
        <time>2022-09-03T07:45:44Z</time>
      </trkpt>
      <trkpt lat="45.07008" lon="6.04603">
        <ele>976.9</ele>
        <time>2022-09-03T07:46:12Z</time>
      </trkpt>
      <trkpt lat="45.07004" lon="6.04594">
        <ele>978.2</ele>
        <time>2022-09-03T07:46:34Z</time>
      </trkpt>
      <trkpt lat="45.06999" lon="6.04588">
        <ele>978.6</ele>
        <time>2022-09-03T07:46:40Z</time>
      </trkpt>
      <trkpt lat="45.06992" lon="6.04584">
        <ele>978.3</ele>
        <time>2022-09-03T07:46:45Z</time>
      </trkpt>
      <trkpt lat="45.06985" lon="6.04581">
        <ele>977.6</ele>
        <time>2022-09-03T07:46:50Z</time>
      </trkpt>
      <trkpt lat="45.06978" lon="6.04578">
        <ele>976.9</ele>
        <time>2022-09-03T07:46:57Z</time>
      </trkpt>
      <trkpt lat="45.06971" lon="6.04576">
        <ele>976</ele>
        <time>2022-09-03T07:47:04Z</time>
      </trkpt>
      <trkpt lat="45.06965" lon="6.04572">
        <ele>975.7</ele>
        <time>2022-09-03T07:47:11Z</time>
      </trkpt>
      <trkpt lat="45.06959" lon="6.04568">
        <ele>975.4</ele>
        <time>2022-09-03T07:47:17Z</time>
      </trkpt>
      <trkpt lat="45.06952" lon="6.04565">
        <ele>974.6</ele>
        <time>2022-09-03T07:47:24Z</time>
      </trkpt>
      <trkpt lat="45.06945" lon="6.0456">
        <ele>974.2</ele>
        <time>2022-09-03T07:47:30Z</time>
      </trkpt>
      <trkpt lat="45.06939" lon="6.04556">
        <ele>973.8</ele>
        <time>2022-09-03T07:47:37Z</time>
      </trkpt>
      <trkpt lat="45.06933" lon="6.04551">
        <ele>973.6</ele>
        <time>2022-09-03T07:47:43Z</time>
      </trkpt>
      <trkpt lat="45.06926" lon="6.04546">
        <ele>973.1</ele>
        <time>2022-09-03T07:47:48Z</time>
      </trkpt>
      <trkpt lat="45.0692" lon="6.04542">
        <ele>972.6</ele>
        <time>2022-09-03T07:47:53Z</time>
      </trkpt>
      <trkpt lat="45.06914" lon="6.04538">
        <ele>972.3</ele>
        <time>2022-09-03T07:47:58Z</time>
      </trkpt>
      <trkpt lat="45.0691" lon="6.0453">
        <ele>973.2</ele>
        <time>2022-09-03T07:48:05Z</time>
      </trkpt>
      <trkpt lat="45.06907" lon="6.0452">
        <ele>974.7</ele>
        <time>2022-09-03T07:48:13Z</time>
      </trkpt>
      <trkpt lat="45.06905" lon="6.04509">
        <ele>976.6</ele>
        <time>2022-09-03T07:48:18Z</time>
      </trkpt>
      <trkpt lat="45.06899" lon="6.04504">
        <ele>976.7</ele>
        <time>2022-09-03T07:48:23Z</time>
      </trkpt>
      <trkpt lat="45.06892" lon="6.04497">
        <ele>977</ele>
        <time>2022-09-03T07:48:28Z</time>
      </trkpt>
      <trkpt lat="45.06886" lon="6.04493">
        <ele>976.9</ele>
        <time>2022-09-03T07:48:34Z</time>
      </trkpt>
      <trkpt lat="45.06878" lon="6.04484">
        <ele>977.4</ele>
        <time>2022-09-03T07:48:39Z</time>
      </trkpt>
      <trkpt lat="45.06869" lon="6.04478">
        <ele>977</ele>
        <time>2022-09-03T07:48:44Z</time>
      </trkpt>
      <trkpt lat="45.06861" lon="6.04476">
        <ele>976</ele>
        <time>2022-09-03T07:48:49Z</time>
      </trkpt>
      <trkpt lat="45.06852" lon="6.04475">
        <ele>974.7</ele>
        <time>2022-09-03T07:48:54Z</time>
      </trkpt>
      <trkpt lat="45.06844" lon="6.04475">
        <ele>973.4</ele>
        <time>2022-09-03T07:48:59Z</time>
      </trkpt>
      <trkpt lat="45.06836" lon="6.04474">
        <ele>972.2</ele>
        <time>2022-09-03T07:49:04Z</time>
      </trkpt>
      <trkpt lat="45.06829" lon="6.04475">
        <ele>970.4</ele>
        <time>2022-09-03T07:49:09Z</time>
      </trkpt>
      <trkpt lat="45.06821" lon="6.04475">
        <ele>968.3</ele>
        <time>2022-09-03T07:49:16Z</time>
      </trkpt>
      <trkpt lat="45.06814" lon="6.04472">
        <ele>966.8</ele>
        <time>2022-09-03T07:49:21Z</time>
      </trkpt>
      <trkpt lat="45.06807" lon="6.04469">
        <ele>965.4</ele>
        <time>2022-09-03T07:49:26Z</time>
      </trkpt>
      <trkpt lat="45.06801" lon="6.04466">
        <ele>964.1</ele>
        <time>2022-09-03T07:49:31Z</time>
      </trkpt>
      <trkpt lat="45.06793" lon="6.04461">
        <ele>962.5</ele>
        <time>2022-09-03T07:49:36Z</time>
      </trkpt>
      <trkpt lat="45.06785" lon="6.04455">
        <ele>961</ele>
        <time>2022-09-03T07:49:41Z</time>
      </trkpt>
      <trkpt lat="45.06777" lon="6.0445">
        <ele>959.4</ele>
        <time>2022-09-03T07:49:46Z</time>
      </trkpt>
      <trkpt lat="45.06771" lon="6.04446">
        <ele>958.1</ele>
        <time>2022-09-03T07:49:58Z</time>
      </trkpt>
      <trkpt lat="45.06763" lon="6.04439">
        <ele>956.6</ele>
        <time>2022-09-03T07:50:03Z</time>
      </trkpt>
      <trkpt lat="45.06749" lon="6.04427">
        <ele>953.4</ele>
        <time>2022-09-03T07:50:08Z</time>
      </trkpt>
      <trkpt lat="45.06738" lon="6.04421">
        <ele>946.4</ele>
        <time>2022-09-03T07:50:13Z</time>
      </trkpt>
      <trkpt lat="45.06739" lon="6.04431">
        <ele>946.8</ele>
        <time>2022-09-03T07:50:19Z</time>
      </trkpt>
      <trkpt lat="45.06744" lon="6.04439">
        <ele>949.4</ele>
        <time>2022-09-03T07:50:24Z</time>
      </trkpt>
      <trkpt lat="45.06745" lon="6.04453">
        <ele>949</ele>
        <time>2022-09-03T07:50:29Z</time>
      </trkpt>
      <trkpt lat="45.06751" lon="6.04464">
        <ele>950.7</ele>
        <time>2022-09-03T07:50:34Z</time>
      </trkpt>
      <trkpt lat="45.06755" lon="6.04471">
        <ele>951.1</ele>
        <time>2022-09-03T07:50:39Z</time>
      </trkpt>
      <trkpt lat="45.06761" lon="6.04478">
        <ele>952</ele>
        <time>2022-09-03T07:50:44Z</time>
      </trkpt>
      <trkpt lat="45.06767" lon="6.04478">
        <ele>953.6</ele>
        <time>2022-09-03T07:50:52Z</time>
      </trkpt>
      <trkpt lat="45.06775" lon="6.04479">
        <ele>955.6</ele>
        <time>2022-09-03T07:50:58Z</time>
      </trkpt>
      <trkpt lat="45.06781" lon="6.04482">
        <ele>956.9</ele>
        <time>2022-09-03T07:51:03Z</time>
      </trkpt>
      <trkpt lat="45.06792" lon="6.04486">
        <ele>959.3</ele>
        <time>2022-09-03T07:51:08Z</time>
      </trkpt>
      <trkpt lat="45.06801" lon="6.04493">
        <ele>960.7</ele>
        <time>2022-09-03T07:51:13Z</time>
      </trkpt>
      <trkpt lat="45.06809" lon="6.04499">
        <ele>962</ele>
        <time>2022-09-03T07:51:18Z</time>
      </trkpt>
      <trkpt lat="45.06819" lon="6.04503">
        <ele>963.9</ele>
        <time>2022-09-03T07:51:23Z</time>
      </trkpt>
      <trkpt lat="45.06824" lon="6.04511">
        <ele>963.6</ele>
        <time>2022-09-03T07:51:29Z</time>
      </trkpt>
      <trkpt lat="45.06831" lon="6.04519">
        <ele>963.5</ele>
        <time>2022-09-03T07:51:34Z</time>
      </trkpt>
      <trkpt lat="45.06837" lon="6.04522">
        <ele>963.8</ele>
        <time>2022-09-03T07:51:42Z</time>
      </trkpt>
      <trkpt lat="45.06842" lon="6.0453">
        <ele>962.8</ele>
        <time>2022-09-03T07:51:55Z</time>
      </trkpt>
      <trkpt lat="45.06843" lon="6.0454">
        <ele>960.9</ele>
        <time>2022-09-03T07:52:01Z</time>
      </trkpt>
      <trkpt lat="45.06848" lon="6.04548">
        <ele>959.9</ele>
        <time>2022-09-03T07:52:06Z</time>
      </trkpt>
      <trkpt lat="45.06857" lon="6.04554">
        <ele>960.1</ele>
        <time>2022-09-03T07:52:11Z</time>
      </trkpt>
      <trkpt lat="45.06863" lon="6.04563">
        <ele>959.2</ele>
        <time>2022-09-03T07:52:18Z</time>
      </trkpt>
      <trkpt lat="45.06868" lon="6.0457">
        <ele>958.6</ele>
        <time>2022-09-03T07:52:23Z</time>
      </trkpt>
      <trkpt lat="45.06875" lon="6.0458">
        <ele>957.7</ele>
        <time>2022-09-03T07:52:28Z</time>
      </trkpt>
      <trkpt lat="45.06878" lon="6.0459">
        <ele>957</ele>
        <time>2022-09-03T07:52:34Z</time>
      </trkpt>
      <trkpt lat="45.06886" lon="6.04595">
        <ele>957.6</ele>
        <time>2022-09-03T07:52:39Z</time>
      </trkpt>
      <trkpt lat="45.06895" lon="6.04598">
        <ele>958.4</ele>
        <time>2022-09-03T07:52:44Z</time>
      </trkpt>
      <trkpt lat="45.06902" lon="6.04597">
        <ele>959.4</ele>
        <time>2022-09-03T07:52:52Z</time>
      </trkpt>
      <trkpt lat="45.06911" lon="6.04602">
        <ele>959.6</ele>
        <time>2022-09-03T07:52:57Z</time>
      </trkpt>
      <trkpt lat="45.06918" lon="6.04609">
        <ele>959</ele>
        <time>2022-09-03T07:53:02Z</time>
      </trkpt>
      <trkpt lat="45.06923" lon="6.04615">
        <ele>958.6</ele>
        <time>2022-09-03T07:53:07Z</time>
      </trkpt>
      <trkpt lat="45.06927" lon="6.04624">
        <ele>957.4</ele>
        <time>2022-09-03T07:53:13Z</time>
      </trkpt>
      <trkpt lat="45.06934" lon="6.04622">
        <ele>959</ele>
        <time>2022-09-03T07:53:29Z</time>
      </trkpt>
      <trkpt lat="45.06941" lon="6.04626">
        <ele>959.2</ele>
        <time>2022-09-03T07:53:50Z</time>
      </trkpt>
      <trkpt lat="45.06947" lon="6.04631">
        <ele>959.1</ele>
        <time>2022-09-03T07:53:58Z</time>
      </trkpt>
      <trkpt lat="45.06957" lon="6.04638">
        <ele>959</ele>
        <time>2022-09-03T07:54:03Z</time>
      </trkpt>
      <trkpt lat="45.06965" lon="6.04647">
        <ele>958.1</ele>
        <time>2022-09-03T07:54:08Z</time>
      </trkpt>
      <trkpt lat="45.06968" lon="6.04656">
        <ele>956.3</ele>
        <time>2022-09-03T07:54:13Z</time>
      </trkpt>
      <trkpt lat="45.0697" lon="6.04665">
        <ele>954.4</ele>
        <time>2022-09-03T07:54:18Z</time>
      </trkpt>
      <trkpt lat="45.06974" lon="6.04675">
        <ele>953.5</ele>
        <time>2022-09-03T07:54:23Z</time>
      </trkpt>
      <trkpt lat="45.06978" lon="6.04687">
        <ele>952.2</ele>
        <time>2022-09-03T07:54:28Z</time>
      </trkpt>
      <trkpt lat="45.06981" lon="6.04699">
        <ele>950.6</ele>
        <time>2022-09-03T07:54:33Z</time>
      </trkpt>
      <trkpt lat="45.06986" lon="6.04707">
        <ele>949.4</ele>
        <time>2022-09-03T07:54:38Z</time>
      </trkpt>
      <trkpt lat="45.06991" lon="6.04715">
        <ele>947.9</ele>
        <time>2022-09-03T07:54:43Z</time>
      </trkpt>
      <trkpt lat="45.06994" lon="6.04724">
        <ele>946</ele>
        <time>2022-09-03T07:54:48Z</time>
      </trkpt>
      <trkpt lat="45.06999" lon="6.04735">
        <ele>943.3</ele>
        <time>2022-09-03T07:54:53Z</time>
      </trkpt>
      <trkpt lat="45.07002" lon="6.04746">
        <ele>941.6</ele>
        <time>2022-09-03T07:54:58Z</time>
      </trkpt>
      <trkpt lat="45.07006" lon="6.04756">
        <ele>942.4</ele>
        <time>2022-09-03T07:55:15Z</time>
      </trkpt>
      <trkpt lat="45.07009" lon="6.04765">
        <ele>943.7</ele>
        <time>2022-09-03T07:55:20Z</time>
      </trkpt>
      <trkpt lat="45.07014" lon="6.04777">
        <ele>945.7</ele>
        <time>2022-09-03T07:55:25Z</time>
      </trkpt>
      <trkpt lat="45.07016" lon="6.0479">
        <ele>946.6</ele>
        <time>2022-09-03T07:55:30Z</time>
      </trkpt>
      <trkpt lat="45.07018" lon="6.04801">
        <ele>947.3</ele>
        <time>2022-09-03T07:55:35Z</time>
      </trkpt>
      <trkpt lat="45.07019" lon="6.0481">
        <ele>947.7</ele>
        <time>2022-09-03T07:55:40Z</time>
      </trkpt>
      <trkpt lat="45.07019" lon="6.04821">
        <ele>948</ele>
        <time>2022-09-03T07:55:46Z</time>
      </trkpt>
      <trkpt lat="45.07022" lon="6.04829">
        <ele>948.6</ele>
        <time>2022-09-03T07:55:51Z</time>
      </trkpt>
      <trkpt lat="45.07026" lon="6.04838">
        <ele>949.4</ele>
        <time>2022-09-03T07:55:57Z</time>
      </trkpt>
      <trkpt lat="45.07034" lon="6.04842">
        <ele>950.6</ele>
        <time>2022-09-03T07:56:02Z</time>
      </trkpt>
      <trkpt lat="45.07041" lon="6.04843">
        <ele>951.7</ele>
        <time>2022-09-03T07:56:13Z</time>
      </trkpt>
      <trkpt lat="45.07049" lon="6.04841">
        <ele>953</ele>
        <time>2022-09-03T07:56:18Z</time>
      </trkpt>
      <trkpt lat="45.07057" lon="6.04841">
        <ele>954.2</ele>
        <time>2022-09-03T07:56:25Z</time>
      </trkpt>
      <trkpt lat="45.07066" lon="6.04855">
        <ele>954.7</ele>
        <time>2022-09-03T07:56:30Z</time>
      </trkpt>
      <trkpt lat="45.07066" lon="6.04872">
        <ele>953.5</ele>
        <time>2022-09-03T07:56:35Z</time>
      </trkpt>
      <trkpt lat="45.07062" lon="6.04882">
        <ele>952.5</ele>
        <time>2022-09-03T07:56:40Z</time>
      </trkpt>
      <trkpt lat="45.07057" lon="6.0489">
        <ele>951.7</ele>
        <time>2022-09-03T07:56:46Z</time>
      </trkpt>
      <trkpt lat="45.07053" lon="6.04898">
        <ele>951.1</ele>
        <time>2022-09-03T07:56:51Z</time>
      </trkpt>
      <trkpt lat="45.07047" lon="6.04904">
        <ele>950.5</ele>
        <time>2022-09-03T07:56:57Z</time>
      </trkpt>
      <trkpt lat="45.07041" lon="6.04909">
        <ele>950.2</ele>
        <time>2022-09-03T07:57:02Z</time>
      </trkpt>
      <trkpt lat="45.07035" lon="6.04913">
        <ele>949.9</ele>
        <time>2022-09-03T07:57:08Z</time>
      </trkpt>
      <trkpt lat="45.07038" lon="6.04922">
        <ele>950.4</ele>
        <time>2022-09-03T07:57:16Z</time>
      </trkpt>
      <trkpt lat="45.0704" lon="6.04934">
        <ele>951.5</ele>
        <time>2022-09-03T07:57:21Z</time>
      </trkpt>
      <trkpt lat="45.07041" lon="6.04944">
        <ele>952.3</ele>
        <time>2022-09-03T07:57:27Z</time>
      </trkpt>
      <trkpt lat="45.07041" lon="6.04954">
        <ele>953.2</ele>
        <time>2022-09-03T07:57:32Z</time>
      </trkpt>
      <trkpt lat="45.07042" lon="6.04965">
        <ele>954</ele>
        <time>2022-09-03T07:57:37Z</time>
      </trkpt>
      <trkpt lat="45.07044" lon="6.04978">
        <ele>955</ele>
        <time>2022-09-03T07:57:42Z</time>
      </trkpt>
      <trkpt lat="45.07049" lon="6.04986">
        <ele>955.1</ele>
        <time>2022-09-03T07:57:47Z</time>
      </trkpt>
      <trkpt lat="45.07053" lon="6.04993">
        <ele>955.2</ele>
        <time>2022-09-03T07:57:58Z</time>
      </trkpt>
      <trkpt lat="45.07053" lon="6.05004">
        <ele>956.1</ele>
        <time>2022-09-03T07:58:23Z</time>
      </trkpt>
      <trkpt lat="45.07054" lon="6.05015">
        <ele>957.1</ele>
        <time>2022-09-03T07:58:29Z</time>
      </trkpt>
      <trkpt lat="45.07055" lon="6.05028">
        <ele>958.3</ele>
        <time>2022-09-03T07:58:34Z</time>
      </trkpt>
      <trkpt lat="45.07056" lon="6.05038">
        <ele>959.2</ele>
        <time>2022-09-03T07:58:39Z</time>
      </trkpt>
      <trkpt lat="45.07054" lon="6.05048">
        <ele>960.6</ele>
        <time>2022-09-03T07:58:45Z</time>
      </trkpt>
      <trkpt lat="45.07054" lon="6.05059">
        <ele>961.8</ele>
        <time>2022-09-03T07:58:51Z</time>
      </trkpt>
      <trkpt lat="45.07051" lon="6.05068">
        <ele>963.4</ele>
        <time>2022-09-03T07:58:56Z</time>
      </trkpt>
      <trkpt lat="45.07045" lon="6.05076">
        <ele>965.8</ele>
        <time>2022-09-03T07:59:04Z</time>
      </trkpt>
      <trkpt lat="45.07041" lon="6.05084">
        <ele>967.8</ele>
        <time>2022-09-03T07:59:11Z</time>
      </trkpt>
      <trkpt lat="45.07037" lon="6.05094">
        <ele>970.4</ele>
        <time>2022-09-03T07:59:18Z</time>
      </trkpt>
      <trkpt lat="45.07031" lon="6.05103">
        <ele>973.5</ele>
        <time>2022-09-03T07:59:24Z</time>
      </trkpt>
      <trkpt lat="45.07026" lon="6.0511">
        <ele>975.9</ele>
        <time>2022-09-03T07:59:29Z</time>
      </trkpt>
      <trkpt lat="45.07019" lon="6.05121">
        <ele>979.7</ele>
        <time>2022-09-03T07:59:34Z</time>
      </trkpt>
      <trkpt lat="45.07012" lon="6.05126">
        <ele>982.4</ele>
        <time>2022-09-03T07:59:40Z</time>
      </trkpt>
      <trkpt lat="45.07009" lon="6.05135">
        <ele>984.8</ele>
        <time>2022-09-03T07:59:48Z</time>
      </trkpt>
      <trkpt lat="45.07004" lon="6.05128">
        <ele>985</ele>
        <time>2022-09-03T08:00:24Z</time>
      </trkpt>
      <trkpt lat="45.07011" lon="6.05124">
        <ele>982.4</ele>
        <time>2022-09-03T08:00:42Z</time>
      </trkpt>
      <trkpt lat="45.0702" lon="6.05122">
        <ele>979.6</ele>
        <time>2022-09-03T08:00:47Z</time>
      </trkpt>
      <trkpt lat="45.07028" lon="6.05117">
        <ele>976.6</ele>
        <time>2022-09-03T08:00:52Z</time>
      </trkpt>
      <trkpt lat="45.07033" lon="6.05111">
        <ele>974.3</ele>
        <time>2022-09-03T08:01:01Z</time>
      </trkpt>
      <trkpt lat="45.07037" lon="6.05103">
        <ele>971.9</ele>
        <time>2022-09-03T08:01:13Z</time>
      </trkpt>
      <trkpt lat="45.0704" lon="6.05094">
        <ele>969.7</ele>
        <time>2022-09-03T08:01:19Z</time>
      </trkpt>
      <trkpt lat="45.07047" lon="6.05095">
        <ele>968</ele>
        <time>2022-09-03T08:01:25Z</time>
      </trkpt>
      <trkpt lat="45.07053" lon="6.0509">
        <ele>965.7</ele>
        <time>2022-09-03T08:01:33Z</time>
      </trkpt>
      <trkpt lat="45.07056" lon="6.05082">
        <ele>963.8</ele>
        <time>2022-09-03T08:01:43Z</time>
      </trkpt>
      <trkpt lat="45.07058" lon="6.05071">
        <ele>962.1</ele>
        <time>2022-09-03T08:01:48Z</time>
      </trkpt>
      <trkpt lat="45.07057" lon="6.05061">
        <ele>961.4</ele>
        <time>2022-09-03T08:01:58Z</time>
      </trkpt>
      <trkpt lat="45.07051" lon="6.05055">
        <ele>962</ele>
        <time>2022-09-03T08:02:15Z</time>
      </trkpt>
      <trkpt lat="45.07051" lon="6.05045">
        <ele>960.9</ele>
        <time>2022-09-03T08:02:26Z</time>
      </trkpt>
      <trkpt lat="45.07055" lon="6.05037">
        <ele>959.3</ele>
        <time>2022-09-03T08:02:32Z</time>
      </trkpt>
      <trkpt lat="45.0706" lon="6.05029">
        <ele>957.6</ele>
        <time>2022-09-03T08:02:42Z</time>
      </trkpt>
      <trkpt lat="45.07059" lon="6.05018">
        <ele>956.7</ele>
        <time>2022-09-03T08:02:47Z</time>
      </trkpt>
      <trkpt lat="45.07057" lon="6.05006">
        <ele>955.8</ele>
        <time>2022-09-03T08:02:52Z</time>
      </trkpt>
      <trkpt lat="45.07055" lon="6.04997">
        <ele>955.2</ele>
        <time>2022-09-03T08:03:01Z</time>
      </trkpt>
      <trkpt lat="45.07051" lon="6.04989">
        <ele>955.1</ele>
        <time>2022-09-03T08:03:16Z</time>
      </trkpt>
      <trkpt lat="45.07052" lon="6.04999">
        <ele>955.7</ele>
        <time>2022-09-03T08:05:26Z</time>
      </trkpt>
      <trkpt lat="45.07055" lon="6.05015">
        <ele>957</ele>
        <time>2022-09-03T08:05:31Z</time>
      </trkpt>
      <trkpt lat="45.07058" lon="6.05024">
        <ele>957.4</ele>
        <time>2022-09-03T08:05:38Z</time>
      </trkpt>
      <trkpt lat="45.07058" lon="6.05036">
        <ele>958.6</ele>
        <time>2022-09-03T08:05:43Z</time>
      </trkpt>
      <trkpt lat="45.07053" lon="6.0505">
        <ele>961</ele>
        <time>2022-09-03T08:05:48Z</time>
      </trkpt>
      <trkpt lat="45.07052" lon="6.05061">
        <ele>962.4</ele>
        <time>2022-09-03T08:05:57Z</time>
      </trkpt>
      <trkpt lat="45.07051" lon="6.05071">
        <ele>963.8</ele>
        <time>2022-09-03T08:06:02Z</time>
      </trkpt>
      <trkpt lat="45.07047" lon="6.05081">
        <ele>965.9</ele>
        <time>2022-09-03T08:06:07Z</time>
      </trkpt>
      <trkpt lat="45.07047" lon="6.05092">
        <ele>967.5</ele>
        <time>2022-09-03T08:06:12Z</time>
      </trkpt>
      <trkpt lat="45.07044" lon="6.05101">
        <ele>969.8</ele>
        <time>2022-09-03T08:06:22Z</time>
      </trkpt>
      <trkpt lat="45.07042" lon="6.05111">
        <ele>971.9</ele>
        <time>2022-09-03T08:06:27Z</time>
      </trkpt>
      <trkpt lat="45.07043" lon="6.05125">
        <ele>973.9</ele>
        <time>2022-09-03T08:06:32Z</time>
      </trkpt>
      <trkpt lat="45.07044" lon="6.05135">
        <ele>975.2</ele>
        <time>2022-09-03T08:06:37Z</time>
      </trkpt>
      <trkpt lat="45.07044" lon="6.05147">
        <ele>977.2</ele>
        <time>2022-09-03T08:06:42Z</time>
      </trkpt>
      <trkpt lat="45.07043" lon="6.0516">
        <ele>979.5</ele>
        <time>2022-09-03T08:06:47Z</time>
      </trkpt>
      <trkpt lat="45.07043" lon="6.05172">
        <ele>981.6</ele>
        <time>2022-09-03T08:06:52Z</time>
      </trkpt>
      <trkpt lat="45.07044" lon="6.05181">
        <ele>983</ele>
        <time>2022-09-03T08:06:58Z</time>
      </trkpt>
      <trkpt lat="45.0704" lon="6.0519">
        <ele>986</ele>
        <time>2022-09-03T08:07:05Z</time>
      </trkpt>
      <trkpt lat="45.07035" lon="6.05197">
        <ele>989</ele>
        <time>2022-09-03T08:07:12Z</time>
      </trkpt>
      <trkpt lat="45.07031" lon="6.05205">
        <ele>991.9</ele>
        <time>2022-09-03T08:07:17Z</time>
      </trkpt>
      <trkpt lat="45.07032" lon="6.05227">
        <ele>996</ele>
        <time>2022-09-03T08:07:22Z</time>
      </trkpt>
      <trkpt lat="45.07032" lon="6.05244">
        <ele>999.5</ele>
        <time>2022-09-03T08:07:27Z</time>
      </trkpt>
      <trkpt lat="45.07031" lon="6.05256">
        <ele>1002.8</ele>
        <time>2022-09-03T08:07:32Z</time>
      </trkpt>
      <trkpt lat="45.07031" lon="6.05267">
        <ele>1006</ele>
        <time>2022-09-03T08:07:39Z</time>
      </trkpt>
      <trkpt lat="45.0703" lon="6.0528">
        <ele>1010.2</ele>
        <time>2022-09-03T08:07:44Z</time>
      </trkpt>
      <trkpt lat="45.07029" lon="6.05292">
        <ele>1014.1</ele>
        <time>2022-09-03T08:07:49Z</time>
      </trkpt>
      <trkpt lat="45.07025" lon="6.05302">
        <ele>1018.8</ele>
        <time>2022-09-03T08:07:54Z</time>
      </trkpt>
      <trkpt lat="45.07019" lon="6.05308">
        <ele>1023.2</ele>
        <time>2022-09-03T08:08:00Z</time>
      </trkpt>
      <trkpt lat="45.07018" lon="6.05321">
        <ele>1027.6</ele>
        <time>2022-09-03T08:08:05Z</time>
      </trkpt>
      <trkpt lat="45.07019" lon="6.05332">
        <ele>1030.5</ele>
        <time>2022-09-03T08:08:10Z</time>
      </trkpt>
      <trkpt lat="45.07013" lon="6.05336">
        <ele>1034.5</ele>
        <time>2022-09-03T08:08:16Z</time>
      </trkpt>
      <trkpt lat="45.07009" lon="6.05348">
        <ele>1039.9</ele>
        <time>2022-09-03T08:08:21Z</time>
      </trkpt>
      <trkpt lat="45.07002" lon="6.05349">
        <ele>1043.7</ele>
        <time>2022-09-03T08:08:28Z</time>
      </trkpt>
      <trkpt lat="45.06994" lon="6.05344">
        <ele>1044.7</ele>
        <time>2022-09-03T08:08:34Z</time>
      </trkpt>
      <trkpt lat="45.06987" lon="6.05342">
        <ele>1045.9</ele>
        <time>2022-09-03T08:08:58Z</time>
      </trkpt>
      <trkpt lat="45.06986" lon="6.0533">
        <ele>1042.5</ele>
        <time>2022-09-03T08:09:07Z</time>
      </trkpt>
      <trkpt lat="45.0699" lon="6.05318">
        <ele>1037.7</ele>
        <time>2022-09-03T08:09:12Z</time>
      </trkpt>
      <trkpt lat="45.06992" lon="6.05309">
        <ele>1034.4</ele>
        <time>2022-09-03T08:09:17Z</time>
      </trkpt>
      <trkpt lat="45.06992" lon="6.05299">
        <ele>1031.2</ele>
        <time>2022-09-03T08:09:23Z</time>
      </trkpt>
      <trkpt lat="45.06991" lon="6.0529">
        <ele>1028.7</ele>
        <time>2022-09-03T08:09:28Z</time>
      </trkpt>
      <trkpt lat="45.06986" lon="6.05281">
        <ele>1027.4</ele>
        <time>2022-09-03T08:09:34Z</time>
      </trkpt>
      <trkpt lat="45.06981" lon="6.05271">
        <ele>1026</ele>
        <time>2022-09-03T08:09:40Z</time>
      </trkpt>
      <trkpt lat="45.06975" lon="6.05262">
        <ele>1025.2</ele>
        <time>2022-09-03T08:09:45Z</time>
      </trkpt>
      <trkpt lat="45.06973" lon="6.05252">
        <ele>1023</ele>
        <time>2022-09-03T08:09:53Z</time>
      </trkpt>
      <trkpt lat="45.06971" lon="6.05243">
        <ele>1021.4</ele>
        <time>2022-09-03T08:09:59Z</time>
      </trkpt>
      <trkpt lat="45.06964" lon="6.05238">
        <ele>1022.6</ele>
        <time>2022-09-03T08:10:04Z</time>
      </trkpt>
      <trkpt lat="45.06956" lon="6.05229">
        <ele>1023.1</ele>
        <time>2022-09-03T08:10:09Z</time>
      </trkpt>
      <trkpt lat="45.06952" lon="6.05221">
        <ele>1022.5</ele>
        <time>2022-09-03T08:10:14Z</time>
      </trkpt>
      <trkpt lat="45.06948" lon="6.05213">
        <ele>1021.9</ele>
        <time>2022-09-03T08:10:21Z</time>
      </trkpt>
      <trkpt lat="45.06943" lon="6.05205">
        <ele>1021.7</ele>
        <time>2022-09-03T08:10:27Z</time>
      </trkpt>
      <trkpt lat="45.06938" lon="6.05198">
        <ele>1021.6</ele>
        <time>2022-09-03T08:10:32Z</time>
      </trkpt>
      <trkpt lat="45.06933" lon="6.0519">
        <ele>1021.3</ele>
        <time>2022-09-03T08:10:41Z</time>
      </trkpt>
      <trkpt lat="45.06927" lon="6.05185">
        <ele>1022.1</ele>
        <time>2022-09-03T08:10:47Z</time>
      </trkpt>
      <trkpt lat="45.06921" lon="6.05178">
        <ele>1022.4</ele>
        <time>2022-09-03T08:10:52Z</time>
      </trkpt>
      <trkpt lat="45.06915" lon="6.05174">
        <ele>1023.6</ele>
        <time>2022-09-03T08:10:57Z</time>
      </trkpt>
      <trkpt lat="45.0691" lon="6.05168">
        <ele>1024.3</ele>
        <time>2022-09-03T08:11:03Z</time>
      </trkpt>
      <trkpt lat="45.06905" lon="6.0516">
        <ele>1024.9</ele>
        <time>2022-09-03T08:11:10Z</time>
      </trkpt>
      <trkpt lat="45.069" lon="6.05153">
        <ele>1025.7</ele>
        <time>2022-09-03T08:11:19Z</time>
      </trkpt>
      <trkpt lat="45.06889" lon="6.05151">
        <ele>1030.2</ele>
        <time>2022-09-03T08:11:40Z</time>
      </trkpt>
      <trkpt lat="45.06883" lon="6.05148">
        <ele>1032.3</ele>
        <time>2022-09-03T08:11:50Z</time>
      </trkpt>
      <trkpt lat="45.06879" lon="6.05141">
        <ele>1032.7</ele>
        <time>2022-09-03T08:11:57Z</time>
      </trkpt>
      <trkpt lat="45.06878" lon="6.05131">
        <ele>1031.1</ele>
        <time>2022-09-03T08:12:05Z</time>
      </trkpt>
      <trkpt lat="45.06874" lon="6.05124">
        <ele>1031.5</ele>
        <time>2022-09-03T08:12:10Z</time>
      </trkpt>
      <trkpt lat="45.06868" lon="6.0512">
        <ele>1033.3</ele>
        <time>2022-09-03T08:12:15Z</time>
      </trkpt>
      <trkpt lat="45.06859" lon="6.05112">
        <ele>1035.7</ele>
        <time>2022-09-03T08:12:20Z</time>
      </trkpt>
      <trkpt lat="45.06852" lon="6.05105">
        <ele>1037.3</ele>
        <time>2022-09-03T08:12:25Z</time>
      </trkpt>
      <trkpt lat="45.06848" lon="6.05096">
        <ele>1037.2</ele>
        <time>2022-09-03T08:12:30Z</time>
      </trkpt>
      <trkpt lat="45.06841" lon="6.05088">
        <ele>1038.6</ele>
        <time>2022-09-03T08:12:35Z</time>
      </trkpt>
      <trkpt lat="45.06835" lon="6.05081">
        <ele>1039.7</ele>
        <time>2022-09-03T08:12:40Z</time>
      </trkpt>
      <trkpt lat="45.0683" lon="6.05073">
        <ele>1040.2</ele>
        <time>2022-09-03T08:12:45Z</time>
      </trkpt>
      <trkpt lat="45.06823" lon="6.05068">
        <ele>1042.4</ele>
        <time>2022-09-03T08:12:52Z</time>
      </trkpt>
      <trkpt lat="45.06816" lon="6.05065">
        <ele>1045</ele>
        <time>2022-09-03T08:12:58Z</time>
      </trkpt>
      <trkpt lat="45.06809" lon="6.05063">
        <ele>1047.8</ele>
        <time>2022-09-03T08:13:03Z</time>
      </trkpt>
      <trkpt lat="45.06802" lon="6.05062">
        <ele>1050.8</ele>
        <time>2022-09-03T08:13:09Z</time>
      </trkpt>
      <trkpt lat="45.06795" lon="6.05058">
        <ele>1053</ele>
        <time>2022-09-03T08:13:15Z</time>
      </trkpt>
      <trkpt lat="45.06789" lon="6.05054">
        <ele>1054.6</ele>
        <time>2022-09-03T08:13:20Z</time>
      </trkpt>
      <trkpt lat="45.06782" lon="6.05048">
        <ele>1056.1</ele>
        <time>2022-09-03T08:13:25Z</time>
      </trkpt>
      <trkpt lat="45.06778" lon="6.05039">
        <ele>1055.3</ele>
        <time>2022-09-03T08:13:31Z</time>
      </trkpt>
      <trkpt lat="45.06774" lon="6.05031">
        <ele>1054.7</ele>
        <time>2022-09-03T08:13:37Z</time>
      </trkpt>
      <trkpt lat="45.06768" lon="6.05023">
        <ele>1054.8</ele>
        <time>2022-09-03T08:13:42Z</time>
      </trkpt>
      <trkpt lat="45.06762" lon="6.05015">
        <ele>1054.9</ele>
        <time>2022-09-03T08:13:47Z</time>
      </trkpt>
      <trkpt lat="45.0676" lon="6.05006">
        <ele>1052.9</ele>
        <time>2022-09-03T08:13:52Z</time>
      </trkpt>
      <trkpt lat="45.06756" lon="6.04997">
        <ele>1051.8</ele>
        <time>2022-09-03T08:14:00Z</time>
      </trkpt>
      <trkpt lat="45.06752" lon="6.04987">
        <ele>1050.5</ele>
        <time>2022-09-03T08:14:05Z</time>
      </trkpt>
      <trkpt lat="45.06748" lon="6.04978">
        <ele>1049.6</ele>
        <time>2022-09-03T08:14:12Z</time>
      </trkpt>
      <trkpt lat="45.06745" lon="6.04969">
        <ele>1048.5</ele>
        <time>2022-09-03T08:14:18Z</time>
      </trkpt>
      <trkpt lat="45.06739" lon="6.0496">
        <ele>1048.6</ele>
        <time>2022-09-03T08:14:23Z</time>
      </trkpt>
      <trkpt lat="45.06735" lon="6.04951">
        <ele>1047.8</ele>
        <time>2022-09-03T08:14:30Z</time>
      </trkpt>
      <trkpt lat="45.06729" lon="6.04943">
        <ele>1048</ele>
        <time>2022-09-03T08:14:37Z</time>
      </trkpt>
      <trkpt lat="45.06723" lon="6.04943">
        <ele>1050.7</ele>
        <time>2022-09-03T08:14:47Z</time>
      </trkpt>
      <trkpt lat="45.06719" lon="6.04933">
        <ele>1049.3</ele>
        <time>2022-09-03T08:14:52Z</time>
      </trkpt>
      <trkpt lat="45.06713" lon="6.04927">
        <ele>1050</ele>
        <time>2022-09-03T08:14:59Z</time>
      </trkpt>
      <trkpt lat="45.06709" lon="6.04919">
        <ele>1049</ele>
        <time>2022-09-03T08:15:05Z</time>
      </trkpt>
      <trkpt lat="45.06706" lon="6.04909">
        <ele>1047</ele>
        <time>2022-09-03T08:15:11Z</time>
      </trkpt>
      <trkpt lat="45.06702" lon="6.04901">
        <ele>1046</ele>
        <time>2022-09-03T08:15:16Z</time>
      </trkpt>
      <trkpt lat="45.06697" lon="6.0489">
        <ele>1044.2</ele>
        <time>2022-09-03T08:15:21Z</time>
      </trkpt>
      <trkpt lat="45.06693" lon="6.0488">
        <ele>1042.2</ele>
        <time>2022-09-03T08:15:26Z</time>
      </trkpt>
      <trkpt lat="45.06689" lon="6.04871">
        <ele>1040.4</ele>
        <time>2022-09-03T08:15:31Z</time>
      </trkpt>
      <trkpt lat="45.06687" lon="6.04862">
        <ele>1037.9</ele>
        <time>2022-09-03T08:15:37Z</time>
      </trkpt>
      <trkpt lat="45.06687" lon="6.04852">
        <ele>1034.3</ele>
        <time>2022-09-03T08:15:42Z</time>
      </trkpt>
      <trkpt lat="45.06682" lon="6.04844">
        <ele>1032.9</ele>
        <time>2022-09-03T08:15:51Z</time>
      </trkpt>
      <trkpt lat="45.06678" lon="6.04853">
        <ele>1037.4</ele>
        <time>2022-09-03T08:16:27Z</time>
      </trkpt>
      <trkpt lat="45.06672" lon="6.04858">
        <ele>1041.1</ele>
        <time>2022-09-03T08:16:35Z</time>
      </trkpt>
      <trkpt lat="45.06669" lon="6.04867">
        <ele>1045.6</ele>
        <time>2022-09-03T08:16:48Z</time>
      </trkpt>
      <trkpt lat="45.06664" lon="6.04874">
        <ele>1050</ele>
        <time>2022-09-03T08:16:59Z</time>
      </trkpt>
      <trkpt lat="45.0666" lon="6.04883">
        <ele>1055</ele>
        <time>2022-09-03T08:17:08Z</time>
      </trkpt>
      <trkpt lat="45.06658" lon="6.04892">
        <ele>1059.5</ele>
        <time>2022-09-03T08:17:30Z</time>
      </trkpt>
      <trkpt lat="45.06655" lon="6.049">
        <ele>1063.9</ele>
        <time>2022-09-03T08:17:41Z</time>
      </trkpt>
      <trkpt lat="45.06658" lon="6.04908">
        <ele>1066.1</ele>
        <time>2022-09-03T08:18:04Z</time>
      </trkpt>
      <trkpt lat="45.06661" lon="6.04916">
        <ele>1068.1</ele>
        <time>2022-09-03T08:18:15Z</time>
      </trkpt>
      <trkpt lat="45.06665" lon="6.04924">
        <ele>1069.5</ele>
        <time>2022-09-03T08:18:27Z</time>
      </trkpt>
      <trkpt lat="45.06662" lon="6.04933">
        <ele>1074.3</ele>
        <time>2022-09-03T08:18:36Z</time>
      </trkpt>
      <trkpt lat="45.06666" lon="6.04941">
        <ele>1075.6</ele>
        <time>2022-09-03T08:18:43Z</time>
      </trkpt>
      <trkpt lat="45.06669" lon="6.04949">
        <ele>1077.3</ele>
        <time>2022-09-03T08:18:52Z</time>
      </trkpt>
      <trkpt lat="45.06674" lon="6.04956">
        <ele>1077.7</ele>
        <time>2022-09-03T08:19:00Z</time>
      </trkpt>
      <trkpt lat="45.06679" lon="6.04962">
        <ele>1077.6</ele>
        <time>2022-09-03T08:19:06Z</time>
      </trkpt>
      <trkpt lat="45.06674" lon="6.04968">
        <ele>1082.2</ele>
        <time>2022-09-03T08:19:19Z</time>
      </trkpt>
      <trkpt lat="45.06675" lon="6.04977">
        <ele>1085.1</ele>
        <time>2022-09-03T08:19:31Z</time>
      </trkpt>
      <trkpt lat="45.06676" lon="6.04988">
        <ele>1088.7</ele>
        <time>2022-09-03T08:19:40Z</time>
      </trkpt>
      <trkpt lat="45.06678" lon="6.04999">
        <ele>1091.8</ele>
        <time>2022-09-03T08:19:49Z</time>
      </trkpt>
      <trkpt lat="45.06681" lon="6.05008">
        <ele>1093.2</ele>
        <time>2022-09-03T08:19:56Z</time>
      </trkpt>
      <trkpt lat="45.06683" lon="6.05018">
        <ele>1095.4</ele>
        <time>2022-09-03T08:20:06Z</time>
      </trkpt>
      <trkpt lat="45.06689" lon="6.05023">
        <ele>1093.9</ele>
        <time>2022-09-03T08:20:12Z</time>
      </trkpt>
      <trkpt lat="45.06683" lon="6.0503">
        <ele>1099.3</ele>
        <time>2022-09-03T08:20:24Z</time>
      </trkpt>
      <trkpt lat="45.06679" lon="6.05038">
        <ele>1103.9</ele>
        <time>2022-09-03T08:20:30Z</time>
      </trkpt>
      <trkpt lat="45.06684" lon="6.05047">
        <ele>1104.3</ele>
        <time>2022-09-03T08:20:35Z</time>
      </trkpt>
      <trkpt lat="45.06689" lon="6.05055">
        <ele>1104.3</ele>
        <time>2022-09-03T08:20:41Z</time>
      </trkpt>
      <trkpt lat="45.06694" lon="6.05062">
        <ele>1104</ele>
        <time>2022-09-03T08:20:52Z</time>
      </trkpt>
      <trkpt lat="45.06701" lon="6.05065">
        <ele>1101.3</ele>
        <time>2022-09-03T08:20:57Z</time>
      </trkpt>
      <trkpt lat="45.06696" lon="6.05072">
        <ele>1106.2</ele>
        <time>2022-09-03T08:21:04Z</time>
      </trkpt>
      <trkpt lat="45.06689" lon="6.0508">
        <ele>1112.4</ele>
        <time>2022-09-03T08:21:09Z</time>
      </trkpt>
      <trkpt lat="45.06678" lon="6.05085">
        <ele>1119.6</ele>
        <time>2022-09-03T08:21:16Z</time>
      </trkpt>
      <trkpt lat="45.06673" lon="6.05091">
        <ele>1124</ele>
        <time>2022-09-03T08:21:21Z</time>
      </trkpt>
      <trkpt lat="45.06675" lon="6.05081">
        <ele>1119.9</ele>
        <time>2022-09-03T08:21:33Z</time>
      </trkpt>
      <trkpt lat="45.06668" lon="6.05079">
        <ele>1122.9</ele>
        <time>2022-09-03T08:21:38Z</time>
      </trkpt>
      <trkpt lat="45.06661" lon="6.05082">
        <ele>1128</ele>
        <time>2022-09-03T08:21:43Z</time>
      </trkpt>
      <trkpt lat="45.0667" lon="6.05086">
        <ele>1124.1</ele>
        <time>2022-09-03T08:21:52Z</time>
      </trkpt>
      <trkpt lat="45.06678" lon="6.05083">
        <ele>1119</ele>
        <time>2022-09-03T08:22:07Z</time>
      </trkpt>
      <trkpt lat="45.06694" lon="6.05081">
        <ele>1110.1</ele>
        <time>2022-09-03T08:22:12Z</time>
      </trkpt>
      <trkpt lat="45.0669" lon="6.05089">
        <ele>1114.6</ele>
        <time>2022-09-03T08:22:50Z</time>
      </trkpt>
      <trkpt lat="45.06689" lon="6.05099">
        <ele>1118</ele>
        <time>2022-09-03T08:22:57Z</time>
      </trkpt>
      <trkpt lat="45.06689" lon="6.05109">
        <ele>1120.9</ele>
        <time>2022-09-03T08:23:15Z</time>
      </trkpt>
      <trkpt lat="45.06693" lon="6.05118">
        <ele>1121.4</ele>
        <time>2022-09-03T08:23:27Z</time>
      </trkpt>
      <trkpt lat="45.06698" lon="6.05126">
        <ele>1121.1</ele>
        <time>2022-09-03T08:23:34Z</time>
      </trkpt>
      <trkpt lat="45.06702" lon="6.05134">
        <ele>1121.2</ele>
        <time>2022-09-03T08:23:41Z</time>
      </trkpt>
      <trkpt lat="45.06698" lon="6.05142">
        <ele>1125.6</ele>
        <time>2022-09-03T08:23:50Z</time>
      </trkpt>
      <trkpt lat="45.06699" lon="6.05151">
        <ele>1127.7</ele>
        <time>2022-09-03T08:24:09Z</time>
      </trkpt>
      <trkpt lat="45.06709" lon="6.05157">
        <ele>1123.9</ele>
        <time>2022-09-03T08:24:14Z</time>
      </trkpt>
      <trkpt lat="45.06714" lon="6.05164">
        <ele>1123.1</ele>
        <time>2022-09-03T08:24:21Z</time>
      </trkpt>
      <trkpt lat="45.06712" lon="6.05173">
        <ele>1126.6</ele>
        <time>2022-09-03T08:24:29Z</time>
      </trkpt>
      <trkpt lat="45.06708" lon="6.05181">
        <ele>1131.1</ele>
        <time>2022-09-03T08:24:40Z</time>
      </trkpt>
      <trkpt lat="45.06705" lon="6.05194">
        <ele>1136.4</ele>
        <time>2022-09-03T08:25:00Z</time>
      </trkpt>
      <trkpt lat="45.067" lon="6.05201">
        <ele>1141.5</ele>
        <time>2022-09-03T08:25:11Z</time>
      </trkpt>
      <trkpt lat="45.06699" lon="6.0521">
        <ele>1144.7</ele>
        <time>2022-09-03T08:25:28Z</time>
      </trkpt>
      <trkpt lat="45.06699" lon="6.0522">
        <ele>1147.6</ele>
        <time>2022-09-03T08:25:46Z</time>
      </trkpt>
      <trkpt lat="45.06704" lon="6.05228">
        <ele>1146.5</ele>
        <time>2022-09-03T08:25:51Z</time>
      </trkpt>
      <trkpt lat="45.06709" lon="6.05233">
        <ele>1144.4</ele>
        <time>2022-09-03T08:26:05Z</time>
      </trkpt>
      <trkpt lat="45.06701" lon="6.05236">
        <ele>1150.9</ele>
        <time>2022-09-03T08:26:23Z</time>
      </trkpt>
      <trkpt lat="45.06698" lon="6.05245">
        <ele>1155.6</ele>
        <time>2022-09-03T08:26:37Z</time>
      </trkpt>
      <trkpt lat="45.06693" lon="6.05251">
        <ele>1160.9</ele>
        <time>2022-09-03T08:26:45Z</time>
      </trkpt>
      <trkpt lat="45.06692" lon="6.0526">
        <ele>1163.3</ele>
        <time>2022-09-03T08:27:00Z</time>
      </trkpt>
      <trkpt lat="45.06686" lon="6.05265">
        <ele>1168.6</ele>
        <time>2022-09-03T08:27:13Z</time>
      </trkpt>
      <trkpt lat="45.06681" lon="6.0527">
        <ele>1173.2</ele>
        <time>2022-09-03T08:27:27Z</time>
      </trkpt>
      <trkpt lat="45.06677" lon="6.05278">
        <ele>1177.6</ele>
        <time>2022-09-03T08:27:34Z</time>
      </trkpt>
      <trkpt lat="45.06683" lon="6.0529">
        <ele>1175.4</ele>
        <time>2022-09-03T08:27:47Z</time>
      </trkpt>
      <trkpt lat="45.06689" lon="6.05296">
        <ele>1172.2</ele>
        <time>2022-09-03T08:27:52Z</time>
      </trkpt>
      <trkpt lat="45.06696" lon="6.05303">
        <ele>1168.5</ele>
        <time>2022-09-03T08:27:57Z</time>
      </trkpt>
      <trkpt lat="45.06696" lon="6.05314">
        <ele>1170.6</ele>
        <time>2022-09-03T08:28:36Z</time>
      </trkpt>
      <trkpt lat="45.06699" lon="6.05322">
        <ele>1170</ele>
        <time>2022-09-03T08:28:46Z</time>
      </trkpt>
      <trkpt lat="45.06692" lon="6.05322">
        <ele>1174.9</ele>
        <time>2022-09-03T08:29:13Z</time>
      </trkpt>
      <trkpt lat="45.06685" lon="6.05306">
        <ele>1177</ele>
        <time>2022-09-03T08:29:24Z</time>
      </trkpt>
      <trkpt lat="45.06679" lon="6.05307">
        <ele>1181.4</ele>
        <time>2022-09-03T08:29:47Z</time>
      </trkpt>
      <trkpt lat="45.06677" lon="6.05298">
        <ele>1181.2</ele>
        <time>2022-09-03T08:29:58Z</time>
      </trkpt>
      <trkpt lat="45.06673" lon="6.0529">
        <ele>1182.6</ele>
        <time>2022-09-03T08:30:08Z</time>
      </trkpt>
      <trkpt lat="45.06667" lon="6.05283">
        <ele>1185.7</ele>
        <time>2022-09-03T08:30:15Z</time>
      </trkpt>
      <trkpt lat="45.06666" lon="6.05273">
        <ele>1184.7</ele>
        <time>2022-09-03T08:30:22Z</time>
      </trkpt>
      <trkpt lat="45.06663" lon="6.05265">
        <ele>1185.8</ele>
        <time>2022-09-03T08:30:35Z</time>
      </trkpt>
      <trkpt lat="45.06656" lon="6.05259">
        <ele>1190.5</ele>
        <time>2022-09-03T08:30:40Z</time>
      </trkpt>
      <trkpt lat="45.06651" lon="6.05252">
        <ele>1193.4</ele>
        <time>2022-09-03T08:30:48Z</time>
      </trkpt>
      <trkpt lat="45.06646" lon="6.05245">
        <ele>1195.2</ele>
        <time>2022-09-03T08:31:09Z</time>
      </trkpt>
      <trkpt lat="45.0664" lon="6.05241">
        <ele>1198.6</ele>
        <time>2022-09-03T08:31:36Z</time>
      </trkpt>
      <trkpt lat="45.06638" lon="6.05232">
        <ele>1196.8</ele>
        <time>2022-09-03T08:31:52Z</time>
      </trkpt>
      <trkpt lat="45.06633" lon="6.05226">
        <ele>1198.5</ele>
        <time>2022-09-03T08:32:01Z</time>
      </trkpt>
      <trkpt lat="45.06627" lon="6.05221">
        <ele>1201.4</ele>
        <time>2022-09-03T08:32:11Z</time>
      </trkpt>
      <trkpt lat="45.06623" lon="6.05214">
        <ele>1201.8</ele>
        <time>2022-09-03T08:32:19Z</time>
      </trkpt>
      <trkpt lat="45.06618" lon="6.05206">
        <ele>1202.6</ele>
        <time>2022-09-03T08:32:28Z</time>
      </trkpt>
      <trkpt lat="45.06614" lon="6.05198">
        <ele>1202.5</ele>
        <time>2022-09-03T08:32:37Z</time>
      </trkpt>
      <trkpt lat="45.06608" lon="6.05188">
        <ele>1203.1</ele>
        <time>2022-09-03T08:32:50Z</time>
      </trkpt>
      <trkpt lat="45.06603" lon="6.05176">
        <ele>1202</ele>
        <time>2022-09-03T08:32:55Z</time>
      </trkpt>
      <trkpt lat="45.06601" lon="6.05167">
        <ele>1199.8</ele>
        <time>2022-09-03T08:33:03Z</time>
      </trkpt>
      <trkpt lat="45.06598" lon="6.05158">
        <ele>1198.3</ele>
        <time>2022-09-03T08:33:13Z</time>
      </trkpt>
      <trkpt lat="45.06591" lon="6.05153">
        <ele>1201.3</ele>
        <time>2022-09-03T08:33:22Z</time>
      </trkpt>
      <trkpt lat="45.06592" lon="6.05144">
        <ele>1196.7</ele>
        <time>2022-09-03T08:34:07Z</time>
      </trkpt>
      <trkpt lat="45.06584" lon="6.0514">
        <ele>1200.7</ele>
        <time>2022-09-03T08:34:13Z</time>
      </trkpt>
      <trkpt lat="45.06578" lon="6.05138">
        <ele>1202.7</ele>
        <time>2022-09-03T08:34:22Z</time>
      </trkpt>
      <trkpt lat="45.06571" lon="6.05134">
        <ele>1204.2</ele>
        <time>2022-09-03T08:34:32Z</time>
      </trkpt>
      <trkpt lat="45.06568" lon="6.05126">
        <ele>1201.9</ele>
        <time>2022-09-03T08:34:39Z</time>
      </trkpt>
      <trkpt lat="45.06562" lon="6.0512">
        <ele>1202</ele>
        <time>2022-09-03T08:34:49Z</time>
      </trkpt>
      <trkpt lat="45.06556" lon="6.05117">
        <ele>1203.3</ele>
        <time>2022-09-03T08:34:57Z</time>
      </trkpt>
      <trkpt lat="45.06551" lon="6.0511">
        <ele>1202.4</ele>
        <time>2022-09-03T08:35:08Z</time>
      </trkpt>
      <trkpt lat="45.06545" lon="6.05106">
        <ele>1203.3</ele>
        <time>2022-09-03T08:35:20Z</time>
      </trkpt>
      <trkpt lat="45.0654" lon="6.051">
        <ele>1202.8</ele>
        <time>2022-09-03T08:35:31Z</time>
      </trkpt>
      <trkpt lat="45.06533" lon="6.051">
        <ele>1206</ele>
        <time>2022-09-03T08:36:09Z</time>
      </trkpt>
      <trkpt lat="45.06527" lon="6.05095">
        <ele>1206.4</ele>
        <time>2022-09-03T08:36:17Z</time>
      </trkpt>
      <trkpt lat="45.06523" lon="6.05087">
        <ele>1204.5</ele>
        <time>2022-09-03T08:36:24Z</time>
      </trkpt>
      <trkpt lat="45.06518" lon="6.05081">
        <ele>1204.1</ele>
        <time>2022-09-03T08:36:30Z</time>
      </trkpt>
      <trkpt lat="45.06514" lon="6.05074">
        <ele>1203.1</ele>
        <time>2022-09-03T08:36:42Z</time>
      </trkpt>
      <trkpt lat="45.06508" lon="6.0507">
        <ele>1204.1</ele>
        <time>2022-09-03T08:36:51Z</time>
      </trkpt>
      <trkpt lat="45.06503" lon="6.05063">
        <ele>1203.6</ele>
        <time>2022-09-03T08:36:59Z</time>
      </trkpt>
      <trkpt lat="45.06497" lon="6.05057">
        <ele>1203.5</ele>
        <time>2022-09-03T08:37:05Z</time>
      </trkpt>
      <trkpt lat="45.06491" lon="6.05055">
        <ele>1204.6</ele>
        <time>2022-09-03T08:37:15Z</time>
      </trkpt>
      <trkpt lat="45.06484" lon="6.05051">
        <ele>1205.4</ele>
        <time>2022-09-03T08:37:26Z</time>
      </trkpt>
      <trkpt lat="45.06478" lon="6.05045">
        <ele>1205.3</ele>
        <time>2022-09-03T08:37:36Z</time>
      </trkpt>
      <trkpt lat="45.06472" lon="6.05039">
        <ele>1205.4</ele>
        <time>2022-09-03T08:37:43Z</time>
      </trkpt>
      <trkpt lat="45.0647" lon="6.05048">
        <ele>1209</ele>
        <time>2022-09-03T08:37:49Z</time>
      </trkpt>
      <trkpt lat="45.06463" lon="6.05046">
        <ele>1210.7</ele>
        <time>2022-09-03T08:38:00Z</time>
      </trkpt>
      <trkpt lat="45.06458" lon="6.05054">
        <ele>1214.8</ele>
        <time>2022-09-03T08:38:26Z</time>
      </trkpt>
      <trkpt lat="45.06452" lon="6.05059">
        <ele>1218.2</ele>
        <time>2022-09-03T08:39:05Z</time>
      </trkpt>
      <trkpt lat="45.06445" lon="6.05061">
        <ele>1220.8</ele>
        <time>2022-09-03T08:39:14Z</time>
      </trkpt>
      <trkpt lat="45.0644" lon="6.05067">
        <ele>1223.9</ele>
        <time>2022-09-03T08:39:25Z</time>
      </trkpt>
      <trkpt lat="45.06433" lon="6.0507">
        <ele>1226.7</ele>
        <time>2022-09-03T08:39:33Z</time>
      </trkpt>
      <trkpt lat="45.06426" lon="6.05071">
        <ele>1228.9</ele>
        <time>2022-09-03T08:39:41Z</time>
      </trkpt>
      <trkpt lat="45.06421" lon="6.05066">
        <ele>1229.2</ele>
        <time>2022-09-03T08:39:48Z</time>
      </trkpt>
      <trkpt lat="45.06414" lon="6.05058">
        <ele>1228.7</ele>
        <time>2022-09-03T08:39:53Z</time>
      </trkpt>
      <trkpt lat="45.06407" lon="6.05057">
        <ele>1228</ele>
        <time>2022-09-03T08:40:02Z</time>
      </trkpt>
      <trkpt lat="45.064" lon="6.05057">
        <ele>1227.5</ele>
        <time>2022-09-03T08:40:14Z</time>
      </trkpt>
      <trkpt lat="45.06393" lon="6.05057">
        <ele>1227.1</ele>
        <time>2022-09-03T08:40:32Z</time>
      </trkpt>
      <trkpt lat="45.06389" lon="6.05064">
        <ele>1228.5</ele>
        <time>2022-09-03T08:40:45Z</time>
      </trkpt>
      <trkpt lat="45.06384" lon="6.05055">
        <ele>1226</ele>
        <time>2022-09-03T08:40:54Z</time>
      </trkpt>
      <trkpt lat="45.06383" lon="6.05046">
        <ele>1223.6</ele>
        <time>2022-09-03T08:40:59Z</time>
      </trkpt>
      <trkpt lat="45.0638" lon="6.05037">
        <ele>1221</ele>
        <time>2022-09-03T08:41:06Z</time>
      </trkpt>
      <trkpt lat="45.06373" lon="6.05034">
        <ele>1219.5</ele>
        <time>2022-09-03T08:41:23Z</time>
      </trkpt>
      <trkpt lat="45.06363" lon="6.05025">
        <ele>1215.9</ele>
        <time>2022-09-03T08:41:35Z</time>
      </trkpt>
      <trkpt lat="45.06358" lon="6.05018">
        <ele>1213.2</ele>
        <time>2022-09-03T08:41:42Z</time>
      </trkpt>
      <trkpt lat="45.06352" lon="6.05009">
        <ele>1209.7</ele>
        <time>2022-09-03T08:41:47Z</time>
      </trkpt>
      <trkpt lat="45.06345" lon="6.05008">
        <ele>1208.4</ele>
        <time>2022-09-03T08:42:06Z</time>
      </trkpt>
      <trkpt lat="45.06339" lon="6.05002">
        <ele>1205.5</ele>
        <time>2022-09-03T08:42:15Z</time>
      </trkpt>
      <trkpt lat="45.06333" lon="6.05">
        <ele>1203.8</ele>
        <time>2022-09-03T08:42:27Z</time>
      </trkpt>
      <trkpt lat="45.06327" lon="6.04996">
        <ele>1199</ele>
        <time>2022-09-03T08:42:37Z</time>
      </trkpt>
      <trkpt lat="45.0632" lon="6.04995">
        <ele>1195.1</ele>
        <time>2022-09-03T08:42:46Z</time>
      </trkpt>
      <trkpt lat="45.06312" lon="6.04993">
        <ele>1190.2</ele>
        <time>2022-09-03T08:42:53Z</time>
      </trkpt>
      <trkpt lat="45.06307" lon="6.04986">
        <ele>1184.7</ele>
        <time>2022-09-03T08:43:04Z</time>
      </trkpt>
      <trkpt lat="45.06302" lon="6.04982">
        <ele>1180.5</ele>
        <time>2022-09-03T08:43:12Z</time>
      </trkpt>
      <trkpt lat="45.06295" lon="6.04986">
        <ele>1178.8</ele>
        <time>2022-09-03T08:43:22Z</time>
      </trkpt>
      <trkpt lat="45.06289" lon="6.04985">
        <ele>1175.4</ele>
        <time>2022-09-03T08:43:28Z</time>
      </trkpt>
      <trkpt lat="45.06291" lon="6.04995">
        <ele>1180.6</ele>
        <time>2022-09-03T08:43:35Z</time>
      </trkpt>
      <trkpt lat="45.06285" lon="6.04999">
        <ele>1179.2</ele>
        <time>2022-09-03T08:43:49Z</time>
      </trkpt>
      <trkpt lat="45.06284" lon="6.05008">
        <ele>1181.9</ele>
        <time>2022-09-03T08:43:57Z</time>
      </trkpt>
      <trkpt lat="45.06279" lon="6.05014">
        <ele>1181.5</ele>
        <time>2022-09-03T08:44:10Z</time>
      </trkpt>
      <trkpt lat="45.06275" lon="6.0502">
        <ele>1181.7</ele>
        <time>2022-09-03T08:44:18Z</time>
      </trkpt>
      <trkpt lat="45.06278" lon="6.05029">
        <ele>1186.3</ele>
        <time>2022-09-03T08:44:25Z</time>
      </trkpt>
      <trkpt lat="45.06283" lon="6.05035">
        <ele>1190.9</ele>
        <time>2022-09-03T08:44:32Z</time>
      </trkpt>
      <trkpt lat="45.06284" lon="6.05026">
        <ele>1188.2</ele>
        <time>2022-09-03T08:44:47Z</time>
      </trkpt>
      <trkpt lat="45.06291" lon="6.05021">
        <ele>1190</ele>
        <time>2022-09-03T08:45:06Z</time>
      </trkpt>
      <trkpt lat="45.06295" lon="6.05028">
        <ele>1194.4</ele>
        <time>2022-09-03T08:45:11Z</time>
      </trkpt>
      <trkpt lat="45.06301" lon="6.05033">
        <ele>1199.1</ele>
        <time>2022-09-03T08:45:16Z</time>
      </trkpt>
      <trkpt lat="45.06294" lon="6.05032">
        <ele>1195.3</ele>
        <time>2022-09-03T08:45:34Z</time>
      </trkpt>
      <trkpt lat="45.06288" lon="6.05039">
        <ele>1194.8</ele>
        <time>2022-09-03T08:45:42Z</time>
      </trkpt>
      <trkpt lat="45.06284" lon="6.05045">
        <ele>1194.9</ele>
        <time>2022-09-03T08:46:00Z</time>
      </trkpt>
      <trkpt lat="45.06279" lon="6.05051">
        <ele>1194.6</ele>
        <time>2022-09-03T08:46:11Z</time>
      </trkpt>
      <trkpt lat="45.06278" lon="6.05061">
        <ele>1197.6</ele>
        <time>2022-09-03T08:46:28Z</time>
      </trkpt>
      <trkpt lat="45.06288" lon="6.05066">
        <ele>1204.2</ele>
        <time>2022-09-03T08:47:44Z</time>
      </trkpt>
      <trkpt lat="45.06293" lon="6.05059">
        <ele>1204.2</ele>
        <time>2022-09-03T08:48:08Z</time>
      </trkpt>
      <trkpt lat="45.06298" lon="6.05066">
        <ele>1209</ele>
        <time>2022-09-03T08:48:21Z</time>
      </trkpt>
      <trkpt lat="45.06304" lon="6.05063">
        <ele>1210.9</ele>
        <time>2022-09-03T08:48:33Z</time>
      </trkpt>
      <trkpt lat="45.06311" lon="6.05065">
        <ele>1215</ele>
        <time>2022-09-03T08:48:38Z</time>
      </trkpt>
      <trkpt lat="45.06315" lon="6.05073">
        <ele>1219.7</ele>
        <time>2022-09-03T08:48:47Z</time>
      </trkpt>
      <trkpt lat="45.06308" lon="6.05074">
        <ele>1216.6</ele>
        <time>2022-09-03T08:48:58Z</time>
      </trkpt>
      <trkpt lat="45.06302" lon="6.05073">
        <ele>1213.4</ele>
        <time>2022-09-03T08:49:09Z</time>
      </trkpt>
      <trkpt lat="45.06296" lon="6.05077">
        <ele>1211.9</ele>
        <time>2022-09-03T08:49:22Z</time>
      </trkpt>
      <trkpt lat="45.06303" lon="6.05089">
        <ele>1219.6</ele>
        <time>2022-09-03T08:49:59Z</time>
      </trkpt>
      <trkpt lat="45.06309" lon="6.05092">
        <ele>1223.6</ele>
        <time>2022-09-03T08:50:07Z</time>
      </trkpt>
      <trkpt lat="45.06312" lon="6.05103">
        <ele>1229</ele>
        <time>2022-09-03T08:50:17Z</time>
      </trkpt>
      <trkpt lat="45.06317" lon="6.0511">
        <ele>1233.8</ele>
        <time>2022-09-03T08:50:25Z</time>
      </trkpt>
      <trkpt lat="45.06314" lon="6.05118">
        <ele>1235.4</ele>
        <time>2022-09-03T08:50:51Z</time>
      </trkpt>
      <trkpt lat="45.06307" lon="6.05116">
        <ele>1231.7</ele>
        <time>2022-09-03T08:50:56Z</time>
      </trkpt>
      <trkpt lat="45.06308" lon="6.05125">
        <ele>1235.5</ele>
        <time>2022-09-03T08:51:19Z</time>
      </trkpt>
      <trkpt lat="45.06313" lon="6.05135">
        <ele>1241.3</ele>
        <time>2022-09-03T08:51:24Z</time>
      </trkpt>
      <trkpt lat="45.06319" lon="6.05142">
        <ele>1246.2</ele>
        <time>2022-09-03T08:51:30Z</time>
      </trkpt>
      <trkpt lat="45.06322" lon="6.0515">
        <ele>1250.2</ele>
        <time>2022-09-03T08:51:38Z</time>
      </trkpt>
      <trkpt lat="45.06327" lon="6.05158">
        <ele>1254.8</ele>
        <time>2022-09-03T08:51:59Z</time>
      </trkpt>
      <trkpt lat="45.06326" lon="6.05168">
        <ele>1258.1</ele>
        <time>2022-09-03T08:52:22Z</time>
      </trkpt>
      <trkpt lat="45.06319" lon="6.05168">
        <ele>1255.7</ele>
        <time>2022-09-03T08:52:29Z</time>
      </trkpt>
      <trkpt lat="45.06311" lon="6.05172">
        <ele>1254.9</ele>
        <time>2022-09-03T08:52:52Z</time>
      </trkpt>
      <trkpt lat="45.06315" lon="6.05165">
        <ele>1253</ele>
        <time>2022-09-03T08:53:18Z</time>
      </trkpt>
      <trkpt lat="45.06318" lon="6.05174">
        <ele>1258.4</ele>
        <time>2022-09-03T08:53:44Z</time>
      </trkpt>
      <trkpt lat="45.06324" lon="6.05179">
        <ele>1263</ele>
        <time>2022-09-03T08:53:49Z</time>
      </trkpt>
      <trkpt lat="45.06329" lon="6.05186">
        <ele>1268.4</ele>
        <time>2022-09-03T08:53:58Z</time>
      </trkpt>
      <trkpt lat="45.06336" lon="6.05202">
        <ele>1278.5</ele>
        <time>2022-09-03T08:54:03Z</time>
      </trkpt>
      <trkpt lat="45.06334" lon="6.05211">
        <ele>1282.9</ele>
        <time>2022-09-03T08:54:26Z</time>
      </trkpt>
      <trkpt lat="45.06339" lon="6.05218">
        <ele>1287</ele>
        <time>2022-09-03T08:54:32Z</time>
      </trkpt>
      <trkpt lat="45.06345" lon="6.05224">
        <ele>1290.6</ele>
        <time>2022-09-03T08:54:37Z</time>
      </trkpt>
      <trkpt lat="45.0635" lon="6.0523">
        <ele>1294.1</ele>
        <time>2022-09-03T08:54:45Z</time>
      </trkpt>
      <trkpt lat="45.06355" lon="6.05236">
        <ele>1297.6</ele>
        <time>2022-09-03T08:54:53Z</time>
      </trkpt>
      <trkpt lat="45.06357" lon="6.05247">
        <ele>1303.5</ele>
        <time>2022-09-03T08:55:14Z</time>
      </trkpt>
      <trkpt lat="45.06364" lon="6.05251">
        <ele>1306.1</ele>
        <time>2022-09-03T08:55:37Z</time>
      </trkpt>
      <trkpt lat="45.06369" lon="6.05258">
        <ele>1310</ele>
        <time>2022-09-03T08:55:43Z</time>
      </trkpt>
      <trkpt lat="45.06375" lon="6.05263">
        <ele>1313</ele>
        <time>2022-09-03T08:55:50Z</time>
      </trkpt>
      <trkpt lat="45.06381" lon="6.05268">
        <ele>1316</ele>
        <time>2022-09-03T08:55:58Z</time>
      </trkpt>
      <trkpt lat="45.06387" lon="6.05273">
        <ele>1319.1</ele>
        <time>2022-09-03T08:56:19Z</time>
      </trkpt>
      <trkpt lat="45.06393" lon="6.05277">
        <ele>1321.7</ele>
        <time>2022-09-03T08:56:25Z</time>
      </trkpt>
      <trkpt lat="45.06398" lon="6.05289">
        <ele>1328.2</ele>
        <time>2022-09-03T08:56:42Z</time>
      </trkpt>
      <trkpt lat="45.06404" lon="6.05295">
        <ele>1331.9</ele>
        <time>2022-09-03T08:56:48Z</time>
      </trkpt>
      <trkpt lat="45.06411" lon="6.05298">
        <ele>1334.2</ele>
        <time>2022-09-03T08:56:55Z</time>
      </trkpt>
      <trkpt lat="45.06417" lon="6.05295">
        <ele>1333.1</ele>
        <time>2022-09-03T08:57:25Z</time>
      </trkpt>
      <trkpt lat="45.06422" lon="6.05302">
        <ele>1335</ele>
        <time>2022-09-03T08:57:38Z</time>
      </trkpt>
      <trkpt lat="45.06425" lon="6.05311">
        <ele>1338.4</ele>
        <time>2022-09-03T08:57:50Z</time>
      </trkpt>
      <trkpt lat="45.06431" lon="6.05316">
        <ele>1338.6</ele>
        <time>2022-09-03T08:57:59Z</time>
      </trkpt>
      <trkpt lat="45.06431" lon="6.05325">
        <ele>1343</ele>
        <time>2022-09-03T08:58:10Z</time>
      </trkpt>
      <trkpt lat="45.06431" lon="6.05335">
        <ele>1347.5</ele>
        <time>2022-09-03T08:58:29Z</time>
      </trkpt>
      <trkpt lat="45.06433" lon="6.05344">
        <ele>1349.7</ele>
        <time>2022-09-03T08:58:42Z</time>
      </trkpt>
      <trkpt lat="45.06426" lon="6.05348">
        <ele>1354.2</ele>
        <time>2022-09-03T08:58:56Z</time>
      </trkpt>
      <trkpt lat="45.06422" lon="6.05356">
        <ele>1358.9</ele>
        <time>2022-09-03T08:59:04Z</time>
      </trkpt>
      <trkpt lat="45.06424" lon="6.05366">
        <ele>1361.5</ele>
        <time>2022-09-03T08:59:13Z</time>
      </trkpt>
      <trkpt lat="45.06422" lon="6.05375">
        <ele>1365.7</ele>
        <time>2022-09-03T08:59:30Z</time>
      </trkpt>
      <trkpt lat="45.0642" lon="6.05384">
        <ele>1370.1</ele>
        <time>2022-09-03T08:59:42Z</time>
      </trkpt>
      <trkpt lat="45.06418" lon="6.05393">
        <ele>1374.5</ele>
        <time>2022-09-03T08:59:53Z</time>
      </trkpt>
      <trkpt lat="45.06419" lon="6.05403">
        <ele>1377.6</ele>
        <time>2022-09-03T09:00:04Z</time>
      </trkpt>
      <trkpt lat="45.06412" lon="6.05406">
        <ele>1379.8</ele>
        <time>2022-09-03T09:00:17Z</time>
      </trkpt>
      <trkpt lat="45.06405" lon="6.05405">
        <ele>1379.1</ele>
        <time>2022-09-03T09:00:24Z</time>
      </trkpt>
      <trkpt lat="45.06401" lon="6.05413">
        <ele>1382</ele>
        <time>2022-09-03T09:00:41Z</time>
      </trkpt>
      <trkpt lat="45.06404" lon="6.05421">
        <ele>1385.1</ele>
        <time>2022-09-03T09:00:56Z</time>
      </trkpt>
      <trkpt lat="45.06408" lon="6.05429">
        <ele>1388.1</ele>
        <time>2022-09-03T09:01:02Z</time>
      </trkpt>
      <trkpt lat="45.06412" lon="6.05437">
        <ele>1391</ele>
        <time>2022-09-03T09:01:10Z</time>
      </trkpt>
      <trkpt lat="45.06411" lon="6.05447">
        <ele>1394.6</ele>
        <time>2022-09-03T09:01:18Z</time>
      </trkpt>
      <trkpt lat="45.06412" lon="6.05457">
        <ele>1398.1</ele>
        <time>2022-09-03T09:01:26Z</time>
      </trkpt>
      <trkpt lat="45.06408" lon="6.05467">
        <ele>1401.8</ele>
        <time>2022-09-03T09:01:36Z</time>
      </trkpt>
      <trkpt lat="45.06405" lon="6.05475">
        <ele>1404.9</ele>
        <time>2022-09-03T09:01:47Z</time>
      </trkpt>
      <trkpt lat="45.06408" lon="6.05484">
        <ele>1408</ele>
        <time>2022-09-03T09:01:57Z</time>
      </trkpt>
      <trkpt lat="45.06409" lon="6.05493">
        <ele>1411.1</ele>
        <time>2022-09-03T09:02:06Z</time>
      </trkpt>
      <trkpt lat="45.06411" lon="6.05502">
        <ele>1414.2</ele>
        <time>2022-09-03T09:02:17Z</time>
      </trkpt>
      <trkpt lat="45.06416" lon="6.05509">
        <ele>1416.4</ele>
        <time>2022-09-03T09:02:30Z</time>
      </trkpt>
      <trkpt lat="45.0642" lon="6.05518">
        <ele>1417.4</ele>
        <time>2022-09-03T09:02:38Z</time>
      </trkpt>
      <trkpt lat="45.06422" lon="6.05527">
        <ele>1419.3</ele>
        <time>2022-09-03T09:02:52Z</time>
      </trkpt>
      <trkpt lat="45.06427" lon="6.05532">
        <ele>1417.4</ele>
        <time>2022-09-03T09:03:03Z</time>
      </trkpt>
      <trkpt lat="45.06429" lon="6.05541">
        <ele>1419.1</ele>
        <time>2022-09-03T09:03:10Z</time>
      </trkpt>
      <trkpt lat="45.0643" lon="6.0555">
        <ele>1421.4</ele>
        <time>2022-09-03T09:03:17Z</time>
      </trkpt>
      <trkpt lat="45.0643" lon="6.05562">
        <ele>1425.5</ele>
        <time>2022-09-03T09:03:27Z</time>
      </trkpt>
      <trkpt lat="45.0643" lon="6.05571">
        <ele>1428.6</ele>
        <time>2022-09-03T09:03:35Z</time>
      </trkpt>
      <trkpt lat="45.06431" lon="6.05581">
        <ele>1431.2</ele>
        <time>2022-09-03T09:03:41Z</time>
      </trkpt>
      <trkpt lat="45.06435" lon="6.05589">
        <ele>1429.7</ele>
        <time>2022-09-03T09:03:46Z</time>
      </trkpt>
      <trkpt lat="45.06434" lon="6.05598">
        <ele>1432.2</ele>
        <time>2022-09-03T09:03:54Z</time>
      </trkpt>
      <trkpt lat="45.06433" lon="6.05607">
        <ele>1434.7</ele>
        <time>2022-09-03T09:04:34Z</time>
      </trkpt>
      <trkpt lat="45.06437" lon="6.05615">
        <ele>1432.8</ele>
        <time>2022-09-03T09:04:40Z</time>
      </trkpt>
      <trkpt lat="45.06431" lon="6.05621">
        <ele>1439</ele>
        <time>2022-09-03T09:04:58Z</time>
      </trkpt>
      <trkpt lat="45.06424" lon="6.05618">
        <ele>1444.4</ele>
        <time>2022-09-03T09:05:04Z</time>
      </trkpt>
      <trkpt lat="45.06417" lon="6.0562">
        <ele>1450.8</ele>
        <time>2022-09-03T09:05:10Z</time>
      </trkpt>
      <trkpt lat="45.06409" lon="6.05613">
        <ele>1451.4</ele>
        <time>2022-09-03T09:05:24Z</time>
      </trkpt>
      <trkpt lat="45.06408" lon="6.05624">
        <ele>1453.9</ele>
        <time>2022-09-03T09:05:37Z</time>
      </trkpt>
      <trkpt lat="45.06407" lon="6.05634">
        <ele>1456.3</ele>
        <time>2022-09-03T09:05:45Z</time>
      </trkpt>
      <trkpt lat="45.06409" lon="6.05644">
        <ele>1457.8</ele>
        <time>2022-09-03T09:05:51Z</time>
      </trkpt>
      <trkpt lat="45.06411" lon="6.05654">
        <ele>1459.3</ele>
        <time>2022-09-03T09:06:02Z</time>
      </trkpt>
      <trkpt lat="45.0642" lon="6.05665">
        <ele>1456.8</ele>
        <time>2022-09-03T09:06:07Z</time>
      </trkpt>
      <trkpt lat="45.06426" lon="6.05672">
        <ele>1452.6</ele>
        <time>2022-09-03T09:06:14Z</time>
      </trkpt>
      <trkpt lat="45.06433" lon="6.05675">
        <ele>1447</ele>
        <time>2022-09-03T09:06:20Z</time>
      </trkpt>
      <trkpt lat="45.0644" lon="6.05681">
        <ele>1442</ele>
        <time>2022-09-03T09:06:25Z</time>
      </trkpt>
      <trkpt lat="45.06445" lon="6.05689">
        <ele>1439</ele>
        <time>2022-09-03T09:06:33Z</time>
      </trkpt>
      <trkpt lat="45.06449" lon="6.05696">
        <ele>1436.9</ele>
        <time>2022-09-03T09:06:40Z</time>
      </trkpt>
      <trkpt lat="45.06453" lon="6.05704">
        <ele>1435</ele>
        <time>2022-09-03T09:06:45Z</time>
      </trkpt>
      <trkpt lat="45.06459" lon="6.05713">
        <ele>1431.8</ele>
        <time>2022-09-03T09:06:50Z</time>
      </trkpt>
      <trkpt lat="45.0646" lon="6.05722">
        <ele>1432.7</ele>
        <time>2022-09-03T09:06:55Z</time>
      </trkpt>
      <trkpt lat="45.0646" lon="6.05733">
        <ele>1434.7</ele>
        <time>2022-09-03T09:07:01Z</time>
      </trkpt>
      <trkpt lat="45.06457" lon="6.05749">
        <ele>1439.8</ele>
        <time>2022-09-03T09:07:37Z</time>
      </trkpt>
      <trkpt lat="45.06458" lon="6.05761">
        <ele>1441.9</ele>
        <time>2022-09-03T09:07:42Z</time>
      </trkpt>
      <trkpt lat="45.06457" lon="6.05771">
        <ele>1445.1</ele>
        <time>2022-09-03T09:07:47Z</time>
      </trkpt>
      <trkpt lat="45.06453" lon="6.0578">
        <ele>1450.2</ele>
        <time>2022-09-03T09:07:53Z</time>
      </trkpt>
      <trkpt lat="45.06449" lon="6.05789">
        <ele>1455.3</ele>
        <time>2022-09-03T09:08:00Z</time>
      </trkpt>
      <trkpt lat="45.06445" lon="6.05798">
        <ele>1460.3</ele>
        <time>2022-09-03T09:08:06Z</time>
      </trkpt>
      <trkpt lat="45.06444" lon="6.05808">
        <ele>1463.5</ele>
        <time>2022-09-03T09:08:11Z</time>
      </trkpt>
      <trkpt lat="45.06444" lon="6.0582">
        <ele>1466.4</ele>
        <time>2022-09-03T09:08:16Z</time>
      </trkpt>
      <trkpt lat="45.06442" lon="6.05831">
        <ele>1470.5</ele>
        <time>2022-09-03T09:08:22Z</time>
      </trkpt>
      <trkpt lat="45.06441" lon="6.0584">
        <ele>1472.7</ele>
        <time>2022-09-03T09:08:30Z</time>
      </trkpt>
      <trkpt lat="45.0644" lon="6.05849">
        <ele>1474.7</ele>
        <time>2022-09-03T09:08:36Z</time>
      </trkpt>
      <trkpt lat="45.06443" lon="6.05859">
        <ele>1473.9</ele>
        <time>2022-09-03T09:08:42Z</time>
      </trkpt>
      <trkpt lat="45.06447" lon="6.05868">
        <ele>1472.1</ele>
        <time>2022-09-03T09:08:48Z</time>
      </trkpt>
      <trkpt lat="45.06452" lon="6.05879">
        <ele>1469.8</ele>
        <time>2022-09-03T09:08:53Z</time>
      </trkpt>
      <trkpt lat="45.06456" lon="6.05891">
        <ele>1468.2</ele>
        <time>2022-09-03T09:08:58Z</time>
      </trkpt>
      <trkpt lat="45.06461" lon="6.05897">
        <ele>1465.1</ele>
        <time>2022-09-03T09:09:03Z</time>
      </trkpt>
      <trkpt lat="45.06464" lon="6.05906">
        <ele>1463.7</ele>
        <time>2022-09-03T09:09:08Z</time>
      </trkpt>
      <trkpt lat="45.06468" lon="6.05914">
        <ele>1461.4</ele>
        <time>2022-09-03T09:09:14Z</time>
      </trkpt>
      <trkpt lat="45.0647" lon="6.05923">
        <ele>1460.4</ele>
        <time>2022-09-03T09:09:25Z</time>
      </trkpt>
      <trkpt lat="45.06471" lon="6.05933">
        <ele>1460.1</ele>
        <time>2022-09-03T09:09:30Z</time>
      </trkpt>
      <trkpt lat="45.06474" lon="6.05943">
        <ele>1458.2</ele>
        <time>2022-09-03T09:09:36Z</time>
      </trkpt>
      <trkpt lat="45.06479" lon="6.05952">
        <ele>1454.9</ele>
        <time>2022-09-03T09:09:41Z</time>
      </trkpt>
      <trkpt lat="45.06482" lon="6.05963">
        <ele>1453.3</ele>
        <time>2022-09-03T09:09:46Z</time>
      </trkpt>
      <trkpt lat="45.06484" lon="6.05973">
        <ele>1452.4</ele>
        <time>2022-09-03T09:09:51Z</time>
      </trkpt>
      <trkpt lat="45.06487" lon="6.05981">
        <ele>1450.8</ele>
        <time>2022-09-03T09:10:00Z</time>
      </trkpt>
      <trkpt lat="45.06492" lon="6.05989">
        <ele>1447.8</ele>
        <time>2022-09-03T09:10:06Z</time>
      </trkpt>
      <trkpt lat="45.06496" lon="6.05999">
        <ele>1445.7</ele>
        <time>2022-09-03T09:10:11Z</time>
      </trkpt>
      <trkpt lat="45.06502" lon="6.06002">
        <ele>1442</ele>
        <time>2022-09-03T09:10:40Z</time>
      </trkpt>
      <trkpt lat="45.06503" lon="6.06013">
        <ele>1442.1</ele>
        <time>2022-09-03T09:10:48Z</time>
      </trkpt>
      <trkpt lat="45.06503" lon="6.06022">
        <ele>1442.7</ele>
        <time>2022-09-03T09:10:54Z</time>
      </trkpt>
      <trkpt lat="45.06502" lon="6.06031">
        <ele>1443.8</ele>
        <time>2022-09-03T09:10:59Z</time>
      </trkpt>
      <trkpt lat="45.06499" lon="6.0604">
        <ele>1446</ele>
        <time>2022-09-03T09:11:29Z</time>
      </trkpt>
      <trkpt lat="45.06493" lon="6.06045">
        <ele>1450.1</ele>
        <time>2022-09-03T09:11:37Z</time>
      </trkpt>
      <trkpt lat="45.06486" lon="6.06043">
        <ele>1454.5</ele>
        <time>2022-09-03T09:11:44Z</time>
      </trkpt>
      <trkpt lat="45.06484" lon="6.06052">
        <ele>1456.1</ele>
        <time>2022-09-03T09:11:55Z</time>
      </trkpt>
      <trkpt lat="45.06479" lon="6.06058">
        <ele>1459.3</ele>
        <time>2022-09-03T09:12:09Z</time>
      </trkpt>
      <trkpt lat="45.06482" lon="6.06066">
        <ele>1457.8</ele>
        <time>2022-09-03T09:12:22Z</time>
      </trkpt>
      <trkpt lat="45.06481" lon="6.06077">
        <ele>1458.7</ele>
        <time>2022-09-03T09:12:38Z</time>
      </trkpt>
      <trkpt lat="45.06479" lon="6.06086">
        <ele>1460.2</ele>
        <time>2022-09-03T09:12:43Z</time>
      </trkpt>
      <trkpt lat="45.06473" lon="6.06089">
        <ele>1463.7</ele>
        <time>2022-09-03T09:12:52Z</time>
      </trkpt>
      <trkpt lat="45.0647" lon="6.06098">
        <ele>1465.6</ele>
        <time>2022-09-03T09:12:57Z</time>
      </trkpt>
      <trkpt lat="45.0647" lon="6.06107">
        <ele>1465.7</ele>
        <time>2022-09-03T09:13:06Z</time>
      </trkpt>
      <trkpt lat="45.06477" lon="6.06116">
        <ele>1461.9</ele>
        <time>2022-09-03T09:13:11Z</time>
      </trkpt>
      <trkpt lat="45.06485" lon="6.0612">
        <ele>1457.4</ele>
        <time>2022-09-03T09:13:18Z</time>
      </trkpt>
      <trkpt lat="45.06491" lon="6.06126">
        <ele>1454.2</ele>
        <time>2022-09-03T09:13:25Z</time>
      </trkpt>
      <trkpt lat="45.06497" lon="6.0613">
        <ele>1450.8</ele>
        <time>2022-09-03T09:13:45Z</time>
      </trkpt>
      <trkpt lat="45.06503" lon="6.06126">
        <ele>1447.8</ele>
        <time>2022-09-03T09:14:16Z</time>
      </trkpt>
      <trkpt lat="45.0651" lon="6.06124">
        <ele>1444.8</ele>
        <time>2022-09-03T09:14:24Z</time>
      </trkpt>
      <trkpt lat="45.06516" lon="6.06128">
        <ele>1442.6</ele>
        <time>2022-09-03T09:14:33Z</time>
      </trkpt>
      <trkpt lat="45.06523" lon="6.06132">
        <ele>1440</ele>
        <time>2022-09-03T09:14:42Z</time>
      </trkpt>
      <trkpt lat="45.06529" lon="6.06133">
        <ele>1437.8</ele>
        <time>2022-09-03T09:14:48Z</time>
      </trkpt>
      <trkpt lat="45.06537" lon="6.06134">
        <ele>1434.7</ele>
        <time>2022-09-03T09:14:55Z</time>
      </trkpt>
      <trkpt lat="45.06544" lon="6.06137">
        <ele>1432.4</ele>
        <time>2022-09-03T09:15:01Z</time>
      </trkpt>
      <trkpt lat="45.0655" lon="6.0614">
        <ele>1430.5</ele>
        <time>2022-09-03T09:15:06Z</time>
      </trkpt>
      <trkpt lat="45.06559" lon="6.0614">
        <ele>1427.1</ele>
        <time>2022-09-03T09:15:11Z</time>
      </trkpt>
      <trkpt lat="45.06565" lon="6.06139">
        <ele>1424.7</ele>
        <time>2022-09-03T09:15:16Z</time>
      </trkpt>
      <trkpt lat="45.06572" lon="6.06137">
        <ele>1421.6</ele>
        <time>2022-09-03T09:15:34Z</time>
      </trkpt>
      <trkpt lat="45.06579" lon="6.0614">
        <ele>1419.6</ele>
        <time>2022-09-03T09:15:40Z</time>
      </trkpt>
      <trkpt lat="45.06585" lon="6.06138">
        <ele>1417.4</ele>
        <time>2022-09-03T09:15:46Z</time>
      </trkpt>
      <trkpt lat="45.06593" lon="6.06137">
        <ele>1416.6</ele>
        <time>2022-09-03T09:15:53Z</time>
      </trkpt>
      <trkpt lat="45.06601" lon="6.06138">
        <ele>1416.4</ele>
        <time>2022-09-03T09:15:58Z</time>
      </trkpt>
      <trkpt lat="45.06608" lon="6.06138">
        <ele>1416</ele>
        <time>2022-09-03T09:16:03Z</time>
      </trkpt>
      <trkpt lat="45.06614" lon="6.06137">
        <ele>1415.3</ele>
        <time>2022-09-03T09:16:10Z</time>
      </trkpt>
      <trkpt lat="45.06621" lon="6.06137">
        <ele>1414.9</ele>
        <time>2022-09-03T09:16:16Z</time>
      </trkpt>
      <trkpt lat="45.06628" lon="6.06135">
        <ele>1413.9</ele>
        <time>2022-09-03T09:16:22Z</time>
      </trkpt>
      <trkpt lat="45.06634" lon="6.06132">
        <ele>1412.8</ele>
        <time>2022-09-03T09:16:27Z</time>
      </trkpt>
      <trkpt lat="45.06641" lon="6.06128">
        <ele>1411.2</ele>
        <time>2022-09-03T09:16:33Z</time>
      </trkpt>
      <trkpt lat="45.06645" lon="6.06121">
        <ele>1408.9</ele>
        <time>2022-09-03T09:16:39Z</time>
      </trkpt>
      <trkpt lat="45.0665" lon="6.06113">
        <ele>1406.3</ele>
        <time>2022-09-03T09:16:45Z</time>
      </trkpt>
      <trkpt lat="45.06654" lon="6.06104">
        <ele>1403.3</ele>
        <time>2022-09-03T09:17:44Z</time>
      </trkpt>
      <trkpt lat="45.06659" lon="6.06098">
        <ele>1401.1</ele>
        <time>2022-09-03T09:17:49Z</time>
      </trkpt>
      <trkpt lat="45.06664" lon="6.06091">
        <ele>1398.6</ele>
        <time>2022-09-03T09:17:55Z</time>
      </trkpt>
      <trkpt lat="45.0667" lon="6.06086">
        <ele>1397.4</ele>
        <time>2022-09-03T09:18:00Z</time>
      </trkpt>
      <trkpt lat="45.06677" lon="6.06083">
        <ele>1397.9</ele>
        <time>2022-09-03T09:18:05Z</time>
      </trkpt>
      <trkpt lat="45.06683" lon="6.06078">
        <ele>1397.8</ele>
        <time>2022-09-03T09:18:11Z</time>
      </trkpt>
      <trkpt lat="45.0669" lon="6.06074">
        <ele>1398.1</ele>
        <time>2022-09-03T09:18:17Z</time>
      </trkpt>
      <trkpt lat="45.06695" lon="6.06067">
        <ele>1397.3</ele>
        <time>2022-09-03T09:18:27Z</time>
      </trkpt>
      <trkpt lat="45.06701" lon="6.06062">
        <ele>1397.2</ele>
        <time>2022-09-03T09:18:34Z</time>
      </trkpt>
      <trkpt lat="45.06708" lon="6.06059">
        <ele>1397.8</ele>
        <time>2022-09-03T09:18:40Z</time>
      </trkpt>
      <trkpt lat="45.06715" lon="6.06055">
        <ele>1398.1</ele>
        <time>2022-09-03T09:18:46Z</time>
      </trkpt>
      <trkpt lat="45.06721" lon="6.0605">
        <ele>1398</ele>
        <time>2022-09-03T09:18:52Z</time>
      </trkpt>
      <trkpt lat="45.06726" lon="6.06044">
        <ele>1397.5</ele>
        <time>2022-09-03T09:18:58Z</time>
      </trkpt>
      <trkpt lat="45.06733" lon="6.06043">
        <ele>1398.6</ele>
        <time>2022-09-03T09:19:03Z</time>
      </trkpt>
      <trkpt lat="45.06741" lon="6.0604">
        <ele>1399.4</ele>
        <time>2022-09-03T09:19:08Z</time>
      </trkpt>
      <trkpt lat="45.06747" lon="6.06037">
        <ele>1399.7</ele>
        <time>2022-09-03T09:19:16Z</time>
      </trkpt>
      <trkpt lat="45.06753" lon="6.06033">
        <ele>1400.3</ele>
        <time>2022-09-03T09:19:22Z</time>
      </trkpt>
      <trkpt lat="45.06753" lon="6.06023">
        <ele>1397.8</ele>
        <time>2022-09-03T09:19:35Z</time>
      </trkpt>
      <trkpt lat="45.06756" lon="6.06037">
        <ele>1402.2</ele>
        <time>2022-09-03T09:19:41Z</time>
      </trkpt>
      <trkpt lat="45.06756" lon="6.06052">
        <ele>1405.9</ele>
        <time>2022-09-03T09:19:46Z</time>
      </trkpt>
      <trkpt lat="45.06759" lon="6.06062">
        <ele>1409.3</ele>
        <time>2022-09-03T09:19:51Z</time>
      </trkpt>
      <trkpt lat="45.06764" lon="6.06075">
        <ele>1413.9</ele>
        <time>2022-09-03T09:19:56Z</time>
      </trkpt>
      <trkpt lat="45.06769" lon="6.06067">
        <ele>1413.4</ele>
        <time>2022-09-03T09:20:02Z</time>
      </trkpt>
      <trkpt lat="45.06775" lon="6.06071">
        <ele>1416.1</ele>
        <time>2022-09-03T09:20:09Z</time>
      </trkpt>
      <trkpt lat="45.0678" lon="6.06065">
        <ele>1416.1</ele>
        <time>2022-09-03T09:20:19Z</time>
      </trkpt>
      <trkpt lat="45.06779" lon="6.06053">
        <ele>1413.1</ele>
        <time>2022-09-03T09:20:24Z</time>
      </trkpt>
      <trkpt lat="45.06774" lon="6.06036">
        <ele>1407.7</ele>
        <time>2022-09-03T09:20:29Z</time>
      </trkpt>
      <trkpt lat="45.06771" lon="6.06027">
        <ele>1404.6</ele>
        <time>2022-09-03T09:20:35Z</time>
      </trkpt>
      <trkpt lat="45.06776" lon="6.06022">
        <ele>1405.1</ele>
        <time>2022-09-03T09:20:50Z</time>
      </trkpt>
      <trkpt lat="45.06783" lon="6.06021">
        <ele>1407.2</ele>
        <time>2022-09-03T09:20:56Z</time>
      </trkpt>
      <trkpt lat="45.0679" lon="6.0602">
        <ele>1409.3</ele>
        <time>2022-09-03T09:21:03Z</time>
      </trkpt>
      <trkpt lat="45.06796" lon="6.06024">
        <ele>1412.1</ele>
        <time>2022-09-03T09:21:08Z</time>
      </trkpt>
      <trkpt lat="45.06801" lon="6.06031">
        <ele>1415.2</ele>
        <time>2022-09-03T09:21:13Z</time>
      </trkpt>
      <trkpt lat="45.06806" lon="6.06037">
        <ele>1418</ele>
        <time>2022-09-03T09:21:18Z</time>
      </trkpt>
      <trkpt lat="45.0681" lon="6.06047">
        <ele>1421.3</ele>
        <time>2022-09-03T09:21:24Z</time>
      </trkpt>
      <trkpt lat="45.06813" lon="6.0606">
        <ele>1424.8</ele>
        <time>2022-09-03T09:21:29Z</time>
      </trkpt>
      <trkpt lat="45.06817" lon="6.06067">
        <ele>1427.3</ele>
        <time>2022-09-03T09:21:35Z</time>
      </trkpt>
      <trkpt lat="45.06824" lon="6.06071">
        <ele>1430.1</ele>
        <time>2022-09-03T09:21:52Z</time>
      </trkpt>
      <trkpt lat="45.06825" lon="6.0608">
        <ele>1432.1</ele>
        <time>2022-09-03T09:21:58Z</time>
      </trkpt>
      <trkpt lat="45.06825" lon="6.0609">
        <ele>1433.2</ele>
        <time>2022-09-03T09:22:05Z</time>
      </trkpt>
      <trkpt lat="45.0682" lon="6.06095">
        <ele>1432.3</ele>
        <time>2022-09-03T09:22:19Z</time>
      </trkpt>
      <trkpt lat="45.06814" lon="6.061">
        <ele>1431.2</ele>
        <time>2022-09-03T09:22:25Z</time>
      </trkpt>
      <trkpt lat="45.06808" lon="6.06108">
        <ele>1430.6</ele>
        <time>2022-09-03T09:22:31Z</time>
      </trkpt>
      <trkpt lat="45.06802" lon="6.06116">
        <ele>1430.1</ele>
        <time>2022-09-03T09:22:36Z</time>
      </trkpt>
      <trkpt lat="45.06798" lon="6.06123">
        <ele>1430</ele>
        <time>2022-09-03T09:22:41Z</time>
      </trkpt>
      <trkpt lat="45.06793" lon="6.06131">
        <ele>1430.1</ele>
        <time>2022-09-03T09:22:49Z</time>
      </trkpt>
      <trkpt lat="45.06788" lon="6.06139">
        <ele>1430.2</ele>
        <time>2022-09-03T09:22:56Z</time>
      </trkpt>
      <trkpt lat="45.06785" lon="6.06148">
        <ele>1430.9</ele>
        <time>2022-09-03T09:23:03Z</time>
      </trkpt>
      <trkpt lat="45.06781" lon="6.06156">
        <ele>1431.5</ele>
        <time>2022-09-03T09:23:09Z</time>
      </trkpt>
      <trkpt lat="45.06778" lon="6.06166">
        <ele>1432.6</ele>
        <time>2022-09-03T09:23:15Z</time>
      </trkpt>
      <trkpt lat="45.06777" lon="6.06176">
        <ele>1434.1</ele>
        <time>2022-09-03T09:23:22Z</time>
      </trkpt>
      <trkpt lat="45.06774" lon="6.06185">
        <ele>1435.3</ele>
        <time>2022-09-03T09:23:28Z</time>
      </trkpt>
      <trkpt lat="45.06771" lon="6.06195">
        <ele>1436.7</ele>
        <time>2022-09-03T09:23:35Z</time>
      </trkpt>
      <trkpt lat="45.0677" lon="6.06205">
        <ele>1438.4</ele>
        <time>2022-09-03T09:23:40Z</time>
      </trkpt>
      <trkpt lat="45.0677" lon="6.06216">
        <ele>1440.3</ele>
        <time>2022-09-03T09:23:45Z</time>
      </trkpt>
      <trkpt lat="45.06772" lon="6.06226">
        <ele>1442.1</ele>
        <time>2022-09-03T09:23:53Z</time>
      </trkpt>
      <trkpt lat="45.06775" lon="6.06234">
        <ele>1443.6</ele>
        <time>2022-09-03T09:23:59Z</time>
      </trkpt>
      <trkpt lat="45.06779" lon="6.06242">
        <ele>1445.1</ele>
        <time>2022-09-03T09:24:06Z</time>
      </trkpt>
      <trkpt lat="45.06782" lon="6.06251">
        <ele>1446.6</ele>
        <time>2022-09-03T09:24:11Z</time>
      </trkpt>
      <trkpt lat="45.06783" lon="6.0626">
        <ele>1448.6</ele>
        <time>2022-09-03T09:24:16Z</time>
      </trkpt>
      <trkpt lat="45.06783" lon="6.06271">
        <ele>1451.1</ele>
        <time>2022-09-03T09:24:23Z</time>
      </trkpt>
      <trkpt lat="45.06782" lon="6.06281">
        <ele>1453.4</ele>
        <time>2022-09-03T09:24:29Z</time>
      </trkpt>
      <trkpt lat="45.06778" lon="6.06291">
        <ele>1455.8</ele>
        <time>2022-09-03T09:24:35Z</time>
      </trkpt>
      <trkpt lat="45.06773" lon="6.063">
        <ele>1458.3</ele>
        <time>2022-09-03T09:24:41Z</time>
      </trkpt>
      <trkpt lat="45.06774" lon="6.0631">
        <ele>1460.6</ele>
        <time>2022-09-03T09:24:46Z</time>
      </trkpt>
      <trkpt lat="45.06773" lon="6.0632">
        <ele>1463</ele>
        <time>2022-09-03T09:24:52Z</time>
      </trkpt>
      <trkpt lat="45.06773" lon="6.0633">
        <ele>1465.4</ele>
        <time>2022-09-03T09:25:00Z</time>
      </trkpt>
      <trkpt lat="45.06773" lon="6.06341">
        <ele>1468.1</ele>
        <time>2022-09-03T09:25:06Z</time>
      </trkpt>
      <trkpt lat="45.06771" lon="6.0635">
        <ele>1470.6</ele>
        <time>2022-09-03T09:25:12Z</time>
      </trkpt>
      <trkpt lat="45.06772" lon="6.0636">
        <ele>1472.9</ele>
        <time>2022-09-03T09:25:18Z</time>
      </trkpt>
      <trkpt lat="45.06772" lon="6.0637">
        <ele>1475.3</ele>
        <time>2022-09-03T09:25:24Z</time>
      </trkpt>
      <trkpt lat="45.0677" lon="6.06379">
        <ele>1477.9</ele>
        <time>2022-09-03T09:25:31Z</time>
      </trkpt>
      <trkpt lat="45.06771" lon="6.06389">
        <ele>1480.2</ele>
        <time>2022-09-03T09:25:40Z</time>
      </trkpt>
      <trkpt lat="45.06778" lon="6.06391">
        <ele>1479.5</ele>
        <time>2022-09-03T09:26:01Z</time>
      </trkpt>
      <trkpt lat="45.06783" lon="6.06397">
        <ele>1480</ele>
        <time>2022-09-03T09:26:07Z</time>
      </trkpt>
      <trkpt lat="45.06791" lon="6.064">
        <ele>1479.3</ele>
        <time>2022-09-03T09:26:13Z</time>
      </trkpt>
      <trkpt lat="45.06798" lon="6.06401">
        <ele>1478.3</ele>
        <time>2022-09-03T09:26:20Z</time>
      </trkpt>
      <trkpt lat="45.06806" lon="6.06403">
        <ele>1477.3</ele>
        <time>2022-09-03T09:26:27Z</time>
      </trkpt>
      <trkpt lat="45.06813" lon="6.06402">
        <ele>1475.8</ele>
        <time>2022-09-03T09:26:32Z</time>
      </trkpt>
      <trkpt lat="45.0682" lon="6.064">
        <ele>1474.2</ele>
        <time>2022-09-03T09:26:37Z</time>
      </trkpt>
      <trkpt lat="45.06825" lon="6.06395">
        <ele>1472.3</ele>
        <time>2022-09-03T09:26:45Z</time>
      </trkpt>
      <trkpt lat="45.06832" lon="6.06392">
        <ele>1470.5</ele>
        <time>2022-09-03T09:26:53Z</time>
      </trkpt>
      <trkpt lat="45.06839" lon="6.0639">
        <ele>1469.6</ele>
        <time>2022-09-03T09:26:58Z</time>
      </trkpt>
      <trkpt lat="45.06846" lon="6.06387">
        <ele>1468.7</ele>
        <time>2022-09-03T09:27:03Z</time>
      </trkpt>
      <trkpt lat="45.06852" lon="6.06384">
        <ele>1467.8</ele>
        <time>2022-09-03T09:27:09Z</time>
      </trkpt>
      <trkpt lat="45.06858" lon="6.06376">
        <ele>1466</ele>
        <time>2022-09-03T09:27:15Z</time>
      </trkpt>
      <trkpt lat="45.06866" lon="6.06376">
        <ele>1465.6</ele>
        <time>2022-09-03T09:27:20Z</time>
      </trkpt>
      <trkpt lat="45.06873" lon="6.06375">
        <ele>1465.1</ele>
        <time>2022-09-03T09:27:29Z</time>
      </trkpt>
      <trkpt lat="45.0688" lon="6.06374">
        <ele>1464.6</ele>
        <time>2022-09-03T09:27:34Z</time>
      </trkpt>
      <trkpt lat="45.06887" lon="6.06371">
        <ele>1463.7</ele>
        <time>2022-09-03T09:27:39Z</time>
      </trkpt>
      <trkpt lat="45.06893" lon="6.06366">
        <ele>1462.6</ele>
        <time>2022-09-03T09:27:44Z</time>
      </trkpt>
      <trkpt lat="45.069" lon="6.06364">
        <ele>1461.9</ele>
        <time>2022-09-03T09:27:49Z</time>
      </trkpt>
      <trkpt lat="45.06906" lon="6.0637">
        <ele>1462.7</ele>
        <time>2022-09-03T09:27:55Z</time>
      </trkpt>
      <trkpt lat="45.06913" lon="6.06375">
        <ele>1463.2</ele>
        <time>2022-09-03T09:28:07Z</time>
      </trkpt>
      <trkpt lat="45.06919" lon="6.0638">
        <ele>1463.8</ele>
        <time>2022-09-03T09:28:12Z</time>
      </trkpt>
      <trkpt lat="45.06926" lon="6.06385">
        <ele>1464.6</ele>
        <time>2022-09-03T09:28:18Z</time>
      </trkpt>
      <trkpt lat="45.06932" lon="6.06389">
        <ele>1465.2</ele>
        <time>2022-09-03T09:28:23Z</time>
      </trkpt>
      <trkpt lat="45.06939" lon="6.06394">
        <ele>1466</ele>
        <time>2022-09-03T09:28:29Z</time>
      </trkpt>
      <trkpt lat="45.06945" lon="6.06399">
        <ele>1466.8</ele>
        <time>2022-09-03T09:28:36Z</time>
      </trkpt>
      <trkpt lat="45.06951" lon="6.06403">
        <ele>1467.4</ele>
        <time>2022-09-03T09:28:41Z</time>
      </trkpt>
      <trkpt lat="45.06957" lon="6.0641">
        <ele>1468.4</ele>
        <time>2022-09-03T09:28:48Z</time>
      </trkpt>
      <trkpt lat="45.06963" lon="6.06416">
        <ele>1469.3</ele>
        <time>2022-09-03T09:28:58Z</time>
      </trkpt>
      <trkpt lat="45.06971" lon="6.06418">
        <ele>1469.7</ele>
        <time>2022-09-03T09:29:04Z</time>
      </trkpt>
      <trkpt lat="45.06978" lon="6.0642">
        <ele>1470</ele>
        <time>2022-09-03T09:29:09Z</time>
      </trkpt>
      <trkpt lat="45.06985" lon="6.06421">
        <ele>1470.2</ele>
        <time>2022-09-03T09:29:15Z</time>
      </trkpt>
      <trkpt lat="45.06993" lon="6.06423">
        <ele>1470.6</ele>
        <time>2022-09-03T09:29:21Z</time>
      </trkpt>
      <trkpt lat="45.06999" lon="6.06423">
        <ele>1470.6</ele>
        <time>2022-09-03T09:29:26Z</time>
      </trkpt>
      <trkpt lat="45.07006" lon="6.06426">
        <ele>1471.3</ele>
        <time>2022-09-03T09:29:32Z</time>
      </trkpt>
      <trkpt lat="45.07014" lon="6.06427">
        <ele>1471.5</ele>
        <time>2022-09-03T09:29:37Z</time>
      </trkpt>
      <trkpt lat="45.0702" lon="6.06429">
        <ele>1472</ele>
        <time>2022-09-03T09:29:43Z</time>
      </trkpt>
      <trkpt lat="45.07027" lon="6.0643">
        <ele>1472.2</ele>
        <time>2022-09-03T09:29:49Z</time>
      </trkpt>
      <trkpt lat="45.07034" lon="6.06431">
        <ele>1472.4</ele>
        <time>2022-09-03T09:29:56Z</time>
      </trkpt>
      <trkpt lat="45.07045" lon="6.06432">
        <ele>1472.6</ele>
        <time>2022-09-03T09:30:01Z</time>
      </trkpt>
      <trkpt lat="45.07053" lon="6.06436">
        <ele>1473.7</ele>
        <time>2022-09-03T09:30:06Z</time>
      </trkpt>
      <trkpt lat="45.07059" lon="6.0644">
        <ele>1474.8</ele>
        <time>2022-09-03T09:30:13Z</time>
      </trkpt>
      <trkpt lat="45.07066" lon="6.06442">
        <ele>1475.3</ele>
        <time>2022-09-03T09:30:23Z</time>
      </trkpt>
      <trkpt lat="45.07075" lon="6.06443">
        <ele>1475.6</ele>
        <time>2022-09-03T09:30:28Z</time>
      </trkpt>
      <trkpt lat="45.07083" lon="6.06444">
        <ele>1475.9</ele>
        <time>2022-09-03T09:30:33Z</time>
      </trkpt>
      <trkpt lat="45.0709" lon="6.06446">
        <ele>1476.9</ele>
        <time>2022-09-03T09:30:38Z</time>
      </trkpt>
      <trkpt lat="45.07096" lon="6.06445">
        <ele>1477</ele>
        <time>2022-09-03T09:30:44Z</time>
      </trkpt>
      <trkpt lat="45.07104" lon="6.06446">
        <ele>1477.9</ele>
        <time>2022-09-03T09:30:50Z</time>
      </trkpt>
      <trkpt lat="45.07111" lon="6.06445">
        <ele>1478</ele>
        <time>2022-09-03T09:30:55Z</time>
      </trkpt>
      <trkpt lat="45.07118" lon="6.06446">
        <ele>1478.8</ele>
        <time>2022-09-03T09:31:01Z</time>
      </trkpt>
      <trkpt lat="45.07125" lon="6.06447">
        <ele>1479.6</ele>
        <time>2022-09-03T09:31:06Z</time>
      </trkpt>
      <trkpt lat="45.07132" lon="6.06446">
        <ele>1479.8</ele>
        <time>2022-09-03T09:31:13Z</time>
      </trkpt>
      <trkpt lat="45.07139" lon="6.06446">
        <ele>1480.3</ele>
        <time>2022-09-03T09:31:18Z</time>
      </trkpt>
      <trkpt lat="45.07146" lon="6.06445">
        <ele>1480.4</ele>
        <time>2022-09-03T09:31:23Z</time>
      </trkpt>
      <trkpt lat="45.07153" lon="6.06444">
        <ele>1480.6</ele>
        <time>2022-09-03T09:31:28Z</time>
      </trkpt>
      <trkpt lat="45.07159" lon="6.06441">
        <ele>1480.1</ele>
        <time>2022-09-03T09:31:35Z</time>
      </trkpt>
      <trkpt lat="45.07165" lon="6.06438">
        <ele>1479.5</ele>
        <time>2022-09-03T09:31:40Z</time>
      </trkpt>
      <trkpt lat="45.07172" lon="6.06438">
        <ele>1479.9</ele>
        <time>2022-09-03T09:31:45Z</time>
      </trkpt>
      <trkpt lat="45.07179" lon="6.06436">
        <ele>1479.5</ele>
        <time>2022-09-03T09:31:50Z</time>
      </trkpt>
      <trkpt lat="45.07187" lon="6.06437">
        <ele>1480.1</ele>
        <time>2022-09-03T09:31:55Z</time>
      </trkpt>
      <trkpt lat="45.07194" lon="6.06439">
        <ele>1481.1</ele>
        <time>2022-09-03T09:32:03Z</time>
      </trkpt>
      <trkpt lat="45.07201" lon="6.06437">
        <ele>1480.7</ele>
        <time>2022-09-03T09:32:09Z</time>
      </trkpt>
      <trkpt lat="45.07208" lon="6.06438">
        <ele>1481.3</ele>
        <time>2022-09-03T09:32:14Z</time>
      </trkpt>
      <trkpt lat="45.07215" lon="6.06434">
        <ele>1480.2</ele>
        <time>2022-09-03T09:32:20Z</time>
      </trkpt>
      <trkpt lat="45.07223" lon="6.06433">
        <ele>1480.1</ele>
        <time>2022-09-03T09:32:25Z</time>
      </trkpt>
      <trkpt lat="45.07232" lon="6.06432">
        <ele>1480.1</ele>
        <time>2022-09-03T09:32:30Z</time>
      </trkpt>
      <trkpt lat="45.07238" lon="6.06432">
        <ele>1480.3</ele>
        <time>2022-09-03T09:32:35Z</time>
      </trkpt>
      <trkpt lat="45.07245" lon="6.0643">
        <ele>1479.8</ele>
        <time>2022-09-03T09:33:03Z</time>
      </trkpt>
      <trkpt lat="45.07252" lon="6.06433">
        <ele>1481.2</ele>
        <time>2022-09-03T09:33:10Z</time>
      </trkpt>
      <trkpt lat="45.07258" lon="6.06438">
        <ele>1483.3</ele>
        <time>2022-09-03T09:33:15Z</time>
      </trkpt>
      <trkpt lat="45.07264" lon="6.06441">
        <ele>1484.7</ele>
        <time>2022-09-03T09:33:20Z</time>
      </trkpt>
      <trkpt lat="45.0727" lon="6.06443">
        <ele>1485.8</ele>
        <time>2022-09-03T09:33:25Z</time>
      </trkpt>
      <trkpt lat="45.07277" lon="6.06448">
        <ele>1488</ele>
        <time>2022-09-03T09:33:30Z</time>
      </trkpt>
      <trkpt lat="45.07283" lon="6.06452">
        <ele>1489.7</ele>
        <time>2022-09-03T09:33:35Z</time>
      </trkpt>
      <trkpt lat="45.07291" lon="6.06452">
        <ele>1490.1</ele>
        <time>2022-09-03T09:33:40Z</time>
      </trkpt>
      <trkpt lat="45.07298" lon="6.06447">
        <ele>1488.6</ele>
        <time>2022-09-03T09:33:45Z</time>
      </trkpt>
      <trkpt lat="45.07305" lon="6.06445">
        <ele>1488.2</ele>
        <time>2022-09-03T09:33:50Z</time>
      </trkpt>
      <trkpt lat="45.07312" lon="6.06439">
        <ele>1486.3</ele>
        <time>2022-09-03T09:33:55Z</time>
      </trkpt>
      <trkpt lat="45.0732" lon="6.06436">
        <ele>1485.6</ele>
        <time>2022-09-03T09:34:00Z</time>
      </trkpt>
      <trkpt lat="45.07327" lon="6.06432">
        <ele>1484.4</ele>
        <time>2022-09-03T09:34:05Z</time>
      </trkpt>
      <trkpt lat="45.07333" lon="6.06434">
        <ele>1485.4</ele>
        <time>2022-09-03T09:34:11Z</time>
      </trkpt>
      <trkpt lat="45.07339" lon="6.0643">
        <ele>1484.5</ele>
        <time>2022-09-03T09:34:17Z</time>
      </trkpt>
      <trkpt lat="45.07346" lon="6.06425">
        <ele>1483.4</ele>
        <time>2022-09-03T09:34:23Z</time>
      </trkpt>
      <trkpt lat="45.07352" lon="6.06419">
        <ele>1481.9</ele>
        <time>2022-09-03T09:34:28Z</time>
      </trkpt>
      <trkpt lat="45.07358" lon="6.06412">
        <ele>1480.1</ele>
        <time>2022-09-03T09:34:34Z</time>
      </trkpt>
      <trkpt lat="45.07364" lon="6.06411">
        <ele>1480.4</ele>
        <time>2022-09-03T09:34:40Z</time>
      </trkpt>
      <trkpt lat="45.07371" lon="6.06407">
        <ele>1479.9</ele>
        <time>2022-09-03T09:35:03Z</time>
      </trkpt>
      <trkpt lat="45.07378" lon="6.06408">
        <ele>1481</ele>
        <time>2022-09-03T09:35:09Z</time>
      </trkpt>
      <trkpt lat="45.07385" lon="6.06408">
        <ele>1481.8</ele>
        <time>2022-09-03T09:35:16Z</time>
      </trkpt>
      <trkpt lat="45.07393" lon="6.06409">
        <ele>1483</ele>
        <time>2022-09-03T09:35:22Z</time>
      </trkpt>
      <trkpt lat="45.074" lon="6.06413">
        <ele>1485.1</ele>
        <time>2022-09-03T09:35:28Z</time>
      </trkpt>
      <trkpt lat="45.07407" lon="6.06415">
        <ele>1486.4</ele>
        <time>2022-09-03T09:35:34Z</time>
      </trkpt>
      <trkpt lat="45.07415" lon="6.06414">
        <ele>1487</ele>
        <time>2022-09-03T09:35:39Z</time>
      </trkpt>
      <trkpt lat="45.07422" lon="6.06415">
        <ele>1488.1</ele>
        <time>2022-09-03T09:35:44Z</time>
      </trkpt>
      <trkpt lat="45.0743" lon="6.06413">
        <ele>1488.4</ele>
        <time>2022-09-03T09:35:49Z</time>
      </trkpt>
      <trkpt lat="45.07436" lon="6.06408">
        <ele>1487.7</ele>
        <time>2022-09-03T09:35:54Z</time>
      </trkpt>
      <trkpt lat="45.07442" lon="6.06405">
        <ele>1487.6</ele>
        <time>2022-09-03T09:35:59Z</time>
      </trkpt>
      <trkpt lat="45.07446" lon="6.06395">
        <ele>1485.4</ele>
        <time>2022-09-03T09:36:04Z</time>
      </trkpt>
      <trkpt lat="45.07449" lon="6.06386">
        <ele>1483.4</ele>
        <time>2022-09-03T09:36:09Z</time>
      </trkpt>
      <trkpt lat="45.07455" lon="6.06376">
        <ele>1481.7</ele>
        <time>2022-09-03T09:36:14Z</time>
      </trkpt>
      <trkpt lat="45.07458" lon="6.06367">
        <ele>1479.9</ele>
        <time>2022-09-03T09:36:22Z</time>
      </trkpt>
      <trkpt lat="45.07458" lon="6.06358">
        <ele>1477.7</ele>
        <time>2022-09-03T09:36:45Z</time>
      </trkpt>
      <trkpt lat="45.07461" lon="6.06349">
        <ele>1475.9</ele>
        <time>2022-09-03T09:36:52Z</time>
      </trkpt>
      <trkpt lat="45.07462" lon="6.06338">
        <ele>1473.4</ele>
        <time>2022-09-03T09:37:01Z</time>
      </trkpt>
      <trkpt lat="45.07467" lon="6.0633">
        <ele>1472.3</ele>
        <time>2022-09-03T09:37:08Z</time>
      </trkpt>
      <trkpt lat="45.07474" lon="6.06327">
        <ele>1473</ele>
        <time>2022-09-03T09:37:25Z</time>
      </trkpt>
      <trkpt lat="45.07477" lon="6.06315">
        <ele>1470.4</ele>
        <time>2022-09-03T09:37:30Z</time>
      </trkpt>
      <trkpt lat="45.07481" lon="6.06308">
        <ele>1469.4</ele>
        <time>2022-09-03T09:37:35Z</time>
      </trkpt>
      <trkpt lat="45.07491" lon="6.06308">
        <ele>1471.8</ele>
        <time>2022-09-03T09:37:40Z</time>
      </trkpt>
      <trkpt lat="45.07498" lon="6.06305">
        <ele>1472.7</ele>
        <time>2022-09-03T09:38:08Z</time>
      </trkpt>
      <trkpt lat="45.07504" lon="6.0631">
        <ele>1475.3</ele>
        <time>2022-09-03T09:38:19Z</time>
      </trkpt>
      <trkpt lat="45.07509" lon="6.06305">
        <ele>1475.4</ele>
        <time>2022-09-03T09:38:26Z</time>
      </trkpt>
      <trkpt lat="45.07516" lon="6.06301">
        <ele>1476.1</ele>
        <time>2022-09-03T09:38:32Z</time>
      </trkpt>
      <trkpt lat="45.07522" lon="6.06296">
        <ele>1476.5</ele>
        <time>2022-09-03T09:38:40Z</time>
      </trkpt>
      <trkpt lat="45.07528" lon="6.06289">
        <ele>1476.5</ele>
        <time>2022-09-03T09:38:48Z</time>
      </trkpt>
      <trkpt lat="45.07535" lon="6.06289">
        <ele>1478.3</ele>
        <time>2022-09-03T09:38:53Z</time>
      </trkpt>
      <trkpt lat="45.07541" lon="6.06291">
        <ele>1480.2</ele>
        <time>2022-09-03T09:38:58Z</time>
      </trkpt>
      <trkpt lat="45.07548" lon="6.06292">
        <ele>1482.2</ele>
        <time>2022-09-03T09:39:06Z</time>
      </trkpt>
      <trkpt lat="45.07554" lon="6.06292">
        <ele>1483.7</ele>
        <time>2022-09-03T09:39:18Z</time>
      </trkpt>
      <trkpt lat="45.07561" lon="6.06296">
        <ele>1486.2</ele>
        <time>2022-09-03T09:39:26Z</time>
      </trkpt>
      <trkpt lat="45.07567" lon="6.06295">
        <ele>1487.5</ele>
        <time>2022-09-03T09:39:35Z</time>
      </trkpt>
      <trkpt lat="45.07574" lon="6.06289">
        <ele>1488.2</ele>
        <time>2022-09-03T09:39:43Z</time>
      </trkpt>
      <trkpt lat="45.0758" lon="6.06286">
        <ele>1489.2</ele>
        <time>2022-09-03T09:39:49Z</time>
      </trkpt>
      <trkpt lat="45.07586" lon="6.06286">
        <ele>1490.5</ele>
        <time>2022-09-03T09:39:58Z</time>
      </trkpt>
      <trkpt lat="45.07593" lon="6.06285">
        <ele>1491.4</ele>
        <time>2022-09-03T09:40:06Z</time>
      </trkpt>
      <trkpt lat="45.076" lon="6.06285">
        <ele>1492.4</ele>
        <time>2022-09-03T09:40:14Z</time>
      </trkpt>
      <trkpt lat="45.07607" lon="6.06288">
        <ele>1494</ele>
        <time>2022-09-03T09:40:22Z</time>
      </trkpt>
      <trkpt lat="45.07614" lon="6.0629">
        <ele>1495.3</ele>
        <time>2022-09-03T09:40:32Z</time>
      </trkpt>
      <trkpt lat="45.07621" lon="6.06292">
        <ele>1496.7</ele>
        <time>2022-09-03T09:40:38Z</time>
      </trkpt>
      <trkpt lat="45.07628" lon="6.06291">
        <ele>1497.6</ele>
        <time>2022-09-03T09:40:43Z</time>
      </trkpt>
      <trkpt lat="45.07637" lon="6.0629">
        <ele>1498.8</ele>
        <time>2022-09-03T09:40:48Z</time>
      </trkpt>
      <trkpt lat="45.07647" lon="6.06292">
        <ele>1500.6</ele>
        <time>2022-09-03T09:40:53Z</time>
      </trkpt>
      <trkpt lat="45.07654" lon="6.06292">
        <ele>1501.6</ele>
        <time>2022-09-03T09:40:58Z</time>
      </trkpt>
      <trkpt lat="45.07661" lon="6.06295">
        <ele>1503.1</ele>
        <time>2022-09-03T09:41:04Z</time>
      </trkpt>
      <trkpt lat="45.07667" lon="6.06299">
        <ele>1504.5</ele>
        <time>2022-09-03T09:41:11Z</time>
      </trkpt>
      <trkpt lat="45.07675" lon="6.06302">
        <ele>1505.5</ele>
        <time>2022-09-03T09:41:17Z</time>
      </trkpt>
      <trkpt lat="45.07683" lon="6.06303">
        <ele>1506.3</ele>
        <time>2022-09-03T09:41:22Z</time>
      </trkpt>
      <trkpt lat="45.07689" lon="6.06304">
        <ele>1506.9</ele>
        <time>2022-09-03T09:41:28Z</time>
      </trkpt>
      <trkpt lat="45.07696" lon="6.06307">
        <ele>1507.9</ele>
        <time>2022-09-03T09:41:33Z</time>
      </trkpt>
      <trkpt lat="45.07703" lon="6.06307">
        <ele>1508.4</ele>
        <time>2022-09-03T09:41:39Z</time>
      </trkpt>
      <trkpt lat="45.0771" lon="6.06308">
        <ele>1509.1</ele>
        <time>2022-09-03T09:41:44Z</time>
      </trkpt>
      <trkpt lat="45.07718" lon="6.06313">
        <ele>1510.5</ele>
        <time>2022-09-03T09:41:49Z</time>
      </trkpt>
      <trkpt lat="45.07724" lon="6.06318">
        <ele>1511.7</ele>
        <time>2022-09-03T09:41:54Z</time>
      </trkpt>
      <trkpt lat="45.07731" lon="6.06322">
        <ele>1512.8</ele>
        <time>2022-09-03T09:41:59Z</time>
      </trkpt>
      <trkpt lat="45.07737" lon="6.06326">
        <ele>1513.9</ele>
        <time>2022-09-03T09:42:05Z</time>
      </trkpt>
      <trkpt lat="45.07743" lon="6.0633">
        <ele>1514.9</ele>
        <time>2022-09-03T09:42:11Z</time>
      </trkpt>
      <trkpt lat="45.07749" lon="6.06335">
        <ele>1516.3</ele>
        <time>2022-09-03T09:42:17Z</time>
      </trkpt>
      <trkpt lat="45.07757" lon="6.06335">
        <ele>1516.3</ele>
        <time>2022-09-03T09:42:22Z</time>
      </trkpt>
      <trkpt lat="45.07764" lon="6.06338">
        <ele>1516.8</ele>
        <time>2022-09-03T09:42:28Z</time>
      </trkpt>
      <trkpt lat="45.07769" lon="6.06344">
        <ele>1517.9</ele>
        <time>2022-09-03T09:42:37Z</time>
      </trkpt>
      <trkpt lat="45.07774" lon="6.0635">
        <ele>1519.1</ele>
        <time>2022-09-03T09:42:46Z</time>
      </trkpt>
      <trkpt lat="45.0778" lon="6.06356">
        <ele>1520.3</ele>
        <time>2022-09-03T09:42:54Z</time>
      </trkpt>
      <trkpt lat="45.07783" lon="6.06364">
        <ele>1521.9</ele>
        <time>2022-09-03T09:43:01Z</time>
      </trkpt>
      <trkpt lat="45.0779" lon="6.06367">
        <ele>1522.4</ele>
        <time>2022-09-03T09:43:08Z</time>
      </trkpt>
      <trkpt lat="45.07796" lon="6.0637">
        <ele>1522.9</ele>
        <time>2022-09-03T09:43:16Z</time>
      </trkpt>
      <trkpt lat="45.07803" lon="6.06374">
        <ele>1523.7</ele>
        <time>2022-09-03T09:43:25Z</time>
      </trkpt>
      <trkpt lat="45.07809" lon="6.06381">
        <ele>1525</ele>
        <time>2022-09-03T09:43:31Z</time>
      </trkpt>
      <trkpt lat="45.07813" lon="6.06388">
        <ele>1526.4</ele>
        <time>2022-09-03T09:43:42Z</time>
      </trkpt>
      <trkpt lat="45.0782" lon="6.06391">
        <ele>1526.9</ele>
        <time>2022-09-03T09:44:07Z</time>
      </trkpt>
      <trkpt lat="45.07829" lon="6.06394">
        <ele>1527.4</ele>
        <time>2022-09-03T09:44:12Z</time>
      </trkpt>
      <trkpt lat="45.07837" lon="6.06399">
        <ele>1528.4</ele>
        <time>2022-09-03T09:44:17Z</time>
      </trkpt>
      <trkpt lat="45.07843" lon="6.06403">
        <ele>1529.2</ele>
        <time>2022-09-03T09:44:22Z</time>
      </trkpt>
      <trkpt lat="45.07848" lon="6.0641">
        <ele>1530.6</ele>
        <time>2022-09-03T09:44:29Z</time>
      </trkpt>
      <trkpt lat="45.07855" lon="6.06413">
        <ele>1531.2</ele>
        <time>2022-09-03T09:44:34Z</time>
      </trkpt>
      <trkpt lat="45.07861" lon="6.06416">
        <ele>1531.9</ele>
        <time>2022-09-03T09:44:39Z</time>
      </trkpt>
      <trkpt lat="45.07867" lon="6.06422">
        <ele>1533.8</ele>
        <time>2022-09-03T09:44:47Z</time>
      </trkpt>
      <trkpt lat="45.07872" lon="6.06427">
        <ele>1535.4</ele>
        <time>2022-09-03T09:44:53Z</time>
      </trkpt>
      <trkpt lat="45.07879" lon="6.0643">
        <ele>1536.4</ele>
        <time>2022-09-03T09:45:03Z</time>
      </trkpt>
      <trkpt lat="45.07887" lon="6.06429">
        <ele>1536</ele>
        <time>2022-09-03T09:45:10Z</time>
      </trkpt>
      <trkpt lat="45.07893" lon="6.06433">
        <ele>1537.3</ele>
        <time>2022-09-03T09:45:16Z</time>
      </trkpt>
      <trkpt lat="45.079" lon="6.0643">
        <ele>1536.4</ele>
        <time>2022-09-03T09:45:24Z</time>
      </trkpt>
      <trkpt lat="45.07908" lon="6.06433">
        <ele>1537.3</ele>
        <time>2022-09-03T09:45:29Z</time>
      </trkpt>
      <trkpt lat="45.07914" lon="6.06437">
        <ele>1538.6</ele>
        <time>2022-09-03T09:45:39Z</time>
      </trkpt>
      <trkpt lat="45.07917" lon="6.06445">
        <ele>1541.1</ele>
        <time>2022-09-03T09:45:49Z</time>
      </trkpt>
      <trkpt lat="45.07917" lon="6.06455">
        <ele>1544.3</ele>
        <time>2022-09-03T09:46:02Z</time>
      </trkpt>
      <trkpt lat="45.07917" lon="6.0647">
        <ele>1549.1</ele>
        <time>2022-09-03T09:46:43Z</time>
      </trkpt>
      <trkpt lat="45.07916" lon="6.06479">
        <ele>1552.2</ele>
        <time>2022-09-03T09:46:49Z</time>
      </trkpt>
      <trkpt lat="45.0792" lon="6.06488">
        <ele>1553.7</ele>
        <time>2022-09-03T09:46:55Z</time>
      </trkpt>
      <trkpt lat="45.07925" lon="6.06495">
        <ele>1553.7</ele>
        <time>2022-09-03T09:47:01Z</time>
      </trkpt>
      <trkpt lat="45.07923" lon="6.06504">
        <ele>1557.7</ele>
        <time>2022-09-03T09:47:15Z</time>
      </trkpt>
      <trkpt lat="45.07929" lon="6.06509">
        <ele>1556.8</ele>
        <time>2022-09-03T09:47:31Z</time>
      </trkpt>
      <trkpt lat="45.07934" lon="6.06516">
        <ele>1557</ele>
        <time>2022-09-03T09:47:49Z</time>
      </trkpt>
      <trkpt lat="45.0794" lon="6.06519">
        <ele>1555.3</ele>
        <time>2022-09-03T09:48:19Z</time>
      </trkpt>
      <trkpt lat="45.07945" lon="6.06527">
        <ele>1555.7</ele>
        <time>2022-09-03T09:48:29Z</time>
      </trkpt>
      <trkpt lat="45.07952" lon="6.06533">
        <ele>1554.4</ele>
        <time>2022-09-03T09:48:36Z</time>
      </trkpt>
      <trkpt lat="45.07954" lon="6.06542">
        <ele>1556.5</ele>
        <time>2022-09-03T09:48:43Z</time>
      </trkpt>
      <trkpt lat="45.07956" lon="6.06552">
        <ele>1558.8</ele>
        <time>2022-09-03T09:48:48Z</time>
      </trkpt>
      <trkpt lat="45.07957" lon="6.06561">
        <ele>1561.3</ele>
        <time>2022-09-03T09:48:53Z</time>
      </trkpt>
      <trkpt lat="45.07955" lon="6.06571">
        <ele>1565.6</ele>
        <time>2022-09-03T09:48:58Z</time>
      </trkpt>
      <trkpt lat="45.07956" lon="6.06581">
        <ele>1568.5</ele>
        <time>2022-09-03T09:49:10Z</time>
      </trkpt>
      <trkpt lat="45.07957" lon="6.06591">
        <ele>1571.7</ele>
        <time>2022-09-03T09:49:25Z</time>
      </trkpt>
      <trkpt lat="45.0795" lon="6.06596">
        <ele>1577.1</ele>
        <time>2022-09-03T09:49:57Z</time>
      </trkpt>
      <trkpt lat="45.07949" lon="6.06605">
        <ele>1580.9</ele>
        <time>2022-09-03T09:50:09Z</time>
      </trkpt>
      <trkpt lat="45.07953" lon="6.06612">
        <ele>1581.7</ele>
        <time>2022-09-03T09:50:22Z</time>
      </trkpt>
      <trkpt lat="45.07959" lon="6.0662">
        <ele>1582.2</ele>
        <time>2022-09-03T09:50:45Z</time>
      </trkpt>
      <trkpt lat="45.07963" lon="6.06627">
        <ele>1583.5</ele>
        <time>2022-09-03T09:50:56Z</time>
      </trkpt>
      <trkpt lat="45.07967" lon="6.06635">
        <ele>1585.3</ele>
        <time>2022-09-03T09:51:04Z</time>
      </trkpt>
      <trkpt lat="45.0797" lon="6.06643">
        <ele>1587.7</ele>
        <time>2022-09-03T09:51:20Z</time>
      </trkpt>
      <trkpt lat="45.07979" lon="6.06648">
        <ele>1586.9</ele>
        <time>2022-09-03T09:51:58Z</time>
      </trkpt>
      <trkpt lat="45.07984" lon="6.06654">
        <ele>1588.2</ele>
        <time>2022-09-03T09:52:08Z</time>
      </trkpt>
      <trkpt lat="45.07986" lon="6.06664">
        <ele>1592.4</ele>
        <time>2022-09-03T09:52:24Z</time>
      </trkpt>
      <trkpt lat="45.07991" lon="6.0667">
        <ele>1593</ele>
        <time>2022-09-03T09:52:53Z</time>
      </trkpt>
      <trkpt lat="45.07993" lon="6.06679">
        <ele>1594.2</ele>
        <time>2022-09-03T09:53:11Z</time>
      </trkpt>
      <trkpt lat="45.07999" lon="6.06683">
        <ele>1593.4</ele>
        <time>2022-09-03T09:53:19Z</time>
      </trkpt>
      <trkpt lat="45.08005" lon="6.06685">
        <ele>1586.3</ele>
        <time>2022-09-03T09:53:41Z</time>
      </trkpt>
      <trkpt lat="45.0801" lon="6.06678">
        <ele>1577.8</ele>
        <time>2022-09-03T09:54:02Z</time>
      </trkpt>
      <trkpt lat="45.08014" lon="6.06686">
        <ele>1573.5</ele>
        <time>2022-09-03T09:54:34Z</time>
      </trkpt>
      <trkpt lat="45.08018" lon="6.06694">
        <ele>1569.1</ele>
        <time>2022-09-03T09:54:45Z</time>
      </trkpt>
      <trkpt lat="45.08023" lon="6.067">
        <ele>1562.9</ele>
        <time>2022-09-03T09:55:03Z</time>
      </trkpt>
      <trkpt lat="45.08022" lon="6.0671">
        <ele>1566.1</ele>
        <time>2022-09-03T09:55:20Z</time>
      </trkpt>
      <trkpt lat="45.08019" lon="6.06721">
        <ele>1572.4</ele>
        <time>2022-09-03T09:55:40Z</time>
      </trkpt>
      <trkpt lat="45.08021" lon="6.0673">
        <ele>1571</ele>
        <time>2022-09-03T09:55:51Z</time>
      </trkpt>
      <trkpt lat="45.08023" lon="6.06739">
        <ele>1569.6</ele>
        <time>2022-09-03T09:55:58Z</time>
      </trkpt>
      <trkpt lat="45.08025" lon="6.06749">
        <ele>1568.3</ele>
        <time>2022-09-03T09:56:04Z</time>
      </trkpt>
      <trkpt lat="45.08025" lon="6.06759">
        <ele>1569.4</ele>
        <time>2022-09-03T09:56:12Z</time>
      </trkpt>
      <trkpt lat="45.0803" lon="6.06766">
        <ele>1562.9</ele>
        <time>2022-09-03T09:56:20Z</time>
      </trkpt>
      <trkpt lat="45.08033" lon="6.06774">
        <ele>1559.7</ele>
        <time>2022-09-03T09:56:26Z</time>
      </trkpt>
      <trkpt lat="45.08036" lon="6.06783">
        <ele>1556.9</ele>
        <time>2022-09-03T09:56:32Z</time>
      </trkpt>
      <trkpt lat="45.08037" lon="6.06793">
        <ele>1557</ele>
        <time>2022-09-03T09:56:40Z</time>
      </trkpt>
      <trkpt lat="45.08039" lon="6.06802">
        <ele>1555.9</ele>
        <time>2022-09-03T09:56:46Z</time>
      </trkpt>
      <trkpt lat="45.08041" lon="6.06812">
        <ele>1555.1</ele>
        <time>2022-09-03T09:56:52Z</time>
      </trkpt>
      <trkpt lat="45.08039" lon="6.06821">
        <ele>1559</ele>
        <time>2022-09-03T09:57:00Z</time>
      </trkpt>
      <trkpt lat="45.08043" lon="6.06829">
        <ele>1555.7</ele>
        <time>2022-09-03T09:57:07Z</time>
      </trkpt>
      <trkpt lat="45.08047" lon="6.06837">
        <ele>1552.5</ele>
        <time>2022-09-03T09:57:15Z</time>
      </trkpt>
      <trkpt lat="45.0805" lon="6.06846">
        <ele>1550</ele>
        <time>2022-09-03T09:57:24Z</time>
      </trkpt>
      <trkpt lat="45.08054" lon="6.06855">
        <ele>1546.4</ele>
        <time>2022-09-03T09:57:32Z</time>
      </trkpt>
      <trkpt lat="45.08061" lon="6.06856">
        <ele>1538.7</ele>
        <time>2022-09-03T09:58:13Z</time>
      </trkpt>
      <trkpt lat="45.08066" lon="6.06863">
        <ele>1533.6</ele>
        <time>2022-09-03T09:58:22Z</time>
      </trkpt>
      <trkpt lat="45.08071" lon="6.0687">
        <ele>1528.6</ele>
        <time>2022-09-03T09:58:30Z</time>
      </trkpt>
      <trkpt lat="45.08072" lon="6.0686">
        <ele>1526.6</ele>
        <time>2022-09-03T09:58:48Z</time>
      </trkpt>
      <trkpt lat="45.08078" lon="6.06865">
        <ele>1520.3</ele>
        <time>2022-09-03T09:59:12Z</time>
      </trkpt>
      <trkpt lat="45.08085" lon="6.06869">
        <ele>1513</ele>
        <time>2022-09-03T09:59:21Z</time>
      </trkpt>
      <trkpt lat="45.08089" lon="6.06878">
        <ele>1509.9</ele>
        <time>2022-09-03T09:59:33Z</time>
      </trkpt>
      <trkpt lat="45.08089" lon="6.06888">
        <ele>1510.7</ele>
        <time>2022-09-03T09:59:42Z</time>
      </trkpt>
      <trkpt lat="45.08089" lon="6.06897">
        <ele>1511.3</ele>
        <time>2022-09-03T10:00:06Z</time>
      </trkpt>
      <trkpt lat="45.08093" lon="6.06905">
        <ele>1508.1</ele>
        <time>2022-09-03T10:00:13Z</time>
      </trkpt>
      <trkpt lat="45.08097" lon="6.06897">
        <ele>1503.8</ele>
        <time>2022-09-03T10:00:24Z</time>
      </trkpt>
      <trkpt lat="45.08102" lon="6.06905">
        <ele>1499.7</ele>
        <time>2022-09-03T10:00:35Z</time>
      </trkpt>
      <trkpt lat="45.08109" lon="6.06908">
        <ele>1493.4</ele>
        <time>2022-09-03T10:01:11Z</time>
      </trkpt>
      <trkpt lat="45.08115" lon="6.06914">
        <ele>1488.2</ele>
        <time>2022-09-03T10:01:18Z</time>
      </trkpt>
      <trkpt lat="45.08122" lon="6.06913">
        <ele>1481.6</ele>
        <time>2022-09-03T10:01:25Z</time>
      </trkpt>
      <trkpt lat="45.0813" lon="6.06911">
        <ele>1474</ele>
        <time>2022-09-03T10:01:30Z</time>
      </trkpt>
      <trkpt lat="45.08132" lon="6.0692">
        <ele>1472.6</ele>
        <time>2022-09-03T10:01:48Z</time>
      </trkpt>
      <trkpt lat="45.08127" lon="6.06929">
        <ele>1477.8</ele>
        <time>2022-09-03T10:02:12Z</time>
      </trkpt>
      <trkpt lat="45.08133" lon="6.06934">
        <ele>1472.5</ele>
        <time>2022-09-03T10:02:18Z</time>
      </trkpt>
      <trkpt lat="45.08135" lon="6.06944">
        <ele>1471.2</ele>
        <time>2022-09-03T10:02:26Z</time>
      </trkpt>
      <trkpt lat="45.08134" lon="6.06954">
        <ele>1472.6</ele>
        <time>2022-09-03T10:02:32Z</time>
      </trkpt>
      <trkpt lat="45.0813" lon="6.06962">
        <ele>1476.8</ele>
        <time>2022-09-03T10:02:37Z</time>
      </trkpt>
      <trkpt lat="45.08124" lon="6.06968">
        <ele>1482.7</ele>
        <time>2022-09-03T10:02:46Z</time>
      </trkpt>
      <trkpt lat="45.0812" lon="6.06976">
        <ele>1486.8</ele>
        <time>2022-09-03T10:02:53Z</time>
      </trkpt>
      <trkpt lat="45.08118" lon="6.06986">
        <ele>1489.2</ele>
        <time>2022-09-03T10:03:00Z</time>
      </trkpt>
      <trkpt lat="45.08121" lon="6.06995">
        <ele>1486.9</ele>
        <time>2022-09-03T10:03:05Z</time>
      </trkpt>
      <trkpt lat="45.08127" lon="6.07002">
        <ele>1481.8</ele>
        <time>2022-09-03T10:03:20Z</time>
      </trkpt>
      <trkpt lat="45.08134" lon="6.07006">
        <ele>1475.6</ele>
        <time>2022-09-03T10:03:39Z</time>
      </trkpt>
      <trkpt lat="45.08137" lon="6.07014">
        <ele>1473.3</ele>
        <time>2022-09-03T10:03:44Z</time>
      </trkpt>
      <trkpt lat="45.0814" lon="6.07022">
        <ele>1471.2</ele>
        <time>2022-09-03T10:03:56Z</time>
      </trkpt>
      <trkpt lat="45.0814" lon="6.07031">
        <ele>1471.8</ele>
        <time>2022-09-03T10:04:03Z</time>
      </trkpt>
      <trkpt lat="45.08141" lon="6.07043">
        <ele>1471.7</ele>
        <time>2022-09-03T10:04:08Z</time>
      </trkpt>
      <trkpt lat="45.08139" lon="6.07055">
        <ele>1474.3</ele>
        <time>2022-09-03T10:04:15Z</time>
      </trkpt>
      <trkpt lat="45.08132" lon="6.07057">
        <ele>1480.7</ele>
        <time>2022-09-03T10:04:22Z</time>
      </trkpt>
      <trkpt lat="45.08124" lon="6.07059">
        <ele>1487.9</ele>
        <time>2022-09-03T10:04:34Z</time>
      </trkpt>
      <trkpt lat="45.0812" lon="6.07067">
        <ele>1491.9</ele>
        <time>2022-09-03T10:04:45Z</time>
      </trkpt>
      <trkpt lat="45.08128" lon="6.07065">
        <ele>1484.7</ele>
        <time>2022-09-03T10:04:52Z</time>
      </trkpt>
      <trkpt lat="45.08136" lon="6.07069">
        <ele>1477.9</ele>
        <time>2022-09-03T10:04:57Z</time>
      </trkpt>
      <trkpt lat="45.08144" lon="6.07066">
        <ele>1470.6</ele>
        <time>2022-09-03T10:05:04Z</time>
      </trkpt>
      <trkpt lat="45.08146" lon="6.07057">
        <ele>1468.2</ele>
        <time>2022-09-03T10:05:19Z</time>
      </trkpt>
      <trkpt lat="45.08142" lon="6.07066">
        <ele>1472.4</ele>
        <time>2022-09-03T10:05:26Z</time>
      </trkpt>
      <trkpt lat="45.0815" lon="6.07068">
        <ele>1465.5</ele>
        <time>2022-09-03T10:05:32Z</time>
      </trkpt>
      <trkpt lat="45.08159" lon="6.07068">
        <ele>1457.5</ele>
        <time>2022-09-03T10:05:39Z</time>
      </trkpt>
      <trkpt lat="45.08172" lon="6.07064">
        <ele>1450.9</ele>
        <time>2022-09-03T10:05:44Z</time>
      </trkpt>
      <trkpt lat="45.08166" lon="6.07067">
        <ele>1451.2</ele>
        <time>2022-09-03T10:05:53Z</time>
      </trkpt>
      <trkpt lat="45.08158" lon="6.07065">
        <ele>1458.1</ele>
        <time>2022-09-03T10:05:59Z</time>
      </trkpt>
      <trkpt lat="45.08153" lon="6.07077">
        <ele>1463.5</ele>
        <time>2022-09-03T10:06:08Z</time>
      </trkpt>
      <trkpt lat="45.08157" lon="6.07089">
        <ele>1461.7</ele>
        <time>2022-09-03T10:06:13Z</time>
      </trkpt>
      <trkpt lat="45.08163" lon="6.07095">
        <ele>1457.7</ele>
        <time>2022-09-03T10:06:18Z</time>
      </trkpt>
      <trkpt lat="45.08166" lon="6.07104">
        <ele>1456.8</ele>
        <time>2022-09-03T10:06:24Z</time>
      </trkpt>
      <trkpt lat="45.08163" lon="6.07112">
        <ele>1461.2</ele>
        <time>2022-09-03T10:06:33Z</time>
      </trkpt>
      <trkpt lat="45.08167" lon="6.07121">
        <ele>1459.7</ele>
        <time>2022-09-03T10:06:46Z</time>
      </trkpt>
      <trkpt lat="45.08167" lon="6.07131">
        <ele>1461.7</ele>
        <time>2022-09-03T10:06:52Z</time>
      </trkpt>
      <trkpt lat="45.08154" lon="6.07141">
        <ele>1475.9</ele>
        <time>2022-09-03T10:06:57Z</time>
      </trkpt>
      <trkpt lat="45.08157" lon="6.0715">
        <ele>1475</ele>
        <time>2022-09-03T10:07:04Z</time>
      </trkpt>
      <trkpt lat="45.08153" lon="6.07161">
        <ele>1481.3</ele>
        <time>2022-09-03T10:07:14Z</time>
      </trkpt>
      <trkpt lat="45.08141" lon="6.07175">
        <ele>1497.9</ele>
        <time>2022-09-03T10:07:19Z</time>
      </trkpt>
      <trkpt lat="45.08136" lon="6.07182">
        <ele>1505.8</ele>
        <time>2022-09-03T10:07:27Z</time>
      </trkpt>
      <trkpt lat="45.08129" lon="6.07178">
        <ele>1511.1</ele>
        <time>2022-09-03T10:07:33Z</time>
      </trkpt>
      <trkpt lat="45.08132" lon="6.07167">
        <ele>1503.7</ele>
        <time>2022-09-03T10:07:38Z</time>
      </trkpt>
      <trkpt lat="45.08138" lon="6.07162">
        <ele>1496.4</ele>
        <time>2022-09-03T10:07:44Z</time>
      </trkpt>
      <trkpt lat="45.08145" lon="6.07157">
        <ele>1488.3</ele>
        <time>2022-09-03T10:07:49Z</time>
      </trkpt>
      <trkpt lat="45.08151" lon="6.07161">
        <ele>1483.3</ele>
        <time>2022-09-03T10:07:54Z</time>
      </trkpt>
      <trkpt lat="45.0816" lon="6.07166">
        <ele>1475.5</ele>
        <time>2022-09-03T10:07:59Z</time>
      </trkpt>
      <trkpt lat="45.08168" lon="6.07173">
        <ele>1471.3</ele>
        <time>2022-09-03T10:08:04Z</time>
      </trkpt>
      <trkpt lat="45.0817" lon="6.07183">
        <ele>1474.8</ele>
        <time>2022-09-03T10:08:21Z</time>
      </trkpt>
      <trkpt lat="45.08171" lon="6.07192">
        <ele>1478.1</ele>
        <time>2022-09-03T10:08:27Z</time>
      </trkpt>
      <trkpt lat="45.08175" lon="6.07201">
        <ele>1480.4</ele>
        <time>2022-09-03T10:08:33Z</time>
      </trkpt>
      <trkpt lat="45.08177" lon="6.0721">
        <ele>1483.1</ele>
        <time>2022-09-03T10:08:39Z</time>
      </trkpt>
      <trkpt lat="45.08181" lon="6.07219">
        <ele>1485</ele>
        <time>2022-09-03T10:08:48Z</time>
      </trkpt>
      <trkpt lat="45.08184" lon="6.07227">
        <ele>1486.6</ele>
        <time>2022-09-03T10:08:56Z</time>
      </trkpt>
      <trkpt lat="45.08186" lon="6.07237">
        <ele>1489</ele>
        <time>2022-09-03T10:09:04Z</time>
      </trkpt>
      <trkpt lat="45.08185" lon="6.07247">
        <ele>1492.7</ele>
        <time>2022-09-03T10:09:11Z</time>
      </trkpt>
      <trkpt lat="45.08189" lon="6.07256">
        <ele>1493.7</ele>
        <time>2022-09-03T10:09:22Z</time>
      </trkpt>
      <trkpt lat="45.08186" lon="6.07264">
        <ele>1497.7</ele>
        <time>2022-09-03T10:09:32Z</time>
      </trkpt>
      <trkpt lat="45.08188" lon="6.07273">
        <ele>1499.5</ele>
        <time>2022-09-03T10:09:39Z</time>
      </trkpt>
      <trkpt lat="45.08191" lon="6.07282">
        <ele>1500.7</ele>
        <time>2022-09-03T10:09:44Z</time>
      </trkpt>
      <trkpt lat="45.08194" lon="6.0729">
        <ele>1501.4</ele>
        <time>2022-09-03T10:09:49Z</time>
      </trkpt>
      <trkpt lat="45.08194" lon="6.07299">
        <ele>1504.1</ele>
        <time>2022-09-03T10:09:55Z</time>
      </trkpt>
      <trkpt lat="45.08197" lon="6.07309">
        <ele>1505.2</ele>
        <time>2022-09-03T10:10:01Z</time>
      </trkpt>
      <trkpt lat="45.08201" lon="6.07322">
        <ele>1506.2</ele>
        <time>2022-09-03T10:10:06Z</time>
      </trkpt>
      <trkpt lat="45.08207" lon="6.07329">
        <ele>1503.8</ele>
        <time>2022-09-03T10:10:12Z</time>
      </trkpt>
      <trkpt lat="45.08206" lon="6.07338">
        <ele>1506.1</ele>
        <time>2022-09-03T10:10:20Z</time>
      </trkpt>
      <trkpt lat="45.08204" lon="6.07347">
        <ele>1508.3</ele>
        <time>2022-09-03T10:10:28Z</time>
      </trkpt>
      <trkpt lat="45.08207" lon="6.07357">
        <ele>1506.9</ele>
        <time>2022-09-03T10:10:34Z</time>
      </trkpt>
      <trkpt lat="45.08209" lon="6.07367">
        <ele>1506.3</ele>
        <time>2022-09-03T10:10:41Z</time>
      </trkpt>
      <trkpt lat="45.08206" lon="6.07376">
        <ele>1509.3</ele>
        <time>2022-09-03T10:10:52Z</time>
      </trkpt>
      <trkpt lat="45.08209" lon="6.07384">
        <ele>1507.8</ele>
        <time>2022-09-03T10:11:02Z</time>
      </trkpt>
      <trkpt lat="45.0821" lon="6.07394">
        <ele>1507.9</ele>
        <time>2022-09-03T10:11:10Z</time>
      </trkpt>
      <trkpt lat="45.08214" lon="6.07405">
        <ele>1505.9</ele>
        <time>2022-09-03T10:11:16Z</time>
      </trkpt>
      <trkpt lat="45.08216" lon="6.07414">
        <ele>1505.3</ele>
        <time>2022-09-03T10:11:21Z</time>
      </trkpt>
      <trkpt lat="45.08219" lon="6.07423">
        <ele>1503.1</ele>
        <time>2022-09-03T10:11:28Z</time>
      </trkpt>
      <trkpt lat="45.08219" lon="6.07432">
        <ele>1502.8</ele>
        <time>2022-09-03T10:11:38Z</time>
      </trkpt>
      <trkpt lat="45.08215" lon="6.07439">
        <ele>1505.2</ele>
        <time>2022-09-03T10:11:46Z</time>
      </trkpt>
      <trkpt lat="45.08209" lon="6.07446">
        <ele>1508.8</ele>
        <time>2022-09-03T10:11:52Z</time>
      </trkpt>
      <trkpt lat="45.08208" lon="6.07457">
        <ele>1508.8</ele>
        <time>2022-09-03T10:12:00Z</time>
      </trkpt>
      <trkpt lat="45.08209" lon="6.07468">
        <ele>1507.5</ele>
        <time>2022-09-03T10:12:07Z</time>
      </trkpt>
      <trkpt lat="45.0821" lon="6.07477">
        <ele>1506.4</ele>
        <time>2022-09-03T10:12:16Z</time>
      </trkpt>
      <trkpt lat="45.08208" lon="6.07486">
        <ele>1507</ele>
        <time>2022-09-03T10:12:22Z</time>
      </trkpt>
      <trkpt lat="45.08206" lon="6.07495">
        <ele>1507.6</ele>
        <time>2022-09-03T10:12:30Z</time>
      </trkpt>
      <trkpt lat="45.08207" lon="6.07505">
        <ele>1506.7</ele>
        <time>2022-09-03T10:12:38Z</time>
      </trkpt>
      <trkpt lat="45.08205" lon="6.07514">
        <ele>1507.7</ele>
        <time>2022-09-03T10:12:44Z</time>
      </trkpt>
      <trkpt lat="45.08208" lon="6.07523">
        <ele>1506.2</ele>
        <time>2022-09-03T10:12:51Z</time>
      </trkpt>
      <trkpt lat="45.0821" lon="6.07531">
        <ele>1505.2</ele>
        <time>2022-09-03T10:12:56Z</time>
      </trkpt>
      <trkpt lat="45.08203" lon="6.07539">
        <ele>1508.5</ele>
        <time>2022-09-03T10:13:01Z</time>
      </trkpt>
      <trkpt lat="45.08199" lon="6.07546">
        <ele>1510.3</ele>
        <time>2022-09-03T10:13:06Z</time>
      </trkpt>
      <trkpt lat="45.08201" lon="6.07557">
        <ele>1509.3</ele>
        <time>2022-09-03T10:13:12Z</time>
      </trkpt>
      <trkpt lat="45.08201" lon="6.07568">
        <ele>1509.2</ele>
        <time>2022-09-03T10:13:17Z</time>
      </trkpt>
      <trkpt lat="45.08198" lon="6.07577">
        <ele>1510.3</ele>
        <time>2022-09-03T10:13:23Z</time>
      </trkpt>
      <trkpt lat="45.08196" lon="6.07587">
        <ele>1511</ele>
        <time>2022-09-03T10:13:32Z</time>
      </trkpt>
      <trkpt lat="45.08194" lon="6.07597">
        <ele>1511.8</ele>
        <time>2022-09-03T10:13:44Z</time>
      </trkpt>
      <trkpt lat="45.08193" lon="6.07607">
        <ele>1512.1</ele>
        <time>2022-09-03T10:13:50Z</time>
      </trkpt>
      <trkpt lat="45.08194" lon="6.07617">
        <ele>1511.7</ele>
        <time>2022-09-03T10:13:55Z</time>
      </trkpt>
      <trkpt lat="45.08188" lon="6.07625">
        <ele>1513.8</ele>
        <time>2022-09-03T10:14:03Z</time>
      </trkpt>
      <trkpt lat="45.08187" lon="6.07635">
        <ele>1514.1</ele>
        <time>2022-09-03T10:14:11Z</time>
      </trkpt>
      <trkpt lat="45.08187" lon="6.07645">
        <ele>1513.9</ele>
        <time>2022-09-03T10:14:18Z</time>
      </trkpt>
      <trkpt lat="45.08188" lon="6.07656">
        <ele>1513.5</ele>
        <time>2022-09-03T10:14:23Z</time>
      </trkpt>
      <trkpt lat="45.08187" lon="6.07667">
        <ele>1513.8</ele>
        <time>2022-09-03T10:14:28Z</time>
      </trkpt>
      <trkpt lat="45.08188" lon="6.07676">
        <ele>1516</ele>
        <time>2022-09-03T10:14:33Z</time>
      </trkpt>
      <trkpt lat="45.08191" lon="6.07686">
        <ele>1517.6</ele>
        <time>2022-09-03T10:14:45Z</time>
      </trkpt>
      <trkpt lat="45.08193" lon="6.07696">
        <ele>1519.5</ele>
        <time>2022-09-03T10:14:54Z</time>
      </trkpt>
      <trkpt lat="45.08194" lon="6.07705">
        <ele>1521.3</ele>
        <time>2022-09-03T10:15:00Z</time>
      </trkpt>
      <trkpt lat="45.0819" lon="6.07718">
        <ele>1526.7</ele>
        <time>2022-09-03T10:15:05Z</time>
      </trkpt>
      <trkpt lat="45.08187" lon="6.07726">
        <ele>1530.5</ele>
        <time>2022-09-03T10:15:10Z</time>
      </trkpt>
      <trkpt lat="45.08185" lon="6.07735">
        <ele>1534.2</ele>
        <time>2022-09-03T10:15:17Z</time>
      </trkpt>
      <trkpt lat="45.08182" lon="6.07744">
        <ele>1538.6</ele>
        <time>2022-09-03T10:15:25Z</time>
      </trkpt>
      <trkpt lat="45.08183" lon="6.07755">
        <ele>1539.9</ele>
        <time>2022-09-03T10:15:30Z</time>
      </trkpt>
      <trkpt lat="45.08181" lon="6.07766">
        <ele>1541.4</ele>
        <time>2022-09-03T10:15:35Z</time>
      </trkpt>
      <trkpt lat="45.08181" lon="6.07775">
        <ele>1541.7</ele>
        <time>2022-09-03T10:15:40Z</time>
      </trkpt>
      <trkpt lat="45.0818" lon="6.07785">
        <ele>1542.5</ele>
        <time>2022-09-03T10:15:49Z</time>
      </trkpt>
      <trkpt lat="45.0818" lon="6.07796">
        <ele>1542.8</ele>
        <time>2022-09-03T10:15:54Z</time>
      </trkpt>
      <trkpt lat="45.08181" lon="6.0781">
        <ele>1542.5</ele>
        <time>2022-09-03T10:15:59Z</time>
      </trkpt>
      <trkpt lat="45.0818" lon="6.0782">
        <ele>1543.3</ele>
        <time>2022-09-03T10:16:04Z</time>
      </trkpt>
      <trkpt lat="45.08178" lon="6.07829">
        <ele>1544.6</ele>
        <time>2022-09-03T10:16:10Z</time>
      </trkpt>
      <trkpt lat="45.08181" lon="6.07839">
        <ele>1542.8</ele>
        <time>2022-09-03T10:16:15Z</time>
      </trkpt>
      <trkpt lat="45.08182" lon="6.07851">
        <ele>1541.5</ele>
        <time>2022-09-03T10:16:21Z</time>
      </trkpt>
      <trkpt lat="45.08183" lon="6.07861">
        <ele>1540.5</ele>
        <time>2022-09-03T10:16:27Z</time>
      </trkpt>
      <trkpt lat="45.08184" lon="6.0787">
        <ele>1539.6</ele>
        <time>2022-09-03T10:16:32Z</time>
      </trkpt>
      <trkpt lat="45.08181" lon="6.07879">
        <ele>1540.4</ele>
        <time>2022-09-03T10:16:41Z</time>
      </trkpt>
      <trkpt lat="45.08183" lon="6.07888">
        <ele>1539.1</ele>
        <time>2022-09-03T10:16:47Z</time>
      </trkpt>
      <trkpt lat="45.08185" lon="6.07898">
        <ele>1537.7</ele>
        <time>2022-09-03T10:16:55Z</time>
      </trkpt>
      <trkpt lat="45.08189" lon="6.07907">
        <ele>1535.9</ele>
        <time>2022-09-03T10:17:00Z</time>
      </trkpt>
      <trkpt lat="45.08193" lon="6.07918">
        <ele>1534.2</ele>
        <time>2022-09-03T10:17:05Z</time>
      </trkpt>
      <trkpt lat="45.08192" lon="6.07928">
        <ele>1534.5</ele>
        <time>2022-09-03T10:17:17Z</time>
      </trkpt>
      <trkpt lat="45.08193" lon="6.07937">
        <ele>1534.2</ele>
        <time>2022-09-03T10:17:23Z</time>
      </trkpt>
      <trkpt lat="45.08195" lon="6.07946">
        <ele>1533.6</ele>
        <time>2022-09-03T10:17:31Z</time>
      </trkpt>
      <trkpt lat="45.08196" lon="6.07956">
        <ele>1533.4</ele>
        <time>2022-09-03T10:17:38Z</time>
      </trkpt>
      <trkpt lat="45.08195" lon="6.07966">
        <ele>1533.7</ele>
        <time>2022-09-03T10:17:46Z</time>
      </trkpt>
      <trkpt lat="45.08188" lon="6.07973">
        <ele>1535.7</ele>
        <time>2022-09-03T10:17:54Z</time>
      </trkpt>
      <trkpt lat="45.08181" lon="6.07976">
        <ele>1537.6</ele>
        <time>2022-09-03T10:18:00Z</time>
      </trkpt>
      <trkpt lat="45.08176" lon="6.07985">
        <ele>1538.9</ele>
        <time>2022-09-03T10:18:05Z</time>
      </trkpt>
      <trkpt lat="45.08176" lon="6.07995">
        <ele>1538.7</ele>
        <time>2022-09-03T10:18:11Z</time>
      </trkpt>
      <trkpt lat="45.08174" lon="6.08005">
        <ele>1539.1</ele>
        <time>2022-09-03T10:18:18Z</time>
      </trkpt>
      <trkpt lat="45.08175" lon="6.08014">
        <ele>1538.7</ele>
        <time>2022-09-03T10:18:25Z</time>
      </trkpt>
      <trkpt lat="45.08175" lon="6.08026">
        <ele>1538.5</ele>
        <time>2022-09-03T10:18:30Z</time>
      </trkpt>
      <trkpt lat="45.08176" lon="6.08036">
        <ele>1538.1</ele>
        <time>2022-09-03T10:18:37Z</time>
      </trkpt>
      <trkpt lat="45.08175" lon="6.08046">
        <ele>1538.1</ele>
        <time>2022-09-03T10:18:44Z</time>
      </trkpt>
      <trkpt lat="45.08175" lon="6.08055">
        <ele>1538</ele>
        <time>2022-09-03T10:18:51Z</time>
      </trkpt>
      <trkpt lat="45.08175" lon="6.08065">
        <ele>1537.8</ele>
        <time>2022-09-03T10:18:58Z</time>
      </trkpt>
      <trkpt lat="45.08173" lon="6.08075">
        <ele>1538</ele>
        <time>2022-09-03T10:19:06Z</time>
      </trkpt>
      <trkpt lat="45.0817" lon="6.08085">
        <ele>1538.4</ele>
        <time>2022-09-03T10:19:11Z</time>
      </trkpt>
      <trkpt lat="45.08167" lon="6.08093">
        <ele>1539.2</ele>
        <time>2022-09-03T10:19:16Z</time>
      </trkpt>
      <trkpt lat="45.08162" lon="6.08102">
        <ele>1542.1</ele>
        <time>2022-09-03T10:19:21Z</time>
      </trkpt>
      <trkpt lat="45.0816" lon="6.08112">
        <ele>1543.4</ele>
        <time>2022-09-03T10:19:29Z</time>
      </trkpt>
      <trkpt lat="45.08158" lon="6.08122">
        <ele>1544.7</ele>
        <time>2022-09-03T10:19:35Z</time>
      </trkpt>
      <trkpt lat="45.08158" lon="6.08135">
        <ele>1544.9</ele>
        <time>2022-09-03T10:19:40Z</time>
      </trkpt>
      <trkpt lat="45.08158" lon="6.08146">
        <ele>1545.1</ele>
        <time>2022-09-03T10:19:46Z</time>
      </trkpt>
      <trkpt lat="45.08161" lon="6.08157">
        <ele>1543.7</ele>
        <time>2022-09-03T10:19:51Z</time>
      </trkpt>
      <trkpt lat="45.08164" lon="6.08166">
        <ele>1542.4</ele>
        <time>2022-09-03T10:19:56Z</time>
      </trkpt>
      <trkpt lat="45.08165" lon="6.08177">
        <ele>1542.5</ele>
        <time>2022-09-03T10:20:02Z</time>
      </trkpt>
      <trkpt lat="45.08166" lon="6.08188">
        <ele>1542.6</ele>
        <time>2022-09-03T10:20:07Z</time>
      </trkpt>
      <trkpt lat="45.08165" lon="6.08198">
        <ele>1543.7</ele>
        <time>2022-09-03T10:20:14Z</time>
      </trkpt>
      <trkpt lat="45.08163" lon="6.08209">
        <ele>1545.4</ele>
        <time>2022-09-03T10:20:19Z</time>
      </trkpt>
      <trkpt lat="45.08164" lon="6.08224">
        <ele>1545.8</ele>
        <time>2022-09-03T10:20:24Z</time>
      </trkpt>
      <trkpt lat="45.0816" lon="6.08232">
        <ele>1548.3</ele>
        <time>2022-09-03T10:20:29Z</time>
      </trkpt>
      <trkpt lat="45.08161" lon="6.08242">
        <ele>1548.4</ele>
        <time>2022-09-03T10:20:35Z</time>
      </trkpt>
      <trkpt lat="45.08162" lon="6.08252">
        <ele>1548.4</ele>
        <time>2022-09-03T10:20:43Z</time>
      </trkpt>
      <trkpt lat="45.08157" lon="6.08258">
        <ele>1551</ele>
        <time>2022-09-03T10:20:58Z</time>
      </trkpt>
      <trkpt lat="45.08155" lon="6.08267">
        <ele>1552.3</ele>
        <time>2022-09-03T10:21:06Z</time>
      </trkpt>
      <trkpt lat="45.08157" lon="6.08277">
        <ele>1551.5</ele>
        <time>2022-09-03T10:21:19Z</time>
      </trkpt>
      <trkpt lat="45.08152" lon="6.08284">
        <ele>1554.3</ele>
        <time>2022-09-03T10:21:26Z</time>
      </trkpt>
      <trkpt lat="45.08154" lon="6.08295">
        <ele>1553.5</ele>
        <time>2022-09-03T10:21:32Z</time>
      </trkpt>
      <trkpt lat="45.08153" lon="6.08285">
        <ele>1553.8</ele>
        <time>2022-09-03T10:21:52Z</time>
      </trkpt>
      <trkpt lat="45.0815" lon="6.08294">
        <ele>1555.7</ele>
        <time>2022-09-03T10:22:18Z</time>
      </trkpt>
      <trkpt lat="45.08154" lon="6.08302">
        <ele>1553.7</ele>
        <time>2022-09-03T10:22:26Z</time>
      </trkpt>
      <trkpt lat="45.08158" lon="6.08312">
        <ele>1551.7</ele>
        <time>2022-09-03T10:22:31Z</time>
      </trkpt>
      <trkpt lat="45.08156" lon="6.08321">
        <ele>1553</ele>
        <time>2022-09-03T10:22:36Z</time>
      </trkpt>
      <trkpt lat="45.08156" lon="6.08331">
        <ele>1553.2</ele>
        <time>2022-09-03T10:22:43Z</time>
      </trkpt>
      <trkpt lat="45.08154" lon="6.08341">
        <ele>1555.1</ele>
        <time>2022-09-03T10:22:50Z</time>
      </trkpt>
      <trkpt lat="45.08156" lon="6.08351">
        <ele>1554.7</ele>
        <time>2022-09-03T10:22:55Z</time>
      </trkpt>
      <trkpt lat="45.08153" lon="6.08367">
        <ele>1558</ele>
        <time>2022-09-03T10:23:00Z</time>
      </trkpt>
      <trkpt lat="45.08153" lon="6.08377">
        <ele>1558.9</ele>
        <time>2022-09-03T10:23:08Z</time>
      </trkpt>
      <trkpt lat="45.08156" lon="6.08392">
        <ele>1558.1</ele>
        <time>2022-09-03T10:23:13Z</time>
      </trkpt>
      <trkpt lat="45.08156" lon="6.08402">
        <ele>1559</ele>
        <time>2022-09-03T10:23:20Z</time>
      </trkpt>
      <trkpt lat="45.08152" lon="6.0841">
        <ele>1562.7</ele>
        <time>2022-09-03T10:23:32Z</time>
      </trkpt>
      <trkpt lat="45.08152" lon="6.08424">
        <ele>1564.2</ele>
        <time>2022-09-03T10:23:37Z</time>
      </trkpt>
      <trkpt lat="45.08153" lon="6.08436">
        <ele>1564.8</ele>
        <time>2022-09-03T10:23:42Z</time>
      </trkpt>
      <trkpt lat="45.08157" lon="6.0845">
        <ele>1563.2</ele>
        <time>2022-09-03T10:23:47Z</time>
      </trkpt>
      <trkpt lat="45.08159" lon="6.08462">
        <ele>1562.9</ele>
        <time>2022-09-03T10:23:52Z</time>
      </trkpt>
      <trkpt lat="45.08158" lon="6.08471">
        <ele>1564.8</ele>
        <time>2022-09-03T10:23:58Z</time>
      </trkpt>
      <trkpt lat="45.08156" lon="6.0848">
        <ele>1567.5</ele>
        <time>2022-09-03T10:24:07Z</time>
      </trkpt>
      <trkpt lat="45.0815" lon="6.0849">
        <ele>1574.1</ele>
        <time>2022-09-03T10:24:23Z</time>
      </trkpt>
      <trkpt lat="45.08147" lon="6.085">
        <ele>1578.2</ele>
        <time>2022-09-03T10:24:29Z</time>
      </trkpt>
      <trkpt lat="45.08145" lon="6.08514">
        <ele>1579.9</ele>
        <time>2022-09-03T10:24:34Z</time>
      </trkpt>
      <trkpt lat="45.08143" lon="6.08523">
        <ele>1581.6</ele>
        <time>2022-09-03T10:24:39Z</time>
      </trkpt>
      <trkpt lat="45.08144" lon="6.0854">
        <ele>1580.5</ele>
        <time>2022-09-03T10:24:44Z</time>
      </trkpt>
      <trkpt lat="45.08143" lon="6.0855">
        <ele>1581.2</ele>
        <time>2022-09-03T10:24:49Z</time>
      </trkpt>
      <trkpt lat="45.08138" lon="6.08557">
        <ele>1585.3</ele>
        <time>2022-09-03T10:24:56Z</time>
      </trkpt>
      <trkpt lat="45.08136" lon="6.08566">
        <ele>1586.7</ele>
        <time>2022-09-03T10:25:04Z</time>
      </trkpt>
      <trkpt lat="45.08138" lon="6.08577">
        <ele>1584.8</ele>
        <time>2022-09-03T10:25:10Z</time>
      </trkpt>
      <trkpt lat="45.08137" lon="6.08587">
        <ele>1585.4</ele>
        <time>2022-09-03T10:25:18Z</time>
      </trkpt>
      <trkpt lat="45.08135" lon="6.08595">
        <ele>1586.8</ele>
        <time>2022-09-03T10:25:26Z</time>
      </trkpt>
      <trkpt lat="45.0813" lon="6.08604">
        <ele>1590.4</ele>
        <time>2022-09-03T10:25:35Z</time>
      </trkpt>
      <trkpt lat="45.08132" lon="6.08615">
        <ele>1588.5</ele>
        <time>2022-09-03T10:25:40Z</time>
      </trkpt>
      <trkpt lat="45.08132" lon="6.08629">
        <ele>1588.1</ele>
        <time>2022-09-03T10:25:45Z</time>
      </trkpt>
      <trkpt lat="45.08134" lon="6.08643">
        <ele>1586.4</ele>
        <time>2022-09-03T10:25:50Z</time>
      </trkpt>
      <trkpt lat="45.08136" lon="6.08653">
        <ele>1584.8</ele>
        <time>2022-09-03T10:25:55Z</time>
      </trkpt>
      <trkpt lat="45.08137" lon="6.08662">
        <ele>1584</ele>
        <time>2022-09-03T10:26:03Z</time>
      </trkpt>
      <trkpt lat="45.08139" lon="6.08672">
        <ele>1582.4</ele>
        <time>2022-09-03T10:26:10Z</time>
      </trkpt>
      <trkpt lat="45.0814" lon="6.08682">
        <ele>1581.3</ele>
        <time>2022-09-03T10:26:15Z</time>
      </trkpt>
      <trkpt lat="45.08138" lon="6.08691">
        <ele>1582.1</ele>
        <time>2022-09-03T10:26:20Z</time>
      </trkpt>
      <trkpt lat="45.08133" lon="6.08698">
        <ele>1584.7</ele>
        <time>2022-09-03T10:26:30Z</time>
      </trkpt>
      <trkpt lat="45.08127" lon="6.08704">
        <ele>1587.7</ele>
        <time>2022-09-03T10:26:38Z</time>
      </trkpt>
      <trkpt lat="45.08119" lon="6.08705">
        <ele>1592.1</ele>
        <time>2022-09-03T10:26:43Z</time>
      </trkpt>
      <trkpt lat="45.0812" lon="6.08716">
        <ele>1590.6</ele>
        <time>2022-09-03T10:26:51Z</time>
      </trkpt>
      <trkpt lat="45.08119" lon="6.08725">
        <ele>1590.4</ele>
        <time>2022-09-03T10:26:57Z</time>
      </trkpt>
      <trkpt lat="45.08117" lon="6.08735">
        <ele>1590.6</ele>
        <time>2022-09-03T10:27:03Z</time>
      </trkpt>
      <trkpt lat="45.08115" lon="6.08745">
        <ele>1590.6</ele>
        <time>2022-09-03T10:27:08Z</time>
      </trkpt>
      <trkpt lat="45.08113" lon="6.08755">
        <ele>1590.9</ele>
        <time>2022-09-03T10:27:14Z</time>
      </trkpt>
      <trkpt lat="45.08109" lon="6.08762">
        <ele>1592.5</ele>
        <time>2022-09-03T10:27:19Z</time>
      </trkpt>
      <trkpt lat="45.08103" lon="6.0877">
        <ele>1594.9</ele>
        <time>2022-09-03T10:27:27Z</time>
      </trkpt>
      <trkpt lat="45.08098" lon="6.08776">
        <ele>1596.8</ele>
        <time>2022-09-03T10:27:39Z</time>
      </trkpt>
      <trkpt lat="45.08096" lon="6.08785">
        <ele>1597.1</ele>
        <time>2022-09-03T10:27:44Z</time>
      </trkpt>
      <trkpt lat="45.08092" lon="6.08793">
        <ele>1598.3</ele>
        <time>2022-09-03T10:27:51Z</time>
      </trkpt>
      <trkpt lat="45.08089" lon="6.08802">
        <ele>1599</ele>
        <time>2022-09-03T10:27:59Z</time>
      </trkpt>
      <trkpt lat="45.0809" lon="6.08812">
        <ele>1598</ele>
        <time>2022-09-03T10:28:06Z</time>
      </trkpt>
      <trkpt lat="45.08089" lon="6.08823">
        <ele>1597.6</ele>
        <time>2022-09-03T10:28:11Z</time>
      </trkpt>
      <trkpt lat="45.08085" lon="6.0883">
        <ele>1598.6</ele>
        <time>2022-09-03T10:28:17Z</time>
      </trkpt>
      <trkpt lat="45.08081" lon="6.08839">
        <ele>1600</ele>
        <time>2022-09-03T10:28:25Z</time>
      </trkpt>
      <trkpt lat="45.08076" lon="6.08846">
        <ele>1602.3</ele>
        <time>2022-09-03T10:28:32Z</time>
      </trkpt>
      <trkpt lat="45.08074" lon="6.08856">
        <ele>1603</ele>
        <time>2022-09-03T10:28:38Z</time>
      </trkpt>
      <trkpt lat="45.08072" lon="6.08866">
        <ele>1603.7</ele>
        <time>2022-09-03T10:28:45Z</time>
      </trkpt>
      <trkpt lat="45.08064" lon="6.08866">
        <ele>1607.6</ele>
        <time>2022-09-03T10:28:51Z</time>
      </trkpt>
      <trkpt lat="45.08065" lon="6.08875">
        <ele>1606.8</ele>
        <time>2022-09-03T10:29:03Z</time>
      </trkpt>
      <trkpt lat="45.08065" lon="6.08888">
        <ele>1606.4</ele>
        <time>2022-09-03T10:29:14Z</time>
      </trkpt>
      <trkpt lat="45.0807" lon="6.08893">
        <ele>1603.8</ele>
        <time>2022-09-03T10:29:43Z</time>
      </trkpt>
      <trkpt lat="45.08069" lon="6.08904">
        <ele>1603.9</ele>
        <time>2022-09-03T10:29:51Z</time>
      </trkpt>
      <trkpt lat="45.08069" lon="6.08914">
        <ele>1603.6</ele>
        <time>2022-09-03T10:29:57Z</time>
      </trkpt>
      <trkpt lat="45.08073" lon="6.08924">
        <ele>1601.6</ele>
        <time>2022-09-03T10:30:05Z</time>
      </trkpt>
      <trkpt lat="45.08073" lon="6.08934">
        <ele>1601.5</ele>
        <time>2022-09-03T10:30:44Z</time>
      </trkpt>
      <trkpt lat="45.08073" lon="6.08944">
        <ele>1601.3</ele>
        <time>2022-09-03T10:30:50Z</time>
      </trkpt>
      <trkpt lat="45.08067" lon="6.08948">
        <ele>1604</ele>
        <time>2022-09-03T10:30:58Z</time>
      </trkpt>
      <trkpt lat="45.08057" lon="6.08949">
        <ele>1608.5</ele>
        <time>2022-09-03T10:31:03Z</time>
      </trkpt>
      <trkpt lat="45.08053" lon="6.08956">
        <ele>1610.2</ele>
        <time>2022-09-03T10:31:13Z</time>
      </trkpt>
      <trkpt lat="45.08053" lon="6.08966">
        <ele>1610</ele>
        <time>2022-09-03T10:31:19Z</time>
      </trkpt>
      <trkpt lat="45.08052" lon="6.08976">
        <ele>1610.3</ele>
        <time>2022-09-03T10:31:27Z</time>
      </trkpt>
      <trkpt lat="45.08057" lon="6.08985">
        <ele>1607.9</ele>
        <time>2022-09-03T10:31:32Z</time>
      </trkpt>
      <trkpt lat="45.08056" lon="6.08996">
        <ele>1608.2</ele>
        <time>2022-09-03T10:31:40Z</time>
      </trkpt>
      <trkpt lat="45.08056" lon="6.09006">
        <ele>1607.9</ele>
        <time>2022-09-03T10:31:47Z</time>
      </trkpt>
      <trkpt lat="45.08055" lon="6.09018">
        <ele>1607.9</ele>
        <time>2022-09-03T10:31:53Z</time>
      </trkpt>
      <trkpt lat="45.08062" lon="6.09029">
        <ele>1604.3</ele>
        <time>2022-09-03T10:31:58Z</time>
      </trkpt>
      <trkpt lat="45.08065" lon="6.0904">
        <ele>1602.4</ele>
        <time>2022-09-03T10:32:05Z</time>
      </trkpt>
      <trkpt lat="45.08066" lon="6.0905">
        <ele>1601.5</ele>
        <time>2022-09-03T10:32:11Z</time>
      </trkpt>
      <trkpt lat="45.08066" lon="6.09064">
        <ele>1600.9</ele>
        <time>2022-09-03T10:32:16Z</time>
      </trkpt>
      <trkpt lat="45.08069" lon="6.09074">
        <ele>1599.1</ele>
        <time>2022-09-03T10:32:25Z</time>
      </trkpt>
      <trkpt lat="45.0807" lon="6.09084">
        <ele>1598.3</ele>
        <time>2022-09-03T10:32:30Z</time>
      </trkpt>
      <trkpt lat="45.08072" lon="6.09093">
        <ele>1597.7</ele>
        <time>2022-09-03T10:32:37Z</time>
      </trkpt>
      <trkpt lat="45.08075" lon="6.09102">
        <ele>1596.6</ele>
        <time>2022-09-03T10:32:48Z</time>
      </trkpt>
      <trkpt lat="45.08075" lon="6.09113">
        <ele>1597.1</ele>
        <time>2022-09-03T10:32:55Z</time>
      </trkpt>
      <trkpt lat="45.08074" lon="6.09124">
        <ele>1598</ele>
        <time>2022-09-03T10:33:00Z</time>
      </trkpt>
      <trkpt lat="45.08077" lon="6.09133">
        <ele>1596.9</ele>
        <time>2022-09-03T10:33:06Z</time>
      </trkpt>
      <trkpt lat="45.08081" lon="6.09142">
        <ele>1595.3</ele>
        <time>2022-09-03T10:33:16Z</time>
      </trkpt>
      <trkpt lat="45.08087" lon="6.09152">
        <ele>1593.9</ele>
        <time>2022-09-03T10:33:21Z</time>
      </trkpt>
      <trkpt lat="45.0809" lon="6.09162">
        <ele>1593.8</ele>
        <time>2022-09-03T10:33:28Z</time>
      </trkpt>
      <trkpt lat="45.0809" lon="6.09173">
        <ele>1594.5</ele>
        <time>2022-09-03T10:33:33Z</time>
      </trkpt>
      <trkpt lat="45.08087" lon="6.09182">
        <ele>1595.9</ele>
        <time>2022-09-03T10:33:43Z</time>
      </trkpt>
      <trkpt lat="45.08085" lon="6.09191">
        <ele>1597.1</ele>
        <time>2022-09-03T10:33:50Z</time>
      </trkpt>
      <trkpt lat="45.08087" lon="6.09202">
        <ele>1597.8</ele>
        <time>2022-09-03T10:33:58Z</time>
      </trkpt>
      <trkpt lat="45.08088" lon="6.09211">
        <ele>1598.4</ele>
        <time>2022-09-03T10:34:04Z</time>
      </trkpt>
      <trkpt lat="45.08087" lon="6.09221">
        <ele>1599.6</ele>
        <time>2022-09-03T10:34:11Z</time>
      </trkpt>
      <trkpt lat="45.08087" lon="6.0923">
        <ele>1600.4</ele>
        <time>2022-09-03T10:34:23Z</time>
      </trkpt>
      <trkpt lat="45.0809" lon="6.0924">
        <ele>1600.8</ele>
        <time>2022-09-03T10:34:29Z</time>
      </trkpt>
      <trkpt lat="45.08093" lon="6.09248">
        <ele>1601</ele>
        <time>2022-09-03T10:34:35Z</time>
      </trkpt>
      <trkpt lat="45.08093" lon="6.09258">
        <ele>1601.4</ele>
        <time>2022-09-03T10:34:41Z</time>
      </trkpt>
      <trkpt lat="45.08093" lon="6.09267">
        <ele>1601.6</ele>
        <time>2022-09-03T10:34:49Z</time>
      </trkpt>
      <trkpt lat="45.08091" lon="6.09277">
        <ele>1602.2</ele>
        <time>2022-09-03T10:34:55Z</time>
      </trkpt>
      <trkpt lat="45.08091" lon="6.09288">
        <ele>1602.5</ele>
        <time>2022-09-03T10:35:00Z</time>
      </trkpt>
      <trkpt lat="45.08089" lon="6.09298">
        <ele>1603.1</ele>
        <time>2022-09-03T10:35:11Z</time>
      </trkpt>
      <trkpt lat="45.08088" lon="6.09307">
        <ele>1603.5</ele>
        <time>2022-09-03T10:35:18Z</time>
      </trkpt>
      <trkpt lat="45.08092" lon="6.09316">
        <ele>1603.1</ele>
        <time>2022-09-03T10:35:24Z</time>
      </trkpt>
      <trkpt lat="45.08094" lon="6.09327">
        <ele>1603</ele>
        <time>2022-09-03T10:35:32Z</time>
      </trkpt>
      <trkpt lat="45.08096" lon="6.09336">
        <ele>1603.1</ele>
        <time>2022-09-03T10:35:40Z</time>
      </trkpt>
      <trkpt lat="45.0809" lon="6.09344">
        <ele>1604.6</ele>
        <time>2022-09-03T10:35:45Z</time>
      </trkpt>
      <trkpt lat="45.08086" lon="6.09351">
        <ele>1605.8</ele>
        <time>2022-09-03T10:35:50Z</time>
      </trkpt>
      <trkpt lat="45.08084" lon="6.0936">
        <ele>1606.8</ele>
        <time>2022-09-03T10:35:55Z</time>
      </trkpt>
      <trkpt lat="45.08083" lon="6.09371">
        <ele>1607.9</ele>
        <time>2022-09-03T10:36:02Z</time>
      </trkpt>
      <trkpt lat="45.08085" lon="6.09381">
        <ele>1608.1</ele>
        <time>2022-09-03T10:36:09Z</time>
      </trkpt>
      <trkpt lat="45.08088" lon="6.09392">
        <ele>1608.4</ele>
        <time>2022-09-03T10:36:15Z</time>
      </trkpt>
      <trkpt lat="45.08091" lon="6.09401">
        <ele>1608.4</ele>
        <time>2022-09-03T10:36:20Z</time>
      </trkpt>
      <trkpt lat="45.08092" lon="6.09411">
        <ele>1608.9</ele>
        <time>2022-09-03T10:36:26Z</time>
      </trkpt>
      <trkpt lat="45.08092" lon="6.09422">
        <ele>1610</ele>
        <time>2022-09-03T10:36:36Z</time>
      </trkpt>
      <trkpt lat="45.08095" lon="6.09432">
        <ele>1610.6</ele>
        <time>2022-09-03T10:36:45Z</time>
      </trkpt>
      <trkpt lat="45.08097" lon="6.09441">
        <ele>1611.2</ele>
        <time>2022-09-03T10:36:51Z</time>
      </trkpt>
      <trkpt lat="45.08104" lon="6.09454">
        <ele>1610.9</ele>
        <time>2022-09-03T10:36:56Z</time>
      </trkpt>
      <trkpt lat="45.08106" lon="6.09463">
        <ele>1611.2</ele>
        <time>2022-09-03T10:37:02Z</time>
      </trkpt>
      <trkpt lat="45.08102" lon="6.09471">
        <ele>1613.2</ele>
        <time>2022-09-03T10:37:26Z</time>
      </trkpt>
      <trkpt lat="45.08101" lon="6.09482">
        <ele>1614.7</ele>
        <time>2022-09-03T10:37:32Z</time>
      </trkpt>
      <trkpt lat="45.08104" lon="6.09492">
        <ele>1614.7</ele>
        <time>2022-09-03T10:37:39Z</time>
      </trkpt>
      <trkpt lat="45.0811" lon="6.09498">
        <ele>1613.2</ele>
        <time>2022-09-03T10:37:45Z</time>
      </trkpt>
      <trkpt lat="45.08115" lon="6.09504">
        <ele>1612.7</ele>
        <time>2022-09-03T10:37:50Z</time>
      </trkpt>
      <trkpt lat="45.08121" lon="6.09508">
        <ele>1611.4</ele>
        <time>2022-09-03T10:38:00Z</time>
      </trkpt>
      <trkpt lat="45.08126" lon="6.09514">
        <ele>1610.9</ele>
        <time>2022-09-03T10:38:05Z</time>
      </trkpt>
      <trkpt lat="45.0813" lon="6.09522">
        <ele>1611</ele>
        <time>2022-09-03T10:38:14Z</time>
      </trkpt>
      <trkpt lat="45.08135" lon="6.0953">
        <ele>1610.4</ele>
        <time>2022-09-03T10:38:20Z</time>
      </trkpt>
      <trkpt lat="45.08141" lon="6.09535">
        <ele>1608.6</ele>
        <time>2022-09-03T10:38:35Z</time>
      </trkpt>
      <trkpt lat="45.08148" lon="6.09535">
        <ele>1605.2</ele>
        <time>2022-09-03T10:38:48Z</time>
      </trkpt>
      <trkpt lat="45.0815" lon="6.09546">
        <ele>1606</ele>
        <time>2022-09-03T10:38:55Z</time>
      </trkpt>
      <trkpt lat="45.08153" lon="6.09555">
        <ele>1605.7</ele>
        <time>2022-09-03T10:39:00Z</time>
      </trkpt>
      <trkpt lat="45.08153" lon="6.09564">
        <ele>1607</ele>
        <time>2022-09-03T10:39:08Z</time>
      </trkpt>
      <trkpt lat="45.08149" lon="6.09572">
        <ele>1610.5</ele>
        <time>2022-09-03T10:39:14Z</time>
      </trkpt>
      <trkpt lat="45.08143" lon="6.09581">
        <ele>1615.6</ele>
        <time>2022-09-03T10:39:19Z</time>
      </trkpt>
      <trkpt lat="45.08139" lon="6.09588">
        <ele>1620</ele>
        <time>2022-09-03T10:39:24Z</time>
      </trkpt>
      <trkpt lat="45.08135" lon="6.09598">
        <ele>1625.7</ele>
        <time>2022-09-03T10:39:29Z</time>
      </trkpt>
      <trkpt lat="45.08136" lon="6.09613">
        <ele>1629.7</ele>
        <time>2022-09-03T10:39:34Z</time>
      </trkpt>
      <trkpt lat="45.08141" lon="6.0963">
        <ele>1631</ele>
        <time>2022-09-03T10:39:39Z</time>
      </trkpt>
      <trkpt lat="45.08131" lon="6.09631">
        <ele>1639.1</ele>
        <time>2022-09-03T10:39:48Z</time>
      </trkpt>
      <trkpt lat="45.08133" lon="6.09642">
        <ele>1641.1</ele>
        <time>2022-09-03T10:39:54Z</time>
      </trkpt>
      <trkpt lat="45.08136" lon="6.09652">
        <ele>1641.7</ele>
        <time>2022-09-03T10:39:59Z</time>
      </trkpt>
      <trkpt lat="45.08139" lon="6.0966">
        <ele>1641.6</ele>
        <time>2022-09-03T10:40:04Z</time>
      </trkpt>
      <trkpt lat="45.08145" lon="6.09669">
        <ele>1638.5</ele>
        <time>2022-09-03T10:40:09Z</time>
      </trkpt>
      <trkpt lat="45.08151" lon="6.09677">
        <ele>1633.8</ele>
        <time>2022-09-03T10:40:16Z</time>
      </trkpt>
      <trkpt lat="45.08156" lon="6.09684">
        <ele>1629.7</ele>
        <time>2022-09-03T10:40:21Z</time>
      </trkpt>
      <trkpt lat="45.0816" lon="6.09693">
        <ele>1626.5</ele>
        <time>2022-09-03T10:40:26Z</time>
      </trkpt>
      <trkpt lat="45.08163" lon="6.09702">
        <ele>1624</ele>
        <time>2022-09-03T10:40:32Z</time>
      </trkpt>
      <trkpt lat="45.08165" lon="6.09712">
        <ele>1622.4</ele>
        <time>2022-09-03T10:40:40Z</time>
      </trkpt>
      <trkpt lat="45.08161" lon="6.09719">
        <ele>1626.9</ele>
        <time>2022-09-03T10:40:47Z</time>
      </trkpt>
      <trkpt lat="45.08161" lon="6.0973">
        <ele>1627.6</ele>
        <time>2022-09-03T10:40:55Z</time>
      </trkpt>
      <trkpt lat="45.08161" lon="6.0974">
        <ele>1628.1</ele>
        <time>2022-09-03T10:41:02Z</time>
      </trkpt>
      <trkpt lat="45.08162" lon="6.09751">
        <ele>1627.5</ele>
        <time>2022-09-03T10:41:09Z</time>
      </trkpt>
      <trkpt lat="45.08169" lon="6.09755">
        <ele>1621.6</ele>
        <time>2022-09-03T10:41:20Z</time>
      </trkpt>
      <trkpt lat="45.08177" lon="6.09764">
        <ele>1620.1</ele>
        <time>2022-09-03T10:41:27Z</time>
      </trkpt>
      <trkpt lat="45.08179" lon="6.09774">
        <ele>1619.9</ele>
        <time>2022-09-03T10:41:33Z</time>
      </trkpt>
      <trkpt lat="45.08186" lon="6.09785">
        <ele>1618.9</ele>
        <time>2022-09-03T10:41:38Z</time>
      </trkpt>
      <trkpt lat="45.08182" lon="6.09792">
        <ele>1619.6</ele>
        <time>2022-09-03T10:41:46Z</time>
      </trkpt>
      <trkpt lat="45.08183" lon="6.09803">
        <ele>1619.6</ele>
        <time>2022-09-03T10:41:52Z</time>
      </trkpt>
      <trkpt lat="45.08182" lon="6.09814">
        <ele>1619.9</ele>
        <time>2022-09-03T10:41:59Z</time>
      </trkpt>
      <trkpt lat="45.08182" lon="6.09823">
        <ele>1620</ele>
        <time>2022-09-03T10:42:04Z</time>
      </trkpt>
      <trkpt lat="45.0818" lon="6.09834">
        <ele>1620.4</ele>
        <time>2022-09-03T10:42:09Z</time>
      </trkpt>
      <trkpt lat="45.0818" lon="6.09843">
        <ele>1620.7</ele>
        <time>2022-09-03T10:42:14Z</time>
      </trkpt>
      <trkpt lat="45.08183" lon="6.09855">
        <ele>1620.9</ele>
        <time>2022-09-03T10:42:19Z</time>
      </trkpt>
      <trkpt lat="45.08185" lon="6.09865">
        <ele>1621.3</ele>
        <time>2022-09-03T10:42:24Z</time>
      </trkpt>
      <trkpt lat="45.0819" lon="6.09874">
        <ele>1621.7</ele>
        <time>2022-09-03T10:42:30Z</time>
      </trkpt>
      <trkpt lat="45.0819" lon="6.09887">
        <ele>1622.5</ele>
        <time>2022-09-03T10:42:35Z</time>
      </trkpt>
      <trkpt lat="45.08189" lon="6.09896">
        <ele>1623</ele>
        <time>2022-09-03T10:42:40Z</time>
      </trkpt>
      <trkpt lat="45.08183" lon="6.09902">
        <ele>1622.8</ele>
        <time>2022-09-03T10:42:47Z</time>
      </trkpt>
      <trkpt lat="45.08177" lon="6.09908">
        <ele>1622.3</ele>
        <time>2022-09-03T10:42:54Z</time>
      </trkpt>
      <trkpt lat="45.0817" lon="6.09912">
        <ele>1621.5</ele>
        <time>2022-09-03T10:42:59Z</time>
      </trkpt>
      <trkpt lat="45.08165" lon="6.09917">
        <ele>1622</ele>
        <time>2022-09-03T10:43:04Z</time>
      </trkpt>
      <trkpt lat="45.08152" lon="6.0991">
        <ele>1629.8</ele>
        <time>2022-09-03T10:43:11Z</time>
      </trkpt>
      <trkpt lat="45.08145" lon="6.09912">
        <ele>1633.9</ele>
        <time>2022-09-03T10:43:21Z</time>
      </trkpt>
      <trkpt lat="45.08156" lon="6.09915">
        <ele>1627.3</ele>
        <time>2022-09-03T10:43:36Z</time>
      </trkpt>
      <trkpt lat="45.08161" lon="6.09921">
        <ele>1624.4</ele>
        <time>2022-09-03T10:43:44Z</time>
      </trkpt>
      <trkpt lat="45.08147" lon="6.09914">
        <ele>1632.6</ele>
        <time>2022-09-03T10:43:55Z</time>
      </trkpt>
      <trkpt lat="45.08139" lon="6.0991">
        <ele>1637.5</ele>
        <time>2022-09-03T10:44:00Z</time>
      </trkpt>
      <trkpt lat="45.08132" lon="6.09907">
        <ele>1641.7</ele>
        <time>2022-09-03T10:44:05Z</time>
      </trkpt>
      <trkpt lat="45.08131" lon="6.09917">
        <ele>1642</ele>
        <time>2022-09-03T10:45:07Z</time>
      </trkpt>
      <trkpt lat="45.08133" lon="6.09927">
        <ele>1641.7</ele>
        <time>2022-09-03T10:45:13Z</time>
      </trkpt>
      <trkpt lat="45.08132" lon="6.09937">
        <ele>1643.2</ele>
        <time>2022-09-03T10:45:19Z</time>
      </trkpt>
      <trkpt lat="45.0813" lon="6.09946">
        <ele>1645.2</ele>
        <time>2022-09-03T10:45:29Z</time>
      </trkpt>
      <trkpt lat="45.08129" lon="6.09955">
        <ele>1646.7</ele>
        <time>2022-09-03T10:45:36Z</time>
      </trkpt>
      <trkpt lat="45.08129" lon="6.09965">
        <ele>1647.7</ele>
        <time>2022-09-03T10:45:43Z</time>
      </trkpt>
      <trkpt lat="45.0813" lon="6.09974">
        <ele>1647.8</ele>
        <time>2022-09-03T10:45:52Z</time>
      </trkpt>
      <trkpt lat="45.08128" lon="6.09984">
        <ele>1650.2</ele>
        <time>2022-09-03T10:45:58Z</time>
      </trkpt>
      <trkpt lat="45.08125" lon="6.09992">
        <ele>1653.2</ele>
        <time>2022-09-03T10:46:05Z</time>
      </trkpt>
      <trkpt lat="45.08125" lon="6.10002">
        <ele>1653.9</ele>
        <time>2022-09-03T10:46:13Z</time>
      </trkpt>
      <trkpt lat="45.08123" lon="6.1001">
        <ele>1655.1</ele>
        <time>2022-09-03T10:46:21Z</time>
      </trkpt>
      <trkpt lat="45.08119" lon="6.10021">
        <ele>1657.3</ele>
        <time>2022-09-03T10:46:30Z</time>
      </trkpt>
      <trkpt lat="45.08111" lon="6.10036">
        <ele>1661.4</ele>
        <time>2022-09-03T10:46:35Z</time>
      </trkpt>
      <trkpt lat="45.08109" lon="6.10045">
        <ele>1661.8</ele>
        <time>2022-09-03T10:46:40Z</time>
      </trkpt>
      <trkpt lat="45.08107" lon="6.10054">
        <ele>1662</ele>
        <time>2022-09-03T10:46:47Z</time>
      </trkpt>
      <trkpt lat="45.08105" lon="6.10065">
        <ele>1661.8</ele>
        <time>2022-09-03T10:46:54Z</time>
      </trkpt>
      <trkpt lat="45.08101" lon="6.10073">
        <ele>1662.7</ele>
        <time>2022-09-03T10:47:02Z</time>
      </trkpt>
      <trkpt lat="45.081" lon="6.10082">
        <ele>1662</ele>
        <time>2022-09-03T10:47:11Z</time>
      </trkpt>
      <trkpt lat="45.08095" lon="6.1009">
        <ele>1663.4</ele>
        <time>2022-09-03T10:47:19Z</time>
      </trkpt>
      <trkpt lat="45.08092" lon="6.10098">
        <ele>1663.9</ele>
        <time>2022-09-03T10:47:25Z</time>
      </trkpt>
      <trkpt lat="45.08088" lon="6.10107">
        <ele>1664.7</ele>
        <time>2022-09-03T10:47:35Z</time>
      </trkpt>
      <trkpt lat="45.08084" lon="6.10116">
        <ele>1665.2</ele>
        <time>2022-09-03T10:47:41Z</time>
      </trkpt>
      <trkpt lat="45.08081" lon="6.10124">
        <ele>1665.6</ele>
        <time>2022-09-03T10:47:52Z</time>
      </trkpt>
      <trkpt lat="45.08076" lon="6.10132">
        <ele>1666.7</ele>
        <time>2022-09-03T10:47:59Z</time>
      </trkpt>
      <trkpt lat="45.08072" lon="6.1014">
        <ele>1667.2</ele>
        <time>2022-09-03T10:48:07Z</time>
      </trkpt>
      <trkpt lat="45.08072" lon="6.1015">
        <ele>1665.8</ele>
        <time>2022-09-03T10:48:15Z</time>
      </trkpt>
      <trkpt lat="45.08071" lon="6.10159">
        <ele>1664.9</ele>
        <time>2022-09-03T10:48:21Z</time>
      </trkpt>
      <trkpt lat="45.08069" lon="6.10169">
        <ele>1664.1</ele>
        <time>2022-09-03T10:48:30Z</time>
      </trkpt>
      <trkpt lat="45.08067" lon="6.10178">
        <ele>1663.2</ele>
        <time>2022-09-03T10:48:38Z</time>
      </trkpt>
      <trkpt lat="45.08067" lon="6.10187">
        <ele>1661.7</ele>
        <time>2022-09-03T10:48:46Z</time>
      </trkpt>
      <trkpt lat="45.08066" lon="6.10197">
        <ele>1660.3</ele>
        <time>2022-09-03T10:48:53Z</time>
      </trkpt>
      <trkpt lat="45.08063" lon="6.10206">
        <ele>1659.6</ele>
        <time>2022-09-03T10:49:04Z</time>
      </trkpt>
      <trkpt lat="45.08061" lon="6.10214">
        <ele>1658.8</ele>
        <time>2022-09-03T10:49:22Z</time>
      </trkpt>
      <trkpt lat="45.08057" lon="6.10223">
        <ele>1658.4</ele>
        <time>2022-09-03T10:49:33Z</time>
      </trkpt>
      <trkpt lat="45.08055" lon="6.10233">
        <ele>1657.1</ele>
        <time>2022-09-03T10:49:41Z</time>
      </trkpt>
      <trkpt lat="45.08054" lon="6.10242">
        <ele>1655.8</ele>
        <time>2022-09-03T10:49:49Z</time>
      </trkpt>
      <trkpt lat="45.0805" lon="6.1025">
        <ele>1655.4</ele>
        <time>2022-09-03T10:49:55Z</time>
      </trkpt>
      <trkpt lat="45.08048" lon="6.10259">
        <ele>1655.2</ele>
        <time>2022-09-03T10:50:01Z</time>
      </trkpt>
      <trkpt lat="45.08043" lon="6.10267">
        <ele>1655.6</ele>
        <time>2022-09-03T10:50:09Z</time>
      </trkpt>
      <trkpt lat="45.08037" lon="6.10274">
        <ele>1656.1</ele>
        <time>2022-09-03T10:50:15Z</time>
      </trkpt>
      <trkpt lat="45.08032" lon="6.10282">
        <ele>1656.2</ele>
        <time>2022-09-03T10:50:21Z</time>
      </trkpt>
      <trkpt lat="45.08026" lon="6.10288">
        <ele>1656.6</ele>
        <time>2022-09-03T10:50:26Z</time>
      </trkpt>
      <trkpt lat="45.08021" lon="6.10294">
        <ele>1656.7</ele>
        <time>2022-09-03T10:50:31Z</time>
      </trkpt>
      <trkpt lat="45.08016" lon="6.10301">
        <ele>1656.4</ele>
        <time>2022-09-03T10:50:38Z</time>
      </trkpt>
      <trkpt lat="45.08011" lon="6.10307">
        <ele>1656.2</ele>
        <time>2022-09-03T10:50:44Z</time>
      </trkpt>
      <trkpt lat="45.08004" lon="6.10313">
        <ele>1656.2</ele>
        <time>2022-09-03T10:50:49Z</time>
      </trkpt>
      <trkpt lat="45.07998" lon="6.10318">
        <ele>1656.1</ele>
        <time>2022-09-03T10:50:55Z</time>
      </trkpt>
      <trkpt lat="45.07994" lon="6.10325">
        <ele>1655.6</ele>
        <time>2022-09-03T10:51:00Z</time>
      </trkpt>
      <trkpt lat="45.07988" lon="6.10331">
        <ele>1655.6</ele>
        <time>2022-09-03T10:51:07Z</time>
      </trkpt>
      <trkpt lat="45.07983" lon="6.10337">
        <ele>1655.7</ele>
        <time>2022-09-03T10:51:13Z</time>
      </trkpt>
      <trkpt lat="45.0798" lon="6.10346">
        <ele>1655.4</ele>
        <time>2022-09-03T10:51:22Z</time>
      </trkpt>
      <trkpt lat="45.07977" lon="6.10356">
        <ele>1654.9</ele>
        <time>2022-09-03T10:51:28Z</time>
      </trkpt>
      <trkpt lat="45.07974" lon="6.10365">
        <ele>1654.5</ele>
        <time>2022-09-03T10:51:34Z</time>
      </trkpt>
      <trkpt lat="45.07972" lon="6.10375">
        <ele>1653.7</ele>
        <time>2022-09-03T10:51:41Z</time>
      </trkpt>
      <trkpt lat="45.07967" lon="6.10384">
        <ele>1653.4</ele>
        <time>2022-09-03T10:51:47Z</time>
      </trkpt>
      <trkpt lat="45.07964" lon="6.10392">
        <ele>1652.8</ele>
        <time>2022-09-03T10:51:52Z</time>
      </trkpt>
      <trkpt lat="45.0796" lon="6.10401">
        <ele>1652.2</ele>
        <time>2022-09-03T10:52:02Z</time>
      </trkpt>
      <trkpt lat="45.07955" lon="6.10409">
        <ele>1651.7</ele>
        <time>2022-09-03T10:52:08Z</time>
      </trkpt>
      <trkpt lat="45.07951" lon="6.10417">
        <ele>1651.1</ele>
        <time>2022-09-03T10:52:14Z</time>
      </trkpt>
      <trkpt lat="45.07944" lon="6.10424">
        <ele>1651.8</ele>
        <time>2022-09-03T10:52:19Z</time>
      </trkpt>
      <trkpt lat="45.07939" lon="6.1043">
        <ele>1652.3</ele>
        <time>2022-09-03T10:52:25Z</time>
      </trkpt>
      <trkpt lat="45.07933" lon="6.10434">
        <ele>1652.8</ele>
        <time>2022-09-03T10:52:31Z</time>
      </trkpt>
      <trkpt lat="45.07928" lon="6.10445">
        <ele>1653.2</ele>
        <time>2022-09-03T10:52:36Z</time>
      </trkpt>
      <trkpt lat="45.07921" lon="6.10452">
        <ele>1653.7</ele>
        <time>2022-09-03T10:52:41Z</time>
      </trkpt>
      <trkpt lat="45.07917" lon="6.10464">
        <ele>1654</ele>
        <time>2022-09-03T10:52:46Z</time>
      </trkpt>
      <trkpt lat="45.07912" lon="6.10471">
        <ele>1655.2</ele>
        <time>2022-09-03T10:52:53Z</time>
      </trkpt>
      <trkpt lat="45.07905" lon="6.10475">
        <ele>1657</ele>
        <time>2022-09-03T10:53:00Z</time>
      </trkpt>
      <trkpt lat="45.07899" lon="6.10479">
        <ele>1658.5</ele>
        <time>2022-09-03T10:53:06Z</time>
      </trkpt>
      <trkpt lat="45.07894" lon="6.10485">
        <ele>1659.8</ele>
        <time>2022-09-03T10:53:32Z</time>
      </trkpt>
      <trkpt lat="45.0789" lon="6.10494">
        <ele>1661</ele>
        <time>2022-09-03T10:53:40Z</time>
      </trkpt>
      <trkpt lat="45.0789" lon="6.10504">
        <ele>1661.2</ele>
        <time>2022-09-03T10:53:49Z</time>
      </trkpt>
      <trkpt lat="45.07885" lon="6.10512">
        <ele>1662.9</ele>
        <time>2022-09-03T10:53:54Z</time>
      </trkpt>
      <trkpt lat="45.07882" lon="6.10521">
        <ele>1664</ele>
        <time>2022-09-03T10:54:01Z</time>
      </trkpt>
      <trkpt lat="45.07876" lon="6.10532">
        <ele>1665.9</ele>
        <time>2022-09-03T10:54:06Z</time>
      </trkpt>
      <trkpt lat="45.07873" lon="6.10541">
        <ele>1667</ele>
        <time>2022-09-03T10:54:12Z</time>
      </trkpt>
      <trkpt lat="45.0787" lon="6.1055">
        <ele>1668</ele>
        <time>2022-09-03T10:54:38Z</time>
      </trkpt>
      <trkpt lat="45.07866" lon="6.10563">
        <ele>1669.3</ele>
        <time>2022-09-03T10:54:43Z</time>
      </trkpt>
      <trkpt lat="45.07861" lon="6.10571">
        <ele>1670.7</ele>
        <time>2022-09-03T10:54:51Z</time>
      </trkpt>
      <trkpt lat="45.07857" lon="6.10578">
        <ele>1671.8</ele>
        <time>2022-09-03T10:54:56Z</time>
      </trkpt>
      <trkpt lat="45.07854" lon="6.10586">
        <ele>1672.6</ele>
        <time>2022-09-03T10:55:02Z</time>
      </trkpt>
      <trkpt lat="45.07851" lon="6.10594">
        <ele>1673.5</ele>
        <time>2022-09-03T10:55:08Z</time>
      </trkpt>
      <trkpt lat="45.07848" lon="6.10604">
        <ele>1674.4</ele>
        <time>2022-09-03T10:55:14Z</time>
      </trkpt>
      <trkpt lat="45.07843" lon="6.10612">
        <ele>1675.6</ele>
        <time>2022-09-03T10:55:21Z</time>
      </trkpt>
      <trkpt lat="45.07841" lon="6.10622">
        <ele>1676.1</ele>
        <time>2022-09-03T10:55:28Z</time>
      </trkpt>
      <trkpt lat="45.07838" lon="6.10631">
        <ele>1676.8</ele>
        <time>2022-09-03T10:55:38Z</time>
      </trkpt>
      <trkpt lat="45.07835" lon="6.10641">
        <ele>1677.4</ele>
        <time>2022-09-03T10:55:44Z</time>
      </trkpt>
      <trkpt lat="45.07833" lon="6.10652">
        <ele>1678</ele>
        <time>2022-09-03T10:55:52Z</time>
      </trkpt>
      <trkpt lat="45.07832" lon="6.10661">
        <ele>1678.5</ele>
        <time>2022-09-03T10:55:59Z</time>
      </trkpt>
      <trkpt lat="45.07831" lon="6.10672">
        <ele>1679.5</ele>
        <time>2022-09-03T10:56:06Z</time>
      </trkpt>
      <trkpt lat="45.0783" lon="6.10681">
        <ele>1680.8</ele>
        <time>2022-09-03T10:56:12Z</time>
      </trkpt>
      <trkpt lat="45.07827" lon="6.1069">
        <ele>1683</ele>
        <time>2022-09-03T10:56:19Z</time>
      </trkpt>
      <trkpt lat="45.07825" lon="6.10699">
        <ele>1684.8</ele>
        <time>2022-09-03T10:56:24Z</time>
      </trkpt>
      <trkpt lat="45.07826" lon="6.10709">
        <ele>1685.4</ele>
        <time>2022-09-03T10:56:31Z</time>
      </trkpt>
      <trkpt lat="45.07826" lon="6.10718">
        <ele>1686.3</ele>
        <time>2022-09-03T10:56:37Z</time>
      </trkpt>
      <trkpt lat="45.07826" lon="6.10728">
        <ele>1687.4</ele>
        <time>2022-09-03T10:56:45Z</time>
      </trkpt>
      <trkpt lat="45.07826" lon="6.10738">
        <ele>1688.4</ele>
        <time>2022-09-03T10:56:51Z</time>
      </trkpt>
      <trkpt lat="45.07829" lon="6.10746">
        <ele>1687.7</ele>
        <time>2022-09-03T10:56:58Z</time>
      </trkpt>
      <trkpt lat="45.07831" lon="6.10755">
        <ele>1688.1</ele>
        <time>2022-09-03T10:57:04Z</time>
      </trkpt>
      <trkpt lat="45.07835" lon="6.10763">
        <ele>1688.3</ele>
        <time>2022-09-03T10:57:11Z</time>
      </trkpt>
      <trkpt lat="45.07841" lon="6.10772">
        <ele>1689.4</ele>
        <time>2022-09-03T10:57:41Z</time>
      </trkpt>
      <trkpt lat="45.07846" lon="6.10777">
        <ele>1689.9</ele>
        <time>2022-09-03T10:57:47Z</time>
      </trkpt>
      <trkpt lat="45.07851" lon="6.10785">
        <ele>1690.8</ele>
        <time>2022-09-03T10:57:54Z</time>
      </trkpt>
      <trkpt lat="45.07857" lon="6.10792">
        <ele>1691.5</ele>
        <time>2022-09-03T10:57:59Z</time>
      </trkpt>
      <trkpt lat="45.07862" lon="6.108">
        <ele>1692.4</ele>
        <time>2022-09-03T10:58:04Z</time>
      </trkpt>
      <trkpt lat="45.07868" lon="6.10808">
        <ele>1693.2</ele>
        <time>2022-09-03T10:58:09Z</time>
      </trkpt>
      <trkpt lat="45.07871" lon="6.10817">
        <ele>1694.5</ele>
        <time>2022-09-03T10:58:15Z</time>
      </trkpt>
      <trkpt lat="45.07876" lon="6.10825">
        <ele>1695.4</ele>
        <time>2022-09-03T10:58:22Z</time>
      </trkpt>
      <trkpt lat="45.0788" lon="6.10833">
        <ele>1696.3</ele>
        <time>2022-09-03T10:58:28Z</time>
      </trkpt>
      <trkpt lat="45.07887" lon="6.10838">
        <ele>1696.8</ele>
        <time>2022-09-03T10:58:33Z</time>
      </trkpt>
      <trkpt lat="45.07888" lon="6.10847">
        <ele>1698.9</ele>
        <time>2022-09-03T10:58:39Z</time>
      </trkpt>
      <trkpt lat="45.07889" lon="6.10857">
        <ele>1701.4</ele>
        <time>2022-09-03T10:58:45Z</time>
      </trkpt>
      <trkpt lat="45.07893" lon="6.10867">
        <ele>1703.4</ele>
        <time>2022-09-03T10:58:51Z</time>
      </trkpt>
      <trkpt lat="45.07897" lon="6.10876">
        <ele>1705.1</ele>
        <time>2022-09-03T10:58:56Z</time>
      </trkpt>
      <trkpt lat="45.079" lon="6.10884">
        <ele>1706.6</ele>
        <time>2022-09-03T10:59:04Z</time>
      </trkpt>
      <trkpt lat="45.07903" lon="6.10893">
        <ele>1708.4</ele>
        <time>2022-09-03T10:59:10Z</time>
      </trkpt>
      <trkpt lat="45.07906" lon="6.10902">
        <ele>1710.2</ele>
        <time>2022-09-03T10:59:17Z</time>
      </trkpt>
      <trkpt lat="45.0791" lon="6.1091">
        <ele>1711.5</ele>
        <time>2022-09-03T10:59:25Z</time>
      </trkpt>
      <trkpt lat="45.07911" lon="6.1092">
        <ele>1713.4</ele>
        <time>2022-09-03T10:59:32Z</time>
      </trkpt>
      <trkpt lat="45.07911" lon="6.10929">
        <ele>1714.6</ele>
        <time>2022-09-03T10:59:39Z</time>
      </trkpt>
      <trkpt lat="45.07913" lon="6.10939">
        <ele>1715.4</ele>
        <time>2022-09-03T10:59:48Z</time>
      </trkpt>
      <trkpt lat="45.07913" lon="6.10948">
        <ele>1716.5</ele>
        <time>2022-09-03T10:59:57Z</time>
      </trkpt>
      <trkpt lat="45.07913" lon="6.10958">
        <ele>1717.7</ele>
        <time>2022-09-03T11:00:04Z</time>
      </trkpt>
      <trkpt lat="45.07914" lon="6.10968">
        <ele>1718.5</ele>
        <time>2022-09-03T11:00:11Z</time>
      </trkpt>
      <trkpt lat="45.07912" lon="6.10977">
        <ele>1720.4</ele>
        <time>2022-09-03T11:00:19Z</time>
      </trkpt>
      <trkpt lat="45.07911" lon="6.10987">
        <ele>1722.2</ele>
        <time>2022-09-03T11:00:27Z</time>
      </trkpt>
      <trkpt lat="45.0791" lon="6.10998">
        <ele>1724.1</ele>
        <time>2022-09-03T11:00:33Z</time>
      </trkpt>
      <trkpt lat="45.0791" lon="6.11007">
        <ele>1724.1</ele>
        <time>2022-09-03T11:00:39Z</time>
      </trkpt>
      <trkpt lat="45.07911" lon="6.11017">
        <ele>1723.3</ele>
        <time>2022-09-03T11:00:44Z</time>
      </trkpt>
      <trkpt lat="45.0791" lon="6.11027">
        <ele>1723.5</ele>
        <time>2022-09-03T11:00:52Z</time>
      </trkpt>
      <trkpt lat="45.07911" lon="6.11037">
        <ele>1722.6</ele>
        <time>2022-09-03T11:00:58Z</time>
      </trkpt>
      <trkpt lat="45.07907" lon="6.11045">
        <ele>1724.8</ele>
        <time>2022-09-03T11:01:04Z</time>
      </trkpt>
      <trkpt lat="45.07908" lon="6.11055">
        <ele>1723.9</ele>
        <time>2022-09-03T11:01:11Z</time>
      </trkpt>
      <trkpt lat="45.07909" lon="6.11065">
        <ele>1723</ele>
        <time>2022-09-03T11:01:17Z</time>
      </trkpt>
      <trkpt lat="45.0791" lon="6.11076">
        <ele>1722</ele>
        <time>2022-09-03T11:01:24Z</time>
      </trkpt>
      <trkpt lat="45.07908" lon="6.11085">
        <ele>1723</ele>
        <time>2022-09-03T11:01:30Z</time>
      </trkpt>
      <trkpt lat="45.07907" lon="6.11097">
        <ele>1722.4</ele>
        <time>2022-09-03T11:01:35Z</time>
      </trkpt>
      <trkpt lat="45.07906" lon="6.11106">
        <ele>1722.1</ele>
        <time>2022-09-03T11:01:41Z</time>
      </trkpt>
      <trkpt lat="45.07907" lon="6.11119">
        <ele>1720</ele>
        <time>2022-09-03T11:01:46Z</time>
      </trkpt>
      <trkpt lat="45.07904" lon="6.11128">
        <ele>1720.9</ele>
        <time>2022-09-03T11:01:52Z</time>
      </trkpt>
      <trkpt lat="45.07901" lon="6.11137">
        <ele>1721.9</ele>
        <time>2022-09-03T11:02:00Z</time>
      </trkpt>
      <trkpt lat="45.07899" lon="6.11146">
        <ele>1722.1</ele>
        <time>2022-09-03T11:02:06Z</time>
      </trkpt>
      <trkpt lat="45.07895" lon="6.11155">
        <ele>1723.4</ele>
        <time>2022-09-03T11:02:11Z</time>
      </trkpt>
      <trkpt lat="45.0789" lon="6.11165">
        <ele>1725.2</ele>
        <time>2022-09-03T11:02:16Z</time>
      </trkpt>
      <trkpt lat="45.07891" lon="6.11174">
        <ele>1724</ele>
        <time>2022-09-03T11:02:24Z</time>
      </trkpt>
      <trkpt lat="45.07888" lon="6.11185">
        <ele>1725.2</ele>
        <time>2022-09-03T11:02:31Z</time>
      </trkpt>
      <trkpt lat="45.07889" lon="6.11194">
        <ele>1724.1</ele>
        <time>2022-09-03T11:02:36Z</time>
      </trkpt>
      <trkpt lat="45.07885" lon="6.11202">
        <ele>1726.1</ele>
        <time>2022-09-03T11:02:46Z</time>
      </trkpt>
      <trkpt lat="45.07883" lon="6.11211">
        <ele>1726.9</ele>
        <time>2022-09-03T11:02:52Z</time>
      </trkpt>
      <trkpt lat="45.07881" lon="6.11221">
        <ele>1727.6</ele>
        <time>2022-09-03T11:02:58Z</time>
      </trkpt>
      <trkpt lat="45.07878" lon="6.11231">
        <ele>1729</ele>
        <time>2022-09-03T11:03:04Z</time>
      </trkpt>
      <trkpt lat="45.07875" lon="6.11243">
        <ele>1730.3</ele>
        <time>2022-09-03T11:03:09Z</time>
      </trkpt>
      <trkpt lat="45.07875" lon="6.11253">
        <ele>1729.9</ele>
        <time>2022-09-03T11:03:14Z</time>
      </trkpt>
      <trkpt lat="45.07874" lon="6.11262">
        <ele>1730.1</ele>
        <time>2022-09-03T11:03:20Z</time>
      </trkpt>
      <trkpt lat="45.07875" lon="6.11273">
        <ele>1728.9</ele>
        <time>2022-09-03T11:03:26Z</time>
      </trkpt>
      <trkpt lat="45.07877" lon="6.11283">
        <ele>1727.2</ele>
        <time>2022-09-03T11:03:35Z</time>
      </trkpt>
      <trkpt lat="45.07875" lon="6.11293">
        <ele>1727.9</ele>
        <time>2022-09-03T11:03:41Z</time>
      </trkpt>
      <trkpt lat="45.07876" lon="6.11303">
        <ele>1726.9</ele>
        <time>2022-09-03T11:03:46Z</time>
      </trkpt>
      <trkpt lat="45.07875" lon="6.11313">
        <ele>1727</ele>
        <time>2022-09-03T11:03:52Z</time>
      </trkpt>
      <trkpt lat="45.07874" lon="6.11324">
        <ele>1727</ele>
        <time>2022-09-03T11:03:58Z</time>
      </trkpt>
      <trkpt lat="45.07873" lon="6.11334">
        <ele>1727.1</ele>
        <time>2022-09-03T11:04:04Z</time>
      </trkpt>
      <trkpt lat="45.07874" lon="6.11345">
        <ele>1727.2</ele>
        <time>2022-09-03T11:04:11Z</time>
      </trkpt>
      <trkpt lat="45.07873" lon="6.11354">
        <ele>1728.2</ele>
        <time>2022-09-03T11:04:16Z</time>
      </trkpt>
      <trkpt lat="45.07871" lon="6.11364">
        <ele>1729.8</ele>
        <time>2022-09-03T11:04:21Z</time>
      </trkpt>
      <trkpt lat="45.0787" lon="6.11373">
        <ele>1730.8</ele>
        <time>2022-09-03T11:04:28Z</time>
      </trkpt>
      <trkpt lat="45.07868" lon="6.11383">
        <ele>1732.4</ele>
        <time>2022-09-03T11:04:36Z</time>
      </trkpt>
      <trkpt lat="45.07866" lon="6.11392">
        <ele>1733.9</ele>
        <time>2022-09-03T11:04:43Z</time>
      </trkpt>
      <trkpt lat="45.07864" lon="6.11402">
        <ele>1735.5</ele>
        <time>2022-09-03T11:04:49Z</time>
      </trkpt>
      <trkpt lat="45.07862" lon="6.11412">
        <ele>1737</ele>
        <time>2022-09-03T11:04:55Z</time>
      </trkpt>
      <trkpt lat="45.07861" lon="6.11421">
        <ele>1738.1</ele>
        <time>2022-09-03T11:05:01Z</time>
      </trkpt>
      <trkpt lat="45.0786" lon="6.1143">
        <ele>1739.5</ele>
        <time>2022-09-03T11:05:06Z</time>
      </trkpt>
      <trkpt lat="45.07859" lon="6.1144">
        <ele>1741</ele>
        <time>2022-09-03T11:05:12Z</time>
      </trkpt>
      <trkpt lat="45.07855" lon="6.11448">
        <ele>1744</ele>
        <time>2022-09-03T11:05:18Z</time>
      </trkpt>
      <trkpt lat="45.07853" lon="6.11458">
        <ele>1746.1</ele>
        <time>2022-09-03T11:05:24Z</time>
      </trkpt>
      <trkpt lat="45.07853" lon="6.11468">
        <ele>1747.1</ele>
        <time>2022-09-03T11:05:30Z</time>
      </trkpt>
      <trkpt lat="45.07853" lon="6.11478">
        <ele>1748.2</ele>
        <time>2022-09-03T11:05:36Z</time>
      </trkpt>
      <trkpt lat="45.07852" lon="6.11488">
        <ele>1749.8</ele>
        <time>2022-09-03T11:05:41Z</time>
      </trkpt>
      <trkpt lat="45.07852" lon="6.11499">
        <ele>1750.9</ele>
        <time>2022-09-03T11:05:46Z</time>
      </trkpt>
      <trkpt lat="45.07853" lon="6.1151">
        <ele>1750.8</ele>
        <time>2022-09-03T11:05:51Z</time>
      </trkpt>
      <trkpt lat="45.07853" lon="6.11521">
        <ele>1751.2</ele>
        <time>2022-09-03T11:05:57Z</time>
      </trkpt>
      <trkpt lat="45.07852" lon="6.11531">
        <ele>1752.1</ele>
        <time>2022-09-03T11:06:02Z</time>
      </trkpt>
      <trkpt lat="45.07852" lon="6.11541">
        <ele>1752.5</ele>
        <time>2022-09-03T11:06:08Z</time>
      </trkpt>
      <trkpt lat="45.07852" lon="6.1155">
        <ele>1752.8</ele>
        <time>2022-09-03T11:06:13Z</time>
      </trkpt>
      <trkpt lat="45.07852" lon="6.1156">
        <ele>1753.2</ele>
        <time>2022-09-03T11:06:18Z</time>
      </trkpt>
      <trkpt lat="45.07853" lon="6.11569">
        <ele>1753</ele>
        <time>2022-09-03T11:06:23Z</time>
      </trkpt>
      <trkpt lat="45.07853" lon="6.1158">
        <ele>1753.4</ele>
        <time>2022-09-03T11:06:30Z</time>
      </trkpt>
      <trkpt lat="45.07851" lon="6.11589">
        <ele>1754.3</ele>
        <time>2022-09-03T11:06:35Z</time>
      </trkpt>
      <trkpt lat="45.07851" lon="6.11599">
        <ele>1754</ele>
        <time>2022-09-03T11:06:41Z</time>
      </trkpt>
      <trkpt lat="45.0785" lon="6.11609">
        <ele>1754.2</ele>
        <time>2022-09-03T11:06:47Z</time>
      </trkpt>
      <trkpt lat="45.07849" lon="6.1162">
        <ele>1754.3</ele>
        <time>2022-09-03T11:06:52Z</time>
      </trkpt>
      <trkpt lat="45.07847" lon="6.11629">
        <ele>1754.9</ele>
        <time>2022-09-03T11:06:58Z</time>
      </trkpt>
      <trkpt lat="45.07844" lon="6.11639">
        <ele>1755.8</ele>
        <time>2022-09-03T11:07:04Z</time>
      </trkpt>
      <trkpt lat="45.07843" lon="6.11648">
        <ele>1755.9</ele>
        <time>2022-09-03T11:07:11Z</time>
      </trkpt>
      <trkpt lat="45.07843" lon="6.11657">
        <ele>1755.5</ele>
        <time>2022-09-03T11:07:18Z</time>
      </trkpt>
      <trkpt lat="45.07841" lon="6.11667">
        <ele>1755.9</ele>
        <time>2022-09-03T11:07:32Z</time>
      </trkpt>
      <trkpt lat="45.07836" lon="6.11676">
        <ele>1756.9</ele>
        <time>2022-09-03T11:07:37Z</time>
      </trkpt>
      <trkpt lat="45.07832" lon="6.11685">
        <ele>1757.8</ele>
        <time>2022-09-03T11:07:42Z</time>
      </trkpt>
      <trkpt lat="45.07829" lon="6.11694">
        <ele>1758.8</ele>
        <time>2022-09-03T11:07:49Z</time>
      </trkpt>
      <trkpt lat="45.07826" lon="6.11705">
        <ele>1759.5</ele>
        <time>2022-09-03T11:07:55Z</time>
      </trkpt>
      <trkpt lat="45.07823" lon="6.11714">
        <ele>1760.4</ele>
        <time>2022-09-03T11:08:00Z</time>
      </trkpt>
      <trkpt lat="45.07821" lon="6.11723">
        <ele>1760.5</ele>
        <time>2022-09-03T11:08:05Z</time>
      </trkpt>
      <trkpt lat="45.07823" lon="6.11734">
        <ele>1757.7</ele>
        <time>2022-09-03T11:08:11Z</time>
      </trkpt>
      <trkpt lat="45.07822" lon="6.11744">
        <ele>1757</ele>
        <time>2022-09-03T11:08:17Z</time>
      </trkpt>
      <trkpt lat="45.07821" lon="6.11755">
        <ele>1756.6</ele>
        <time>2022-09-03T11:08:22Z</time>
      </trkpt>
      <trkpt lat="45.07823" lon="6.11764">
        <ele>1755</ele>
        <time>2022-09-03T11:08:27Z</time>
      </trkpt>
      <trkpt lat="45.07822" lon="6.11774">
        <ele>1755.2</ele>
        <time>2022-09-03T11:08:32Z</time>
      </trkpt>
      <trkpt lat="45.0782" lon="6.11783">
        <ele>1756</ele>
        <time>2022-09-03T11:08:38Z</time>
      </trkpt>
      <trkpt lat="45.07816" lon="6.11791">
        <ele>1758.1</ele>
        <time>2022-09-03T11:08:44Z</time>
      </trkpt>
      <trkpt lat="45.07814" lon="6.118">
        <ele>1758.9</ele>
        <time>2022-09-03T11:08:49Z</time>
      </trkpt>
      <trkpt lat="45.07811" lon="6.11809">
        <ele>1760.3</ele>
        <time>2022-09-03T11:08:56Z</time>
      </trkpt>
      <trkpt lat="45.07807" lon="6.11819">
        <ele>1762.2</ele>
        <time>2022-09-03T11:09:01Z</time>
      </trkpt>
      <trkpt lat="45.07807" lon="6.11829">
        <ele>1761.7</ele>
        <time>2022-09-03T11:09:07Z</time>
      </trkpt>
      <trkpt lat="45.07806" lon="6.11839">
        <ele>1762.7</ele>
        <time>2022-09-03T11:09:13Z</time>
      </trkpt>
      <trkpt lat="45.07806" lon="6.1185">
        <ele>1763.8</ele>
        <time>2022-09-03T11:09:20Z</time>
      </trkpt>
      <trkpt lat="45.07805" lon="6.11859">
        <ele>1765.3</ele>
        <time>2022-09-03T11:09:26Z</time>
      </trkpt>
      <trkpt lat="45.07805" lon="6.11868">
        <ele>1766.3</ele>
        <time>2022-09-03T11:09:32Z</time>
      </trkpt>
      <trkpt lat="45.07803" lon="6.11879">
        <ele>1768.6</ele>
        <time>2022-09-03T11:09:39Z</time>
      </trkpt>
      <trkpt lat="45.07801" lon="6.11887">
        <ele>1770.6</ele>
        <time>2022-09-03T11:09:46Z</time>
      </trkpt>
      <trkpt lat="45.07801" lon="6.11897">
        <ele>1771.6</ele>
        <time>2022-09-03T11:09:53Z</time>
      </trkpt>
      <trkpt lat="45.07802" lon="6.11907">
        <ele>1772</ele>
        <time>2022-09-03T11:09:59Z</time>
      </trkpt>
      <trkpt lat="45.07802" lon="6.11917">
        <ele>1773.1</ele>
        <time>2022-09-03T11:10:06Z</time>
      </trkpt>
      <trkpt lat="45.07804" lon="6.11927">
        <ele>1773.2</ele>
        <time>2022-09-03T11:10:12Z</time>
      </trkpt>
      <trkpt lat="45.07805" lon="6.11937">
        <ele>1773.9</ele>
        <time>2022-09-03T11:10:20Z</time>
      </trkpt>
      <trkpt lat="45.07805" lon="6.11948">
        <ele>1775.4</ele>
        <time>2022-09-03T11:10:29Z</time>
      </trkpt>
      <trkpt lat="45.07805" lon="6.11957">
        <ele>1776.5</ele>
        <time>2022-09-03T11:10:35Z</time>
      </trkpt>
      <trkpt lat="45.07806" lon="6.11967">
        <ele>1777.2</ele>
        <time>2022-09-03T11:10:42Z</time>
      </trkpt>
      <trkpt lat="45.07807" lon="6.11977">
        <ele>1777.8</ele>
        <time>2022-09-03T11:10:49Z</time>
      </trkpt>
      <trkpt lat="45.07807" lon="6.11987">
        <ele>1779</ele>
        <time>2022-09-03T11:10:57Z</time>
      </trkpt>
      <trkpt lat="45.07808" lon="6.11997">
        <ele>1779.6</ele>
        <time>2022-09-03T11:11:05Z</time>
      </trkpt>
      <trkpt lat="45.0781" lon="6.12005">
        <ele>1780.6</ele>
        <time>2022-09-03T11:11:13Z</time>
      </trkpt>
      <trkpt lat="45.0781" lon="6.12015">
        <ele>1784.8</ele>
        <time>2022-09-03T11:11:19Z</time>
      </trkpt>
      <trkpt lat="45.07812" lon="6.12024">
        <ele>1787.1</ele>
        <time>2022-09-03T11:11:26Z</time>
      </trkpt>
      <trkpt lat="45.07814" lon="6.12035">
        <ele>1790.1</ele>
        <time>2022-09-03T11:11:37Z</time>
      </trkpt>
      <trkpt lat="45.07818" lon="6.12043">
        <ele>1790.5</ele>
        <time>2022-09-03T11:11:45Z</time>
      </trkpt>
      <trkpt lat="45.07821" lon="6.12051">
        <ele>1791.5</ele>
        <time>2022-09-03T11:11:51Z</time>
      </trkpt>
      <trkpt lat="45.07826" lon="6.12059">
        <ele>1790.9</ele>
        <time>2022-09-03T11:12:19Z</time>
      </trkpt>
      <trkpt lat="45.0783" lon="6.12072">
        <ele>1793.1</ele>
        <time>2022-09-03T11:12:24Z</time>
      </trkpt>
      <trkpt lat="45.07833" lon="6.1208">
        <ele>1793.9</ele>
        <time>2022-09-03T11:12:32Z</time>
      </trkpt>
      <trkpt lat="45.07834" lon="6.12091">
        <ele>1798.1</ele>
        <time>2022-09-03T11:12:39Z</time>
      </trkpt>
      <trkpt lat="45.07835" lon="6.121">
        <ele>1801.5</ele>
        <time>2022-09-03T11:12:45Z</time>
      </trkpt>
      <trkpt lat="45.07838" lon="6.1211">
        <ele>1804</ele>
        <time>2022-09-03T11:12:50Z</time>
      </trkpt>
      <trkpt lat="45.07838" lon="6.12119">
        <ele>1807.9</ele>
        <time>2022-09-03T11:12:55Z</time>
      </trkpt>
      <trkpt lat="45.07839" lon="6.12129">
        <ele>1811.5</ele>
        <time>2022-09-03T11:13:01Z</time>
      </trkpt>
      <trkpt lat="45.07841" lon="6.12139">
        <ele>1814.2</ele>
        <time>2022-09-03T11:13:06Z</time>
      </trkpt>
      <trkpt lat="45.07842" lon="6.12149">
        <ele>1817.6</ele>
        <time>2022-09-03T11:13:12Z</time>
      </trkpt>
      <trkpt lat="45.07842" lon="6.1216">
        <ele>1822.2</ele>
        <time>2022-09-03T11:13:18Z</time>
      </trkpt>
      <trkpt lat="45.07843" lon="6.1217">
        <ele>1824.6</ele>
        <time>2022-09-03T11:13:24Z</time>
      </trkpt>
      <trkpt lat="45.07845" lon="6.1218">
        <ele>1824.3</ele>
        <time>2022-09-03T11:13:29Z</time>
      </trkpt>
      <trkpt lat="45.07845" lon="6.1219">
        <ele>1825.8</ele>
        <time>2022-09-03T11:13:34Z</time>
      </trkpt>
      <trkpt lat="45.07847" lon="6.122">
        <ele>1825.4</ele>
        <time>2022-09-03T11:13:41Z</time>
      </trkpt>
      <trkpt lat="45.07849" lon="6.12209">
        <ele>1824.9</ele>
        <time>2022-09-03T11:13:46Z</time>
      </trkpt>
      <trkpt lat="45.0785" lon="6.12218">
        <ele>1825.4</ele>
        <time>2022-09-03T11:13:52Z</time>
      </trkpt>
      <trkpt lat="45.07851" lon="6.12229">
        <ele>1826.1</ele>
        <time>2022-09-03T11:13:58Z</time>
      </trkpt>
      <trkpt lat="45.07853" lon="6.12238">
        <ele>1825.6</ele>
        <time>2022-09-03T11:14:03Z</time>
      </trkpt>
      <trkpt lat="45.07853" lon="6.12248">
        <ele>1827.1</ele>
        <time>2022-09-03T11:14:09Z</time>
      </trkpt>
      <trkpt lat="45.07854" lon="6.12258">
        <ele>1827.4</ele>
        <time>2022-09-03T11:14:14Z</time>
      </trkpt>
      <trkpt lat="45.07854" lon="6.12268">
        <ele>1828.7</ele>
        <time>2022-09-03T11:14:21Z</time>
      </trkpt>
      <trkpt lat="45.07856" lon="6.12277">
        <ele>1828.1</ele>
        <time>2022-09-03T11:14:27Z</time>
      </trkpt>
      <trkpt lat="45.07858" lon="6.12287">
        <ele>1827.6</ele>
        <time>2022-09-03T11:14:32Z</time>
      </trkpt>
      <trkpt lat="45.07857" lon="6.12296">
        <ele>1829.7</ele>
        <time>2022-09-03T11:14:37Z</time>
      </trkpt>
      <trkpt lat="45.07858" lon="6.12306">
        <ele>1830.2</ele>
        <time>2022-09-03T11:14:42Z</time>
      </trkpt>
      <trkpt lat="45.07861" lon="6.12315">
        <ele>1828.9</ele>
        <time>2022-09-03T11:14:50Z</time>
      </trkpt>
      <trkpt lat="45.07862" lon="6.12324">
        <ele>1829.3</ele>
        <time>2022-09-03T11:14:56Z</time>
      </trkpt>
      <trkpt lat="45.07864" lon="6.12333">
        <ele>1828.9</ele>
        <time>2022-09-03T11:15:01Z</time>
      </trkpt>
      <trkpt lat="45.07868" lon="6.12342">
        <ele>1826.2</ele>
        <time>2022-09-03T11:15:06Z</time>
      </trkpt>
      <trkpt lat="45.07872" lon="6.12351">
        <ele>1823.6</ele>
        <time>2022-09-03T11:15:12Z</time>
      </trkpt>
      <trkpt lat="45.07876" lon="6.12359">
        <ele>1820.9</ele>
        <time>2022-09-03T11:15:17Z</time>
      </trkpt>
      <trkpt lat="45.07879" lon="6.12367">
        <ele>1819.1</ele>
        <time>2022-09-03T11:15:24Z</time>
      </trkpt>
      <trkpt lat="45.07885" lon="6.12371">
        <ele>1814.6</ele>
        <time>2022-09-03T11:15:29Z</time>
      </trkpt>
      <trkpt lat="45.0789" lon="6.12377">
        <ele>1811.1</ele>
        <time>2022-09-03T11:15:35Z</time>
      </trkpt>
      <trkpt lat="45.07895" lon="6.12384">
        <ele>1807.8</ele>
        <time>2022-09-03T11:15:41Z</time>
      </trkpt>
      <trkpt lat="45.079" lon="6.12393">
        <ele>1804.6</ele>
        <time>2022-09-03T11:15:46Z</time>
      </trkpt>
      <trkpt lat="45.07904" lon="6.124">
        <ele>1802.1</ele>
        <time>2022-09-03T11:15:52Z</time>
      </trkpt>
      <trkpt lat="45.07906" lon="6.12411">
        <ele>1801.6</ele>
        <time>2022-09-03T11:15:57Z</time>
      </trkpt>
      <trkpt lat="45.07909" lon="6.12419">
        <ele>1800.2</ele>
        <time>2022-09-03T11:16:04Z</time>
      </trkpt>
      <trkpt lat="45.0791" lon="6.12429">
        <ele>1801.3</ele>
        <time>2022-09-03T11:16:10Z</time>
      </trkpt>
      <trkpt lat="45.07913" lon="6.12438">
        <ele>1800.8</ele>
        <time>2022-09-03T11:16:16Z</time>
      </trkpt>
      <trkpt lat="45.07915" lon="6.12447">
        <ele>1801</ele>
        <time>2022-09-03T11:16:25Z</time>
      </trkpt>
      <trkpt lat="45.07916" lon="6.1246">
        <ele>1802.8</ele>
        <time>2022-09-03T11:16:30Z</time>
      </trkpt>
      <trkpt lat="45.07918" lon="6.12469">
        <ele>1803.5</ele>
        <time>2022-09-03T11:16:35Z</time>
      </trkpt>
      <trkpt lat="45.07919" lon="6.12479">
        <ele>1804.9</ele>
        <time>2022-09-03T11:16:40Z</time>
      </trkpt>
      <trkpt lat="45.07922" lon="6.12488">
        <ele>1805.3</ele>
        <time>2022-09-03T11:16:46Z</time>
      </trkpt>
      <trkpt lat="45.07926" lon="6.12498">
        <ele>1805.5</ele>
        <time>2022-09-03T11:16:53Z</time>
      </trkpt>
      <trkpt lat="45.07929" lon="6.12507">
        <ele>1806.9</ele>
        <time>2022-09-03T11:16:59Z</time>
      </trkpt>
      <trkpt lat="45.07933" lon="6.12514">
        <ele>1807.5</ele>
        <time>2022-09-03T11:17:04Z</time>
      </trkpt>
      <trkpt lat="45.07935" lon="6.12524">
        <ele>1810</ele>
        <time>2022-09-03T11:17:10Z</time>
      </trkpt>
      <trkpt lat="45.07938" lon="6.12533">
        <ele>1811.6</ele>
        <time>2022-09-03T11:17:16Z</time>
      </trkpt>
      <trkpt lat="45.07943" lon="6.1254">
        <ele>1811.6</ele>
        <time>2022-09-03T11:17:23Z</time>
      </trkpt>
      <trkpt lat="45.07946" lon="6.1255">
        <ele>1813.5</ele>
        <time>2022-09-03T11:17:28Z</time>
      </trkpt>
      <trkpt lat="45.07952" lon="6.12556">
        <ele>1812.7</ele>
        <time>2022-09-03T11:17:34Z</time>
      </trkpt>
      <trkpt lat="45.07958" lon="6.12562">
        <ele>1811.7</ele>
        <time>2022-09-03T11:17:39Z</time>
      </trkpt>
      <trkpt lat="45.07964" lon="6.12568">
        <ele>1810.8</ele>
        <time>2022-09-03T11:17:45Z</time>
      </trkpt>
      <trkpt lat="45.07971" lon="6.1257">
        <ele>1808</ele>
        <time>2022-09-03T11:17:51Z</time>
      </trkpt>
      <trkpt lat="45.07975" lon="6.12579">
        <ele>1808.9</ele>
        <time>2022-09-03T11:17:57Z</time>
      </trkpt>
      <trkpt lat="45.07981" lon="6.12586">
        <ele>1808.4</ele>
        <time>2022-09-03T11:18:05Z</time>
      </trkpt>
      <trkpt lat="45.07985" lon="6.12595">
        <ele>1810.2</ele>
        <time>2022-09-03T11:18:11Z</time>
      </trkpt>
      <trkpt lat="45.07989" lon="6.12604">
        <ele>1811.9</ele>
        <time>2022-09-03T11:18:19Z</time>
      </trkpt>
      <trkpt lat="45.07992" lon="6.12614">
        <ele>1814.5</ele>
        <time>2022-09-03T11:18:26Z</time>
      </trkpt>
      <trkpt lat="45.07995" lon="6.12623">
        <ele>1816.7</ele>
        <time>2022-09-03T11:18:31Z</time>
      </trkpt>
      <trkpt lat="45.07998" lon="6.12631">
        <ele>1818.4</ele>
        <time>2022-09-03T11:18:36Z</time>
      </trkpt>
      <trkpt lat="45.08001" lon="6.1264">
        <ele>1820.7</ele>
        <time>2022-09-03T11:18:42Z</time>
      </trkpt>
      <trkpt lat="45.08006" lon="6.12645">
        <ele>1820.5</ele>
        <time>2022-09-03T11:18:47Z</time>
      </trkpt>
      <trkpt lat="45.08009" lon="6.12654">
        <ele>1822.6</ele>
        <time>2022-09-03T11:18:53Z</time>
      </trkpt>
      <trkpt lat="45.08012" lon="6.12663">
        <ele>1824.7</ele>
        <time>2022-09-03T11:18:58Z</time>
      </trkpt>
      <trkpt lat="45.08016" lon="6.12672">
        <ele>1827.1</ele>
        <time>2022-09-03T11:19:05Z</time>
      </trkpt>
      <trkpt lat="45.08023" lon="6.12675">
        <ele>1825.2</ele>
        <time>2022-09-03T11:19:11Z</time>
      </trkpt>
      <trkpt lat="45.08027" lon="6.12682">
        <ele>1826.9</ele>
        <time>2022-09-03T11:19:17Z</time>
      </trkpt>
      <trkpt lat="45.08032" lon="6.12689">
        <ele>1827.9</ele>
        <time>2022-09-03T11:19:24Z</time>
      </trkpt>
      <trkpt lat="45.08038" lon="6.12693">
        <ele>1826.8</ele>
        <time>2022-09-03T11:19:29Z</time>
      </trkpt>
      <trkpt lat="45.08044" lon="6.12699">
        <ele>1826.5</ele>
        <time>2022-09-03T11:19:35Z</time>
      </trkpt>
      <trkpt lat="45.08048" lon="6.12707">
        <ele>1828.2</ele>
        <time>2022-09-03T11:19:42Z</time>
      </trkpt>
      <trkpt lat="45.08054" lon="6.12714">
        <ele>1828.1</ele>
        <time>2022-09-03T11:19:49Z</time>
      </trkpt>
      <trkpt lat="45.08059" lon="6.1272">
        <ele>1828</ele>
        <time>2022-09-03T11:19:56Z</time>
      </trkpt>
      <trkpt lat="45.0806" lon="6.1273">
        <ele>1832.1</ele>
        <time>2022-09-03T11:20:01Z</time>
      </trkpt>
      <trkpt lat="45.08065" lon="6.12737">
        <ele>1832.2</ele>
        <time>2022-09-03T11:20:07Z</time>
      </trkpt>
      <trkpt lat="45.08066" lon="6.12746">
        <ele>1835.6</ele>
        <time>2022-09-03T11:20:12Z</time>
      </trkpt>
      <trkpt lat="45.08072" lon="6.12751">
        <ele>1833.9</ele>
        <time>2022-09-03T11:20:19Z</time>
      </trkpt>
      <trkpt lat="45.08078" lon="6.12758">
        <ele>1833</ele>
        <time>2022-09-03T11:20:27Z</time>
      </trkpt>
      <trkpt lat="45.08082" lon="6.12765">
        <ele>1833.5</ele>
        <time>2022-09-03T11:20:34Z</time>
      </trkpt>
      <trkpt lat="45.08089" lon="6.12772">
        <ele>1832.8</ele>
        <time>2022-09-03T11:20:41Z</time>
      </trkpt>
      <trkpt lat="45.08094" lon="6.12779">
        <ele>1833</ele>
        <time>2022-09-03T11:20:48Z</time>
      </trkpt>
      <trkpt lat="45.08098" lon="6.12786">
        <ele>1833.6</ele>
        <time>2022-09-03T11:21:11Z</time>
      </trkpt>
      <trkpt lat="45.08101" lon="6.12796">
        <ele>1835.8</ele>
        <time>2022-09-03T11:21:18Z</time>
      </trkpt>
      <trkpt lat="45.08106" lon="6.12803">
        <ele>1835.5</ele>
        <time>2022-09-03T11:21:24Z</time>
      </trkpt>
      <trkpt lat="45.08108" lon="6.12813">
        <ele>1838</ele>
        <time>2022-09-03T11:21:36Z</time>
      </trkpt>
      <trkpt lat="45.08105" lon="6.12821">
        <ele>1843</ele>
        <time>2022-09-03T11:22:55Z</time>
      </trkpt>
      <trkpt lat="45.0811" lon="6.12827">
        <ele>1841.8</ele>
        <time>2022-09-03T11:23:02Z</time>
      </trkpt>
      <trkpt lat="45.08112" lon="6.12837">
        <ele>1843.6</ele>
        <time>2022-09-03T11:23:07Z</time>
      </trkpt>
      <trkpt lat="45.08114" lon="6.12845">
        <ele>1844.2</ele>
        <time>2022-09-03T11:23:13Z</time>
      </trkpt>
      <trkpt lat="45.08118" lon="6.12855">
        <ele>1843.7</ele>
        <time>2022-09-03T11:23:20Z</time>
      </trkpt>
      <trkpt lat="45.08121" lon="6.12864">
        <ele>1843.8</ele>
        <time>2022-09-03T11:23:29Z</time>
      </trkpt>
      <trkpt lat="45.08124" lon="6.12873">
        <ele>1843.8</ele>
        <time>2022-09-03T11:23:35Z</time>
      </trkpt>
      <trkpt lat="45.08128" lon="6.12882">
        <ele>1843</ele>
        <time>2022-09-03T11:23:42Z</time>
      </trkpt>
      <trkpt lat="45.08125" lon="6.12891">
        <ele>1847.3</ele>
        <time>2022-09-03T11:23:48Z</time>
      </trkpt>
      <trkpt lat="45.08128" lon="6.12899">
        <ele>1847</ele>
        <time>2022-09-03T11:23:53Z</time>
      </trkpt>
      <trkpt lat="45.08129" lon="6.12909">
        <ele>1848.7</ele>
        <time>2022-09-03T11:24:01Z</time>
      </trkpt>
      <trkpt lat="45.08129" lon="6.12918">
        <ele>1850.4</ele>
        <time>2022-09-03T11:24:07Z</time>
      </trkpt>
      <trkpt lat="45.0813" lon="6.12928">
        <ele>1848.8</ele>
        <time>2022-09-03T11:24:13Z</time>
      </trkpt>
      <trkpt lat="45.08131" lon="6.12938">
        <ele>1847.3</ele>
        <time>2022-09-03T11:24:21Z</time>
      </trkpt>
      <trkpt lat="45.08133" lon="6.12947">
        <ele>1845.2</ele>
        <time>2022-09-03T11:24:29Z</time>
      </trkpt>
      <trkpt lat="45.08133" lon="6.12956">
        <ele>1844.6</ele>
        <time>2022-09-03T11:24:36Z</time>
      </trkpt>
      <trkpt lat="45.08131" lon="6.12966">
        <ele>1845.1</ele>
        <time>2022-09-03T11:24:42Z</time>
      </trkpt>
      <trkpt lat="45.08129" lon="6.12975">
        <ele>1845.5</ele>
        <time>2022-09-03T11:24:51Z</time>
      </trkpt>
      <trkpt lat="45.08126" lon="6.12985">
        <ele>1846.4</ele>
        <time>2022-09-03T11:25:00Z</time>
      </trkpt>
      <trkpt lat="45.08123" lon="6.12994">
        <ele>1847.1</ele>
        <time>2022-09-03T11:25:07Z</time>
      </trkpt>
      <trkpt lat="45.08118" lon="6.13001">
        <ele>1849</ele>
        <time>2022-09-03T11:25:13Z</time>
      </trkpt>
      <trkpt lat="45.08112" lon="6.13006">
        <ele>1851.2</ele>
        <time>2022-09-03T11:25:21Z</time>
      </trkpt>
      <trkpt lat="45.08107" lon="6.13013">
        <ele>1852.4</ele>
        <time>2022-09-03T11:25:27Z</time>
      </trkpt>
      <trkpt lat="45.08104" lon="6.13021">
        <ele>1852.3</ele>
        <time>2022-09-03T11:25:32Z</time>
      </trkpt>
      <trkpt lat="45.08101" lon="6.1303">
        <ele>1851.9</ele>
        <time>2022-09-03T11:25:39Z</time>
      </trkpt>
      <trkpt lat="45.08097" lon="6.13039">
        <ele>1851.7</ele>
        <time>2022-09-03T11:25:45Z</time>
      </trkpt>
      <trkpt lat="45.08093" lon="6.13047">
        <ele>1851.5</ele>
        <time>2022-09-03T11:25:53Z</time>
      </trkpt>
      <trkpt lat="45.08088" lon="6.13056">
        <ele>1851.2</ele>
        <time>2022-09-03T11:26:00Z</time>
      </trkpt>
      <trkpt lat="45.08085" lon="6.13064">
        <ele>1850.3</ele>
        <time>2022-09-03T11:26:05Z</time>
      </trkpt>
      <trkpt lat="45.08086" lon="6.13075">
        <ele>1847.3</ele>
        <time>2022-09-03T11:26:12Z</time>
      </trkpt>
      <trkpt lat="45.08086" lon="6.13087">
        <ele>1845.3</ele>
        <time>2022-09-03T11:26:19Z</time>
      </trkpt>
      <trkpt lat="45.08089" lon="6.13098">
        <ele>1844.7</ele>
        <time>2022-09-03T11:26:26Z</time>
      </trkpt>
      <trkpt lat="45.0809" lon="6.13108">
        <ele>1844.6</ele>
        <time>2022-09-03T11:26:32Z</time>
      </trkpt>
      <trkpt lat="45.0809" lon="6.13118">
        <ele>1844.7</ele>
        <time>2022-09-03T11:26:39Z</time>
      </trkpt>
      <trkpt lat="45.08095" lon="6.13124">
        <ele>1843.6</ele>
        <time>2022-09-03T11:26:46Z</time>
      </trkpt>
      <trkpt lat="45.08099" lon="6.13132">
        <ele>1842.8</ele>
        <time>2022-09-03T11:27:15Z</time>
      </trkpt>
      <trkpt lat="45.08104" lon="6.13139">
        <ele>1841.8</ele>
        <time>2022-09-03T11:27:22Z</time>
      </trkpt>
      <trkpt lat="45.08108" lon="6.13146">
        <ele>1841.1</ele>
        <time>2022-09-03T11:27:29Z</time>
      </trkpt>
      <trkpt lat="45.08113" lon="6.13154">
        <ele>1840.2</ele>
        <time>2022-09-03T11:27:35Z</time>
      </trkpt>
      <trkpt lat="45.08119" lon="6.13162">
        <ele>1839.1</ele>
        <time>2022-09-03T11:27:44Z</time>
      </trkpt>
      <trkpt lat="45.08126" lon="6.13166">
        <ele>1837.8</ele>
        <time>2022-09-03T11:27:51Z</time>
      </trkpt>
      <trkpt lat="45.08127" lon="6.13176">
        <ele>1838.5</ele>
        <time>2022-09-03T11:28:01Z</time>
      </trkpt>
      <trkpt lat="45.08126" lon="6.13185">
        <ele>1839.6</ele>
        <time>2022-09-03T11:28:09Z</time>
      </trkpt>
      <trkpt lat="45.08121" lon="6.13192">
        <ele>1841.2</ele>
        <time>2022-09-03T11:28:17Z</time>
      </trkpt>
      <trkpt lat="45.08116" lon="6.13198">
        <ele>1842.7</ele>
        <time>2022-09-03T11:28:22Z</time>
      </trkpt>
      <trkpt lat="45.0811" lon="6.13202">
        <ele>1844.2</ele>
        <time>2022-09-03T11:28:30Z</time>
      </trkpt>
      <trkpt lat="45.08105" lon="6.13209">
        <ele>1845.7</ele>
        <time>2022-09-03T11:28:59Z</time>
      </trkpt>
      <trkpt lat="45.08098" lon="6.13213">
        <ele>1847.2</ele>
        <time>2022-09-03T11:29:08Z</time>
      </trkpt>
      <trkpt lat="45.08092" lon="6.13216">
        <ele>1848.5</ele>
        <time>2022-09-03T11:29:30Z</time>
      </trkpt>
      <trkpt lat="45.08085" lon="6.13215">
        <ele>1849.6</ele>
        <time>2022-09-03T11:29:37Z</time>
      </trkpt>
      <trkpt lat="45.08078" lon="6.13214">
        <ele>1851.4</ele>
        <time>2022-09-03T11:29:43Z</time>
      </trkpt>
      <trkpt lat="45.08071" lon="6.13213">
        <ele>1853.3</ele>
        <time>2022-09-03T11:29:49Z</time>
      </trkpt>
      <trkpt lat="45.08064" lon="6.13211">
        <ele>1855.2</ele>
        <time>2022-09-03T11:29:56Z</time>
      </trkpt>
      <trkpt lat="45.08058" lon="6.13204">
        <ele>1856.5</ele>
        <time>2022-09-03T11:30:02Z</time>
      </trkpt>
      <trkpt lat="45.08053" lon="6.13198">
        <ele>1857.5</ele>
        <time>2022-09-03T11:30:07Z</time>
      </trkpt>
      <trkpt lat="45.08049" lon="6.13189">
        <ele>1858</ele>
        <time>2022-09-03T11:30:13Z</time>
      </trkpt>
      <trkpt lat="45.08043" lon="6.13183">
        <ele>1859.3</ele>
        <time>2022-09-03T11:30:19Z</time>
      </trkpt>
      <trkpt lat="45.08039" lon="6.13175">
        <ele>1859.8</ele>
        <time>2022-09-03T11:30:25Z</time>
      </trkpt>
      <trkpt lat="45.08034" lon="6.13169">
        <ele>1860.8</ele>
        <time>2022-09-03T11:30:32Z</time>
      </trkpt>
      <trkpt lat="45.0803" lon="6.13161">
        <ele>1861.8</ele>
        <time>2022-09-03T11:30:38Z</time>
      </trkpt>
      <trkpt lat="45.08026" lon="6.13152">
        <ele>1863.1</ele>
        <time>2022-09-03T11:30:45Z</time>
      </trkpt>
      <trkpt lat="45.08023" lon="6.13143">
        <ele>1864.2</ele>
        <time>2022-09-03T11:30:51Z</time>
      </trkpt>
      <trkpt lat="45.08019" lon="6.13134">
        <ele>1865.6</ele>
        <time>2022-09-03T11:30:59Z</time>
      </trkpt>
      <trkpt lat="45.08016" lon="6.13125">
        <ele>1866.7</ele>
        <time>2022-09-03T11:31:05Z</time>
      </trkpt>
      <trkpt lat="45.08015" lon="6.13115">
        <ele>1867.3</ele>
        <time>2022-09-03T11:31:12Z</time>
      </trkpt>
      <trkpt lat="45.08016" lon="6.13105">
        <ele>1867.2</ele>
        <time>2022-09-03T11:31:19Z</time>
      </trkpt>
      <trkpt lat="45.08014" lon="6.13096">
        <ele>1868.1</ele>
        <time>2022-09-03T11:31:26Z</time>
      </trkpt>
      <trkpt lat="45.08009" lon="6.13089">
        <ele>1869.9</ele>
        <time>2022-09-03T11:31:32Z</time>
      </trkpt>
      <trkpt lat="45.08002" lon="6.13086">
        <ele>1872.3</ele>
        <time>2022-09-03T11:31:39Z</time>
      </trkpt>
      <trkpt lat="45.07996" lon="6.1309">
        <ele>1874.7</ele>
        <time>2022-09-03T11:31:45Z</time>
      </trkpt>
      <trkpt lat="45.0799" lon="6.13094">
        <ele>1877.6</ele>
        <time>2022-09-03T11:31:52Z</time>
      </trkpt>
      <trkpt lat="45.07989" lon="6.13104">
        <ele>1878</ele>
        <time>2022-09-03T11:31:58Z</time>
      </trkpt>
      <trkpt lat="45.07986" lon="6.13112">
        <ele>1879.5</ele>
        <time>2022-09-03T11:32:03Z</time>
      </trkpt>
      <trkpt lat="45.07984" lon="6.13121">
        <ele>1880.5</ele>
        <time>2022-09-03T11:32:10Z</time>
      </trkpt>
      <trkpt lat="45.07982" lon="6.13132">
        <ele>1881.7</ele>
        <time>2022-09-03T11:32:16Z</time>
      </trkpt>
      <trkpt lat="45.07978" lon="6.13141">
        <ele>1884</ele>
        <time>2022-09-03T11:32:22Z</time>
      </trkpt>
      <trkpt lat="45.07976" lon="6.13151">
        <ele>1885.4</ele>
        <time>2022-09-03T11:32:27Z</time>
      </trkpt>
      <trkpt lat="45.07974" lon="6.1316">
        <ele>1886.7</ele>
        <time>2022-09-03T11:32:32Z</time>
      </trkpt>
      <trkpt lat="45.07973" lon="6.13169">
        <ele>1887.7</ele>
        <time>2022-09-03T11:32:38Z</time>
      </trkpt>
      <trkpt lat="45.0797" lon="6.1318">
        <ele>1890.9</ele>
        <time>2022-09-03T11:32:46Z</time>
      </trkpt>
      <trkpt lat="45.07969" lon="6.1319">
        <ele>1892.7</ele>
        <time>2022-09-03T11:32:52Z</time>
      </trkpt>
      <trkpt lat="45.07968" lon="6.13199">
        <ele>1894.3</ele>
        <time>2022-09-03T11:33:00Z</time>
      </trkpt>
      <trkpt lat="45.07968" lon="6.13208">
        <ele>1895.4</ele>
        <time>2022-09-03T11:33:06Z</time>
      </trkpt>
      <trkpt lat="45.07967" lon="6.13218">
        <ele>1897.2</ele>
        <time>2022-09-03T11:33:17Z</time>
      </trkpt>
      <trkpt lat="45.07965" lon="6.13229">
        <ele>1899.8</ele>
        <time>2022-09-03T11:33:41Z</time>
      </trkpt>
      <trkpt lat="45.07967" lon="6.13238">
        <ele>1899.4</ele>
        <time>2022-09-03T11:33:50Z</time>
      </trkpt>
      <trkpt lat="45.07968" lon="6.13249">
        <ele>1899.9</ele>
        <time>2022-09-03T11:33:58Z</time>
      </trkpt>
      <trkpt lat="45.07967" lon="6.13258">
        <ele>1902.5</ele>
        <time>2022-09-03T11:34:04Z</time>
      </trkpt>
      <trkpt lat="45.07971" lon="6.13267">
        <ele>1901.5</ele>
        <time>2022-09-03T11:34:11Z</time>
      </trkpt>
      <trkpt lat="45.07975" lon="6.13276">
        <ele>1900.5</ele>
        <time>2022-09-03T11:34:19Z</time>
      </trkpt>
      <trkpt lat="45.07979" lon="6.13284">
        <ele>1899.3</ele>
        <time>2022-09-03T11:34:25Z</time>
      </trkpt>
      <trkpt lat="45.07982" lon="6.13292">
        <ele>1898.7</ele>
        <time>2022-09-03T11:34:31Z</time>
      </trkpt>
      <trkpt lat="45.07987" lon="6.13299">
        <ele>1896.5</ele>
        <time>2022-09-03T11:34:38Z</time>
      </trkpt>
      <trkpt lat="45.07989" lon="6.13308">
        <ele>1896.9</ele>
        <time>2022-09-03T11:34:45Z</time>
      </trkpt>
      <trkpt lat="45.07994" lon="6.13315">
        <ele>1894.7</ele>
        <time>2022-09-03T11:34:51Z</time>
      </trkpt>
      <trkpt lat="45.07997" lon="6.13324">
        <ele>1894.3</ele>
        <time>2022-09-03T11:34:56Z</time>
      </trkpt>
      <trkpt lat="45.08001" lon="6.13332">
        <ele>1893.4</ele>
        <time>2022-09-03T11:35:02Z</time>
      </trkpt>
      <trkpt lat="45.08003" lon="6.13342">
        <ele>1894.6</ele>
        <time>2022-09-03T11:35:08Z</time>
      </trkpt>
      <trkpt lat="45.08005" lon="6.13351">
        <ele>1895.6</ele>
        <time>2022-09-03T11:35:14Z</time>
      </trkpt>
      <trkpt lat="45.08008" lon="6.13361">
        <ele>1896.4</ele>
        <time>2022-09-03T11:35:21Z</time>
      </trkpt>
      <trkpt lat="45.08011" lon="6.1337">
        <ele>1896.9</ele>
        <time>2022-09-03T11:35:28Z</time>
      </trkpt>
      <trkpt lat="45.08014" lon="6.1338">
        <ele>1897.6</ele>
        <time>2022-09-03T11:35:34Z</time>
      </trkpt>
      <trkpt lat="45.08016" lon="6.1339">
        <ele>1898.7</ele>
        <time>2022-09-03T11:35:40Z</time>
      </trkpt>
      <trkpt lat="45.08019" lon="6.13399">
        <ele>1899.1</ele>
        <time>2022-09-03T11:35:46Z</time>
      </trkpt>
      <trkpt lat="45.0802" lon="6.13409">
        <ele>1900.5</ele>
        <time>2022-09-03T11:35:52Z</time>
      </trkpt>
      <trkpt lat="45.08022" lon="6.13419">
        <ele>1901.5</ele>
        <time>2022-09-03T11:35:58Z</time>
      </trkpt>
      <trkpt lat="45.08027" lon="6.13427">
        <ele>1901.2</ele>
        <time>2022-09-03T11:36:06Z</time>
      </trkpt>
      <trkpt lat="45.08027" lon="6.13437">
        <ele>1903.3</ele>
        <time>2022-09-03T11:36:12Z</time>
      </trkpt>
      <trkpt lat="45.08031" lon="6.13446">
        <ele>1903.6</ele>
        <time>2022-09-03T11:36:18Z</time>
      </trkpt>
      <trkpt lat="45.08035" lon="6.13455">
        <ele>1903.9</ele>
        <time>2022-09-03T11:36:24Z</time>
      </trkpt>
      <trkpt lat="45.08039" lon="6.13463">
        <ele>1904.1</ele>
        <time>2022-09-03T11:36:30Z</time>
      </trkpt>
      <trkpt lat="45.08041" lon="6.13472">
        <ele>1905.2</ele>
        <time>2022-09-03T11:36:38Z</time>
      </trkpt>
      <trkpt lat="45.08045" lon="6.13482">
        <ele>1905.8</ele>
        <time>2022-09-03T11:36:45Z</time>
      </trkpt>
      <trkpt lat="45.08047" lon="6.13492">
        <ele>1907.2</ele>
        <time>2022-09-03T11:36:51Z</time>
      </trkpt>
      <trkpt lat="45.0805" lon="6.13501">
        <ele>1908</ele>
        <time>2022-09-03T11:36:57Z</time>
      </trkpt>
      <trkpt lat="45.08052" lon="6.1351">
        <ele>1909.4</ele>
        <time>2022-09-03T11:37:04Z</time>
      </trkpt>
      <trkpt lat="45.08056" lon="6.13519">
        <ele>1909.8</ele>
        <time>2022-09-03T11:37:10Z</time>
      </trkpt>
      <trkpt lat="45.0806" lon="6.13527">
        <ele>1909.9</ele>
        <time>2022-09-03T11:37:17Z</time>
      </trkpt>
      <trkpt lat="45.0806" lon="6.13538">
        <ele>1912.3</ele>
        <time>2022-09-03T11:37:22Z</time>
      </trkpt>
      <trkpt lat="45.08063" lon="6.13547">
        <ele>1912.9</ele>
        <time>2022-09-03T11:37:31Z</time>
      </trkpt>
      <trkpt lat="45.08065" lon="6.13557">
        <ele>1914.1</ele>
        <time>2022-09-03T11:37:38Z</time>
      </trkpt>
      <trkpt lat="45.08068" lon="6.13567">
        <ele>1914.7</ele>
        <time>2022-09-03T11:37:44Z</time>
      </trkpt>
      <trkpt lat="45.0807" lon="6.13576">
        <ele>1915.6</ele>
        <time>2022-09-03T11:37:51Z</time>
      </trkpt>
      <trkpt lat="45.08069" lon="6.13587">
        <ele>1918.3</ele>
        <time>2022-09-03T11:37:57Z</time>
      </trkpt>
      <trkpt lat="45.08068" lon="6.13598">
        <ele>1921.1</ele>
        <time>2022-09-03T11:38:03Z</time>
      </trkpt>
      <trkpt lat="45.0807" lon="6.13607">
        <ele>1921.8</ele>
        <time>2022-09-03T11:38:11Z</time>
      </trkpt>
      <trkpt lat="45.08072" lon="6.13617">
        <ele>1922.6</ele>
        <time>2022-09-03T11:38:18Z</time>
      </trkpt>
      <trkpt lat="45.0807" lon="6.13627">
        <ele>1925.7</ele>
        <time>2022-09-03T11:38:23Z</time>
      </trkpt>
      <trkpt lat="45.08072" lon="6.13636">
        <ele>1926.3</ele>
        <time>2022-09-03T11:38:30Z</time>
      </trkpt>
      <trkpt lat="45.08073" lon="6.13646">
        <ele>1927.7</ele>
        <time>2022-09-03T11:38:37Z</time>
      </trkpt>
      <trkpt lat="45.08072" lon="6.13656">
        <ele>1930.2</ele>
        <time>2022-09-03T11:38:45Z</time>
      </trkpt>
      <trkpt lat="45.08073" lon="6.13665">
        <ele>1931.4</ele>
        <time>2022-09-03T11:38:51Z</time>
      </trkpt>
      <trkpt lat="45.08073" lon="6.13675">
        <ele>1932.4</ele>
        <time>2022-09-03T11:38:58Z</time>
      </trkpt>
      <trkpt lat="45.08073" lon="6.13685">
        <ele>1933.2</ele>
        <time>2022-09-03T11:39:05Z</time>
      </trkpt>
      <trkpt lat="45.08073" lon="6.13695">
        <ele>1934.1</ele>
        <time>2022-09-03T11:39:13Z</time>
      </trkpt>
      <trkpt lat="45.08076" lon="6.13704">
        <ele>1932.5</ele>
        <time>2022-09-03T11:39:19Z</time>
      </trkpt>
      <trkpt lat="45.08076" lon="6.13715">
        <ele>1933.3</ele>
        <time>2022-09-03T11:39:46Z</time>
      </trkpt>
      <trkpt lat="45.08078" lon="6.13725">
        <ele>1932.3</ele>
        <time>2022-09-03T11:39:53Z</time>
      </trkpt>
      <trkpt lat="45.08079" lon="6.13736">
        <ele>1932.2</ele>
        <time>2022-09-03T11:40:00Z</time>
      </trkpt>
      <trkpt lat="45.08079" lon="6.13745">
        <ele>1932.7</ele>
        <time>2022-09-03T11:40:06Z</time>
      </trkpt>
      <trkpt lat="45.0808" lon="6.13755">
        <ele>1933.9</ele>
        <time>2022-09-03T11:40:12Z</time>
      </trkpt>
      <trkpt lat="45.08081" lon="6.13765">
        <ele>1936.5</ele>
        <time>2022-09-03T11:40:19Z</time>
      </trkpt>
      <trkpt lat="45.08083" lon="6.13775">
        <ele>1938.3</ele>
        <time>2022-09-03T11:40:26Z</time>
      </trkpt>
      <trkpt lat="45.08084" lon="6.13786">
        <ele>1941.6</ele>
        <time>2022-09-03T11:40:33Z</time>
      </trkpt>
      <trkpt lat="45.08085" lon="6.13796">
        <ele>1944.7</ele>
        <time>2022-09-03T11:40:41Z</time>
      </trkpt>
      <trkpt lat="45.08087" lon="6.13806">
        <ele>1947.2</ele>
        <time>2022-09-03T11:40:47Z</time>
      </trkpt>
      <trkpt lat="45.08086" lon="6.13815">
        <ele>1950.9</ele>
        <time>2022-09-03T11:40:54Z</time>
      </trkpt>
      <trkpt lat="45.08089" lon="6.13825">
        <ele>1952.7</ele>
        <time>2022-09-03T11:41:02Z</time>
      </trkpt>
      <trkpt lat="45.08091" lon="6.13835">
        <ele>1954.8</ele>
        <time>2022-09-03T11:41:10Z</time>
      </trkpt>
      <trkpt lat="45.08091" lon="6.13845">
        <ele>1957.5</ele>
        <time>2022-09-03T11:41:17Z</time>
      </trkpt>
      <trkpt lat="45.08092" lon="6.13855">
        <ele>1959.5</ele>
        <time>2022-09-03T11:41:24Z</time>
      </trkpt>
      <trkpt lat="45.08093" lon="6.13864">
        <ele>1961.2</ele>
        <time>2022-09-03T11:41:31Z</time>
      </trkpt>
      <trkpt lat="45.08097" lon="6.13873">
        <ele>1961</ele>
        <time>2022-09-03T11:41:38Z</time>
      </trkpt>
      <trkpt lat="45.08099" lon="6.13882">
        <ele>1961.9</ele>
        <time>2022-09-03T11:41:46Z</time>
      </trkpt>
      <trkpt lat="45.08101" lon="6.13891">
        <ele>1962.8</ele>
        <time>2022-09-03T11:41:54Z</time>
      </trkpt>
      <trkpt lat="45.08102" lon="6.13901">
        <ele>1964.7</ele>
        <time>2022-09-03T11:42:00Z</time>
      </trkpt>
      <trkpt lat="45.08106" lon="6.13909">
        <ele>1963.8</ele>
        <time>2022-09-03T11:42:09Z</time>
      </trkpt>
      <trkpt lat="45.08109" lon="6.13918">
        <ele>1963.9</ele>
        <time>2022-09-03T11:42:18Z</time>
      </trkpt>
      <trkpt lat="45.08111" lon="6.13927">
        <ele>1964.8</ele>
        <time>2022-09-03T11:42:24Z</time>
      </trkpt>
      <trkpt lat="45.08113" lon="6.13937">
        <ele>1965.9</ele>
        <time>2022-09-03T11:42:30Z</time>
      </trkpt>
      <trkpt lat="45.08118" lon="6.13945">
        <ele>1964.2</ele>
        <time>2022-09-03T11:42:38Z</time>
      </trkpt>
      <trkpt lat="45.08121" lon="6.13955">
        <ele>1964.5</ele>
        <time>2022-09-03T11:42:46Z</time>
      </trkpt>
      <trkpt lat="45.08124" lon="6.13964">
        <ele>1964.4</ele>
        <time>2022-09-03T11:43:07Z</time>
      </trkpt>
      <trkpt lat="45.08125" lon="6.13973">
        <ele>1965.9</ele>
        <time>2022-09-03T11:43:13Z</time>
      </trkpt>
      <trkpt lat="45.08129" lon="6.13982">
        <ele>1964.9</ele>
        <time>2022-09-03T11:43:22Z</time>
      </trkpt>
      <trkpt lat="45.08132" lon="6.13992">
        <ele>1965</ele>
        <time>2022-09-03T11:43:28Z</time>
      </trkpt>
      <trkpt lat="45.08135" lon="6.14001">
        <ele>1964.7</ele>
        <time>2022-09-03T11:43:35Z</time>
      </trkpt>
      <trkpt lat="45.08138" lon="6.14009">
        <ele>1964.6</ele>
        <time>2022-09-03T11:43:42Z</time>
      </trkpt>
      <trkpt lat="45.08141" lon="6.14019">
        <ele>1965</ele>
        <time>2022-09-03T11:43:48Z</time>
      </trkpt>
      <trkpt lat="45.08143" lon="6.14029">
        <ele>1966.3</ele>
        <time>2022-09-03T11:43:55Z</time>
      </trkpt>
      <trkpt lat="45.08146" lon="6.14038">
        <ele>1966.4</ele>
        <time>2022-09-03T11:44:01Z</time>
      </trkpt>
      <trkpt lat="45.08151" lon="6.14045">
        <ele>1964.5</ele>
        <time>2022-09-03T11:44:09Z</time>
      </trkpt>
      <trkpt lat="45.08153" lon="6.14055">
        <ele>1965.7</ele>
        <time>2022-09-03T11:44:16Z</time>
      </trkpt>
      <trkpt lat="45.08158" lon="6.14063">
        <ele>1964</ele>
        <time>2022-09-03T11:44:25Z</time>
      </trkpt>
      <trkpt lat="45.0816" lon="6.14072">
        <ele>1965</ele>
        <time>2022-09-03T11:44:31Z</time>
      </trkpt>
      <trkpt lat="45.08165" lon="6.1408">
        <ele>1963.4</ele>
        <time>2022-09-03T11:44:38Z</time>
      </trkpt>
      <trkpt lat="45.08168" lon="6.14089">
        <ele>1963.3</ele>
        <time>2022-09-03T11:44:45Z</time>
      </trkpt>
      <trkpt lat="45.08167" lon="6.14099">
        <ele>1965.8</ele>
        <time>2022-09-03T11:44:51Z</time>
      </trkpt>
      <trkpt lat="45.0817" lon="6.14109">
        <ele>1966.1</ele>
        <time>2022-09-03T11:44:58Z</time>
      </trkpt>
      <trkpt lat="45.08175" lon="6.14117">
        <ele>1964.9</ele>
        <time>2022-09-03T11:45:06Z</time>
      </trkpt>
      <trkpt lat="45.08173" lon="6.14127">
        <ele>1967.9</ele>
        <time>2022-09-03T11:49:06Z</time>
      </trkpt>
      <trkpt lat="45.08177" lon="6.14135">
        <ele>1967.3</ele>
        <time>2022-09-03T11:49:13Z</time>
      </trkpt>
      <trkpt lat="45.08177" lon="6.14145">
        <ele>1969.3</ele>
        <time>2022-09-03T11:49:20Z</time>
      </trkpt>
      <trkpt lat="45.08179" lon="6.14154">
        <ele>1970</ele>
        <time>2022-09-03T11:49:27Z</time>
      </trkpt>
      <trkpt lat="45.08181" lon="6.14165">
        <ele>1971.1</ele>
        <time>2022-09-03T11:49:33Z</time>
      </trkpt>
      <trkpt lat="45.08183" lon="6.14174">
        <ele>1973.1</ele>
        <time>2022-09-03T11:49:41Z</time>
      </trkpt>
      <trkpt lat="45.08185" lon="6.14185">
        <ele>1976</ele>
        <time>2022-09-03T11:49:48Z</time>
      </trkpt>
      <trkpt lat="45.08187" lon="6.14195">
        <ele>1978.6</ele>
        <time>2022-09-03T11:49:55Z</time>
      </trkpt>
      <trkpt lat="45.08193" lon="6.14201">
        <ele>1977.4</ele>
        <time>2022-09-03T11:50:02Z</time>
      </trkpt>
      <trkpt lat="45.08194" lon="6.14211">
        <ele>1980.4</ele>
        <time>2022-09-03T11:50:08Z</time>
      </trkpt>
      <trkpt lat="45.08199" lon="6.14217">
        <ele>1979.6</ele>
        <time>2022-09-03T11:50:14Z</time>
      </trkpt>
      <trkpt lat="45.08202" lon="6.14225">
        <ele>1980.7</ele>
        <time>2022-09-03T11:50:22Z</time>
      </trkpt>
      <trkpt lat="45.08205" lon="6.14234">
        <ele>1982</ele>
        <time>2022-09-03T11:50:29Z</time>
      </trkpt>
      <trkpt lat="45.0821" lon="6.14241">
        <ele>1981.4</ele>
        <time>2022-09-03T11:50:36Z</time>
      </trkpt>
      <trkpt lat="45.08214" lon="6.14249">
        <ele>1981.7</ele>
        <time>2022-09-03T11:50:44Z</time>
      </trkpt>
      <trkpt lat="45.0822" lon="6.14253">
        <ele>1979.2</ele>
        <time>2022-09-03T11:50:50Z</time>
      </trkpt>
      <trkpt lat="45.08225" lon="6.1426">
        <ele>1978</ele>
        <time>2022-09-03T11:50:57Z</time>
      </trkpt>
      <trkpt lat="45.08227" lon="6.1427">
        <ele>1979.4</ele>
        <time>2022-09-03T11:51:05Z</time>
      </trkpt>
      <trkpt lat="45.08233" lon="6.14276">
        <ele>1977.2</ele>
        <time>2022-09-03T11:51:12Z</time>
      </trkpt>
      <trkpt lat="45.08238" lon="6.14283">
        <ele>1975.9</ele>
        <time>2022-09-03T11:51:19Z</time>
      </trkpt>
      <trkpt lat="45.08244" lon="6.14289">
        <ele>1973.6</ele>
        <time>2022-09-03T11:51:27Z</time>
      </trkpt>
      <trkpt lat="45.08249" lon="6.14296">
        <ele>1972.2</ele>
        <time>2022-09-03T11:51:35Z</time>
      </trkpt>
      <trkpt lat="45.08252" lon="6.14305">
        <ele>1973.1</ele>
        <time>2022-09-03T11:51:42Z</time>
      </trkpt>
      <trkpt lat="45.08257" lon="6.14312">
        <ele>1973</ele>
        <time>2022-09-03T11:52:17Z</time>
      </trkpt>
      <trkpt lat="45.0826" lon="6.14321">
        <ele>1974.1</ele>
        <time>2022-09-03T11:52:25Z</time>
      </trkpt>
      <trkpt lat="45.08264" lon="6.1433">
        <ele>1974.7</ele>
        <time>2022-09-03T11:52:33Z</time>
      </trkpt>
      <trkpt lat="45.08268" lon="6.14337">
        <ele>1975.3</ele>
        <time>2022-09-03T11:52:39Z</time>
      </trkpt>
      <trkpt lat="45.08272" lon="6.14344">
        <ele>1976.3</ele>
        <time>2022-09-03T11:52:46Z</time>
      </trkpt>
      <trkpt lat="45.08278" lon="6.14352">
        <ele>1976.7</ele>
        <time>2022-09-03T11:52:52Z</time>
      </trkpt>
      <trkpt lat="45.0828" lon="6.14361">
        <ele>1979.1</ele>
        <time>2022-09-03T11:52:59Z</time>
      </trkpt>
      <trkpt lat="45.08286" lon="6.14366">
        <ele>1978.2</ele>
        <time>2022-09-03T11:53:06Z</time>
      </trkpt>
      <trkpt lat="45.08291" lon="6.14374">
        <ele>1978.7</ele>
        <time>2022-09-03T11:53:13Z</time>
      </trkpt>
      <trkpt lat="45.08296" lon="6.1438">
        <ele>1978.4</ele>
        <time>2022-09-03T11:53:20Z</time>
      </trkpt>
      <trkpt lat="45.08301" lon="6.14387">
        <ele>1978.4</ele>
        <time>2022-09-03T11:53:28Z</time>
      </trkpt>
      <trkpt lat="45.08306" lon="6.14394">
        <ele>1978.2</ele>
        <time>2022-09-03T11:53:37Z</time>
      </trkpt>
      <trkpt lat="45.08311" lon="6.14401">
        <ele>1977.9</ele>
        <time>2022-09-03T11:53:43Z</time>
      </trkpt>
      <trkpt lat="45.08316" lon="6.14408">
        <ele>1977.5</ele>
        <time>2022-09-03T11:53:50Z</time>
      </trkpt>
      <trkpt lat="45.08322" lon="6.14415">
        <ele>1976.5</ele>
        <time>2022-09-03T11:53:57Z</time>
      </trkpt>
      <trkpt lat="45.08327" lon="6.1442">
        <ele>1975.2</ele>
        <time>2022-09-03T11:54:04Z</time>
      </trkpt>
      <trkpt lat="45.08332" lon="6.14427">
        <ele>1974.4</ele>
        <time>2022-09-03T11:54:11Z</time>
      </trkpt>
      <trkpt lat="45.08336" lon="6.14434">
        <ele>1974.9</ele>
        <time>2022-09-03T11:54:18Z</time>
      </trkpt>
      <trkpt lat="45.08342" lon="6.1444">
        <ele>1975.1</ele>
        <time>2022-09-03T11:54:24Z</time>
      </trkpt>
      <trkpt lat="45.08346" lon="6.14449">
        <ele>1976.3</ele>
        <time>2022-09-03T11:54:31Z</time>
      </trkpt>
      <trkpt lat="45.0835" lon="6.14457">
        <ele>1977.3</ele>
        <time>2022-09-03T11:54:37Z</time>
      </trkpt>
      <trkpt lat="45.08353" lon="6.14466">
        <ele>1978.7</ele>
        <time>2022-09-03T11:54:46Z</time>
      </trkpt>
      <trkpt lat="45.08357" lon="6.14473">
        <ele>1979.2</ele>
        <time>2022-09-03T11:54:53Z</time>
      </trkpt>
      <trkpt lat="45.0836" lon="6.14482">
        <ele>1980.5</ele>
        <time>2022-09-03T11:54:59Z</time>
      </trkpt>
      <trkpt lat="45.08365" lon="6.14486">
        <ele>1979.9</ele>
        <time>2022-09-03T11:55:04Z</time>
      </trkpt>
      <trkpt lat="45.08371" lon="6.14492">
        <ele>1979.5</ele>
        <time>2022-09-03T11:55:10Z</time>
      </trkpt>
      <trkpt lat="45.08375" lon="6.145">
        <ele>1980</ele>
        <time>2022-09-03T11:55:16Z</time>
      </trkpt>
      <trkpt lat="45.08378" lon="6.14509">
        <ele>1981.5</ele>
        <time>2022-09-03T11:55:23Z</time>
      </trkpt>
      <trkpt lat="45.08382" lon="6.14517">
        <ele>1982.3</ele>
        <time>2022-09-03T11:55:30Z</time>
      </trkpt>
      <trkpt lat="45.08387" lon="6.14525">
        <ele>1982.7</ele>
        <time>2022-09-03T11:55:37Z</time>
      </trkpt>
      <trkpt lat="45.08389" lon="6.14535">
        <ele>1984.6</ele>
        <time>2022-09-03T11:55:42Z</time>
      </trkpt>
      <trkpt lat="45.08396" lon="6.14537">
        <ele>1982.5</ele>
        <time>2022-09-03T11:55:47Z</time>
      </trkpt>
      <trkpt lat="45.08399" lon="6.14547">
        <ele>1983.9</ele>
        <time>2022-09-03T11:55:53Z</time>
      </trkpt>
      <trkpt lat="45.08402" lon="6.14556">
        <ele>1984.9</ele>
        <time>2022-09-03T11:55:58Z</time>
      </trkpt>
      <trkpt lat="45.08406" lon="6.14564">
        <ele>1985.1</ele>
        <time>2022-09-03T11:56:04Z</time>
      </trkpt>
      <trkpt lat="45.08408" lon="6.14575">
        <ele>1986.8</ele>
        <time>2022-09-03T11:56:10Z</time>
      </trkpt>
      <trkpt lat="45.08414" lon="6.1458">
        <ele>1985.4</ele>
        <time>2022-09-03T11:56:16Z</time>
      </trkpt>
      <trkpt lat="45.08417" lon="6.14591">
        <ele>1987.1</ele>
        <time>2022-09-03T11:56:21Z</time>
      </trkpt>
      <trkpt lat="45.08422" lon="6.14596">
        <ele>1987.5</ele>
        <time>2022-09-03T11:56:26Z</time>
      </trkpt>
      <trkpt lat="45.08428" lon="6.14601">
        <ele>1987.6</ele>
        <time>2022-09-03T11:56:31Z</time>
      </trkpt>
      <trkpt lat="45.08442" lon="6.14594">
        <ele>1983.1</ele>
        <time>2022-09-03T11:56:36Z</time>
      </trkpt>
      <trkpt lat="45.08437" lon="6.14613">
        <ele>1988.8</ele>
        <time>2022-09-03T11:56:41Z</time>
      </trkpt>
      <trkpt lat="45.08445" lon="6.14614">
        <ele>1987.4</ele>
        <time>2022-09-03T11:56:46Z</time>
      </trkpt>
      <trkpt lat="45.08446" lon="6.14626">
        <ele>1990.1</ele>
        <time>2022-09-03T11:56:51Z</time>
      </trkpt>
      <trkpt lat="45.0845" lon="6.14634">
        <ele>1991</ele>
        <time>2022-09-03T11:56:57Z</time>
      </trkpt>
      <trkpt lat="45.08457" lon="6.14632">
        <ele>1988.9</ele>
        <time>2022-09-03T11:57:07Z</time>
      </trkpt>
      <trkpt lat="45.08459" lon="6.14642">
        <ele>1990.7</ele>
        <time>2022-09-03T11:57:38Z</time>
      </trkpt>
      <trkpt lat="45.08465" lon="6.14648">
        <ele>1990.5</ele>
        <time>2022-09-03T11:57:45Z</time>
      </trkpt>
      <trkpt lat="45.0847" lon="6.14657">
        <ele>1991.2</ele>
        <time>2022-09-03T11:57:51Z</time>
      </trkpt>
      <trkpt lat="45.08474" lon="6.14665">
        <ele>1991.8</ele>
        <time>2022-09-03T11:57:57Z</time>
      </trkpt>
      <trkpt lat="45.08479" lon="6.14671">
        <ele>1991.5</ele>
        <time>2022-09-03T11:58:03Z</time>
      </trkpt>
      <trkpt lat="45.08489" lon="6.14663">
        <ele>1987.3</ele>
        <time>2022-09-03T11:58:08Z</time>
      </trkpt>
      <trkpt lat="45.08489" lon="6.14681">
        <ele>1990.5</ele>
        <time>2022-09-03T11:58:13Z</time>
      </trkpt>
      <trkpt lat="45.08495" lon="6.14685">
        <ele>1989.6</ele>
        <time>2022-09-03T11:58:18Z</time>
      </trkpt>
      <trkpt lat="45.08498" lon="6.14696">
        <ele>1990.8</ele>
        <time>2022-09-03T11:58:23Z</time>
      </trkpt>
      <trkpt lat="45.085" lon="6.14706">
        <ele>1992.1</ele>
        <time>2022-09-03T11:58:28Z</time>
      </trkpt>
      <trkpt lat="45.08507" lon="6.14711">
        <ele>1992.2</ele>
        <time>2022-09-03T11:58:34Z</time>
      </trkpt>
      <trkpt lat="45.08514" lon="6.14713">
        <ele>1991.7</ele>
        <time>2022-09-03T11:58:39Z</time>
      </trkpt>
      <trkpt lat="45.0852" lon="6.14721">
        <ele>1992.3</ele>
        <time>2022-09-03T11:58:46Z</time>
      </trkpt>
      <trkpt lat="45.08526" lon="6.14726">
        <ele>1992.4</ele>
        <time>2022-09-03T11:58:51Z</time>
      </trkpt>
      <trkpt lat="45.08532" lon="6.14733">
        <ele>1992.7</ele>
        <time>2022-09-03T11:58:58Z</time>
      </trkpt>
      <trkpt lat="45.08536" lon="6.14741">
        <ele>1993.4</ele>
        <time>2022-09-03T11:59:03Z</time>
      </trkpt>
      <trkpt lat="45.08542" lon="6.14747">
        <ele>1993.5</ele>
        <time>2022-09-03T11:59:11Z</time>
      </trkpt>
      <trkpt lat="45.08552" lon="6.14741">
        <ele>1991.2</ele>
        <time>2022-09-03T11:59:16Z</time>
      </trkpt>
      <trkpt lat="45.08554" lon="6.14752">
        <ele>1992.7</ele>
        <time>2022-09-03T11:59:21Z</time>
      </trkpt>
      <trkpt lat="45.08561" lon="6.14755">
        <ele>1992.3</ele>
        <time>2022-09-03T11:59:27Z</time>
      </trkpt>
      <trkpt lat="45.08565" lon="6.14764">
        <ele>1993.6</ele>
        <time>2022-09-03T11:59:33Z</time>
      </trkpt>
      <trkpt lat="45.08571" lon="6.14771">
        <ele>1994.2</ele>
        <time>2022-09-03T11:59:39Z</time>
      </trkpt>
      <trkpt lat="45.08576" lon="6.14777">
        <ele>1994.6</ele>
        <time>2022-09-03T11:59:45Z</time>
      </trkpt>
      <trkpt lat="45.08582" lon="6.14781">
        <ele>1994.5</ele>
        <time>2022-09-03T11:59:51Z</time>
      </trkpt>
      <trkpt lat="45.08587" lon="6.14789">
        <ele>1995.6</ele>
        <time>2022-09-03T11:59:56Z</time>
      </trkpt>
      <trkpt lat="45.08591" lon="6.14796">
        <ele>1996.5</ele>
        <time>2022-09-03T12:00:02Z</time>
      </trkpt>
      <trkpt lat="45.08598" lon="6.14801">
        <ele>1996.6</ele>
        <time>2022-09-03T12:00:07Z</time>
      </trkpt>
      <trkpt lat="45.08599" lon="6.1481">
        <ele>1998.1</ele>
        <time>2022-09-03T12:00:12Z</time>
      </trkpt>
      <trkpt lat="45.08601" lon="6.14819">
        <ele>1999.4</ele>
        <time>2022-09-03T12:00:17Z</time>
      </trkpt>
      <trkpt lat="45.08609" lon="6.14826">
        <ele>1999.4</ele>
        <time>2022-09-03T12:00:23Z</time>
      </trkpt>
      <trkpt lat="45.08617" lon="6.14829">
        <ele>1998.6</ele>
        <time>2022-09-03T12:00:28Z</time>
      </trkpt>
      <trkpt lat="45.08621" lon="6.14838">
        <ele>1999.4</ele>
        <time>2022-09-03T12:00:35Z</time>
      </trkpt>
      <trkpt lat="45.08626" lon="6.14846">
        <ele>1999.7</ele>
        <time>2022-09-03T12:00:40Z</time>
      </trkpt>
      <trkpt lat="45.08631" lon="6.14852">
        <ele>1999.7</ele>
        <time>2022-09-03T12:00:46Z</time>
      </trkpt>
      <trkpt lat="45.08633" lon="6.14862">
        <ele>2000.9</ele>
        <time>2022-09-03T12:00:52Z</time>
      </trkpt>
      <trkpt lat="45.08636" lon="6.14871">
        <ele>2001.6</ele>
        <time>2022-09-03T12:00:58Z</time>
      </trkpt>
      <trkpt lat="45.08648" lon="6.1487">
        <ele>1999.3</ele>
        <time>2022-09-03T12:01:03Z</time>
      </trkpt>
      <trkpt lat="45.08655" lon="6.14874">
        <ele>1998.5</ele>
        <time>2022-09-03T12:01:08Z</time>
      </trkpt>
      <trkpt lat="45.08661" lon="6.1488">
        <ele>1998.2</ele>
        <time>2022-09-03T12:01:15Z</time>
      </trkpt>
      <trkpt lat="45.08665" lon="6.14888">
        <ele>1998.5</ele>
        <time>2022-09-03T12:01:21Z</time>
      </trkpt>
      <trkpt lat="45.08677" lon="6.14886">
        <ele>1996.7</ele>
        <time>2022-09-03T12:01:26Z</time>
      </trkpt>
      <trkpt lat="45.08677" lon="6.14896">
        <ele>1997.8</ele>
        <time>2022-09-03T12:01:32Z</time>
      </trkpt>
      <trkpt lat="45.08683" lon="6.14902">
        <ele>1997.6</ele>
        <time>2022-09-03T12:01:38Z</time>
      </trkpt>
      <trkpt lat="45.08697" lon="6.14891">
        <ele>1994.7</ele>
        <time>2022-09-03T12:01:43Z</time>
      </trkpt>
      <trkpt lat="45.08699" lon="6.14901">
        <ele>1995.1</ele>
        <time>2022-09-03T12:01:48Z</time>
      </trkpt>
      <trkpt lat="45.08708" lon="6.14901">
        <ele>1993.8</ele>
        <time>2022-09-03T12:01:53Z</time>
      </trkpt>
      <trkpt lat="45.08718" lon="6.149">
        <ele>1992.3</ele>
        <time>2022-09-03T12:01:58Z</time>
      </trkpt>
      <trkpt lat="45.08724" lon="6.14901">
        <ele>1991.4</ele>
        <time>2022-09-03T12:02:06Z</time>
      </trkpt>
      <trkpt lat="45.08732" lon="6.14905">
        <ele>1990.2</ele>
        <time>2022-09-03T12:02:11Z</time>
      </trkpt>
      <trkpt lat="45.08739" lon="6.14903">
        <ele>1989.2</ele>
        <time>2022-09-03T12:02:18Z</time>
      </trkpt>
      <trkpt lat="45.08748" lon="6.14899">
        <ele>1987.9</ele>
        <time>2022-09-03T12:02:23Z</time>
      </trkpt>
      <trkpt lat="45.08758" lon="6.14889">
        <ele>1988.2</ele>
        <time>2022-09-03T12:02:28Z</time>
      </trkpt>
      <trkpt lat="45.08752" lon="6.14895">
        <ele>1987.8</ele>
        <time>2022-09-03T12:02:43Z</time>
      </trkpt>
      <trkpt lat="45.0876" lon="6.14887">
        <ele>1988.4</ele>
        <time>2022-09-03T12:02:57Z</time>
      </trkpt>
      <trkpt lat="45.08759" lon="6.14897">
        <ele>1987.9</ele>
        <time>2022-09-03T12:03:03Z</time>
      </trkpt>
      <trkpt lat="45.08756" lon="6.14904">
        <ele>1987.5</ele>
        <time>2022-09-03T12:13:22Z</time>
      </trkpt>
      <trkpt lat="45.08762" lon="6.1491">
        <ele>1987.2</ele>
        <time>2022-09-03T12:13:35Z</time>
      </trkpt>
      <trkpt lat="45.08769" lon="6.14909">
        <ele>1987.3</ele>
        <time>2022-09-03T12:13:40Z</time>
      </trkpt>
      <trkpt lat="45.08776" lon="6.14915">
        <ele>1986.8</ele>
        <time>2022-09-03T12:13:48Z</time>
      </trkpt>
      <trkpt lat="45.08784" lon="6.14915">
        <ele>1986.7</ele>
        <time>2022-09-03T12:13:54Z</time>
      </trkpt>
      <trkpt lat="45.08791" lon="6.14916">
        <ele>1986.6</ele>
        <time>2022-09-03T12:14:00Z</time>
      </trkpt>
      <trkpt lat="45.088" lon="6.14912">
        <ele>1986.9</ele>
        <time>2022-09-03T12:14:10Z</time>
      </trkpt>
      <trkpt lat="45.08804" lon="6.14921">
        <ele>1984.9</ele>
        <time>2022-09-03T12:14:19Z</time>
      </trkpt>
      <trkpt lat="45.08811" lon="6.14924">
        <ele>1983.7</ele>
        <time>2022-09-03T12:14:26Z</time>
      </trkpt>
      <trkpt lat="45.08816" lon="6.14933">
        <ele>1980.3</ele>
        <time>2022-09-03T12:14:31Z</time>
      </trkpt>
      <trkpt lat="45.08827" lon="6.14934">
        <ele>1979.6</ele>
        <time>2022-09-03T12:14:36Z</time>
      </trkpt>
      <trkpt lat="45.08832" lon="6.14942">
        <ele>1976.3</ele>
        <time>2022-09-03T12:14:41Z</time>
      </trkpt>
      <trkpt lat="45.08838" lon="6.14948">
        <ele>1974.5</ele>
        <time>2022-09-03T12:14:46Z</time>
      </trkpt>
      <trkpt lat="45.0885" lon="6.14951">
        <ele>1974.7</ele>
        <time>2022-09-03T12:14:51Z</time>
      </trkpt>
      <trkpt lat="45.08852" lon="6.14961">
        <ele>1971.2</ele>
        <time>2022-09-03T12:15:05Z</time>
      </trkpt>
      <trkpt lat="45.08853" lon="6.1497">
        <ele>1968</ele>
        <time>2022-09-03T12:15:11Z</time>
      </trkpt>
      <trkpt lat="45.0886" lon="6.14966">
        <ele>1970.4</ele>
        <time>2022-09-03T12:15:17Z</time>
      </trkpt>
      <trkpt lat="45.08854" lon="6.14974">
        <ele>1966.7</ele>
        <time>2022-09-03T12:15:22Z</time>
      </trkpt>
      <trkpt lat="45.08845" lon="6.14969">
        <ele>1967.4</ele>
        <time>2022-09-03T12:16:53Z</time>
      </trkpt>
      <trkpt lat="45.08854" lon="6.14968">
        <ele>1968.9</ele>
        <time>2022-09-03T12:17:42Z</time>
      </trkpt>
      <trkpt lat="45.08861" lon="6.14965">
        <ele>1970.9</ele>
        <time>2022-09-03T12:17:57Z</time>
      </trkpt>
      <trkpt lat="45.08868" lon="6.14967">
        <ele>1971</ele>
        <time>2022-09-03T12:18:02Z</time>
      </trkpt>
      <trkpt lat="45.08877" lon="6.1497">
        <ele>1971.1</ele>
        <time>2022-09-03T12:18:09Z</time>
      </trkpt>
      <trkpt lat="45.08879" lon="6.1496">
        <ele>1974.9</ele>
        <time>2022-09-03T12:18:19Z</time>
      </trkpt>
      <trkpt lat="45.08884" lon="6.14954">
        <ele>1977.6</ele>
        <time>2022-09-03T12:18:24Z</time>
      </trkpt>
      <trkpt lat="45.08894" lon="6.14945">
        <ele>1981.9</ele>
        <time>2022-09-03T12:18:29Z</time>
      </trkpt>
      <trkpt lat="45.08899" lon="6.14937">
        <ele>1985.3</ele>
        <time>2022-09-03T12:18:34Z</time>
      </trkpt>
      <trkpt lat="45.08898" lon="6.14926">
        <ele>1989</ele>
        <time>2022-09-03T12:18:39Z</time>
      </trkpt>
      <trkpt lat="45.08905" lon="6.14917">
        <ele>1992.8</ele>
        <time>2022-09-03T12:18:48Z</time>
      </trkpt>
      <trkpt lat="45.08912" lon="6.14915">
        <ele>1993.6</ele>
        <time>2022-09-03T12:18:59Z</time>
      </trkpt>
      <trkpt lat="45.0892" lon="6.14915">
        <ele>1993.6</ele>
        <time>2022-09-03T12:19:04Z</time>
      </trkpt>
      <trkpt lat="45.08928" lon="6.14918">
        <ele>1992.1</ele>
        <time>2022-09-03T12:19:10Z</time>
      </trkpt>
      <trkpt lat="45.08935" lon="6.1492">
        <ele>1990.6</ele>
        <time>2022-09-03T12:19:15Z</time>
      </trkpt>
      <trkpt lat="45.0894" lon="6.14927">
        <ele>1988</ele>
        <time>2022-09-03T12:19:20Z</time>
      </trkpt>
      <trkpt lat="45.08947" lon="6.14927">
        <ele>1987.2</ele>
        <time>2022-09-03T12:19:47Z</time>
      </trkpt>
      <trkpt lat="45.08955" lon="6.14928">
        <ele>1986.1</ele>
        <time>2022-09-03T12:19:52Z</time>
      </trkpt>
      <trkpt lat="45.08964" lon="6.14926">
        <ele>1985.6</ele>
        <time>2022-09-03T12:19:57Z</time>
      </trkpt>
      <trkpt lat="45.08969" lon="6.14917">
        <ele>1987</ele>
        <time>2022-09-03T12:20:07Z</time>
      </trkpt>
      <trkpt lat="45.08974" lon="6.14911">
        <ele>1987</ele>
        <time>2022-09-03T12:20:12Z</time>
      </trkpt>
      <trkpt lat="45.08981" lon="6.14905">
        <ele>1986.8</ele>
        <time>2022-09-03T12:20:17Z</time>
      </trkpt>
      <trkpt lat="45.08987" lon="6.14898">
        <ele>1986.9</ele>
        <time>2022-09-03T12:20:22Z</time>
      </trkpt>
      <trkpt lat="45.08994" lon="6.14894">
        <ele>1986.6</ele>
        <time>2022-09-03T12:20:27Z</time>
      </trkpt>
      <trkpt lat="45.09" lon="6.14889">
        <ele>1986.7</ele>
        <time>2022-09-03T12:20:32Z</time>
      </trkpt>
      <trkpt lat="45.09006" lon="6.14884">
        <ele>1986.8</ele>
        <time>2022-09-03T12:20:37Z</time>
      </trkpt>
      <trkpt lat="45.09013" lon="6.1488">
        <ele>1986.8</ele>
        <time>2022-09-03T12:20:46Z</time>
      </trkpt>
      <trkpt lat="45.09018" lon="6.14875">
        <ele>1987.3</ele>
        <time>2022-09-03T12:21:05Z</time>
      </trkpt>
      <trkpt lat="45.09025" lon="6.14871">
        <ele>1987.7</ele>
        <time>2022-09-03T12:21:11Z</time>
      </trkpt>
      <trkpt lat="45.09032" lon="6.14866">
        <ele>1988.4</ele>
        <time>2022-09-03T12:21:16Z</time>
      </trkpt>
      <trkpt lat="45.09038" lon="6.14864">
        <ele>1988.7</ele>
        <time>2022-09-03T12:21:21Z</time>
      </trkpt>
      <trkpt lat="45.0904" lon="6.14874">
        <ele>1986.1</ele>
        <time>2022-09-03T12:21:26Z</time>
      </trkpt>
      <trkpt lat="45.09034" lon="6.14882">
        <ele>1984.6</ele>
        <time>2022-09-03T12:21:59Z</time>
      </trkpt>
      <trkpt lat="45.09028" lon="6.14887">
        <ele>1984.1</ele>
        <time>2022-09-03T12:22:05Z</time>
      </trkpt>
      <trkpt lat="45.09022" lon="6.14894">
        <ele>1983.3</ele>
        <time>2022-09-03T12:22:10Z</time>
      </trkpt>
      <trkpt lat="45.09017" lon="6.14905">
        <ele>1981.9</ele>
        <time>2022-09-03T12:22:15Z</time>
      </trkpt>
      <trkpt lat="45.09012" lon="6.14912">
        <ele>1981.5</ele>
        <time>2022-09-03T12:22:20Z</time>
      </trkpt>
      <trkpt lat="45.09007" lon="6.1492">
        <ele>1981.1</ele>
        <time>2022-09-03T12:22:25Z</time>
      </trkpt>
      <trkpt lat="45.09004" lon="6.1493">
        <ele>1980.2</ele>
        <time>2022-09-03T12:22:30Z</time>
      </trkpt>
      <trkpt lat="45.09002" lon="6.1494">
        <ele>1979</ele>
        <time>2022-09-03T12:22:37Z</time>
      </trkpt>
      <trkpt lat="45.09009" lon="6.14939">
        <ele>1977.8</ele>
        <time>2022-09-03T12:22:51Z</time>
      </trkpt>
      <trkpt lat="45.09015" lon="6.14928">
        <ele>1978.4</ele>
        <time>2022-09-03T12:22:56Z</time>
      </trkpt>
      <trkpt lat="45.09021" lon="6.14921">
        <ele>1978.3</ele>
        <time>2022-09-03T12:23:02Z</time>
      </trkpt>
      <trkpt lat="45.09026" lon="6.14914">
        <ele>1978.6</ele>
        <time>2022-09-03T12:23:08Z</time>
      </trkpt>
      <trkpt lat="45.09034" lon="6.14911">
        <ele>1977.8</ele>
        <time>2022-09-03T12:23:13Z</time>
      </trkpt>
      <trkpt lat="45.09042" lon="6.14908">
        <ele>1977.2</ele>
        <time>2022-09-03T12:23:18Z</time>
      </trkpt>
      <trkpt lat="45.09049" lon="6.14903">
        <ele>1977.4</ele>
        <time>2022-09-03T12:23:24Z</time>
      </trkpt>
      <trkpt lat="45.09056" lon="6.14905">
        <ele>1975.8</ele>
        <time>2022-09-03T12:23:29Z</time>
      </trkpt>
      <trkpt lat="45.09064" lon="6.14904">
        <ele>1974.8</ele>
        <time>2022-09-03T12:23:35Z</time>
      </trkpt>
      <trkpt lat="45.09072" lon="6.14899">
        <ele>1975.4</ele>
        <time>2022-09-03T12:23:41Z</time>
      </trkpt>
      <trkpt lat="45.09074" lon="6.14908">
        <ele>1971.9</ele>
        <time>2022-09-03T12:23:49Z</time>
      </trkpt>
      <trkpt lat="45.09076" lon="6.14898">
        <ele>1975.2</ele>
        <time>2022-09-03T12:24:31Z</time>
      </trkpt>
      <trkpt lat="45.09083" lon="6.14893">
        <ele>1976.1</ele>
        <time>2022-09-03T12:24:37Z</time>
      </trkpt>
      <trkpt lat="45.09089" lon="6.14893">
        <ele>1975.3</ele>
        <time>2022-09-03T12:24:42Z</time>
      </trkpt>
      <trkpt lat="45.09097" lon="6.14893">
        <ele>1974.2</ele>
        <time>2022-09-03T12:24:47Z</time>
      </trkpt>
      <trkpt lat="45.09104" lon="6.14894">
        <ele>1972.9</ele>
        <time>2022-09-03T12:24:52Z</time>
      </trkpt>
      <trkpt lat="45.09111" lon="6.14896">
        <ele>1971.2</ele>
        <time>2022-09-03T12:24:57Z</time>
      </trkpt>
      <trkpt lat="45.09116" lon="6.14903">
        <ele>1967.9</ele>
        <time>2022-09-03T12:25:02Z</time>
      </trkpt>
      <trkpt lat="45.09122" lon="6.14906">
        <ele>1965.9</ele>
        <time>2022-09-03T12:25:07Z</time>
      </trkpt>
      <trkpt lat="45.09128" lon="6.14912">
        <ele>1962.9</ele>
        <time>2022-09-03T12:25:13Z</time>
      </trkpt>
      <trkpt lat="45.09133" lon="6.1492">
        <ele>1959.1</ele>
        <time>2022-09-03T12:25:20Z</time>
      </trkpt>
      <trkpt lat="45.09137" lon="6.14928">
        <ele>1955.2</ele>
        <time>2022-09-03T12:26:49Z</time>
      </trkpt>
      <trkpt lat="45.09142" lon="6.14935">
        <ele>1951.2</ele>
        <time>2022-09-03T12:26:55Z</time>
      </trkpt>
      <trkpt lat="45.09149" lon="6.14941">
        <ele>1946.8</ele>
        <time>2022-09-03T12:27:00Z</time>
      </trkpt>
      <trkpt lat="45.09154" lon="6.14948">
        <ele>1942</ele>
        <time>2022-09-03T12:27:05Z</time>
      </trkpt>
      <trkpt lat="45.09161" lon="6.14954">
        <ele>1936.8</ele>
        <time>2022-09-03T12:27:11Z</time>
      </trkpt>
      <trkpt lat="45.09165" lon="6.14961">
        <ele>1931.6</ele>
        <time>2022-09-03T12:27:34Z</time>
      </trkpt>
      <trkpt lat="45.09171" lon="6.14966">
        <ele>1929.1</ele>
        <time>2022-09-03T12:27:41Z</time>
      </trkpt>
      <trkpt lat="45.09178" lon="6.14973">
        <ele>1926.8</ele>
        <time>2022-09-03T12:27:47Z</time>
      </trkpt>
      <trkpt lat="45.0918" lon="6.14985">
        <ele>1920.6</ele>
        <time>2022-09-03T12:27:53Z</time>
      </trkpt>
      <trkpt lat="45.09174" lon="6.14987">
        <ele>1918.1</ele>
        <time>2022-09-03T12:28:14Z</time>
      </trkpt>
      <trkpt lat="45.09166" lon="6.14982">
        <ele>1919.5</ele>
        <time>2022-09-03T12:28:29Z</time>
      </trkpt>
      <trkpt lat="45.09161" lon="6.1499">
        <ele>1917.5</ele>
        <time>2022-09-03T12:28:48Z</time>
      </trkpt>
      <trkpt lat="45.09155" lon="6.14988">
        <ele>1921.5</ele>
        <time>2022-09-03T12:28:56Z</time>
      </trkpt>
      <trkpt lat="45.09149" lon="6.14983">
        <ele>1926.8</ele>
        <time>2022-09-03T12:29:03Z</time>
      </trkpt>
      <trkpt lat="45.09143" lon="6.14987">
        <ele>1927.8</ele>
        <time>2022-09-03T12:29:14Z</time>
      </trkpt>
      <trkpt lat="45.09137" lon="6.14983">
        <ele>1932.4</ele>
        <time>2022-09-03T12:29:28Z</time>
      </trkpt>
      <trkpt lat="45.09128" lon="6.14989">
        <ele>1934.4</ele>
        <time>2022-09-03T12:29:49Z</time>
      </trkpt>
      <trkpt lat="45.09129" lon="6.14998">
        <ele>1930.5</ele>
        <time>2022-09-03T12:30:01Z</time>
      </trkpt>
      <trkpt lat="45.09133" lon="6.15005">
        <ele>1924.2</ele>
        <time>2022-09-03T12:30:07Z</time>
      </trkpt>
      <trkpt lat="45.09139" lon="6.1501">
        <ele>1917.8</ele>
        <time>2022-09-03T12:30:18Z</time>
      </trkpt>
      <trkpt lat="45.09143" lon="6.15019">
        <ele>1910.2</ele>
        <time>2022-09-03T12:30:27Z</time>
      </trkpt>
      <trkpt lat="45.09145" lon="6.15027">
        <ele>1904.4</ele>
        <time>2022-09-03T12:30:38Z</time>
      </trkpt>
      <trkpt lat="45.09149" lon="6.15035">
        <ele>1898</ele>
        <time>2022-09-03T12:30:51Z</time>
      </trkpt>
      <trkpt lat="45.0915" lon="6.15045">
        <ele>1891.7</ele>
        <time>2022-09-03T12:31:03Z</time>
      </trkpt>
      <trkpt lat="45.09154" lon="6.15052">
        <ele>1886.5</ele>
        <time>2022-09-03T12:31:12Z</time>
      </trkpt>
      <trkpt lat="45.09155" lon="6.15064">
        <ele>1879.4</ele>
        <time>2022-09-03T12:31:22Z</time>
      </trkpt>
      <trkpt lat="45.09157" lon="6.15076">
        <ele>1872.3</ele>
        <time>2022-09-03T12:31:31Z</time>
      </trkpt>
      <trkpt lat="45.09157" lon="6.15085">
        <ele>1867.5</ele>
        <time>2022-09-03T12:31:37Z</time>
      </trkpt>
      <trkpt lat="45.09158" lon="6.15095">
        <ele>1862.7</ele>
        <time>2022-09-03T12:31:43Z</time>
      </trkpt>
      <trkpt lat="45.09163" lon="6.15101">
        <ele>1859.5</ele>
        <time>2022-09-03T12:31:53Z</time>
      </trkpt>
      <trkpt lat="45.09167" lon="6.15109">
        <ele>1855.7</ele>
        <time>2022-09-03T12:32:07Z</time>
      </trkpt>
      <trkpt lat="45.09173" lon="6.15108">
        <ele>1858.1</ele>
        <time>2022-09-03T12:32:25Z</time>
      </trkpt>
      <trkpt lat="45.0918" lon="6.1511">
        <ele>1859.5</ele>
        <time>2022-09-03T12:32:34Z</time>
      </trkpt>
      <trkpt lat="45.09185" lon="6.15123">
        <ele>1855.2</ele>
        <time>2022-09-03T12:33:13Z</time>
      </trkpt>
      <trkpt lat="45.0919" lon="6.15117">
        <ele>1859.6</ele>
        <time>2022-09-03T12:33:21Z</time>
      </trkpt>
      <trkpt lat="45.09197" lon="6.15114">
        <ele>1863.2</ele>
        <time>2022-09-03T12:33:28Z</time>
      </trkpt>
      <trkpt lat="45.09205" lon="6.15112">
        <ele>1866.7</ele>
        <time>2022-09-03T12:33:36Z</time>
      </trkpt>
      <trkpt lat="45.09209" lon="6.1512">
        <ele>1864.3</ele>
        <time>2022-09-03T12:33:50Z</time>
      </trkpt>
      <trkpt lat="45.09203" lon="6.15126">
        <ele>1859.6</ele>
        <time>2022-09-03T12:34:05Z</time>
      </trkpt>
      <trkpt lat="45.09199" lon="6.15134">
        <ele>1854.7</ele>
        <time>2022-09-03T12:34:12Z</time>
      </trkpt>
      <trkpt lat="45.09194" lon="6.15141">
        <ele>1849.9</ele>
        <time>2022-09-03T12:34:26Z</time>
      </trkpt>
      <trkpt lat="45.0919" lon="6.15149">
        <ele>1845</ele>
        <time>2022-09-03T12:34:34Z</time>
      </trkpt>
      <trkpt lat="45.09194" lon="6.15138">
        <ele>1851.3</ele>
        <time>2022-09-03T12:35:00Z</time>
      </trkpt>
      <trkpt lat="45.09189" lon="6.15146">
        <ele>1846.1</ele>
        <time>2022-09-03T12:35:05Z</time>
      </trkpt>
      <trkpt lat="45.09196" lon="6.1515">
        <ele>1846.4</ele>
        <time>2022-09-03T12:36:10Z</time>
      </trkpt>
      <trkpt lat="45.09192" lon="6.15157">
        <ele>1842</ele>
        <time>2022-09-03T12:36:19Z</time>
      </trkpt>
      <trkpt lat="45.09198" lon="6.15162">
        <ele>1841.5</ele>
        <time>2022-09-03T12:36:42Z</time>
      </trkpt>
      <trkpt lat="45.09199" lon="6.15172">
        <ele>1837.2</ele>
        <time>2022-09-03T12:36:48Z</time>
      </trkpt>
      <trkpt lat="45.09193" lon="6.15175">
        <ele>1834</ele>
        <time>2022-09-03T12:37:02Z</time>
      </trkpt>
      <trkpt lat="45.09187" lon="6.15183">
        <ele>1828.6</ele>
        <time>2022-09-03T12:37:08Z</time>
      </trkpt>
      <trkpt lat="45.09194" lon="6.15181">
        <ele>1831.6</ele>
        <time>2022-09-03T12:37:25Z</time>
      </trkpt>
      <trkpt lat="45.09202" lon="6.1518">
        <ele>1834.4</ele>
        <time>2022-09-03T12:39:48Z</time>
      </trkpt>
      <trkpt lat="45.09208" lon="6.15187">
        <ele>1832.9</ele>
        <time>2022-09-03T12:40:45Z</time>
      </trkpt>
      <trkpt lat="45.09215" lon="6.15185">
        <ele>1835.9</ele>
        <time>2022-09-03T12:40:53Z</time>
      </trkpt>
      <trkpt lat="45.09221" lon="6.1519">
        <ele>1835.3</ele>
        <time>2022-09-03T12:41:07Z</time>
      </trkpt>
      <trkpt lat="45.09217" lon="6.152">
        <ele>1829.4</ele>
        <time>2022-09-03T12:41:33Z</time>
      </trkpt>
      <trkpt lat="45.09223" lon="6.15207">
        <ele>1827.9</ele>
        <time>2022-09-03T12:41:58Z</time>
      </trkpt>
      <trkpt lat="45.09227" lon="6.15214">
        <ele>1825.7</ele>
        <time>2022-09-03T12:42:10Z</time>
      </trkpt>
      <trkpt lat="45.09235" lon="6.15218">
        <ele>1826.1</ele>
        <time>2022-09-03T12:42:53Z</time>
      </trkpt>
      <trkpt lat="45.09242" lon="6.15218">
        <ele>1828.1</ele>
        <time>2022-09-03T12:43:00Z</time>
      </trkpt>
      <trkpt lat="45.09249" lon="6.15219">
        <ele>1829.6</ele>
        <time>2022-09-03T12:43:09Z</time>
      </trkpt>
      <trkpt lat="45.09254" lon="6.15227">
        <ele>1826.4</ele>
        <time>2022-09-03T12:43:19Z</time>
      </trkpt>
      <trkpt lat="45.0926" lon="6.15231">
        <ele>1825</ele>
        <time>2022-09-03T12:43:32Z</time>
      </trkpt>
      <trkpt lat="45.09265" lon="6.15236">
        <ele>1823</ele>
        <time>2022-09-03T12:43:56Z</time>
      </trkpt>
      <trkpt lat="45.09272" lon="6.15241">
        <ele>1821</ele>
        <time>2022-09-03T12:44:03Z</time>
      </trkpt>
      <trkpt lat="45.09278" lon="6.15245">
        <ele>1819.5</ele>
        <time>2022-09-03T12:44:11Z</time>
      </trkpt>
      <trkpt lat="45.09282" lon="6.15252">
        <ele>1816.2</ele>
        <time>2022-09-03T12:44:22Z</time>
      </trkpt>
      <trkpt lat="45.09287" lon="6.15258">
        <ele>1813.5</ele>
        <time>2022-09-03T12:44:33Z</time>
      </trkpt>
      <trkpt lat="45.09288" lon="6.15268">
        <ele>1808.4</ele>
        <time>2022-09-03T12:44:47Z</time>
      </trkpt>
      <trkpt lat="45.0928" lon="6.15271">
        <ele>1806</ele>
        <time>2022-09-03T12:44:58Z</time>
      </trkpt>
      <trkpt lat="45.09275" lon="6.15277">
        <ele>1802.2</ele>
        <time>2022-09-03T12:45:14Z</time>
      </trkpt>
      <trkpt lat="45.09269" lon="6.15281">
        <ele>1799.4</ele>
        <time>2022-09-03T12:45:21Z</time>
      </trkpt>
      <trkpt lat="45.09261" lon="6.15283">
        <ele>1797.3</ele>
        <time>2022-09-03T12:45:32Z</time>
      </trkpt>
      <trkpt lat="45.09256" lon="6.15289">
        <ele>1793.3</ele>
        <time>2022-09-03T12:45:40Z</time>
      </trkpt>
      <trkpt lat="45.09249" lon="6.15292">
        <ele>1790.6</ele>
        <time>2022-09-03T12:45:52Z</time>
      </trkpt>
      <trkpt lat="45.09243" lon="6.15296">
        <ele>1786.8</ele>
        <time>2022-09-03T12:46:03Z</time>
      </trkpt>
      <trkpt lat="45.09236" lon="6.15295">
        <ele>1785.6</ele>
        <time>2022-09-03T12:46:10Z</time>
      </trkpt>
      <trkpt lat="45.09229" lon="6.15298">
        <ele>1782.1</ele>
        <time>2022-09-03T12:46:15Z</time>
      </trkpt>
      <trkpt lat="45.09221" lon="6.15294">
        <ele>1782.4</ele>
        <time>2022-09-03T12:46:23Z</time>
      </trkpt>
      <trkpt lat="45.09215" lon="6.15297">
        <ele>1779.2</ele>
        <time>2022-09-03T12:46:31Z</time>
      </trkpt>
      <trkpt lat="45.09209" lon="6.15295">
        <ele>1778.8</ele>
        <time>2022-09-03T12:46:38Z</time>
      </trkpt>
      <trkpt lat="45.09203" lon="6.153">
        <ele>1774.6</ele>
        <time>2022-09-03T12:46:47Z</time>
      </trkpt>
      <trkpt lat="45.0921" lon="6.15302">
        <ele>1775.2</ele>
        <time>2022-09-03T12:47:35Z</time>
      </trkpt>
      <trkpt lat="45.09216" lon="6.15309">
        <ele>1772.8</ele>
        <time>2022-09-03T12:47:43Z</time>
      </trkpt>
      <trkpt lat="45.09224" lon="6.15313">
        <ele>1772.5</ele>
        <time>2022-09-03T12:47:50Z</time>
      </trkpt>
      <trkpt lat="45.09227" lon="6.15321">
        <ele>1768.7</ele>
        <time>2022-09-03T12:47:57Z</time>
      </trkpt>
      <trkpt lat="45.09233" lon="6.15326">
        <ele>1767.3</ele>
        <time>2022-09-03T12:48:04Z</time>
      </trkpt>
      <trkpt lat="45.09226" lon="6.1533">
        <ele>1763.4</ele>
        <time>2022-09-03T12:48:19Z</time>
      </trkpt>
      <trkpt lat="45.09228" lon="6.15339">
        <ele>1759.5</ele>
        <time>2022-09-03T12:48:40Z</time>
      </trkpt>
      <trkpt lat="45.09234" lon="6.15345">
        <ele>1758.3</ele>
        <time>2022-09-03T12:48:47Z</time>
      </trkpt>
      <trkpt lat="45.0923" lon="6.15353">
        <ele>1753.8</ele>
        <time>2022-09-03T12:49:02Z</time>
      </trkpt>
      <trkpt lat="45.09224" lon="6.15357">
        <ele>1750.7</ele>
        <time>2022-09-03T12:49:17Z</time>
      </trkpt>
      <trkpt lat="45.09217" lon="6.15354">
        <ele>1750.4</ele>
        <time>2022-09-03T12:49:30Z</time>
      </trkpt>
      <trkpt lat="45.09212" lon="6.1536">
        <ele>1746.5</ele>
        <time>2022-09-03T12:49:36Z</time>
      </trkpt>
      <trkpt lat="45.09205" lon="6.15361">
        <ele>1744.4</ele>
        <time>2022-09-03T12:49:43Z</time>
      </trkpt>
      <trkpt lat="45.09198" lon="6.15363">
        <ele>1741.9</ele>
        <time>2022-09-03T12:49:59Z</time>
      </trkpt>
      <trkpt lat="45.09193" lon="6.15367">
        <ele>1738.9</ele>
        <time>2022-09-03T12:50:06Z</time>
      </trkpt>
      <trkpt lat="45.09187" lon="6.15373">
        <ele>1734.8</ele>
        <time>2022-09-03T12:50:15Z</time>
      </trkpt>
      <trkpt lat="45.0918" lon="6.15371">
        <ele>1734</ele>
        <time>2022-09-03T12:50:22Z</time>
      </trkpt>
      <trkpt lat="45.09173" lon="6.15369">
        <ele>1733.2</ele>
        <time>2022-09-03T12:50:28Z</time>
      </trkpt>
      <trkpt lat="45.09166" lon="6.15371">
        <ele>1730.7</ele>
        <time>2022-09-03T12:50:35Z</time>
      </trkpt>
      <trkpt lat="45.09159" lon="6.15372">
        <ele>1729.4</ele>
        <time>2022-09-03T12:50:41Z</time>
      </trkpt>
      <trkpt lat="45.09153" lon="6.15372">
        <ele>1728.6</ele>
        <time>2022-09-03T12:50:49Z</time>
      </trkpt>
      <trkpt lat="45.09146" lon="6.15369">
        <ele>1729.1</ele>
        <time>2022-09-03T12:50:57Z</time>
      </trkpt>
      <trkpt lat="45.0915" lon="6.15377">
        <ele>1726</ele>
        <time>2022-09-03T12:51:07Z</time>
      </trkpt>
      <trkpt lat="45.0915" lon="6.15387">
        <ele>1721.5</ele>
        <time>2022-09-03T12:51:13Z</time>
      </trkpt>
      <trkpt lat="45.09156" lon="6.15391">
        <ele>1720.4</ele>
        <time>2022-09-03T12:51:22Z</time>
      </trkpt>
      <trkpt lat="45.09159" lon="6.154">
        <ele>1716.7</ele>
        <time>2022-09-03T12:51:31Z</time>
      </trkpt>
      <trkpt lat="45.09165" lon="6.15404">
        <ele>1715.6</ele>
        <time>2022-09-03T12:51:37Z</time>
      </trkpt>
      <trkpt lat="45.09171" lon="6.1541">
        <ele>1714.1</ele>
        <time>2022-09-03T12:51:47Z</time>
      </trkpt>
      <trkpt lat="45.09175" lon="6.15417">
        <ele>1712</ele>
        <time>2022-09-03T12:51:57Z</time>
      </trkpt>
      <trkpt lat="45.0918" lon="6.15424">
        <ele>1710.2</ele>
        <time>2022-09-03T12:52:05Z</time>
      </trkpt>
      <trkpt lat="45.09185" lon="6.15433">
        <ele>1707.7</ele>
        <time>2022-09-03T12:52:16Z</time>
      </trkpt>
      <trkpt lat="45.0919" lon="6.1544">
        <ele>1706</ele>
        <time>2022-09-03T12:52:22Z</time>
      </trkpt>
      <trkpt lat="45.09196" lon="6.15446">
        <ele>1705</ele>
        <time>2022-09-03T12:52:31Z</time>
      </trkpt>
      <trkpt lat="45.09201" lon="6.15452">
        <ele>1703.7</ele>
        <time>2022-09-03T12:52:38Z</time>
      </trkpt>
      <trkpt lat="45.09207" lon="6.15458">
        <ele>1702.8</ele>
        <time>2022-09-03T12:52:46Z</time>
      </trkpt>
      <trkpt lat="45.09214" lon="6.15463">
        <ele>1702.5</ele>
        <time>2022-09-03T12:52:51Z</time>
      </trkpt>
      <trkpt lat="45.09221" lon="6.15469">
        <ele>1701.9</ele>
        <time>2022-09-03T12:52:58Z</time>
      </trkpt>
      <trkpt lat="45.09227" lon="6.15473">
        <ele>1701.8</ele>
        <time>2022-09-03T12:53:05Z</time>
      </trkpt>
      <trkpt lat="45.09234" lon="6.15475">
        <ele>1702.9</ele>
        <time>2022-09-03T12:53:10Z</time>
      </trkpt>
      <trkpt lat="45.0924" lon="6.15482">
        <ele>1701.6</ele>
        <time>2022-09-03T12:53:18Z</time>
      </trkpt>
      <trkpt lat="45.09234" lon="6.15487">
        <ele>1697.9</ele>
        <time>2022-09-03T12:54:02Z</time>
      </trkpt>
      <trkpt lat="45.09227" lon="6.15485">
        <ele>1696.9</ele>
        <time>2022-09-03T12:54:08Z</time>
      </trkpt>
      <trkpt lat="45.0922" lon="6.15491">
        <ele>1692.5</ele>
        <time>2022-09-03T12:54:16Z</time>
      </trkpt>
      <trkpt lat="45.09213" lon="6.15485">
        <ele>1693.1</ele>
        <time>2022-09-03T12:54:24Z</time>
      </trkpt>
      <trkpt lat="45.09204" lon="6.15485">
        <ele>1690.6</ele>
        <time>2022-09-03T12:54:31Z</time>
      </trkpt>
      <trkpt lat="45.09197" lon="6.15482">
        <ele>1690</ele>
        <time>2022-09-03T12:54:37Z</time>
      </trkpt>
      <trkpt lat="45.09194" lon="6.15491">
        <ele>1685.4</ele>
        <time>2022-09-03T12:54:46Z</time>
      </trkpt>
      <trkpt lat="45.09189" lon="6.15483">
        <ele>1687.4</ele>
        <time>2022-09-03T12:55:41Z</time>
      </trkpt>
      <trkpt lat="45.09192" lon="6.15492">
        <ele>1684.4</ele>
        <time>2022-09-03T12:55:55Z</time>
      </trkpt>
      <trkpt lat="45.09196" lon="6.155">
        <ele>1682.1</ele>
        <time>2022-09-03T12:56:03Z</time>
      </trkpt>
      <trkpt lat="45.092" lon="6.15506">
        <ele>1681.3</ele>
        <time>2022-09-03T12:56:11Z</time>
      </trkpt>
      <trkpt lat="45.09205" lon="6.15516">
        <ele>1679.5</ele>
        <time>2022-09-03T12:56:17Z</time>
      </trkpt>
      <trkpt lat="45.09211" lon="6.15521">
        <ele>1679.4</ele>
        <time>2022-09-03T12:56:24Z</time>
      </trkpt>
      <trkpt lat="45.09217" lon="6.15526">
        <ele>1679.1</ele>
        <time>2022-09-03T12:56:50Z</time>
      </trkpt>
      <trkpt lat="45.09224" lon="6.1553">
        <ele>1679.4</ele>
        <time>2022-09-03T12:56:57Z</time>
      </trkpt>
      <trkpt lat="45.09228" lon="6.15538">
        <ele>1677.5</ele>
        <time>2022-09-03T12:57:04Z</time>
      </trkpt>
      <trkpt lat="45.09234" lon="6.15544">
        <ele>1676.7</ele>
        <time>2022-09-03T12:57:13Z</time>
      </trkpt>
      <trkpt lat="45.09238" lon="6.15551">
        <ele>1675</ele>
        <time>2022-09-03T12:57:21Z</time>
      </trkpt>
      <trkpt lat="45.09241" lon="6.1556">
        <ele>1672.3</ele>
        <time>2022-09-03T12:57:30Z</time>
      </trkpt>
      <trkpt lat="45.09243" lon="6.15569">
        <ele>1669.3</ele>
        <time>2022-09-03T12:57:42Z</time>
      </trkpt>
      <trkpt lat="45.09239" lon="6.15577">
        <ele>1665.6</ele>
        <time>2022-09-03T12:57:57Z</time>
      </trkpt>
      <trkpt lat="45.0924" lon="6.15587">
        <ele>1662.5</ele>
        <time>2022-09-03T12:58:08Z</time>
      </trkpt>
      <trkpt lat="45.09238" lon="6.15596">
        <ele>1659.9</ele>
        <time>2022-09-03T12:58:24Z</time>
      </trkpt>
      <trkpt lat="45.09235" lon="6.15605">
        <ele>1657.1</ele>
        <time>2022-09-03T12:58:38Z</time>
      </trkpt>
      <trkpt lat="45.09231" lon="6.15612">
        <ele>1654.7</ele>
        <time>2022-09-03T12:58:53Z</time>
      </trkpt>
      <trkpt lat="45.09227" lon="6.1562">
        <ele>1651.9</ele>
        <time>2022-09-03T12:59:07Z</time>
      </trkpt>
      <trkpt lat="45.09223" lon="6.15627">
        <ele>1649.4</ele>
        <time>2022-09-03T12:59:23Z</time>
      </trkpt>
      <trkpt lat="45.09217" lon="6.15623">
        <ele>1649.5</ele>
        <time>2022-09-03T12:59:32Z</time>
      </trkpt>
      <trkpt lat="45.09217" lon="6.15633">
        <ele>1646.9</ele>
        <time>2022-09-03T12:59:39Z</time>
      </trkpt>
      <trkpt lat="45.09212" lon="6.1564">
        <ele>1644.2</ele>
        <time>2022-09-03T12:59:54Z</time>
      </trkpt>
      <trkpt lat="45.09208" lon="6.15648">
        <ele>1641.4</ele>
        <time>2022-09-03T13:00:05Z</time>
      </trkpt>
      <trkpt lat="45.09208" lon="6.15657">
        <ele>1639</ele>
        <time>2022-09-03T13:00:18Z</time>
      </trkpt>
      <trkpt lat="45.09205" lon="6.15666">
        <ele>1636.1</ele>
        <time>2022-09-03T13:00:23Z</time>
      </trkpt>
      <trkpt lat="45.092" lon="6.15674">
        <ele>1633.7</ele>
        <time>2022-09-03T13:00:28Z</time>
      </trkpt>
      <trkpt lat="45.09196" lon="6.15683">
        <ele>1631.4</ele>
        <time>2022-09-03T13:00:43Z</time>
      </trkpt>
      <trkpt lat="45.09194" lon="6.15692">
        <ele>1629.6</ele>
        <time>2022-09-03T13:00:49Z</time>
      </trkpt>
      <trkpt lat="45.09189" lon="6.15699">
        <ele>1627.6</ele>
        <time>2022-09-03T13:00:57Z</time>
      </trkpt>
      <trkpt lat="45.09188" lon="6.1571">
        <ele>1625.7</ele>
        <time>2022-09-03T13:01:07Z</time>
      </trkpt>
      <trkpt lat="45.09187" lon="6.1572">
        <ele>1623.9</ele>
        <time>2022-09-03T13:01:17Z</time>
      </trkpt>
      <trkpt lat="45.0918" lon="6.15725">
        <ele>1622.2</ele>
        <time>2022-09-03T13:01:22Z</time>
      </trkpt>
      <trkpt lat="45.09174" lon="6.15729">
        <ele>1620.9</ele>
        <time>2022-09-03T13:01:31Z</time>
      </trkpt>
      <trkpt lat="45.09168" lon="6.15736">
        <ele>1619.2</ele>
        <time>2022-09-03T13:01:36Z</time>
      </trkpt>
      <trkpt lat="45.09162" lon="6.15739">
        <ele>1618</ele>
        <time>2022-09-03T13:01:43Z</time>
      </trkpt>
      <trkpt lat="45.09162" lon="6.15749">
        <ele>1616.5</ele>
        <time>2022-09-03T13:01:51Z</time>
      </trkpt>
      <trkpt lat="45.09165" lon="6.15758">
        <ele>1615.7</ele>
        <time>2022-09-03T13:02:08Z</time>
      </trkpt>
      <trkpt lat="45.09169" lon="6.15765">
        <ele>1615.2</ele>
        <time>2022-09-03T13:02:13Z</time>
      </trkpt>
      <trkpt lat="45.09163" lon="6.15769">
        <ele>1613.9</ele>
        <time>2022-09-03T13:02:21Z</time>
      </trkpt>
      <trkpt lat="45.09172" lon="6.15772">
        <ele>1614.6</ele>
        <time>2022-09-03T13:02:37Z</time>
      </trkpt>
      <trkpt lat="45.09183" lon="6.15775">
        <ele>1615.2</ele>
        <time>2022-09-03T13:02:42Z</time>
      </trkpt>
      <trkpt lat="45.09175" lon="6.15781">
        <ele>1613.7</ele>
        <time>2022-09-03T13:02:47Z</time>
      </trkpt>
      <trkpt lat="45.09171" lon="6.15789">
        <ele>1612.2</ele>
        <time>2022-09-03T13:02:52Z</time>
      </trkpt>
      <trkpt lat="45.09167" lon="6.15799">
        <ele>1610.6</ele>
        <time>2022-09-03T13:03:07Z</time>
      </trkpt>
      <trkpt lat="45.09163" lon="6.15807">
        <ele>1608.9</ele>
        <time>2022-09-03T13:03:20Z</time>
      </trkpt>
      <trkpt lat="45.09163" lon="6.15817">
        <ele>1607.5</ele>
        <time>2022-09-03T13:03:31Z</time>
      </trkpt>
      <trkpt lat="45.0916" lon="6.15825">
        <ele>1605.9</ele>
        <time>2022-09-03T13:03:40Z</time>
      </trkpt>
      <trkpt lat="45.09167" lon="6.15826">
        <ele>1607</ele>
        <time>2022-09-03T13:03:55Z</time>
      </trkpt>
      <trkpt lat="45.09172" lon="6.15837">
        <ele>1606</ele>
        <time>2022-09-03T13:04:00Z</time>
      </trkpt>
      <trkpt lat="45.09169" lon="6.15853">
        <ele>1603.6</ele>
        <time>2022-09-03T13:06:35Z</time>
      </trkpt>
      <trkpt lat="45.09166" lon="6.15861">
        <ele>1602.2</ele>
        <time>2022-09-03T13:06:42Z</time>
      </trkpt>
      <trkpt lat="45.0916" lon="6.15868">
        <ele>1600.3</ele>
        <time>2022-09-03T13:06:52Z</time>
      </trkpt>
      <trkpt lat="45.09154" lon="6.15873">
        <ele>1598.6</ele>
        <time>2022-09-03T13:06:59Z</time>
      </trkpt>
      <trkpt lat="45.09148" lon="6.1588">
        <ele>1596.6</ele>
        <time>2022-09-03T13:07:05Z</time>
      </trkpt>
      <trkpt lat="45.09146" lon="6.1589">
        <ele>1595</ele>
        <time>2022-09-03T13:07:23Z</time>
      </trkpt>
      <trkpt lat="45.09147" lon="6.159">
        <ele>1593.8</ele>
        <time>2022-09-03T13:07:40Z</time>
      </trkpt>
      <trkpt lat="45.09146" lon="6.1591">
        <ele>1592.4</ele>
        <time>2022-09-03T13:07:48Z</time>
      </trkpt>
      <trkpt lat="45.09144" lon="6.1592">
        <ele>1590.5</ele>
        <time>2022-09-03T13:07:54Z</time>
      </trkpt>
      <trkpt lat="45.09143" lon="6.1593">
        <ele>1588.4</ele>
        <time>2022-09-03T13:08:07Z</time>
      </trkpt>
      <trkpt lat="45.09139" lon="6.15938">
        <ele>1586.3</ele>
        <time>2022-09-03T13:08:14Z</time>
      </trkpt>
      <trkpt lat="45.09135" lon="6.15946">
        <ele>1584.1</ele>
        <time>2022-09-03T13:08:33Z</time>
      </trkpt>
      <trkpt lat="45.09135" lon="6.15956">
        <ele>1582.2</ele>
        <time>2022-09-03T13:08:39Z</time>
      </trkpt>
      <trkpt lat="45.09134" lon="6.15966">
        <ele>1580.1</ele>
        <time>2022-09-03T13:08:45Z</time>
      </trkpt>
      <trkpt lat="45.09133" lon="6.15979">
        <ele>1577.5</ele>
        <time>2022-09-03T13:08:50Z</time>
      </trkpt>
      <trkpt lat="45.09133" lon="6.15989">
        <ele>1575.6</ele>
        <time>2022-09-03T13:09:00Z</time>
      </trkpt>
      <trkpt lat="45.09128" lon="6.15999">
        <ele>1573.1</ele>
        <time>2022-09-03T13:09:15Z</time>
      </trkpt>
      <trkpt lat="45.09123" lon="6.16006">
        <ele>1570.5</ele>
        <time>2022-09-03T13:09:25Z</time>
      </trkpt>
      <trkpt lat="45.09122" lon="6.16015">
        <ele>1567.8</ele>
        <time>2022-09-03T13:09:33Z</time>
      </trkpt>
      <trkpt lat="45.0912" lon="6.16028">
        <ele>1563.9</ele>
        <time>2022-09-03T13:09:41Z</time>
      </trkpt>
      <trkpt lat="45.09115" lon="6.16035">
        <ele>1561.3</ele>
        <time>2022-09-03T13:09:49Z</time>
      </trkpt>
      <trkpt lat="45.09113" lon="6.16045">
        <ele>1558.3</ele>
        <time>2022-09-03T13:09:57Z</time>
      </trkpt>
      <trkpt lat="45.09109" lon="6.16055">
        <ele>1555.1</ele>
        <time>2022-09-03T13:10:08Z</time>
      </trkpt>
      <trkpt lat="45.09104" lon="6.16062">
        <ele>1552.6</ele>
        <time>2022-09-03T13:10:18Z</time>
      </trkpt>
      <trkpt lat="45.09106" lon="6.1607">
        <ele>1550.6</ele>
        <time>2022-09-03T13:10:25Z</time>
      </trkpt>
      <trkpt lat="45.09105" lon="6.1608">
        <ele>1547.7</ele>
        <time>2022-09-03T13:10:31Z</time>
      </trkpt>
      <trkpt lat="45.09099" lon="6.16085">
        <ele>1546</ele>
        <time>2022-09-03T13:10:49Z</time>
      </trkpt>
      <trkpt lat="45.09096" lon="6.16096">
        <ele>1543.6</ele>
        <time>2022-09-03T13:11:08Z</time>
      </trkpt>
      <trkpt lat="45.09095" lon="6.16107">
        <ele>1541.4</ele>
        <time>2022-09-03T13:11:16Z</time>
      </trkpt>
      <trkpt lat="45.09097" lon="6.16115">
        <ele>1539.9</ele>
        <time>2022-09-03T13:11:25Z</time>
      </trkpt>
      <trkpt lat="45.09093" lon="6.16124">
        <ele>1537.9</ele>
        <time>2022-09-03T13:11:34Z</time>
      </trkpt>
      <trkpt lat="45.09089" lon="6.16132">
        <ele>1536.1</ele>
        <time>2022-09-03T13:11:42Z</time>
      </trkpt>
      <trkpt lat="45.09086" lon="6.16142">
        <ele>1533.9</ele>
        <time>2022-09-03T13:11:47Z</time>
      </trkpt>
      <trkpt lat="45.09081" lon="6.1615">
        <ele>1531.7</ele>
        <time>2022-09-03T13:11:58Z</time>
      </trkpt>
      <trkpt lat="45.09082" lon="6.16161">
        <ele>1529.8</ele>
        <time>2022-09-03T13:12:07Z</time>
      </trkpt>
      <trkpt lat="45.09082" lon="6.16171">
        <ele>1527.9</ele>
        <time>2022-09-03T13:12:19Z</time>
      </trkpt>
      <trkpt lat="45.09076" lon="6.16176">
        <ele>1525.7</ele>
        <time>2022-09-03T13:12:27Z</time>
      </trkpt>
      <trkpt lat="45.09076" lon="6.16186">
        <ele>1523.9</ele>
        <time>2022-09-03T13:12:33Z</time>
      </trkpt>
      <trkpt lat="45.09069" lon="6.16189">
        <ele>1521.7</ele>
        <time>2022-09-03T13:12:40Z</time>
      </trkpt>
      <trkpt lat="45.09068" lon="6.162">
        <ele>1519.4</ele>
        <time>2022-09-03T13:12:49Z</time>
      </trkpt>
      <trkpt lat="45.09061" lon="6.16204">
        <ele>1517</ele>
        <time>2022-09-03T13:12:59Z</time>
      </trkpt>
      <trkpt lat="45.09059" lon="6.16213">
        <ele>1514.8</ele>
        <time>2022-09-03T13:13:07Z</time>
      </trkpt>
      <trkpt lat="45.09054" lon="6.16221">
        <ele>1512</ele>
        <time>2022-09-03T13:13:12Z</time>
      </trkpt>
      <trkpt lat="45.09054" lon="6.16231">
        <ele>1510</ele>
        <time>2022-09-03T13:13:20Z</time>
      </trkpt>
      <trkpt lat="45.0905" lon="6.16239">
        <ele>1507.4</ele>
        <time>2022-09-03T13:13:28Z</time>
      </trkpt>
      <trkpt lat="45.09054" lon="6.16247">
        <ele>1506.8</ele>
        <time>2022-09-03T13:13:42Z</time>
      </trkpt>
      <trkpt lat="45.09051" lon="6.16259">
        <ele>1503.3</ele>
        <time>2022-09-03T13:13:50Z</time>
      </trkpt>
      <trkpt lat="45.09056" lon="6.16265">
        <ele>1503.1</ele>
        <time>2022-09-03T13:13:58Z</time>
      </trkpt>
      <trkpt lat="45.09054" lon="6.16275">
        <ele>1500.1</ele>
        <time>2022-09-03T13:14:04Z</time>
      </trkpt>
      <trkpt lat="45.09052" lon="6.16286">
        <ele>1496.9</ele>
        <time>2022-09-03T13:14:09Z</time>
      </trkpt>
      <trkpt lat="45.09052" lon="6.16296">
        <ele>1494.4</ele>
        <time>2022-09-03T13:14:16Z</time>
      </trkpt>
      <trkpt lat="45.09049" lon="6.16306">
        <ele>1491.3</ele>
        <time>2022-09-03T13:14:24Z</time>
      </trkpt>
      <trkpt lat="45.09046" lon="6.16315">
        <ele>1488.4</ele>
        <time>2022-09-03T13:14:30Z</time>
      </trkpt>
      <trkpt lat="45.09043" lon="6.16324">
        <ele>1485.5</ele>
        <time>2022-09-03T13:14:37Z</time>
      </trkpt>
      <trkpt lat="45.09039" lon="6.16332">
        <ele>1482.7</ele>
        <time>2022-09-03T13:15:10Z</time>
      </trkpt>
      <trkpt lat="45.09037" lon="6.16342">
        <ele>1479.9</ele>
        <time>2022-09-03T13:15:17Z</time>
      </trkpt>
      <trkpt lat="45.09034" lon="6.16351">
        <ele>1477.1</ele>
        <time>2022-09-03T13:15:23Z</time>
      </trkpt>
      <trkpt lat="45.09027" lon="6.16367">
        <ele>1471.6</ele>
        <time>2022-09-03T13:15:28Z</time>
      </trkpt>
      <trkpt lat="45.09022" lon="6.16376">
        <ele>1468.2</ele>
        <time>2022-09-03T13:15:35Z</time>
      </trkpt>
      <trkpt lat="45.09022" lon="6.16386">
        <ele>1465.7</ele>
        <time>2022-09-03T13:15:49Z</time>
      </trkpt>
      <trkpt lat="45.09017" lon="6.16392">
        <ele>1462.9</ele>
        <time>2022-09-03T13:16:00Z</time>
      </trkpt>
      <trkpt lat="45.09011" lon="6.16396">
        <ele>1460.3</ele>
        <time>2022-09-03T13:16:05Z</time>
      </trkpt>
      <trkpt lat="45.09005" lon="6.16405">
        <ele>1456.4</ele>
        <time>2022-09-03T13:16:10Z</time>
      </trkpt>
      <trkpt lat="45.09" lon="6.16411">
        <ele>1453.5</ele>
        <time>2022-09-03T13:17:49Z</time>
      </trkpt>
      <trkpt lat="45.08994" lon="6.16417">
        <ele>1451</ele>
        <time>2022-09-03T13:17:55Z</time>
      </trkpt>
      <trkpt lat="45.08987" lon="6.1642">
        <ele>1449.1</ele>
        <time>2022-09-03T13:18:02Z</time>
      </trkpt>
      <trkpt lat="45.08981" lon="6.16424">
        <ele>1447.2</ele>
        <time>2022-09-03T13:18:10Z</time>
      </trkpt>
      <trkpt lat="45.08974" lon="6.1643">
        <ele>1444.5</ele>
        <time>2022-09-03T13:18:18Z</time>
      </trkpt>
      <trkpt lat="45.08968" lon="6.16435">
        <ele>1442.2</ele>
        <time>2022-09-03T13:18:27Z</time>
      </trkpt>
      <trkpt lat="45.08962" lon="6.16435">
        <ele>1441.2</ele>
        <time>2022-09-03T13:18:35Z</time>
      </trkpt>
      <trkpt lat="45.08955" lon="6.16435">
        <ele>1440</ele>
        <time>2022-09-03T13:18:41Z</time>
      </trkpt>
      <trkpt lat="45.08949" lon="6.16428">
        <ele>1440.9</ele>
        <time>2022-09-03T13:19:04Z</time>
      </trkpt>
      <trkpt lat="45.08942" lon="6.16424">
        <ele>1440.9</ele>
        <time>2022-09-03T13:19:10Z</time>
      </trkpt>
      <trkpt lat="45.08937" lon="6.16419">
        <ele>1441.5</ele>
        <time>2022-09-03T13:19:17Z</time>
      </trkpt>
      <trkpt lat="45.08931" lon="6.16415">
        <ele>1441.6</ele>
        <time>2022-09-03T13:19:23Z</time>
      </trkpt>
      <trkpt lat="45.08924" lon="6.16412">
        <ele>1441.2</ele>
        <time>2022-09-03T13:19:29Z</time>
      </trkpt>
      <trkpt lat="45.08919" lon="6.16406">
        <ele>1441.7</ele>
        <time>2022-09-03T13:19:34Z</time>
      </trkpt>
      <trkpt lat="45.08914" lon="6.16399">
        <ele>1442.7</ele>
        <time>2022-09-03T13:19:40Z</time>
      </trkpt>
      <trkpt lat="45.08909" lon="6.16391">
        <ele>1444</ele>
        <time>2022-09-03T13:19:46Z</time>
      </trkpt>
      <trkpt lat="45.08902" lon="6.16381">
        <ele>1445.5</ele>
        <time>2022-09-03T13:19:51Z</time>
      </trkpt>
      <trkpt lat="45.08896" lon="6.16374">
        <ele>1446.3</ele>
        <time>2022-09-03T13:19:56Z</time>
      </trkpt>
      <trkpt lat="45.08891" lon="6.16367">
        <ele>1447.1</ele>
        <time>2022-09-03T13:20:02Z</time>
      </trkpt>
      <trkpt lat="45.08885" lon="6.16362">
        <ele>1447.3</ele>
        <time>2022-09-03T13:20:09Z</time>
      </trkpt>
      <trkpt lat="45.08879" lon="6.16358">
        <ele>1447.3</ele>
        <time>2022-09-03T13:21:00Z</time>
      </trkpt>
      <trkpt lat="45.08872" lon="6.16356">
        <ele>1446.7</ele>
        <time>2022-09-03T13:21:06Z</time>
      </trkpt>
      <trkpt lat="45.08864" lon="6.16352">
        <ele>1446.3</ele>
        <time>2022-09-03T13:21:11Z</time>
      </trkpt>
      <trkpt lat="45.08857" lon="6.16349">
        <ele>1445.8</ele>
        <time>2022-09-03T13:21:16Z</time>
      </trkpt>
      <trkpt lat="45.08849" lon="6.16347">
        <ele>1445</ele>
        <time>2022-09-03T13:21:22Z</time>
      </trkpt>
      <trkpt lat="45.08842" lon="6.16347">
        <ele>1444</ele>
        <time>2022-09-03T13:21:28Z</time>
      </trkpt>
      <trkpt lat="45.08835" lon="6.16345">
        <ele>1443.2</ele>
        <time>2022-09-03T13:21:34Z</time>
      </trkpt>
      <trkpt lat="45.08828" lon="6.16343">
        <ele>1442.4</ele>
        <time>2022-09-03T13:21:40Z</time>
      </trkpt>
      <trkpt lat="45.08821" lon="6.1634">
        <ele>1441.6</ele>
        <time>2022-09-03T13:21:46Z</time>
      </trkpt>
      <trkpt lat="45.08814" lon="6.16338">
        <ele>1440.8</ele>
        <time>2022-09-03T13:21:52Z</time>
      </trkpt>
      <trkpt lat="45.08808" lon="6.16332">
        <ele>1440.5</ele>
        <time>2022-09-03T13:21:58Z</time>
      </trkpt>
      <trkpt lat="45.08801" lon="6.16329">
        <ele>1439.7</ele>
        <time>2022-09-03T13:22:04Z</time>
      </trkpt>
      <trkpt lat="45.08795" lon="6.16325">
        <ele>1439.1</ele>
        <time>2022-09-03T13:22:10Z</time>
      </trkpt>
      <trkpt lat="45.08789" lon="6.16321">
        <ele>1438.6</ele>
        <time>2022-09-03T13:22:16Z</time>
      </trkpt>
      <trkpt lat="45.08783" lon="6.16315">
        <ele>1438.2</ele>
        <time>2022-09-03T13:22:22Z</time>
      </trkpt>
      <trkpt lat="45.08776" lon="6.1631">
        <ele>1437.6</ele>
        <time>2022-09-03T13:22:28Z</time>
      </trkpt>
      <trkpt lat="45.08769" lon="6.16303">
        <ele>1437.2</ele>
        <time>2022-09-03T13:22:33Z</time>
      </trkpt>
      <trkpt lat="45.08761" lon="6.16298">
        <ele>1436.5</ele>
        <time>2022-09-03T13:22:38Z</time>
      </trkpt>
      <trkpt lat="45.08754" lon="6.16293">
        <ele>1435.9</ele>
        <time>2022-09-03T13:22:43Z</time>
      </trkpt>
      <trkpt lat="45.08745" lon="6.16288">
        <ele>1434.7</ele>
        <time>2022-09-03T13:22:48Z</time>
      </trkpt>
      <trkpt lat="45.08736" lon="6.16285">
        <ele>1433.1</ele>
        <time>2022-09-03T13:22:53Z</time>
      </trkpt>
      <trkpt lat="45.0873" lon="6.16281">
        <ele>1432.3</ele>
        <time>2022-09-03T13:22:58Z</time>
      </trkpt>
      <trkpt lat="45.08723" lon="6.16282">
        <ele>1430.7</ele>
        <time>2022-09-03T13:23:03Z</time>
      </trkpt>
      <trkpt lat="45.08716" lon="6.16285">
        <ele>1428.9</ele>
        <time>2022-09-03T13:23:08Z</time>
      </trkpt>
      <trkpt lat="45.0871" lon="6.16291">
        <ele>1426.9</ele>
        <time>2022-09-03T13:23:13Z</time>
      </trkpt>
      <trkpt lat="45.08707" lon="6.163">
        <ele>1425.2</ele>
        <time>2022-09-03T13:23:18Z</time>
      </trkpt>
      <trkpt lat="45.08702" lon="6.16308">
        <ele>1423.1</ele>
        <time>2022-09-03T13:23:24Z</time>
      </trkpt>
      <trkpt lat="45.08699" lon="6.16315">
        <ele>1421.5</ele>
        <time>2022-09-03T13:23:31Z</time>
      </trkpt>
      <trkpt lat="45.08694" lon="6.16323">
        <ele>1419.3</ele>
        <time>2022-09-03T13:23:38Z</time>
      </trkpt>
      <trkpt lat="45.0869" lon="6.1633">
        <ele>1417.3</ele>
        <time>2022-09-03T13:23:45Z</time>
      </trkpt>
      <trkpt lat="45.08685" lon="6.16337">
        <ele>1415</ele>
        <time>2022-09-03T13:23:50Z</time>
      </trkpt>
      <trkpt lat="45.08679" lon="6.16343">
        <ele>1412.6</ele>
        <time>2022-09-03T13:23:55Z</time>
      </trkpt>
      <trkpt lat="45.08673" lon="6.16348">
        <ele>1410.2</ele>
        <time>2022-09-03T13:24:00Z</time>
      </trkpt>
      <trkpt lat="45.08666" lon="6.1635">
        <ele>1408.1</ele>
        <time>2022-09-03T13:24:05Z</time>
      </trkpt>
      <trkpt lat="45.0866" lon="6.16346">
        <ele>1408</ele>
        <time>2022-09-03T13:24:10Z</time>
      </trkpt>
      <trkpt lat="45.08654" lon="6.16349">
        <ele>1406.8</ele>
        <time>2022-09-03T13:24:20Z</time>
      </trkpt>
      <trkpt lat="45.08647" lon="6.16345">
        <ele>1406.5</ele>
        <time>2022-09-03T13:24:25Z</time>
      </trkpt>
      <trkpt lat="45.08642" lon="6.16338">
        <ele>1407</ele>
        <time>2022-09-03T13:24:32Z</time>
      </trkpt>
      <trkpt lat="45.08636" lon="6.16332">
        <ele>1407.2</ele>
        <time>2022-09-03T13:24:40Z</time>
      </trkpt>
      <trkpt lat="45.0863" lon="6.16327">
        <ele>1407.3</ele>
        <time>2022-09-03T13:24:46Z</time>
      </trkpt>
      <trkpt lat="45.08623" lon="6.16321">
        <ele>1407.5</ele>
        <time>2022-09-03T13:24:54Z</time>
      </trkpt>
      <trkpt lat="45.08618" lon="6.16315">
        <ele>1408.1</ele>
        <time>2022-09-03T13:25:03Z</time>
      </trkpt>
      <trkpt lat="45.08611" lon="6.16312">
        <ele>1407.8</ele>
        <time>2022-09-03T13:25:11Z</time>
      </trkpt>
      <trkpt lat="45.08606" lon="6.16306">
        <ele>1408.4</ele>
        <time>2022-09-03T13:25:20Z</time>
      </trkpt>
      <trkpt lat="45.08599" lon="6.16303">
        <ele>1408.3</ele>
        <time>2022-09-03T13:25:30Z</time>
      </trkpt>
      <trkpt lat="45.08592" lon="6.163">
        <ele>1408.1</ele>
        <time>2022-09-03T13:25:36Z</time>
      </trkpt>
      <trkpt lat="45.08585" lon="6.16296">
        <ele>1408.2</ele>
        <time>2022-09-03T13:25:45Z</time>
      </trkpt>
      <trkpt lat="45.08578" lon="6.16292">
        <ele>1408.7</ele>
        <time>2022-09-03T13:25:50Z</time>
      </trkpt>
      <trkpt lat="45.08571" lon="6.16294">
        <ele>1407.9</ele>
        <time>2022-09-03T13:25:56Z</time>
      </trkpt>
      <trkpt lat="45.08564" lon="6.16297">
        <ele>1407</ele>
        <time>2022-09-03T13:26:03Z</time>
      </trkpt>
      <trkpt lat="45.08561" lon="6.16287">
        <ele>1408.8</ele>
        <time>2022-09-03T13:26:39Z</time>
      </trkpt>
      <trkpt lat="45.08557" lon="6.16297">
        <ele>1406.7</ele>
        <time>2022-09-03T13:26:46Z</time>
      </trkpt>
      <trkpt lat="45.0855" lon="6.16298">
        <ele>1406.3</ele>
        <time>2022-09-03T13:26:51Z</time>
      </trkpt>
      <trkpt lat="45.08544" lon="6.16299">
        <ele>1405.9</ele>
        <time>2022-09-03T13:26:57Z</time>
      </trkpt>
      <trkpt lat="45.08536" lon="6.16298">
        <ele>1405.7</ele>
        <time>2022-09-03T13:27:03Z</time>
      </trkpt>
      <trkpt lat="45.08528" lon="6.16298">
        <ele>1405.4</ele>
        <time>2022-09-03T13:27:08Z</time>
      </trkpt>
      <trkpt lat="45.08521" lon="6.16299">
        <ele>1405</ele>
        <time>2022-09-03T13:27:13Z</time>
      </trkpt>
      <trkpt lat="45.08514" lon="6.16294">
        <ele>1405.4</ele>
        <time>2022-09-03T13:27:19Z</time>
      </trkpt>
      <trkpt lat="45.08507" lon="6.16293">
        <ele>1405.2</ele>
        <time>2022-09-03T13:27:25Z</time>
      </trkpt>
      <trkpt lat="45.08499" lon="6.16292">
        <ele>1404.8</ele>
        <time>2022-09-03T13:27:30Z</time>
      </trkpt>
      <trkpt lat="45.08493" lon="6.16293">
        <ele>1404</ele>
        <time>2022-09-03T13:27:35Z</time>
      </trkpt>
      <trkpt lat="45.08486" lon="6.16294">
        <ele>1403.1</ele>
        <time>2022-09-03T13:27:40Z</time>
      </trkpt>
      <trkpt lat="45.08478" lon="6.16294">
        <ele>1402.2</ele>
        <time>2022-09-03T13:27:45Z</time>
      </trkpt>
      <trkpt lat="45.0847" lon="6.16288">
        <ele>1402</ele>
        <time>2022-09-03T13:27:50Z</time>
      </trkpt>
      <trkpt lat="45.08464" lon="6.16292">
        <ele>1400.9</ele>
        <time>2022-09-03T13:28:01Z</time>
      </trkpt>
      <trkpt lat="45.08457" lon="6.1629">
        <ele>1400.3</ele>
        <time>2022-09-03T13:28:07Z</time>
      </trkpt>
      <trkpt lat="45.08451" lon="6.16285">
        <ele>1400.1</ele>
        <time>2022-09-03T13:28:12Z</time>
      </trkpt>
      <trkpt lat="45.08445" lon="6.16282">
        <ele>1399.7</ele>
        <time>2022-09-03T13:28:17Z</time>
      </trkpt>
      <trkpt lat="45.08438" lon="6.16286">
        <ele>1398.5</ele>
        <time>2022-09-03T13:28:27Z</time>
      </trkpt>
      <trkpt lat="45.08432" lon="6.16287">
        <ele>1397.7</ele>
        <time>2022-09-03T13:28:42Z</time>
      </trkpt>
      <trkpt lat="45.08426" lon="6.16293">
        <ele>1396.4</ele>
        <time>2022-09-03T13:28:47Z</time>
      </trkpt>
      <trkpt lat="45.0843" lon="6.163">
        <ele>1396.3</ele>
        <time>2022-09-03T13:28:55Z</time>
      </trkpt>
      <trkpt lat="45.08423" lon="6.16306">
        <ele>1395</ele>
        <time>2022-09-03T13:29:02Z</time>
      </trkpt>
      <trkpt lat="45.08417" lon="6.16312">
        <ele>1393.8</ele>
        <time>2022-09-03T13:29:08Z</time>
      </trkpt>
      <trkpt lat="45.08423" lon="6.16305">
        <ele>1395.1</ele>
        <time>2022-09-03T13:29:23Z</time>
      </trkpt>
      <trkpt lat="45.08428" lon="6.16298">
        <ele>1396.2</ele>
        <time>2022-09-03T13:29:30Z</time>
      </trkpt>
      <trkpt lat="45.08433" lon="6.1629">
        <ele>1397.5</ele>
        <time>2022-09-03T13:29:37Z</time>
      </trkpt>
      <trkpt lat="45.08434" lon="6.16299">
        <ele>1396.8</ele>
        <time>2022-09-03T13:30:05Z</time>
      </trkpt>
      <trkpt lat="45.08428" lon="6.16304">
        <ele>1395.7</ele>
        <time>2022-09-03T13:30:10Z</time>
      </trkpt>
      <trkpt lat="45.08421" lon="6.16308">
        <ele>1394.6</ele>
        <time>2022-09-03T13:30:18Z</time>
      </trkpt>
      <trkpt lat="45.08414" lon="6.16302">
        <ele>1394.2</ele>
        <time>2022-09-03T13:30:23Z</time>
      </trkpt>
      <trkpt lat="45.08407" lon="6.16301">
        <ele>1393.2</ele>
        <time>2022-09-03T13:30:28Z</time>
      </trkpt>
      <trkpt lat="45.08401" lon="6.16295">
        <ele>1392.9</ele>
        <time>2022-09-03T13:30:34Z</time>
      </trkpt>
      <trkpt lat="45.08395" lon="6.16291">
        <ele>1392.5</ele>
        <time>2022-09-03T13:30:39Z</time>
      </trkpt>
      <trkpt lat="45.08386" lon="6.16287">
        <ele>1391.7</ele>
        <time>2022-09-03T13:30:44Z</time>
      </trkpt>
      <trkpt lat="45.08379" lon="6.16284">
        <ele>1391.1</ele>
        <time>2022-09-03T13:30:49Z</time>
      </trkpt>
      <trkpt lat="45.08372" lon="6.16281">
        <ele>1390.7</ele>
        <time>2022-09-03T13:30:55Z</time>
      </trkpt>
      <trkpt lat="45.08365" lon="6.16276">
        <ele>1390.5</ele>
        <time>2022-09-03T13:31:04Z</time>
      </trkpt>
      <trkpt lat="45.08358" lon="6.16273">
        <ele>1390.2</ele>
        <time>2022-09-03T13:31:11Z</time>
      </trkpt>
      <trkpt lat="45.08353" lon="6.16264">
        <ele>1391.2</ele>
        <time>2022-09-03T13:31:16Z</time>
      </trkpt>
      <trkpt lat="45.08343" lon="6.16258">
        <ele>1391.3</ele>
        <time>2022-09-03T13:31:21Z</time>
      </trkpt>
      <trkpt lat="45.08333" lon="6.16254">
        <ele>1391.1</ele>
        <time>2022-09-03T13:31:26Z</time>
      </trkpt>
      <trkpt lat="45.08328" lon="6.16249">
        <ele>1391.2</ele>
        <time>2022-09-03T13:31:32Z</time>
      </trkpt>
      <trkpt lat="45.08324" lon="6.16241">
        <ele>1391.1</ele>
        <time>2022-09-03T13:31:37Z</time>
      </trkpt>
      <trkpt lat="45.08318" lon="6.16235">
        <ele>1390.5</ele>
        <time>2022-09-03T13:31:43Z</time>
      </trkpt>
      <trkpt lat="45.08313" lon="6.16225">
        <ele>1390.4</ele>
        <time>2022-09-03T13:31:48Z</time>
      </trkpt>
      <trkpt lat="45.08309" lon="6.16217">
        <ele>1390.3</ele>
        <time>2022-09-03T13:31:53Z</time>
      </trkpt>
      <trkpt lat="45.08304" lon="6.1621">
        <ele>1390</ele>
        <time>2022-09-03T13:32:00Z</time>
      </trkpt>
      <trkpt lat="45.08303" lon="6.16201">
        <ele>1390.4</ele>
        <time>2022-09-03T13:32:10Z</time>
      </trkpt>
      <trkpt lat="45.08298" lon="6.16195">
        <ele>1390.1</ele>
        <time>2022-09-03T13:32:15Z</time>
      </trkpt>
      <trkpt lat="45.08289" lon="6.16191">
        <ele>1389</ele>
        <time>2022-09-03T13:32:20Z</time>
      </trkpt>
      <trkpt lat="45.08283" lon="6.1618">
        <ele>1388.9</ele>
        <time>2022-09-03T13:32:25Z</time>
      </trkpt>
      <trkpt lat="45.08274" lon="6.16178">
        <ele>1387.7</ele>
        <time>2022-09-03T13:32:30Z</time>
      </trkpt>
      <trkpt lat="45.08267" lon="6.16173">
        <ele>1387</ele>
        <time>2022-09-03T13:32:36Z</time>
      </trkpt>
      <trkpt lat="45.08259" lon="6.16168">
        <ele>1386.2</ele>
        <time>2022-09-03T13:32:41Z</time>
      </trkpt>
      <trkpt lat="45.08251" lon="6.16162">
        <ele>1385.6</ele>
        <time>2022-09-03T13:32:46Z</time>
      </trkpt>
      <trkpt lat="45.08245" lon="6.16156">
        <ele>1385.3</ele>
        <time>2022-09-03T13:32:51Z</time>
      </trkpt>
      <trkpt lat="45.08238" lon="6.16153">
        <ele>1384.3</ele>
        <time>2022-09-03T13:32:57Z</time>
      </trkpt>
      <trkpt lat="45.08232" lon="6.16154">
        <ele>1383.2</ele>
        <time>2022-09-03T13:33:02Z</time>
      </trkpt>
      <trkpt lat="45.0824" lon="6.16152">
        <ele>1384.8</ele>
        <time>2022-09-03T13:33:07Z</time>
      </trkpt>
      <trkpt lat="45.08248" lon="6.16142">
        <ele>1387.3</ele>
        <time>2022-09-03T13:33:12Z</time>
      </trkpt>
      <trkpt lat="45.08242" lon="6.16148">
        <ele>1385.6</ele>
        <time>2022-09-03T13:33:59Z</time>
      </trkpt>
      <trkpt lat="45.08235" lon="6.16152">
        <ele>1383.9</ele>
        <time>2022-09-03T13:34:44Z</time>
      </trkpt>
      <trkpt lat="45.08228" lon="6.16147">
        <ele>1383.1</ele>
        <time>2022-09-03T13:34:49Z</time>
      </trkpt>
      <trkpt lat="45.08222" lon="6.16141">
        <ele>1382.6</ele>
        <time>2022-09-03T13:34:56Z</time>
      </trkpt>
      <trkpt lat="45.08229" lon="6.16135">
        <ele>1384.4</ele>
        <time>2022-09-03T13:35:09Z</time>
      </trkpt>
      <trkpt lat="45.08235" lon="6.16136">
        <ele>1385.5</ele>
        <time>2022-09-03T13:35:18Z</time>
      </trkpt>
      <trkpt lat="45.08243" lon="6.16137">
        <ele>1386.9</ele>
        <time>2022-09-03T13:35:24Z</time>
      </trkpt>
      <trkpt lat="45.08238" lon="6.16129">
        <ele>1386.7</ele>
        <time>2022-09-03T13:35:31Z</time>
      </trkpt>
      <trkpt lat="45.08231" lon="6.16126">
        <ele>1385.6</ele>
        <time>2022-09-03T13:35:39Z</time>
      </trkpt>
      <trkpt lat="45.08224" lon="6.16121">
        <ele>1384.7</ele>
        <time>2022-09-03T13:35:45Z</time>
      </trkpt>
      <trkpt lat="45.08218" lon="6.16119">
        <ele>1383.7</ele>
        <time>2022-09-03T13:35:51Z</time>
      </trkpt>
      <trkpt lat="45.08211" lon="6.16115">
        <ele>1382.6</ele>
        <time>2022-09-03T13:35:57Z</time>
      </trkpt>
      <trkpt lat="45.08205" lon="6.16111">
        <ele>1381.6</ele>
        <time>2022-09-03T13:36:03Z</time>
      </trkpt>
      <trkpt lat="45.08198" lon="6.16105">
        <ele>1380.6</ele>
        <time>2022-09-03T13:36:08Z</time>
      </trkpt>
      <trkpt lat="45.08193" lon="6.16099">
        <ele>1380</ele>
        <time>2022-09-03T13:36:14Z</time>
      </trkpt>
      <trkpt lat="45.08188" lon="6.16092">
        <ele>1379.3</ele>
        <time>2022-09-03T13:36:20Z</time>
      </trkpt>
      <trkpt lat="45.08183" lon="6.16086">
        <ele>1378.6</ele>
        <time>2022-09-03T13:36:25Z</time>
      </trkpt>
      <trkpt lat="45.08178" lon="6.16078">
        <ele>1378.6</ele>
        <time>2022-09-03T13:36:30Z</time>
      </trkpt>
      <trkpt lat="45.08172" lon="6.16071">
        <ele>1378.7</ele>
        <time>2022-09-03T13:36:36Z</time>
      </trkpt>
      <trkpt lat="45.08169" lon="6.16063">
        <ele>1379.7</ele>
        <time>2022-09-03T13:36:42Z</time>
      </trkpt>
      <trkpt lat="45.08167" lon="6.16052">
        <ele>1381.5</ele>
        <time>2022-09-03T13:36:47Z</time>
      </trkpt>
      <trkpt lat="45.08164" lon="6.16044">
        <ele>1382.7</ele>
        <time>2022-09-03T13:36:52Z</time>
      </trkpt>
      <trkpt lat="45.0816" lon="6.16035">
        <ele>1383.9</ele>
        <time>2022-09-03T13:36:58Z</time>
      </trkpt>
      <trkpt lat="45.08159" lon="6.16025">
        <ele>1385.7</ele>
        <time>2022-09-03T13:37:05Z</time>
      </trkpt>
      <trkpt lat="45.08156" lon="6.16016">
        <ele>1386.9</ele>
        <time>2022-09-03T13:37:14Z</time>
      </trkpt>
      <trkpt lat="45.08155" lon="6.16006">
        <ele>1388.6</ele>
        <time>2022-09-03T13:37:19Z</time>
      </trkpt>
      <trkpt lat="45.0815" lon="6.15997">
        <ele>1389.6</ele>
        <time>2022-09-03T13:37:26Z</time>
      </trkpt>
      <trkpt lat="45.08148" lon="6.15988">
        <ele>1391.6</ele>
        <time>2022-09-03T13:37:32Z</time>
      </trkpt>
      <trkpt lat="45.08141" lon="6.15978">
        <ele>1392.8</ele>
        <time>2022-09-03T13:37:37Z</time>
      </trkpt>
      <trkpt lat="45.08136" lon="6.1597">
        <ele>1393.9</ele>
        <time>2022-09-03T13:37:42Z</time>
      </trkpt>
      <trkpt lat="45.0813" lon="6.15963">
        <ele>1394.4</ele>
        <time>2022-09-03T13:37:48Z</time>
      </trkpt>
      <trkpt lat="45.08124" lon="6.15957">
        <ele>1394.6</ele>
        <time>2022-09-03T13:37:54Z</time>
      </trkpt>
      <trkpt lat="45.0812" lon="6.15949">
        <ele>1395.7</ele>
        <time>2022-09-03T13:38:00Z</time>
      </trkpt>
      <trkpt lat="45.08114" lon="6.15944">
        <ele>1395.6</ele>
        <time>2022-09-03T13:38:08Z</time>
      </trkpt>
      <trkpt lat="45.08105" lon="6.15947">
        <ele>1392.9</ele>
        <time>2022-09-03T13:38:35Z</time>
      </trkpt>
      <trkpt lat="45.08099" lon="6.15938">
        <ele>1393.7</ele>
        <time>2022-09-03T13:38:48Z</time>
      </trkpt>
      <trkpt lat="45.08094" lon="6.15933">
        <ele>1393.7</ele>
        <time>2022-09-03T13:38:53Z</time>
      </trkpt>
      <trkpt lat="45.08087" lon="6.15929">
        <ele>1393</ele>
        <time>2022-09-03T13:38:58Z</time>
      </trkpt>
      <trkpt lat="45.08081" lon="6.15923">
        <ele>1393</ele>
        <time>2022-09-03T13:39:04Z</time>
      </trkpt>
      <trkpt lat="45.08075" lon="6.15918">
        <ele>1392.8</ele>
        <time>2022-09-03T13:39:09Z</time>
      </trkpt>
      <trkpt lat="45.08068" lon="6.15912">
        <ele>1393</ele>
        <time>2022-09-03T13:39:14Z</time>
      </trkpt>
      <trkpt lat="45.08062" lon="6.15908">
        <ele>1392.9</ele>
        <time>2022-09-03T13:39:20Z</time>
      </trkpt>
      <trkpt lat="45.08056" lon="6.15901">
        <ele>1393.8</ele>
        <time>2022-09-03T13:39:26Z</time>
      </trkpt>
      <trkpt lat="45.08051" lon="6.15896">
        <ele>1394.2</ele>
        <time>2022-09-03T13:39:33Z</time>
      </trkpt>
      <trkpt lat="45.08045" lon="6.15889">
        <ele>1395.1</ele>
        <time>2022-09-03T13:39:40Z</time>
      </trkpt>
      <trkpt lat="45.08039" lon="6.15884">
        <ele>1395.3</ele>
        <time>2022-09-03T13:39:46Z</time>
      </trkpt>
      <trkpt lat="45.08034" lon="6.15876">
        <ele>1396.6</ele>
        <time>2022-09-03T13:39:53Z</time>
      </trkpt>
      <trkpt lat="45.08029" lon="6.15868">
        <ele>1398</ele>
        <time>2022-09-03T13:39:58Z</time>
      </trkpt>
      <trkpt lat="45.08022" lon="6.15864">
        <ele>1397.6</ele>
        <time>2022-09-03T13:40:05Z</time>
      </trkpt>
      <trkpt lat="45.08015" lon="6.15859">
        <ele>1397.5</ele>
        <time>2022-09-03T13:40:10Z</time>
      </trkpt>
      <trkpt lat="45.08009" lon="6.15855">
        <ele>1397.4</ele>
        <time>2022-09-03T13:40:15Z</time>
      </trkpt>
      <trkpt lat="45.08001" lon="6.15851">
        <ele>1396.7</ele>
        <time>2022-09-03T13:40:20Z</time>
      </trkpt>
      <trkpt lat="45.07992" lon="6.15846">
        <ele>1396.6</ele>
        <time>2022-09-03T13:40:25Z</time>
      </trkpt>
      <trkpt lat="45.07985" lon="6.15841">
        <ele>1396.9</ele>
        <time>2022-09-03T13:40:30Z</time>
      </trkpt>
      <trkpt lat="45.07979" lon="6.15835">
        <ele>1397.7</ele>
        <time>2022-09-03T13:40:37Z</time>
      </trkpt>
      <trkpt lat="45.07974" lon="6.1583">
        <ele>1398.5</ele>
        <time>2022-09-03T13:40:43Z</time>
      </trkpt>
      <trkpt lat="45.07968" lon="6.15823">
        <ele>1400</ele>
        <time>2022-09-03T13:40:50Z</time>
      </trkpt>
      <trkpt lat="45.0796" lon="6.15817">
        <ele>1400.7</ele>
        <time>2022-09-03T13:40:55Z</time>
      </trkpt>
      <trkpt lat="45.07954" lon="6.15807">
        <ele>1403.2</ele>
        <time>2022-09-03T13:41:00Z</time>
      </trkpt>
      <trkpt lat="45.07949" lon="6.158">
        <ele>1404.7</ele>
        <time>2022-09-03T13:41:05Z</time>
      </trkpt>
      <trkpt lat="45.07942" lon="6.15794">
        <ele>1405.5</ele>
        <time>2022-09-03T13:41:10Z</time>
      </trkpt>
      <trkpt lat="45.07936" lon="6.15789">
        <ele>1406.2</ele>
        <time>2022-09-03T13:41:15Z</time>
      </trkpt>
      <trkpt lat="45.07929" lon="6.15786">
        <ele>1405.9</ele>
        <time>2022-09-03T13:41:20Z</time>
      </trkpt>
      <trkpt lat="45.07923" lon="6.15784">
        <ele>1405.4</ele>
        <time>2022-09-03T13:41:26Z</time>
      </trkpt>
      <trkpt lat="45.07915" lon="6.15782">
        <ele>1404.6</ele>
        <time>2022-09-03T13:41:31Z</time>
      </trkpt>
      <trkpt lat="45.07909" lon="6.15777">
        <ele>1405.5</ele>
        <time>2022-09-03T13:41:38Z</time>
      </trkpt>
      <trkpt lat="45.07902" lon="6.15772">
        <ele>1406.2</ele>
        <time>2022-09-03T13:41:43Z</time>
      </trkpt>
      <trkpt lat="45.07896" lon="6.15767">
        <ele>1407.2</ele>
        <time>2022-09-03T13:41:49Z</time>
      </trkpt>
      <trkpt lat="45.07889" lon="6.15765">
        <ele>1406.9</ele>
        <time>2022-09-03T13:41:55Z</time>
      </trkpt>
      <trkpt lat="45.07881" lon="6.15761">
        <ele>1407.2</ele>
        <time>2022-09-03T13:42:00Z</time>
      </trkpt>
      <trkpt lat="45.07875" lon="6.15756">
        <ele>1408.3</ele>
        <time>2022-09-03T13:42:05Z</time>
      </trkpt>
      <trkpt lat="45.07869" lon="6.15753">
        <ele>1408.6</ele>
        <time>2022-09-03T13:42:11Z</time>
      </trkpt>
      <trkpt lat="45.07863" lon="6.1575">
        <ele>1408.9</ele>
        <time>2022-09-03T13:42:16Z</time>
      </trkpt>
      <trkpt lat="45.07856" lon="6.15747">
        <ele>1409</ele>
        <time>2022-09-03T13:42:21Z</time>
      </trkpt>
      <trkpt lat="45.07849" lon="6.15744">
        <ele>1409</ele>
        <time>2022-09-03T13:42:26Z</time>
      </trkpt>
      <trkpt lat="45.07841" lon="6.15744">
        <ele>1408</ele>
        <time>2022-09-03T13:42:32Z</time>
      </trkpt>
      <trkpt lat="45.07836" lon="6.15752">
        <ele>1404.6</ele>
        <time>2022-09-03T13:43:15Z</time>
      </trkpt>
      <trkpt lat="45.07835" lon="6.15743">
        <ele>1407.5</ele>
        <time>2022-09-03T13:43:28Z</time>
      </trkpt>
      <trkpt lat="45.07827" lon="6.1574">
        <ele>1408</ele>
        <time>2022-09-03T13:43:33Z</time>
      </trkpt>
      <trkpt lat="45.07821" lon="6.15736">
        <ele>1409</ele>
        <time>2022-09-03T13:43:39Z</time>
      </trkpt>
      <trkpt lat="45.07815" lon="6.15734">
        <ele>1409.4</ele>
        <time>2022-09-03T13:43:44Z</time>
      </trkpt>
      <trkpt lat="45.07808" lon="6.15732">
        <ele>1409.6</ele>
        <time>2022-09-03T13:43:52Z</time>
      </trkpt>
      <trkpt lat="45.07802" lon="6.15734">
        <ele>1408.8</ele>
        <time>2022-09-03T13:44:01Z</time>
      </trkpt>
      <trkpt lat="45.07796" lon="6.1574">
        <ele>1406.9</ele>
        <time>2022-09-03T13:44:12Z</time>
      </trkpt>
      <trkpt lat="45.07789" lon="6.15741">
        <ele>1406.3</ele>
        <time>2022-09-03T13:44:21Z</time>
      </trkpt>
      <trkpt lat="45.07781" lon="6.15744">
        <ele>1405.3</ele>
        <time>2022-09-03T13:44:26Z</time>
      </trkpt>
      <trkpt lat="45.07774" lon="6.15748">
        <ele>1404.1</ele>
        <time>2022-09-03T13:44:31Z</time>
      </trkpt>
      <trkpt lat="45.07766" lon="6.1575">
        <ele>1403.4</ele>
        <time>2022-09-03T13:44:36Z</time>
      </trkpt>
      <trkpt lat="45.07759" lon="6.15752">
        <ele>1402.5</ele>
        <time>2022-09-03T13:44:42Z</time>
      </trkpt>
      <trkpt lat="45.07752" lon="6.15753">
        <ele>1402</ele>
        <time>2022-09-03T13:44:48Z</time>
      </trkpt>
      <trkpt lat="45.07745" lon="6.15752">
        <ele>1402.3</ele>
        <time>2022-09-03T13:44:53Z</time>
      </trkpt>
      <trkpt lat="45.07738" lon="6.15751">
        <ele>1402.5</ele>
        <time>2022-09-03T13:45:00Z</time>
      </trkpt>
      <trkpt lat="45.0773" lon="6.15752">
        <ele>1402.1</ele>
        <time>2022-09-03T13:45:05Z</time>
      </trkpt>
      <trkpt lat="45.07724" lon="6.15747">
        <ele>1403.4</ele>
        <time>2022-09-03T13:45:11Z</time>
      </trkpt>
      <trkpt lat="45.07711" lon="6.15749">
        <ele>1402.8</ele>
        <time>2022-09-03T13:45:38Z</time>
      </trkpt>
      <trkpt lat="45.07703" lon="6.15755">
        <ele>1400.8</ele>
        <time>2022-09-03T13:46:26Z</time>
      </trkpt>
      <trkpt lat="45.07697" lon="6.1575">
        <ele>1402.4</ele>
        <time>2022-09-03T13:46:33Z</time>
      </trkpt>
      <trkpt lat="45.07689" lon="6.15749">
        <ele>1402.5</ele>
        <time>2022-09-03T13:46:42Z</time>
      </trkpt>
      <trkpt lat="45.07682" lon="6.15749">
        <ele>1402.4</ele>
        <time>2022-09-03T13:46:49Z</time>
      </trkpt>
      <trkpt lat="45.07676" lon="6.15748">
        <ele>1402.6</ele>
        <time>2022-09-03T13:46:57Z</time>
      </trkpt>
      <trkpt lat="45.07669" lon="6.15746">
        <ele>1403</ele>
        <time>2022-09-03T13:47:04Z</time>
      </trkpt>
      <trkpt lat="45.07663" lon="6.15743">
        <ele>1403.5</ele>
        <time>2022-09-03T13:47:13Z</time>
      </trkpt>
      <trkpt lat="45.07656" lon="6.15742">
        <ele>1403.4</ele>
        <time>2022-09-03T13:47:22Z</time>
      </trkpt>
      <trkpt lat="45.0765" lon="6.15736">
        <ele>1404.6</ele>
        <time>2022-09-03T13:47:32Z</time>
      </trkpt>
      <trkpt lat="45.07643" lon="6.15733">
        <ele>1405</ele>
        <time>2022-09-03T13:47:42Z</time>
      </trkpt>
      <trkpt lat="45.07635" lon="6.15733">
        <ele>1404.6</ele>
        <time>2022-09-03T13:47:47Z</time>
      </trkpt>
      <trkpt lat="45.07629" lon="6.15728">
        <ele>1405.6</ele>
        <time>2022-09-03T13:47:53Z</time>
      </trkpt>
      <trkpt lat="45.07622" lon="6.15724">
        <ele>1406.3</ele>
        <time>2022-09-03T13:48:18Z</time>
      </trkpt>
      <trkpt lat="45.07615" lon="6.15722">
        <ele>1406.4</ele>
        <time>2022-09-03T13:48:26Z</time>
      </trkpt>
      <trkpt lat="45.07609" lon="6.15718">
        <ele>1407.2</ele>
        <time>2022-09-03T13:48:32Z</time>
      </trkpt>
      <trkpt lat="45.07602" lon="6.15717">
        <ele>1407.1</ele>
        <time>2022-09-03T13:48:39Z</time>
      </trkpt>
      <trkpt lat="45.07594" lon="6.15717">
        <ele>1406.8</ele>
        <time>2022-09-03T13:48:44Z</time>
      </trkpt>
      <trkpt lat="45.07587" lon="6.15716">
        <ele>1406.7</ele>
        <time>2022-09-03T13:48:49Z</time>
      </trkpt>
      <trkpt lat="45.0758" lon="6.15717">
        <ele>1405.6</ele>
        <time>2022-09-03T13:48:54Z</time>
      </trkpt>
      <trkpt lat="45.07573" lon="6.15713">
        <ele>1405</ele>
        <time>2022-09-03T13:49:02Z</time>
      </trkpt>
      <trkpt lat="45.07567" lon="6.15713">
        <ele>1403.7</ele>
        <time>2022-09-03T13:49:07Z</time>
      </trkpt>
      <trkpt lat="45.07559" lon="6.15714">
        <ele>1401.7</ele>
        <time>2022-09-03T13:49:15Z</time>
      </trkpt>
      <trkpt lat="45.07552" lon="6.15718">
        <ele>1399.2</ele>
        <time>2022-09-03T13:49:20Z</time>
      </trkpt>
      <trkpt lat="45.07545" lon="6.15721">
        <ele>1396.9</ele>
        <time>2022-09-03T13:49:25Z</time>
      </trkpt>
      <trkpt lat="45.07539" lon="6.15727">
        <ele>1394.1</ele>
        <time>2022-09-03T13:49:30Z</time>
      </trkpt>
      <trkpt lat="45.07533" lon="6.15731">
        <ele>1391.8</ele>
        <time>2022-09-03T13:49:38Z</time>
      </trkpt>
      <trkpt lat="45.07526" lon="6.15738">
        <ele>1388.5</ele>
        <time>2022-09-03T13:49:43Z</time>
      </trkpt>
      <trkpt lat="45.07519" lon="6.15742">
        <ele>1386</ele>
        <time>2022-09-03T13:49:50Z</time>
      </trkpt>
      <trkpt lat="45.07513" lon="6.15749">
        <ele>1383</ele>
        <time>2022-09-03T13:49:55Z</time>
      </trkpt>
      <trkpt lat="45.07506" lon="6.15753">
        <ele>1380.4</ele>
        <time>2022-09-03T13:50:00Z</time>
      </trkpt>
      <trkpt lat="45.07499" lon="6.15757">
        <ele>1377.6</ele>
        <time>2022-09-03T13:50:06Z</time>
      </trkpt>
      <trkpt lat="45.07493" lon="6.15757">
        <ele>1376.2</ele>
        <time>2022-09-03T13:50:11Z</time>
      </trkpt>
      <trkpt lat="45.07485" lon="6.15754">
        <ele>1375.4</ele>
        <time>2022-09-03T13:50:16Z</time>
      </trkpt>
      <trkpt lat="45.07478" lon="6.15749">
        <ele>1375.2</ele>
        <time>2022-09-03T13:50:21Z</time>
      </trkpt>
      <trkpt lat="45.07472" lon="6.15743">
        <ele>1375.4</ele>
        <time>2022-09-03T13:50:27Z</time>
      </trkpt>
      <trkpt lat="45.07465" lon="6.15741">
        <ele>1374.3</ele>
        <time>2022-09-03T13:50:32Z</time>
      </trkpt>
      <trkpt lat="45.07457" lon="6.15739">
        <ele>1373</ele>
        <time>2022-09-03T13:50:37Z</time>
      </trkpt>
      <trkpt lat="45.07449" lon="6.15735">
        <ele>1372.2</ele>
        <time>2022-09-03T13:50:42Z</time>
      </trkpt>
      <trkpt lat="45.07443" lon="6.1573">
        <ele>1372.1</ele>
        <time>2022-09-03T13:50:48Z</time>
      </trkpt>
      <trkpt lat="45.07437" lon="6.15723">
        <ele>1372.6</ele>
        <time>2022-09-03T13:50:54Z</time>
      </trkpt>
      <trkpt lat="45.07431" lon="6.15716">
        <ele>1373.1</ele>
        <time>2022-09-03T13:51:01Z</time>
      </trkpt>
      <trkpt lat="45.07425" lon="6.15711">
        <ele>1373.1</ele>
        <time>2022-09-03T13:51:06Z</time>
      </trkpt>
      <trkpt lat="45.07419" lon="6.15708">
        <ele>1372.6</ele>
        <time>2022-09-03T13:51:11Z</time>
      </trkpt>
      <trkpt lat="45.0741" lon="6.15701">
        <ele>1372.4</ele>
        <time>2022-09-03T13:51:16Z</time>
      </trkpt>
      <trkpt lat="45.07404" lon="6.15697">
        <ele>1372</ele>
        <time>2022-09-03T13:51:22Z</time>
      </trkpt>
      <trkpt lat="45.07398" lon="6.15695">
        <ele>1371</ele>
        <time>2022-09-03T13:51:27Z</time>
      </trkpt>
      <trkpt lat="45.07392" lon="6.15688">
        <ele>1371.3</ele>
        <time>2022-09-03T13:52:00Z</time>
      </trkpt>
      <trkpt lat="45.07385" lon="6.15687">
        <ele>1369.8</ele>
        <time>2022-09-03T13:52:07Z</time>
      </trkpt>
      <trkpt lat="45.07378" lon="6.15685">
        <ele>1368.6</ele>
        <time>2022-09-03T13:52:12Z</time>
      </trkpt>
      <trkpt lat="45.07373" lon="6.15679">
        <ele>1368.7</ele>
        <time>2022-09-03T13:52:19Z</time>
      </trkpt>
      <trkpt lat="45.07366" lon="6.15679">
        <ele>1366.9</ele>
        <time>2022-09-03T13:52:25Z</time>
      </trkpt>
      <trkpt lat="45.07358" lon="6.15678">
        <ele>1365.1</ele>
        <time>2022-09-03T13:52:30Z</time>
      </trkpt>
      <trkpt lat="45.07349" lon="6.15676">
        <ele>1363.2</ele>
        <time>2022-09-03T13:52:35Z</time>
      </trkpt>
      <trkpt lat="45.07342" lon="6.15676">
        <ele>1361.4</ele>
        <time>2022-09-03T13:52:40Z</time>
      </trkpt>
      <trkpt lat="45.07334" lon="6.15676">
        <ele>1359.4</ele>
        <time>2022-09-03T13:52:45Z</time>
      </trkpt>
      <trkpt lat="45.07325" lon="6.15678">
        <ele>1357.1</ele>
        <time>2022-09-03T13:52:51Z</time>
      </trkpt>
      <trkpt lat="45.07318" lon="6.15675">
        <ele>1356.3</ele>
        <time>2022-09-03T13:52:57Z</time>
      </trkpt>
      <trkpt lat="45.07309" lon="6.15672">
        <ele>1355</ele>
        <time>2022-09-03T13:53:02Z</time>
      </trkpt>
      <trkpt lat="45.073" lon="6.15668">
        <ele>1354</ele>
        <time>2022-09-03T13:53:07Z</time>
      </trkpt>
      <trkpt lat="45.07293" lon="6.15667">
        <ele>1352.7</ele>
        <time>2022-09-03T13:53:12Z</time>
      </trkpt>
      <trkpt lat="45.07286" lon="6.15663">
        <ele>1352.2</ele>
        <time>2022-09-03T13:53:17Z</time>
      </trkpt>
      <trkpt lat="45.0728" lon="6.15658">
        <ele>1352.2</ele>
        <time>2022-09-03T13:53:22Z</time>
      </trkpt>
      <trkpt lat="45.07275" lon="6.15654">
        <ele>1352.1</ele>
        <time>2022-09-03T13:53:27Z</time>
      </trkpt>
      <trkpt lat="45.07268" lon="6.15649">
        <ele>1351.8</ele>
        <time>2022-09-03T13:53:32Z</time>
      </trkpt>
      <trkpt lat="45.07261" lon="6.15646">
        <ele>1351.1</ele>
        <time>2022-09-03T13:53:37Z</time>
      </trkpt>
      <trkpt lat="45.07257" lon="6.1564">
        <ele>1351.6</ele>
        <time>2022-09-03T13:53:42Z</time>
      </trkpt>
      <trkpt lat="45.0725" lon="6.15633">
        <ele>1351.7</ele>
        <time>2022-09-03T13:53:47Z</time>
      </trkpt>
      <trkpt lat="45.07244" lon="6.15628">
        <ele>1351.4</ele>
        <time>2022-09-03T13:53:54Z</time>
      </trkpt>
      <trkpt lat="45.07239" lon="6.15623">
        <ele>1351.4</ele>
        <time>2022-09-03T13:53:59Z</time>
      </trkpt>
      <trkpt lat="45.07231" lon="6.15615">
        <ele>1351.4</ele>
        <time>2022-09-03T13:54:04Z</time>
      </trkpt>
      <trkpt lat="45.07226" lon="6.15605">
        <ele>1352.6</ele>
        <time>2022-09-03T13:54:09Z</time>
      </trkpt>
      <trkpt lat="45.0722" lon="6.15599">
        <ele>1352.6</ele>
        <time>2022-09-03T13:54:14Z</time>
      </trkpt>
      <trkpt lat="45.07213" lon="6.15596">
        <ele>1351.7</ele>
        <time>2022-09-03T13:54:51Z</time>
      </trkpt>
      <trkpt lat="45.07206" lon="6.156">
        <ele>1349.2</ele>
        <time>2022-09-03T13:54:57Z</time>
      </trkpt>
      <trkpt lat="45.07203" lon="6.15612">
        <ele>1345.7</ele>
        <time>2022-09-03T13:55:02Z</time>
      </trkpt>
      <trkpt lat="45.07198" lon="6.15606">
        <ele>1346</ele>
        <time>2022-09-03T13:55:11Z</time>
      </trkpt>
      <trkpt lat="45.07193" lon="6.15597">
        <ele>1346.9</ele>
        <time>2022-09-03T13:55:16Z</time>
      </trkpt>
      <trkpt lat="45.07188" lon="6.15585">
        <ele>1348.5</ele>
        <time>2022-09-03T13:55:21Z</time>
      </trkpt>
      <trkpt lat="45.07183" lon="6.15574">
        <ele>1349.3</ele>
        <time>2022-09-03T13:55:26Z</time>
      </trkpt>
      <trkpt lat="45.07179" lon="6.15565">
        <ele>1349.9</ele>
        <time>2022-09-03T13:55:31Z</time>
      </trkpt>
      <trkpt lat="45.07174" lon="6.1556">
        <ele>1349.7</ele>
        <time>2022-09-03T13:55:36Z</time>
      </trkpt>
      <trkpt lat="45.07167" lon="6.15556">
        <ele>1349</ele>
        <time>2022-09-03T13:55:42Z</time>
      </trkpt>
      <trkpt lat="45.07161" lon="6.15549">
        <ele>1349.1</ele>
        <time>2022-09-03T13:55:47Z</time>
      </trkpt>
      <trkpt lat="45.07157" lon="6.15541">
        <ele>1349.8</ele>
        <time>2022-09-03T13:55:52Z</time>
      </trkpt>
      <trkpt lat="45.07154" lon="6.15532">
        <ele>1350.8</ele>
        <time>2022-09-03T13:55:58Z</time>
      </trkpt>
      <trkpt lat="45.0715" lon="6.15521">
        <ele>1352</ele>
        <time>2022-09-03T13:56:03Z</time>
      </trkpt>
      <trkpt lat="45.07148" lon="6.15509">
        <ele>1353.8</ele>
        <time>2022-09-03T13:56:08Z</time>
      </trkpt>
      <trkpt lat="45.07151" lon="6.15499">
        <ele>1356.1</ele>
        <time>2022-09-03T13:57:34Z</time>
      </trkpt>
      <trkpt lat="45.07147" lon="6.15492">
        <ele>1355.9</ele>
        <time>2022-09-03T13:57:41Z</time>
      </trkpt>
      <trkpt lat="45.07143" lon="6.15484">
        <ele>1355.8</ele>
        <time>2022-09-03T13:57:47Z</time>
      </trkpt>
      <trkpt lat="45.07137" lon="6.15477">
        <ele>1355.3</ele>
        <time>2022-09-03T13:57:52Z</time>
      </trkpt>
      <trkpt lat="45.07136" lon="6.15467">
        <ele>1355.9</ele>
        <time>2022-09-03T13:57:58Z</time>
      </trkpt>
      <trkpt lat="45.07137" lon="6.15457">
        <ele>1357</ele>
        <time>2022-09-03T13:58:04Z</time>
      </trkpt>
      <trkpt lat="45.07137" lon="6.15446">
        <ele>1357.9</ele>
        <time>2022-09-03T13:58:10Z</time>
      </trkpt>
      <trkpt lat="45.07134" lon="6.15437">
        <ele>1358.2</ele>
        <time>2022-09-03T13:58:16Z</time>
      </trkpt>
      <trkpt lat="45.07126" lon="6.1543">
        <ele>1357.5</ele>
        <time>2022-09-03T13:58:21Z</time>
      </trkpt>
      <trkpt lat="45.07127" lon="6.15421">
        <ele>1358.4</ele>
        <time>2022-09-03T13:58:34Z</time>
      </trkpt>
      <trkpt lat="45.07121" lon="6.15415">
        <ele>1358.2</ele>
        <time>2022-09-03T13:58:46Z</time>
      </trkpt>
      <trkpt lat="45.07114" lon="6.15411">
        <ele>1357.9</ele>
        <time>2022-09-03T13:58:56Z</time>
      </trkpt>
      <trkpt lat="45.07107" lon="6.15407">
        <ele>1357.6</ele>
        <time>2022-09-03T13:59:03Z</time>
      </trkpt>
      <trkpt lat="45.07097" lon="6.15402">
        <ele>1357</ele>
        <time>2022-09-03T13:59:08Z</time>
      </trkpt>
      <trkpt lat="45.0709" lon="6.154">
        <ele>1356.4</ele>
        <time>2022-09-03T13:59:13Z</time>
      </trkpt>
      <trkpt lat="45.07083" lon="6.15394">
        <ele>1356.6</ele>
        <time>2022-09-03T13:59:33Z</time>
      </trkpt>
      <trkpt lat="45.07076" lon="6.15393">
        <ele>1355.7</ele>
        <time>2022-09-03T13:59:39Z</time>
      </trkpt>
      <trkpt lat="45.0707" lon="6.15389">
        <ele>1355.7</ele>
        <time>2022-09-03T13:59:45Z</time>
      </trkpt>
      <trkpt lat="45.07063" lon="6.1538">
        <ele>1356.4</ele>
        <time>2022-09-03T13:59:50Z</time>
      </trkpt>
      <trkpt lat="45.07056" lon="6.15374">
        <ele>1356.6</ele>
        <time>2022-09-03T13:59:55Z</time>
      </trkpt>
      <trkpt lat="45.07049" lon="6.15389">
        <ele>1352.6</ele>
        <time>2022-09-03T14:01:48Z</time>
      </trkpt>
      <trkpt lat="45.07053" lon="6.15377">
        <ele>1355.6</ele>
        <time>2022-09-03T14:02:20Z</time>
      </trkpt>
      <trkpt lat="45.0705" lon="6.15369">
        <ele>1356.7</ele>
        <time>2022-09-03T14:02:25Z</time>
      </trkpt>
      <trkpt lat="45.07043" lon="6.15366">
        <ele>1356.2</ele>
        <time>2022-09-03T14:02:31Z</time>
      </trkpt>
      <trkpt lat="45.07036" lon="6.15365">
        <ele>1355.4</ele>
        <time>2022-09-03T14:02:36Z</time>
      </trkpt>
      <trkpt lat="45.07029" lon="6.15366">
        <ele>1354.1</ele>
        <time>2022-09-03T14:02:41Z</time>
      </trkpt>
      <trkpt lat="45.07023" lon="6.15365">
        <ele>1353.4</ele>
        <time>2022-09-03T14:02:46Z</time>
      </trkpt>
      <trkpt lat="45.07015" lon="6.15364">
        <ele>1352.4</ele>
        <time>2022-09-03T14:02:58Z</time>
      </trkpt>
      <trkpt lat="45.07009" lon="6.15364">
        <ele>1351.5</ele>
        <time>2022-09-03T14:03:05Z</time>
      </trkpt>
      <trkpt lat="45.07001" lon="6.15366">
        <ele>1349.9</ele>
        <time>2022-09-03T14:03:11Z</time>
      </trkpt>
      <trkpt lat="45.06994" lon="6.15366">
        <ele>1348.3</ele>
        <time>2022-09-03T14:03:16Z</time>
      </trkpt>
      <trkpt lat="45.06986" lon="6.1537">
        <ele>1345.6</ele>
        <time>2022-09-03T14:03:21Z</time>
      </trkpt>
      <trkpt lat="45.06979" lon="6.15371">
        <ele>1343.8</ele>
        <time>2022-09-03T14:03:26Z</time>
      </trkpt>
      <trkpt lat="45.06973" lon="6.15374">
        <ele>1341.7</ele>
        <time>2022-09-03T14:03:31Z</time>
      </trkpt>
      <trkpt lat="45.06965" lon="6.15377">
        <ele>1339.2</ele>
        <time>2022-09-03T14:03:36Z</time>
      </trkpt>
      <trkpt lat="45.06958" lon="6.15379">
        <ele>1337.1</ele>
        <time>2022-09-03T14:03:41Z</time>
      </trkpt>
      <trkpt lat="45.06951" lon="6.15382">
        <ele>1334.7</ele>
        <time>2022-09-03T14:03:46Z</time>
      </trkpt>
      <trkpt lat="45.06942" lon="6.15385">
        <ele>1331.8</ele>
        <time>2022-09-03T14:03:51Z</time>
      </trkpt>
      <trkpt lat="45.06936" lon="6.15382">
        <ele>1331</ele>
        <time>2022-09-03T14:04:03Z</time>
      </trkpt>
      <trkpt lat="45.06928" lon="6.15387">
        <ele>1327.9</ele>
        <time>2022-09-03T14:04:08Z</time>
      </trkpt>
      <trkpt lat="45.0692" lon="6.15389">
        <ele>1325.5</ele>
        <time>2022-09-03T14:04:13Z</time>
      </trkpt>
      <trkpt lat="45.06912" lon="6.1539">
        <ele>1323.4</ele>
        <time>2022-09-03T14:04:20Z</time>
      </trkpt>
      <trkpt lat="45.06905" lon="6.15388">
        <ele>1322.5</ele>
        <time>2022-09-03T14:04:26Z</time>
      </trkpt>
      <trkpt lat="45.06897" lon="6.15385">
        <ele>1321.6</ele>
        <time>2022-09-03T14:04:31Z</time>
      </trkpt>
      <trkpt lat="45.0689" lon="6.15384">
        <ele>1320.4</ele>
        <time>2022-09-03T14:04:36Z</time>
      </trkpt>
      <trkpt lat="45.06884" lon="6.15381">
        <ele>1320.1</ele>
        <time>2022-09-03T14:04:42Z</time>
      </trkpt>
      <trkpt lat="45.06877" lon="6.15377">
        <ele>1319.8</ele>
        <time>2022-09-03T14:04:48Z</time>
      </trkpt>
      <trkpt lat="45.0687" lon="6.15373">
        <ele>1319.6</ele>
        <time>2022-09-03T14:04:53Z</time>
      </trkpt>
      <trkpt lat="45.06863" lon="6.15368">
        <ele>1319.8</ele>
        <time>2022-09-03T14:04:58Z</time>
      </trkpt>
      <trkpt lat="45.06855" lon="6.15364">
        <ele>1319.6</ele>
        <time>2022-09-03T14:05:03Z</time>
      </trkpt>
      <trkpt lat="45.06848" lon="6.1536">
        <ele>1319.6</ele>
        <time>2022-09-03T14:05:08Z</time>
      </trkpt>
      <trkpt lat="45.0684" lon="6.15356">
        <ele>1319.5</ele>
        <time>2022-09-03T14:05:13Z</time>
      </trkpt>
      <trkpt lat="45.06833" lon="6.15354">
        <ele>1319</ele>
        <time>2022-09-03T14:05:18Z</time>
      </trkpt>
      <trkpt lat="45.06825" lon="6.15354">
        <ele>1317.3</ele>
        <time>2022-09-03T14:05:23Z</time>
      </trkpt>
      <trkpt lat="45.06818" lon="6.15351">
        <ele>1316.8</ele>
        <time>2022-09-03T14:05:28Z</time>
      </trkpt>
      <trkpt lat="45.06811" lon="6.15351">
        <ele>1315.3</ele>
        <time>2022-09-03T14:05:33Z</time>
      </trkpt>
      <trkpt lat="45.06804" lon="6.1535">
        <ele>1314.1</ele>
        <time>2022-09-03T14:05:38Z</time>
      </trkpt>
      <trkpt lat="45.06797" lon="6.15351">
        <ele>1312.2</ele>
        <time>2022-09-03T14:05:43Z</time>
      </trkpt>
      <trkpt lat="45.0679" lon="6.1535">
        <ele>1311</ele>
        <time>2022-09-03T14:05:48Z</time>
      </trkpt>
      <trkpt lat="45.06784" lon="6.1535">
        <ele>1309.7</ele>
        <time>2022-09-03T14:05:53Z</time>
      </trkpt>
      <trkpt lat="45.06776" lon="6.15351">
        <ele>1307.7</ele>
        <time>2022-09-03T14:05:59Z</time>
      </trkpt>
      <trkpt lat="45.06769" lon="6.15351">
        <ele>1306.2</ele>
        <time>2022-09-03T14:06:04Z</time>
      </trkpt>
      <trkpt lat="45.06762" lon="6.15349">
        <ele>1305.3</ele>
        <time>2022-09-03T14:06:09Z</time>
      </trkpt>
      <trkpt lat="45.06755" lon="6.15347">
        <ele>1304.3</ele>
        <time>2022-09-03T14:06:14Z</time>
      </trkpt>
      <trkpt lat="45.06749" lon="6.15342">
        <ele>1304.3</ele>
        <time>2022-09-03T14:06:19Z</time>
      </trkpt>
      <trkpt lat="45.06742" lon="6.1534">
        <ele>1302.7</ele>
        <time>2022-09-03T14:06:24Z</time>
      </trkpt>
      <trkpt lat="45.06736" lon="6.15337">
        <ele>1301.6</ele>
        <time>2022-09-03T14:06:29Z</time>
      </trkpt>
      <trkpt lat="45.06729" lon="6.15333">
        <ele>1300.5</ele>
        <time>2022-09-03T14:06:34Z</time>
      </trkpt>
      <trkpt lat="45.06723" lon="6.15328">
        <ele>1299.6</ele>
        <time>2022-09-03T14:06:39Z</time>
      </trkpt>
      <trkpt lat="45.06716" lon="6.15324">
        <ele>1298.2</ele>
        <time>2022-09-03T14:06:45Z</time>
      </trkpt>
      <trkpt lat="45.0671" lon="6.15318">
        <ele>1297.5</ele>
        <time>2022-09-03T14:06:52Z</time>
      </trkpt>
      <trkpt lat="45.06705" lon="6.1531">
        <ele>1297.6</ele>
        <time>2022-09-03T14:06:57Z</time>
      </trkpt>
      <trkpt lat="45.06699" lon="6.15306">
        <ele>1296.6</ele>
        <time>2022-09-03T14:07:02Z</time>
      </trkpt>
      <trkpt lat="45.0669" lon="6.15296">
        <ele>1296</ele>
        <time>2022-09-03T14:07:07Z</time>
      </trkpt>
      <trkpt lat="45.06682" lon="6.1529">
        <ele>1294.9</ele>
        <time>2022-09-03T14:07:12Z</time>
      </trkpt>
      <trkpt lat="45.06676" lon="6.15281">
        <ele>1295</ele>
        <time>2022-09-03T14:07:17Z</time>
      </trkpt>
      <trkpt lat="45.06669" lon="6.15275">
        <ele>1294.3</ele>
        <time>2022-09-03T14:07:22Z</time>
      </trkpt>
      <trkpt lat="45.06663" lon="6.1527">
        <ele>1293.2</ele>
        <time>2022-09-03T14:07:28Z</time>
      </trkpt>
      <trkpt lat="45.06657" lon="6.15265">
        <ele>1292</ele>
        <time>2022-09-03T14:07:33Z</time>
      </trkpt>
      <trkpt lat="45.06649" lon="6.15264">
        <ele>1289.1</ele>
        <time>2022-09-03T14:07:38Z</time>
      </trkpt>
      <trkpt lat="45.06643" lon="6.15263">
        <ele>1287</ele>
        <time>2022-09-03T14:07:43Z</time>
      </trkpt>
      <trkpt lat="45.06635" lon="6.15262">
        <ele>1284.1</ele>
        <time>2022-09-03T14:07:54Z</time>
      </trkpt>
      <trkpt lat="45.06627" lon="6.15259">
        <ele>1281.7</ele>
        <time>2022-09-03T14:07:59Z</time>
      </trkpt>
      <trkpt lat="45.0662" lon="6.15254">
        <ele>1280.1</ele>
        <time>2022-09-03T14:08:04Z</time>
      </trkpt>
      <trkpt lat="45.06614" lon="6.15247">
        <ele>1279.5</ele>
        <time>2022-09-03T14:08:10Z</time>
      </trkpt>
      <trkpt lat="45.06609" lon="6.15241">
        <ele>1279.2</ele>
        <time>2022-09-03T14:08:16Z</time>
      </trkpt>
      <trkpt lat="45.06606" lon="6.15233">
        <ele>1280.1</ele>
        <time>2022-09-03T14:08:22Z</time>
      </trkpt>
      <trkpt lat="45.06602" lon="6.15224">
        <ele>1280.9</ele>
        <time>2022-09-03T14:08:29Z</time>
      </trkpt>
      <trkpt lat="45.06596" lon="6.15219">
        <ele>1279.9</ele>
        <time>2022-09-03T14:08:44Z</time>
      </trkpt>
      <trkpt lat="45.06589" lon="6.15215">
        <ele>1278.4</ele>
        <time>2022-09-03T14:08:49Z</time>
      </trkpt>
      <trkpt lat="45.06582" lon="6.1521">
        <ele>1277</ele>
        <time>2022-09-03T14:08:55Z</time>
      </trkpt>
      <trkpt lat="45.06577" lon="6.15203">
        <ele>1276.9</ele>
        <time>2022-09-03T14:09:00Z</time>
      </trkpt>
      <trkpt lat="45.0657" lon="6.152">
        <ele>1274.9</ele>
        <time>2022-09-03T14:09:06Z</time>
      </trkpt>
      <trkpt lat="45.06564" lon="6.15194">
        <ele>1274.1</ele>
        <time>2022-09-03T14:09:12Z</time>
      </trkpt>
      <trkpt lat="45.06558" lon="6.1519">
        <ele>1272.8</ele>
        <time>2022-09-03T14:09:17Z</time>
      </trkpt>
      <trkpt lat="45.06548" lon="6.15179">
        <ele>1271.8</ele>
        <time>2022-09-03T14:09:22Z</time>
      </trkpt>
      <trkpt lat="45.06541" lon="6.15172">
        <ele>1270.8</ele>
        <time>2022-09-03T14:09:27Z</time>
      </trkpt>
      <trkpt lat="45.06535" lon="6.15169">
        <ele>1269.2</ele>
        <time>2022-09-03T14:09:32Z</time>
      </trkpt>
      <trkpt lat="45.06528" lon="6.15166">
        <ele>1267.3</ele>
        <time>2022-09-03T14:09:38Z</time>
      </trkpt>
      <trkpt lat="45.06523" lon="6.15161">
        <ele>1267</ele>
        <time>2022-09-03T14:09:44Z</time>
      </trkpt>
      <trkpt lat="45.06517" lon="6.15156">
        <ele>1266.3</ele>
        <time>2022-09-03T14:09:50Z</time>
      </trkpt>
      <trkpt lat="45.06511" lon="6.1515">
        <ele>1266.1</ele>
        <time>2022-09-03T14:09:56Z</time>
      </trkpt>
      <trkpt lat="45.06506" lon="6.1514">
        <ele>1267.7</ele>
        <time>2022-09-03T14:10:01Z</time>
      </trkpt>
      <trkpt lat="45.06501" lon="6.15134">
        <ele>1268.1</ele>
        <time>2022-09-03T14:10:06Z</time>
      </trkpt>
      <trkpt lat="45.06496" lon="6.15127">
        <ele>1268.6</ele>
        <time>2022-09-03T14:10:11Z</time>
      </trkpt>
      <trkpt lat="45.0649" lon="6.15122">
        <ele>1267.9</ele>
        <time>2022-09-03T14:10:16Z</time>
      </trkpt>
      <trkpt lat="45.06483" lon="6.15117">
        <ele>1266.5</ele>
        <time>2022-09-03T14:10:21Z</time>
      </trkpt>
      <trkpt lat="45.06476" lon="6.1512">
        <ele>1262.6</ele>
        <time>2022-09-03T14:10:27Z</time>
      </trkpt>
      <trkpt lat="45.0647" lon="6.15115">
        <ele>1261.5</ele>
        <time>2022-09-03T14:10:54Z</time>
      </trkpt>
      <trkpt lat="45.06464" lon="6.15109">
        <ele>1260.6</ele>
        <time>2022-09-03T14:11:00Z</time>
      </trkpt>
      <trkpt lat="45.06458" lon="6.15102">
        <ele>1259.8</ele>
        <time>2022-09-03T14:11:05Z</time>
      </trkpt>
      <trkpt lat="45.06451" lon="6.15092">
        <ele>1259.1</ele>
        <time>2022-09-03T14:11:10Z</time>
      </trkpt>
      <trkpt lat="45.06444" lon="6.15086">
        <ele>1257.1</ele>
        <time>2022-09-03T14:11:15Z</time>
      </trkpt>
      <trkpt lat="45.06437" lon="6.15082">
        <ele>1254.7</ele>
        <time>2022-09-03T14:11:21Z</time>
      </trkpt>
      <trkpt lat="45.06431" lon="6.15077">
        <ele>1253.2</ele>
        <time>2022-09-03T14:11:26Z</time>
      </trkpt>
      <trkpt lat="45.06425" lon="6.15072">
        <ele>1251.9</ele>
        <time>2022-09-03T14:11:31Z</time>
      </trkpt>
      <trkpt lat="45.06419" lon="6.15065">
        <ele>1251.3</ele>
        <time>2022-09-03T14:11:36Z</time>
      </trkpt>
      <trkpt lat="45.06414" lon="6.15057">
        <ele>1251.8</ele>
        <time>2022-09-03T14:11:42Z</time>
      </trkpt>
      <trkpt lat="45.06408" lon="6.15052">
        <ele>1251.3</ele>
        <time>2022-09-03T14:11:47Z</time>
      </trkpt>
      <trkpt lat="45.06405" lon="6.15043">
        <ele>1253.3</ele>
        <time>2022-09-03T14:11:55Z</time>
      </trkpt>
      <trkpt lat="45.06406" lon="6.15052">
        <ele>1250.5</ele>
        <time>2022-09-03T14:13:40Z</time>
      </trkpt>
      <trkpt lat="45.06399" lon="6.15053">
        <ele>1247.6</ele>
        <time>2022-09-03T14:13:54Z</time>
      </trkpt>
      <trkpt lat="45.06392" lon="6.15047">
        <ele>1247.1</ele>
        <time>2022-09-03T14:13:59Z</time>
      </trkpt>
      <trkpt lat="45.06388" lon="6.15041">
        <ele>1247.7</ele>
        <time>2022-09-03T14:14:06Z</time>
      </trkpt>
      <trkpt lat="45.06386" lon="6.1503">
        <ele>1251</ele>
        <time>2022-09-03T14:14:11Z</time>
      </trkpt>
      <trkpt lat="45.06378" lon="6.15032">
        <ele>1247.4</ele>
        <time>2022-09-03T14:14:30Z</time>
      </trkpt>
      <trkpt lat="45.06372" lon="6.1503">
        <ele>1245.9</ele>
        <time>2022-09-03T14:14:40Z</time>
      </trkpt>
      <trkpt lat="45.06365" lon="6.15027">
        <ele>1244.6</ele>
        <time>2022-09-03T14:14:47Z</time>
      </trkpt>
      <trkpt lat="45.0636" lon="6.1502">
        <ele>1245.4</ele>
        <time>2022-09-03T14:14:53Z</time>
      </trkpt>
      <trkpt lat="45.06353" lon="6.15017">
        <ele>1244.1</ele>
        <time>2022-09-03T14:15:00Z</time>
      </trkpt>
      <trkpt lat="45.06347" lon="6.15013">
        <ele>1243.6</ele>
        <time>2022-09-03T14:15:06Z</time>
      </trkpt>
      <trkpt lat="45.06341" lon="6.15008">
        <ele>1243.5</ele>
        <time>2022-09-03T14:15:13Z</time>
      </trkpt>
      <trkpt lat="45.06335" lon="6.15005">
        <ele>1242.6</ele>
        <time>2022-09-03T14:15:18Z</time>
      </trkpt>
      <trkpt lat="45.06327" lon="6.15003">
        <ele>1240.8</ele>
        <time>2022-09-03T14:15:24Z</time>
      </trkpt>
      <trkpt lat="45.06321" lon="6.15">
        <ele>1240</ele>
        <time>2022-09-03T14:15:29Z</time>
      </trkpt>
      <trkpt lat="45.06315" lon="6.14996">
        <ele>1239.5</ele>
        <time>2022-09-03T14:15:34Z</time>
      </trkpt>
      <trkpt lat="45.06309" lon="6.14992">
        <ele>1238.9</ele>
        <time>2022-09-03T14:15:39Z</time>
      </trkpt>
      <trkpt lat="45.06303" lon="6.14986">
        <ele>1239</ele>
        <time>2022-09-03T14:15:44Z</time>
      </trkpt>
      <trkpt lat="45.06297" lon="6.14981">
        <ele>1238.8</ele>
        <time>2022-09-03T14:15:50Z</time>
      </trkpt>
      <trkpt lat="45.0629" lon="6.14976">
        <ele>1238.3</ele>
        <time>2022-09-03T14:15:55Z</time>
      </trkpt>
      <trkpt lat="45.06282" lon="6.1497">
        <ele>1237.8</ele>
        <time>2022-09-03T14:16:00Z</time>
      </trkpt>
      <trkpt lat="45.06274" lon="6.14965">
        <ele>1237</ele>
        <time>2022-09-03T14:16:05Z</time>
      </trkpt>
      <trkpt lat="45.06268" lon="6.14961">
        <ele>1236.4</ele>
        <time>2022-09-03T14:16:10Z</time>
      </trkpt>
      <trkpt lat="45.06261" lon="6.14957">
        <ele>1235.5</ele>
        <time>2022-09-03T14:16:17Z</time>
      </trkpt>
      <trkpt lat="45.06255" lon="6.14955">
        <ele>1234.3</ele>
        <time>2022-09-03T14:16:22Z</time>
      </trkpt>
      <trkpt lat="45.06248" lon="6.14954">
        <ele>1232.7</ele>
        <time>2022-09-03T14:16:29Z</time>
      </trkpt>
      <trkpt lat="45.06241" lon="6.14953">
        <ele>1231.8</ele>
        <time>2022-09-03T14:16:34Z</time>
      </trkpt>
      <trkpt lat="45.06234" lon="6.14951">
        <ele>1231.2</ele>
        <time>2022-09-03T14:16:40Z</time>
      </trkpt>
      <trkpt lat="45.06227" lon="6.14952">
        <ele>1229.6</ele>
        <time>2022-09-03T14:16:46Z</time>
      </trkpt>
      <trkpt lat="45.06221" lon="6.14954">
        <ele>1227.9</ele>
        <time>2022-09-03T14:16:51Z</time>
      </trkpt>
      <trkpt lat="45.06214" lon="6.14954">
        <ele>1226.7</ele>
        <time>2022-09-03T14:16:58Z</time>
      </trkpt>
      <trkpt lat="45.06207" lon="6.14952">
        <ele>1226.1</ele>
        <time>2022-09-03T14:17:05Z</time>
      </trkpt>
      <trkpt lat="45.062" lon="6.14949">
        <ele>1225.8</ele>
        <time>2022-09-03T14:17:11Z</time>
      </trkpt>
      <trkpt lat="45.06194" lon="6.14945">
        <ele>1226.1</ele>
        <time>2022-09-03T14:17:16Z</time>
      </trkpt>
      <trkpt lat="45.06188" lon="6.1494">
        <ele>1226.6</ele>
        <time>2022-09-03T14:17:21Z</time>
      </trkpt>
      <trkpt lat="45.0618" lon="6.14938">
        <ele>1225.8</ele>
        <time>2022-09-03T14:17:27Z</time>
      </trkpt>
      <trkpt lat="45.06174" lon="6.14937">
        <ele>1225</ele>
        <time>2022-09-03T14:17:32Z</time>
      </trkpt>
      <trkpt lat="45.06166" lon="6.14933">
        <ele>1224.8</ele>
        <time>2022-09-03T14:17:37Z</time>
      </trkpt>
      <trkpt lat="45.0616" lon="6.14926">
        <ele>1225.5</ele>
        <time>2022-09-03T14:17:42Z</time>
      </trkpt>
      <trkpt lat="45.06154" lon="6.14919">
        <ele>1226.1</ele>
        <time>2022-09-03T14:17:47Z</time>
      </trkpt>
      <trkpt lat="45.06148" lon="6.14915">
        <ele>1225.7</ele>
        <time>2022-09-03T14:17:52Z</time>
      </trkpt>
      <trkpt lat="45.06141" lon="6.14912">
        <ele>1224.7</ele>
        <time>2022-09-03T14:17:57Z</time>
      </trkpt>
      <trkpt lat="45.06134" lon="6.14911">
        <ele>1223.2</ele>
        <time>2022-09-03T14:18:02Z</time>
      </trkpt>
      <trkpt lat="45.06127" lon="6.1491">
        <ele>1221.7</ele>
        <time>2022-09-03T14:18:09Z</time>
      </trkpt>
      <trkpt lat="45.06118" lon="6.14911">
        <ele>1219.2</ele>
        <time>2022-09-03T14:18:14Z</time>
      </trkpt>
      <trkpt lat="45.06111" lon="6.14911">
        <ele>1217.4</ele>
        <time>2022-09-03T14:18:19Z</time>
      </trkpt>
      <trkpt lat="45.06103" lon="6.14909">
        <ele>1215.9</ele>
        <time>2022-09-03T14:18:24Z</time>
      </trkpt>
      <trkpt lat="45.06096" lon="6.14907">
        <ele>1214.7</ele>
        <time>2022-09-03T14:18:52Z</time>
      </trkpt>
      <trkpt lat="45.06088" lon="6.14906">
        <ele>1213</ele>
        <time>2022-09-03T14:18:57Z</time>
      </trkpt>
      <trkpt lat="45.06082" lon="6.14902">
        <ele>1212.5</ele>
        <time>2022-09-03T14:19:02Z</time>
      </trkpt>
      <trkpt lat="45.06075" lon="6.149">
        <ele>1210.9</ele>
        <time>2022-09-03T14:19:07Z</time>
      </trkpt>
      <trkpt lat="45.06068" lon="6.14896">
        <ele>1209.9</ele>
        <time>2022-09-03T14:19:13Z</time>
      </trkpt>
      <trkpt lat="45.06061" lon="6.149">
        <ele>1206.8</ele>
        <time>2022-09-03T14:19:18Z</time>
      </trkpt>
      <trkpt lat="45.06054" lon="6.14902">
        <ele>1204.3</ele>
        <time>2022-09-03T14:19:24Z</time>
      </trkpt>
      <trkpt lat="45.06046" lon="6.14909">
        <ele>1200.4</ele>
        <time>2022-09-03T14:19:29Z</time>
      </trkpt>
      <trkpt lat="45.0604" lon="6.14913">
        <ele>1197.8</ele>
        <time>2022-09-03T14:19:37Z</time>
      </trkpt>
      <trkpt lat="45.06032" lon="6.14915">
        <ele>1195.2</ele>
        <time>2022-09-03T14:19:42Z</time>
      </trkpt>
      <trkpt lat="45.06026" lon="6.14918">
        <ele>1193.2</ele>
        <time>2022-09-03T14:19:51Z</time>
      </trkpt>
      <trkpt lat="45.06021" lon="6.14925">
        <ele>1192.3</ele>
        <time>2022-09-03T14:20:08Z</time>
      </trkpt>
      <trkpt lat="45.06016" lon="6.14933">
        <ele>1191.8</ele>
        <time>2022-09-03T14:20:13Z</time>
      </trkpt>
      <trkpt lat="45.06009" lon="6.14946">
        <ele>1191.7</ele>
        <time>2022-09-03T14:20:25Z</time>
      </trkpt>
      <trkpt lat="45.06002" lon="6.1495">
        <ele>1191.1</ele>
        <time>2022-09-03T14:20:32Z</time>
      </trkpt>
      <trkpt lat="45.05995" lon="6.14956">
        <ele>1194.1</ele>
        <time>2022-09-03T14:20:38Z</time>
      </trkpt>
      <trkpt lat="45.05988" lon="6.14955">
        <ele>1197.4</ele>
        <time>2022-09-03T14:20:56Z</time>
      </trkpt>
      <trkpt lat="45.05985" lon="6.14946">
        <ele>1197.2</ele>
        <time>2022-09-03T14:21:02Z</time>
      </trkpt>
      <trkpt lat="45.05982" lon="6.14937">
        <ele>1196.8</ele>
        <time>2022-09-03T14:21:07Z</time>
      </trkpt>
      <trkpt lat="45.0598" lon="6.14928">
        <ele>1195.9</ele>
        <time>2022-09-03T14:21:12Z</time>
      </trkpt>
      <trkpt lat="45.05977" lon="6.1492">
        <ele>1195.5</ele>
        <time>2022-09-03T14:21:18Z</time>
      </trkpt>
      <trkpt lat="45.05973" lon="6.14912">
        <ele>1196.5</ele>
        <time>2022-09-03T14:21:23Z</time>
      </trkpt>
      <trkpt lat="45.05969" lon="6.14903">
        <ele>1197.9</ele>
        <time>2022-09-03T14:21:28Z</time>
      </trkpt>
      <trkpt lat="45.05962" lon="6.14896">
        <ele>1199.9</ele>
        <time>2022-09-03T14:21:33Z</time>
      </trkpt>
      <trkpt lat="45.05955" lon="6.1489">
        <ele>1201.4</ele>
        <time>2022-09-03T14:21:38Z</time>
      </trkpt>
      <trkpt lat="45.0595" lon="6.14882">
        <ele>1201.8</ele>
        <time>2022-09-03T14:21:44Z</time>
      </trkpt>
      <trkpt lat="45.05944" lon="6.14876">
        <ele>1202.2</ele>
        <time>2022-09-03T14:21:49Z</time>
      </trkpt>
      <trkpt lat="45.05938" lon="6.14868">
        <ele>1201.9</ele>
        <time>2022-09-03T14:21:54Z</time>
      </trkpt>
      <trkpt lat="45.05933" lon="6.14861">
        <ele>1201.2</ele>
        <time>2022-09-03T14:21:59Z</time>
      </trkpt>
      <trkpt lat="45.05927" lon="6.14856">
        <ele>1200.6</ele>
        <time>2022-09-03T14:22:04Z</time>
      </trkpt>
      <trkpt lat="45.05922" lon="6.14849">
        <ele>1199.2</ele>
        <time>2022-09-03T14:22:09Z</time>
      </trkpt>
      <trkpt lat="45.05915" lon="6.14844">
        <ele>1198.7</ele>
        <time>2022-09-03T14:22:14Z</time>
      </trkpt>
      <trkpt lat="45.05909" lon="6.14839">
        <ele>1200.3</ele>
        <time>2022-09-03T14:22:19Z</time>
      </trkpt>
      <trkpt lat="45.05902" lon="6.14833">
        <ele>1202</ele>
        <time>2022-09-03T14:22:24Z</time>
      </trkpt>
      <trkpt lat="45.05895" lon="6.14829">
        <ele>1204.3</ele>
        <time>2022-09-03T14:22:30Z</time>
      </trkpt>
      <trkpt lat="45.05889" lon="6.14825">
        <ele>1206.1</ele>
        <time>2022-09-03T14:22:36Z</time>
      </trkpt>
      <trkpt lat="45.05883" lon="6.14819">
        <ele>1207.3</ele>
        <time>2022-09-03T14:22:41Z</time>
      </trkpt>
      <trkpt lat="45.05877" lon="6.14815">
        <ele>1208.9</ele>
        <time>2022-09-03T14:22:46Z</time>
      </trkpt>
      <trkpt lat="45.05882" lon="6.14823">
        <ele>1208.9</ele>
        <time>2022-09-03T14:22:59Z</time>
      </trkpt>
      <trkpt lat="45.05883" lon="6.14832">
        <ele>1210.8</ele>
        <time>2022-09-03T14:23:05Z</time>
      </trkpt>
      <trkpt lat="45.05889" lon="6.14838">
        <ele>1209.6</ele>
        <time>2022-09-03T14:23:12Z</time>
      </trkpt>
      <trkpt lat="45.05895" lon="6.14842">
        <ele>1207.8</ele>
        <time>2022-09-03T14:23:17Z</time>
      </trkpt>
      <trkpt lat="45.059" lon="6.14852">
        <ele>1208.2</ele>
        <time>2022-09-03T14:23:22Z</time>
      </trkpt>
      <trkpt lat="45.05907" lon="6.14855">
        <ele>1205.7</ele>
        <time>2022-09-03T14:23:31Z</time>
      </trkpt>
      <trkpt lat="45.05912" lon="6.14861">
        <ele>1204.9</ele>
        <time>2022-09-03T14:23:37Z</time>
      </trkpt>
      <trkpt lat="45.05915" lon="6.14872">
        <ele>1206.5</ele>
        <time>2022-09-03T14:23:42Z</time>
      </trkpt>
      <trkpt lat="45.0592" lon="6.14878">
        <ele>1206.7</ele>
        <time>2022-09-03T14:23:47Z</time>
      </trkpt>
      <trkpt lat="45.05924" lon="6.14888">
        <ele>1208.4</ele>
        <time>2022-09-03T14:23:55Z</time>
      </trkpt>
      <trkpt lat="45.0593" lon="6.14895">
        <ele>1208.4</ele>
        <time>2022-09-03T14:24:01Z</time>
      </trkpt>
      <trkpt lat="45.05932" lon="6.14905">
        <ele>1209.8</ele>
        <time>2022-09-03T14:24:08Z</time>
      </trkpt>
      <trkpt lat="45.05937" lon="6.14911">
        <ele>1209.2</ele>
        <time>2022-09-03T14:24:16Z</time>
      </trkpt>
      <trkpt lat="45.05943" lon="6.14916">
        <ele>1207.8</ele>
        <time>2022-09-03T14:24:22Z</time>
      </trkpt>
      <trkpt lat="45.05946" lon="6.14925">
        <ele>1209.2</ele>
        <time>2022-09-03T14:24:40Z</time>
      </trkpt>
      <trkpt lat="45.05946" lon="6.14915">
        <ele>1206.5</ele>
        <time>2022-09-03T14:25:11Z</time>
      </trkpt>
      <trkpt lat="45.05937" lon="6.14911">
        <ele>1209.2</ele>
        <time>2022-09-03T14:25:16Z</time>
      </trkpt>
      <trkpt lat="45.0593" lon="6.14906">
        <ele>1210.7</ele>
        <time>2022-09-03T14:25:22Z</time>
      </trkpt>
      <trkpt lat="45.05929" lon="6.14896">
        <ele>1208.9</ele>
        <time>2022-09-03T14:25:29Z</time>
      </trkpt>
      <trkpt lat="45.05922" lon="6.14892">
        <ele>1209.8</ele>
        <time>2022-09-03T14:25:36Z</time>
      </trkpt>
      <trkpt lat="45.05919" lon="6.14883">
        <ele>1208.2</ele>
        <time>2022-09-03T14:25:42Z</time>
      </trkpt>
      <trkpt lat="45.05912" lon="6.14878">
        <ele>1209.6</ele>
        <time>2022-09-03T14:25:49Z</time>
      </trkpt>
      <trkpt lat="45.05907" lon="6.1487">
        <ele>1209.9</ele>
        <time>2022-09-03T14:25:55Z</time>
      </trkpt>
      <trkpt lat="45.05903" lon="6.14861">
        <ele>1209.3</ele>
        <time>2022-09-03T14:26:01Z</time>
      </trkpt>
      <trkpt lat="45.05897" lon="6.14856">
        <ele>1210.8</ele>
        <time>2022-09-03T14:26:07Z</time>
      </trkpt>
      <trkpt lat="45.05891" lon="6.14848">
        <ele>1211.5</ele>
        <time>2022-09-03T14:26:12Z</time>
      </trkpt>
      <trkpt lat="45.05887" lon="6.1484">
        <ele>1211.1</ele>
        <time>2022-09-03T14:26:18Z</time>
      </trkpt>
      <trkpt lat="45.05883" lon="6.14831">
        <ele>1210.5</ele>
        <time>2022-09-03T14:26:23Z</time>
      </trkpt>
      <trkpt lat="45.05879" lon="6.14822">
        <ele>1210</ele>
        <time>2022-09-03T14:26:29Z</time>
      </trkpt>
      <trkpt lat="45.05878" lon="6.14813">
        <ele>1207.9</ele>
        <time>2022-09-03T14:26:34Z</time>
      </trkpt>
      <trkpt lat="45.05877" lon="6.14803">
        <ele>1205.6</ele>
        <time>2022-09-03T14:26:40Z</time>
      </trkpt>
      <trkpt lat="45.05876" lon="6.14794">
        <ele>1203.5</ele>
        <time>2022-09-03T14:26:46Z</time>
      </trkpt>
      <trkpt lat="45.05873" lon="6.14785">
        <ele>1202.1</ele>
        <time>2022-09-03T14:26:53Z</time>
      </trkpt>
      <trkpt lat="45.05868" lon="6.14779">
        <ele>1202.3</ele>
        <time>2022-09-03T14:27:05Z</time>
      </trkpt>
      <trkpt lat="45.05873" lon="6.14785">
        <ele>1202.1</ele>
        <time>2022-09-03T14:27:41Z</time>
      </trkpt>
      <trkpt lat="45.05874" lon="6.14795">
        <ele>1204.6</ele>
        <time>2022-09-03T14:28:25Z</time>
      </trkpt>
      <trkpt lat="45.05868" lon="6.14801">
        <ele>1208.8</ele>
        <time>2022-09-03T14:28:32Z</time>
      </trkpt>
      <trkpt lat="45.05861" lon="6.14799">
        <ele>1211.1</ele>
        <time>2022-09-03T14:28:37Z</time>
      </trkpt>
      <trkpt lat="45.05857" lon="6.14791">
        <ele>1210.3</ele>
        <time>2022-09-03T14:28:45Z</time>
      </trkpt>
      <trkpt lat="45.05849" lon="6.14791">
        <ele>1213.5</ele>
        <time>2022-09-03T14:29:11Z</time>
      </trkpt>
      <trkpt lat="45.05841" lon="6.14784">
        <ele>1214.3</ele>
        <time>2022-09-03T14:29:32Z</time>
      </trkpt>
      <trkpt lat="45.05835" lon="6.1478">
        <ele>1215.2</ele>
        <time>2022-09-03T14:29:39Z</time>
      </trkpt>
      <trkpt lat="45.05829" lon="6.14774">
        <ele>1215.4</ele>
        <time>2022-09-03T14:29:48Z</time>
      </trkpt>
      <trkpt lat="45.05824" lon="6.14766">
        <ele>1214.7</ele>
        <time>2022-09-03T14:29:54Z</time>
      </trkpt>
      <trkpt lat="45.05818" lon="6.14762">
        <ele>1215.9</ele>
        <time>2022-09-03T14:29:59Z</time>
      </trkpt>
      <trkpt lat="45.05814" lon="6.14754">
        <ele>1214.9</ele>
        <time>2022-09-03T14:30:06Z</time>
      </trkpt>
      <trkpt lat="45.05808" lon="6.14747">
        <ele>1215</ele>
        <time>2022-09-03T14:30:11Z</time>
      </trkpt>
      <trkpt lat="45.05802" lon="6.14741">
        <ele>1215.3</ele>
        <time>2022-09-03T14:30:17Z</time>
      </trkpt>
      <trkpt lat="45.05795" lon="6.14735">
        <ele>1216.4</ele>
        <time>2022-09-03T14:30:22Z</time>
      </trkpt>
      <trkpt lat="45.05789" lon="6.1473">
        <ele>1217.5</ele>
        <time>2022-09-03T14:30:29Z</time>
      </trkpt>
      <trkpt lat="45.05782" lon="6.14726">
        <ele>1219.8</ele>
        <time>2022-09-03T14:30:37Z</time>
      </trkpt>
      <trkpt lat="45.05776" lon="6.14724">
        <ele>1222.3</ele>
        <time>2022-09-03T14:30:44Z</time>
      </trkpt>
      <trkpt lat="45.05768" lon="6.14723">
        <ele>1226.2</ele>
        <time>2022-09-03T14:30:50Z</time>
      </trkpt>
      <trkpt lat="45.05762" lon="6.14725">
        <ele>1230</ele>
        <time>2022-09-03T14:30:56Z</time>
      </trkpt>
      <trkpt lat="45.05754" lon="6.14724">
        <ele>1234</ele>
        <time>2022-09-03T14:31:03Z</time>
      </trkpt>
      <trkpt lat="45.05749" lon="6.14717">
        <ele>1234.7</ele>
        <time>2022-09-03T14:31:09Z</time>
      </trkpt>
      <trkpt lat="45.05742" lon="6.14712">
        <ele>1234.8</ele>
        <time>2022-09-03T14:31:17Z</time>
      </trkpt>
      <trkpt lat="45.05736" lon="6.14709">
        <ele>1235.3</ele>
        <time>2022-09-03T14:31:27Z</time>
      </trkpt>
      <trkpt lat="45.0573" lon="6.14704">
        <ele>1235.2</ele>
        <time>2022-09-03T14:31:39Z</time>
      </trkpt>
      <trkpt lat="45.05727" lon="6.14694">
        <ele>1233.3</ele>
        <time>2022-09-03T14:31:45Z</time>
      </trkpt>
      <trkpt lat="45.05722" lon="6.14687">
        <ele>1232.4</ele>
        <time>2022-09-03T14:31:50Z</time>
      </trkpt>
      <trkpt lat="45.0572" lon="6.14678">
        <ele>1230.5</ele>
        <time>2022-09-03T14:31:56Z</time>
      </trkpt>
      <trkpt lat="45.05715" lon="6.14671">
        <ele>1229.6</ele>
        <time>2022-09-03T14:32:02Z</time>
      </trkpt>
      <trkpt lat="45.05709" lon="6.1467">
        <ele>1230.3</ele>
        <time>2022-09-03T14:32:08Z</time>
      </trkpt>
      <trkpt lat="45.05703" lon="6.14673">
        <ele>1232</ele>
        <time>2022-09-03T14:32:16Z</time>
      </trkpt>
      <trkpt lat="45.05696" lon="6.14671">
        <ele>1232.6</ele>
        <time>2022-09-03T14:32:25Z</time>
      </trkpt>
      <trkpt lat="45.05689" lon="6.14669">
        <ele>1233.2</ele>
        <time>2022-09-03T14:32:34Z</time>
      </trkpt>
      <trkpt lat="45.05688" lon="6.14659">
        <ele>1229.8</ele>
        <time>2022-09-03T14:32:40Z</time>
      </trkpt>
      <trkpt lat="45.05688" lon="6.14648">
        <ele>1225.7</ele>
        <time>2022-09-03T14:32:45Z</time>
      </trkpt>
      <trkpt lat="45.05682" lon="6.14628">
        <ele>1219.6</ele>
        <time>2022-09-03T14:32:50Z</time>
      </trkpt>
      <trkpt lat="45.05675" lon="6.14615">
        <ele>1216.6</ele>
        <time>2022-09-03T14:32:55Z</time>
      </trkpt>
      <trkpt lat="45.05672" lon="6.14605">
        <ele>1213.9</ele>
        <time>2022-09-03T14:33:00Z</time>
      </trkpt>
      <trkpt lat="45.05666" lon="6.14598">
        <ele>1213.1</ele>
        <time>2022-09-03T14:33:06Z</time>
      </trkpt>
      <trkpt lat="45.05659" lon="6.14591">
        <ele>1212.3</ele>
        <time>2022-09-03T14:33:11Z</time>
      </trkpt>
      <trkpt lat="45.05654" lon="6.14583">
        <ele>1210.7</ele>
        <time>2022-09-03T14:33:18Z</time>
      </trkpt>
      <trkpt lat="45.05648" lon="6.14577">
        <ele>1209.4</ele>
        <time>2022-09-03T14:33:26Z</time>
      </trkpt>
      <trkpt lat="45.05642" lon="6.14573">
        <ele>1209</ele>
        <time>2022-09-03T14:33:31Z</time>
      </trkpt>
      <trkpt lat="45.05635" lon="6.14571">
        <ele>1209.8</ele>
        <time>2022-09-03T14:33:38Z</time>
      </trkpt>
      <trkpt lat="45.05628" lon="6.14569">
        <ele>1210.7</ele>
        <time>2022-09-03T14:33:44Z</time>
      </trkpt>
      <trkpt lat="45.05621" lon="6.14567">
        <ele>1211.5</ele>
        <time>2022-09-03T14:33:51Z</time>
      </trkpt>
      <trkpt lat="45.05614" lon="6.14568">
        <ele>1213.7</ele>
        <time>2022-09-03T14:33:56Z</time>
      </trkpt>
      <trkpt lat="45.05608" lon="6.14569">
        <ele>1215.6</ele>
        <time>2022-09-03T14:34:01Z</time>
      </trkpt>
      <trkpt lat="45.056" lon="6.1457">
        <ele>1218</ele>
        <time>2022-09-03T14:34:08Z</time>
      </trkpt>
      <trkpt lat="45.05592" lon="6.14573">
        <ele>1221.1</ele>
        <time>2022-09-03T14:34:13Z</time>
      </trkpt>
      <trkpt lat="45.05584" lon="6.14575">
        <ele>1223.7</ele>
        <time>2022-09-03T14:34:18Z</time>
      </trkpt>
      <trkpt lat="45.05577" lon="6.14576">
        <ele>1226</ele>
        <time>2022-09-03T14:34:25Z</time>
      </trkpt>
      <trkpt lat="45.05572" lon="6.14569">
        <ele>1224.7</ele>
        <time>2022-09-03T14:34:32Z</time>
      </trkpt>
      <trkpt lat="45.05565" lon="6.14565">
        <ele>1225.1</ele>
        <time>2022-09-03T14:34:37Z</time>
      </trkpt>
      <trkpt lat="45.05558" lon="6.14562">
        <ele>1225.8</ele>
        <time>2022-09-03T14:34:43Z</time>
      </trkpt>
      <trkpt lat="45.05552" lon="6.14558">
        <ele>1226</ele>
        <time>2022-09-03T14:34:59Z</time>
      </trkpt>
      <trkpt lat="45.05546" lon="6.14553">
        <ele>1225.7</ele>
        <time>2022-09-03T14:35:05Z</time>
      </trkpt>
      <trkpt lat="45.05538" lon="6.14549">
        <ele>1226.4</ele>
        <time>2022-09-03T14:35:11Z</time>
      </trkpt>
      <trkpt lat="45.05532" lon="6.14546">
        <ele>1226.9</ele>
        <time>2022-09-03T14:35:16Z</time>
      </trkpt>
      <trkpt lat="45.05525" lon="6.14544">
        <ele>1228.1</ele>
        <time>2022-09-03T14:35:22Z</time>
      </trkpt>
      <trkpt lat="45.05518" lon="6.14539">
        <ele>1228.2</ele>
        <time>2022-09-03T14:35:28Z</time>
      </trkpt>
      <trkpt lat="45.05511" lon="6.14538">
        <ele>1229.7</ele>
        <time>2022-09-03T14:35:52Z</time>
      </trkpt>
      <trkpt lat="45.05505" lon="6.14533">
        <ele>1229.5</ele>
        <time>2022-09-03T14:35:57Z</time>
      </trkpt>
      <trkpt lat="45.05498" lon="6.14526">
        <ele>1228.5</ele>
        <time>2022-09-03T14:36:02Z</time>
      </trkpt>
      <trkpt lat="45.05492" lon="6.14522">
        <ele>1227.4</ele>
        <time>2022-09-03T14:36:08Z</time>
      </trkpt>
      <trkpt lat="45.05485" lon="6.14519">
        <ele>1226.8</ele>
        <time>2022-09-03T14:36:24Z</time>
      </trkpt>
      <trkpt lat="45.05478" lon="6.14516">
        <ele>1226.2</ele>
        <time>2022-09-03T14:36:29Z</time>
      </trkpt>
      <trkpt lat="45.0547" lon="6.14511">
        <ele>1225</ele>
        <time>2022-09-03T14:36:34Z</time>
      </trkpt>
      <trkpt lat="45.05464" lon="6.14505">
        <ele>1223.3</ele>
        <time>2022-09-03T14:36:39Z</time>
      </trkpt>
      <trkpt lat="45.05457" lon="6.14499">
        <ele>1221.7</ele>
        <time>2022-09-03T14:36:46Z</time>
      </trkpt>
      <trkpt lat="45.0545" lon="6.14496">
        <ele>1221.1</ele>
        <time>2022-09-03T14:36:52Z</time>
      </trkpt>
      <trkpt lat="45.05444" lon="6.14489">
        <ele>1219.1</ele>
        <time>2022-09-03T14:36:57Z</time>
      </trkpt>
      <trkpt lat="45.05439" lon="6.14483">
        <ele>1217.6</ele>
        <time>2022-09-03T14:37:02Z</time>
      </trkpt>
      <trkpt lat="45.05434" lon="6.14475">
        <ele>1215.5</ele>
        <time>2022-09-03T14:37:07Z</time>
      </trkpt>
      <trkpt lat="45.05426" lon="6.14469">
        <ele>1214.7</ele>
        <time>2022-09-03T14:37:12Z</time>
      </trkpt>
      <trkpt lat="45.05418" lon="6.14465">
        <ele>1214.7</ele>
        <time>2022-09-03T14:37:17Z</time>
      </trkpt>
      <trkpt lat="45.05408" lon="6.14463">
        <ele>1216.4</ele>
        <time>2022-09-03T14:37:22Z</time>
      </trkpt>
      <trkpt lat="45.05402" lon="6.14458">
        <ele>1216.3</ele>
        <time>2022-09-03T14:37:27Z</time>
      </trkpt>
      <trkpt lat="45.05394" lon="6.14458">
        <ele>1218.2</ele>
        <time>2022-09-03T14:37:34Z</time>
      </trkpt>
      <trkpt lat="45.05386" lon="6.14455">
        <ele>1219.2</ele>
        <time>2022-09-03T14:37:39Z</time>
      </trkpt>
      <trkpt lat="45.05379" lon="6.14451">
        <ele>1219.7</ele>
        <time>2022-09-03T14:37:44Z</time>
      </trkpt>
      <trkpt lat="45.05372" lon="6.14445">
        <ele>1219.5</ele>
        <time>2022-09-03T14:37:49Z</time>
      </trkpt>
      <trkpt lat="45.05365" lon="6.14441">
        <ele>1220</ele>
        <time>2022-09-03T14:37:54Z</time>
      </trkpt>
      <trkpt lat="45.05357" lon="6.14439">
        <ele>1221.2</ele>
        <time>2022-09-03T14:37:59Z</time>
      </trkpt>
      <trkpt lat="45.0535" lon="6.14436">
        <ele>1222</ele>
        <time>2022-09-03T14:38:04Z</time>
      </trkpt>
      <trkpt lat="45.05342" lon="6.14428">
        <ele>1221.4</ele>
        <time>2022-09-03T14:38:09Z</time>
      </trkpt>
      <trkpt lat="45.05336" lon="6.1442">
        <ele>1220.4</ele>
        <time>2022-09-03T14:38:14Z</time>
      </trkpt>
      <trkpt lat="45.05328" lon="6.14413">
        <ele>1219.2</ele>
        <time>2022-09-03T14:38:19Z</time>
      </trkpt>
      <trkpt lat="45.05323" lon="6.14406">
        <ele>1217.4</ele>
        <time>2022-09-03T14:38:24Z</time>
      </trkpt>
      <trkpt lat="45.05315" lon="6.14402">
        <ele>1216.5</ele>
        <time>2022-09-03T14:38:29Z</time>
      </trkpt>
      <trkpt lat="45.05308" lon="6.14396">
        <ele>1214.9</ele>
        <time>2022-09-03T14:38:34Z</time>
      </trkpt>
      <trkpt lat="45.05305" lon="6.14388">
        <ele>1212.8</ele>
        <time>2022-09-03T14:38:41Z</time>
      </trkpt>
      <trkpt lat="45.05304" lon="6.14378">
        <ele>1210</ele>
        <time>2022-09-03T14:38:47Z</time>
      </trkpt>
      <trkpt lat="45.05302" lon="6.14369">
        <ele>1207.5</ele>
        <time>2022-09-03T14:38:53Z</time>
      </trkpt>
      <trkpt lat="45.05297" lon="6.14359">
        <ele>1204.7</ele>
        <time>2022-09-03T14:39:00Z</time>
      </trkpt>
      <trkpt lat="45.05291" lon="6.14354">
        <ele>1203.3</ele>
        <time>2022-09-03T14:39:05Z</time>
      </trkpt>
      <trkpt lat="45.05286" lon="6.14347">
        <ele>1201.3</ele>
        <time>2022-09-03T14:39:11Z</time>
      </trkpt>
      <trkpt lat="45.05281" lon="6.14341">
        <ele>1199.6</ele>
        <time>2022-09-03T14:39:17Z</time>
      </trkpt>
      <trkpt lat="45.05275" lon="6.14333">
        <ele>1197.2</ele>
        <time>2022-09-03T14:39:22Z</time>
      </trkpt>
      <trkpt lat="45.05271" lon="6.14323">
        <ele>1195.2</ele>
        <time>2022-09-03T14:39:27Z</time>
      </trkpt>
      <trkpt lat="45.05267" lon="6.14314">
        <ele>1193.5</ele>
        <time>2022-09-03T14:39:32Z</time>
      </trkpt>
      <trkpt lat="45.05262" lon="6.14307">
        <ele>1192.3</ele>
        <time>2022-09-03T14:39:37Z</time>
      </trkpt>
      <trkpt lat="45.05256" lon="6.14302">
        <ele>1191.6</ele>
        <time>2022-09-03T14:39:42Z</time>
      </trkpt>
      <trkpt lat="45.0525" lon="6.14294">
        <ele>1190.4</ele>
        <time>2022-09-03T14:39:47Z</time>
      </trkpt>
      <trkpt lat="45.05245" lon="6.14287">
        <ele>1189.1</ele>
        <time>2022-09-03T14:39:52Z</time>
      </trkpt>
      <trkpt lat="45.05238" lon="6.14282">
        <ele>1188.2</ele>
        <time>2022-09-03T14:39:57Z</time>
      </trkpt>
      <trkpt lat="45.05231" lon="6.1428">
        <ele>1187.8</ele>
        <time>2022-09-03T14:40:02Z</time>
      </trkpt>
      <trkpt lat="45.05224" lon="6.14274">
        <ele>1186.8</ele>
        <time>2022-09-03T14:40:08Z</time>
      </trkpt>
      <trkpt lat="45.05218" lon="6.14269">
        <ele>1185.9</ele>
        <time>2022-09-03T14:40:19Z</time>
      </trkpt>
      <trkpt lat="45.05211" lon="6.14268">
        <ele>1185.7</ele>
        <time>2022-09-03T14:40:24Z</time>
      </trkpt>
      <trkpt lat="45.05205" lon="6.14275">
        <ele>1186.7</ele>
        <time>2022-09-03T14:40:34Z</time>
      </trkpt>
      <trkpt lat="45.05198" lon="6.14273">
        <ele>1186.3</ele>
        <time>2022-09-03T14:40:49Z</time>
      </trkpt>
      <trkpt lat="45.05188" lon="6.14275">
        <ele>1186.5</ele>
        <time>2022-09-03T14:40:54Z</time>
      </trkpt>
      <trkpt lat="45.05181" lon="6.14278">
        <ele>1186.9</ele>
        <time>2022-09-03T14:41:01Z</time>
      </trkpt>
      <trkpt lat="45.05173" lon="6.14281">
        <ele>1187.2</ele>
        <time>2022-09-03T14:41:06Z</time>
      </trkpt>
      <trkpt lat="45.05166" lon="6.14285">
        <ele>1187.6</ele>
        <time>2022-09-03T14:41:11Z</time>
      </trkpt>
      <trkpt lat="45.05159" lon="6.14287">
        <ele>1187.9</ele>
        <time>2022-09-03T14:41:17Z</time>
      </trkpt>
      <trkpt lat="45.05151" lon="6.1429">
        <ele>1188.3</ele>
        <time>2022-09-03T14:41:23Z</time>
      </trkpt>
      <trkpt lat="45.05144" lon="6.14291">
        <ele>1188.4</ele>
        <time>2022-09-03T14:41:28Z</time>
      </trkpt>
      <trkpt lat="45.05138" lon="6.14297">
        <ele>1189.1</ele>
        <time>2022-09-03T14:41:33Z</time>
      </trkpt>
      <trkpt lat="45.05131" lon="6.143">
        <ele>1189.3</ele>
        <time>2022-09-03T14:41:40Z</time>
      </trkpt>
      <trkpt lat="45.05125" lon="6.143">
        <ele>1189.3</ele>
        <time>2022-09-03T14:41:46Z</time>
      </trkpt>
      <trkpt lat="45.05117" lon="6.14305">
        <ele>1189.7</ele>
        <time>2022-09-03T14:41:51Z</time>
      </trkpt>
      <trkpt lat="45.0511" lon="6.14307">
        <ele>1189.8</ele>
        <time>2022-09-03T14:41:56Z</time>
      </trkpt>
      <trkpt lat="45.05102" lon="6.14307">
        <ele>1189.7</ele>
        <time>2022-09-03T14:42:02Z</time>
      </trkpt>
      <trkpt lat="45.05095" lon="6.14306">
        <ele>1189.5</ele>
        <time>2022-09-03T14:42:08Z</time>
      </trkpt>
      <trkpt lat="45.05087" lon="6.14305">
        <ele>1189.3</ele>
        <time>2022-09-03T14:42:13Z</time>
      </trkpt>
      <trkpt lat="45.0508" lon="6.14305">
        <ele>1187.8</ele>
        <time>2022-09-03T14:42:18Z</time>
      </trkpt>
      <trkpt lat="45.05073" lon="6.14306">
        <ele>1184.8</ele>
        <time>2022-09-03T14:42:23Z</time>
      </trkpt>
      <trkpt lat="45.05066" lon="6.14307">
        <ele>1181.8</ele>
        <time>2022-09-03T14:42:29Z</time>
      </trkpt>
      <trkpt lat="45.05059" lon="6.14302">
        <ele>1178.6</ele>
        <time>2022-09-03T14:42:35Z</time>
      </trkpt>
      <trkpt lat="45.05051" lon="6.14299">
        <ele>1175.1</ele>
        <time>2022-09-03T14:42:40Z</time>
      </trkpt>
      <trkpt lat="45.05045" lon="6.14291">
        <ele>1172.4</ele>
        <time>2022-09-03T14:42:45Z</time>
      </trkpt>
      <trkpt lat="45.05039" lon="6.14288">
        <ele>1169.8</ele>
        <time>2022-09-03T14:42:51Z</time>
      </trkpt>
      <trkpt lat="45.05033" lon="6.14285">
        <ele>1167.3</ele>
        <time>2022-09-03T14:42:56Z</time>
      </trkpt>
      <trkpt lat="45.05025" lon="6.14284">
        <ele>1164.1</ele>
        <time>2022-09-03T14:43:01Z</time>
      </trkpt>
      <trkpt lat="45.05018" lon="6.14281">
        <ele>1161.2</ele>
        <time>2022-09-03T14:43:09Z</time>
      </trkpt>
      <trkpt lat="45.05013" lon="6.14276">
        <ele>1159.3</ele>
        <time>2022-09-03T14:43:21Z</time>
      </trkpt>
      <trkpt lat="45.05017" lon="6.14268">
        <ele>1161</ele>
        <time>2022-09-03T14:44:41Z</time>
      </trkpt>
      <trkpt lat="45.05015" lon="6.14258">
        <ele>1160.4</ele>
        <time>2022-09-03T14:44:48Z</time>
      </trkpt>
      <trkpt lat="45.05018" lon="6.14249">
        <ele>1161.8</ele>
        <time>2022-09-03T14:44:55Z</time>
      </trkpt>
      <trkpt lat="45.05017" lon="6.14239">
        <ele>1162.2</ele>
        <time>2022-09-03T14:45:02Z</time>
      </trkpt>
      <trkpt lat="45.05014" lon="6.1423">
        <ele>1161.8</ele>
        <time>2022-09-03T14:45:09Z</time>
      </trkpt>
      <trkpt lat="45.05012" lon="6.1422">
        <ele>1161.8</ele>
        <time>2022-09-03T14:45:14Z</time>
      </trkpt>
      <trkpt lat="45.05011" lon="6.1421">
        <ele>1162.3</ele>
        <time>2022-09-03T14:45:26Z</time>
      </trkpt>
      <trkpt lat="45.05005" lon="6.14205">
        <ele>1160.5</ele>
        <time>2022-09-03T14:45:34Z</time>
      </trkpt>
      <trkpt lat="45.05004" lon="6.14196">
        <ele>1160.9</ele>
        <time>2022-09-03T14:45:43Z</time>
      </trkpt>
      <trkpt lat="45.0501" lon="6.14187">
        <ele>1163.7</ele>
        <time>2022-09-03T14:45:48Z</time>
      </trkpt>
      <trkpt lat="45.05007" lon="6.14178">
        <ele>1163.4</ele>
        <time>2022-09-03T14:45:54Z</time>
      </trkpt>
      <trkpt lat="45.04999" lon="6.14181">
        <ele>1160.1</ele>
        <time>2022-09-03T14:45:59Z</time>
      </trkpt>
      <trkpt lat="45.04993" lon="6.14168">
        <ele>1157</ele>
        <time>2022-09-03T14:46:18Z</time>
      </trkpt>
      <trkpt lat="45.04996" lon="6.1416">
        <ele>1159.2</ele>
        <time>2022-09-03T14:46:41Z</time>
      </trkpt>
      <trkpt lat="45.04992" lon="6.14153">
        <ele>1156.5</ele>
        <time>2022-09-03T14:46:50Z</time>
      </trkpt>
      <trkpt lat="45.0499" lon="6.14143">
        <ele>1155.3</ele>
        <time>2022-09-03T14:46:57Z</time>
      </trkpt>
      <trkpt lat="45.04987" lon="6.14134">
        <ele>1153.4</ele>
        <time>2022-09-03T14:47:04Z</time>
      </trkpt>
      <trkpt lat="45.04984" lon="6.14125">
        <ele>1151.5</ele>
        <time>2022-09-03T14:47:16Z</time>
      </trkpt>
      <trkpt lat="45.04977" lon="6.14125">
        <ele>1147</ele>
        <time>2022-09-03T14:47:44Z</time>
      </trkpt>
      <trkpt lat="45.04976" lon="6.14134">
        <ele>1146.1</ele>
        <time>2022-09-03T14:48:04Z</time>
      </trkpt>
      <trkpt lat="45.04974" lon="6.14144">
        <ele>1144.5</ele>
        <time>2022-09-03T14:48:10Z</time>
        <extensions>
          <visugpx:TrkExtension xmlns:visugpx="https://www.visugpx.com/editgpx/">
            <visugpx:node>1</visugpx:node>
            </visugpx:TrkExtension>
        </extensions>
      </trkpt>
    </trkseg>
  </trk>
</gpx>